<?xml version="1.0" encoding="UTF-8" standalone="no" ?>
<gpx xmlns="http://www.topografix.com/GPX/1/1" xmlns:xsi="http://www.w3.org/2001/XMLSchema-instance" xsi:schemaLocation="http://www.topografix.com/GPX/1/1 http://www.topografix.com/GPX/1/1/gpx.xsd" version="1.1" creator="VisuGPX - https://www.visugpx.com">
  <metadata>
    <name>Maisod-Vouglans belvédères</name>
  </metadata>
  <trk>
    <name><![CDATA[Maisod-Vouglans belvédères_1]]></name>
    <trkseg>
      <trkpt lat="46.478" lon="5.68546">
        <ele>536.6</ele>
        <time>2020-10-20T07:29:08Z</time>
      </trkpt>
      <trkpt lat="46.478" lon="5.68554">
        <ele>532.5</ele>
        <time>2020-10-20T07:30:19Z</time>
      </trkpt>
      <trkpt lat="46.47799" lon="5.68562">
        <ele>532.2</ele>
        <time>2020-10-20T07:30:23Z</time>
      </trkpt>
      <trkpt lat="46.47799" lon="5.68569">
        <ele>532.3</ele>
        <time>2020-10-20T07:30:27Z</time>
      </trkpt>
      <trkpt lat="46.478" lon="5.68576">
        <ele>531.7</ele>
        <time>2020-10-20T07:30:33Z</time>
      </trkpt>
      <trkpt lat="46.47801" lon="5.68583">
        <ele>531.8</ele>
        <time>2020-10-20T07:30:39Z</time>
      </trkpt>
      <trkpt lat="46.47802" lon="5.6859">
        <ele>532.7</ele>
        <time>2020-10-20T07:30:44Z</time>
      </trkpt>
      <trkpt lat="46.47804" lon="5.68596">
        <ele>536.1</ele>
        <time>2020-10-20T07:30:50Z</time>
      </trkpt>
      <trkpt lat="46.47807" lon="5.68602">
        <ele>538.4</ele>
        <time>2020-10-20T07:31:03Z</time>
      </trkpt>
      <trkpt lat="46.4781" lon="5.68609">
        <ele>538.5</ele>
        <time>2020-10-20T07:31:07Z</time>
      </trkpt>
      <trkpt lat="46.47813" lon="5.68614">
        <ele>538.2</ele>
        <time>2020-10-20T07:31:12Z</time>
      </trkpt>
      <trkpt lat="46.47816" lon="5.68621">
        <ele>536.8</ele>
        <time>2020-10-20T07:31:18Z</time>
      </trkpt>
      <trkpt lat="46.47819" lon="5.68626">
        <ele>534.2</ele>
        <time>2020-10-20T07:31:24Z</time>
      </trkpt>
      <trkpt lat="46.47823" lon="5.68631">
        <ele>531.9</ele>
        <time>2020-10-20T07:31:30Z</time>
      </trkpt>
      <trkpt lat="46.47826" lon="5.68636">
        <ele>530.8</ele>
        <time>2020-10-20T07:31:35Z</time>
      </trkpt>
      <trkpt lat="46.47829" lon="5.68641">
        <ele>530.4</ele>
        <time>2020-10-20T07:31:39Z</time>
      </trkpt>
      <trkpt lat="46.47832" lon="5.68649">
        <ele>529.9</ele>
        <time>2020-10-20T07:31:44Z</time>
      </trkpt>
      <trkpt lat="46.47834" lon="5.68655">
        <ele>529.6</ele>
        <time>2020-10-20T07:31:48Z</time>
      </trkpt>
      <trkpt lat="46.47837" lon="5.68661">
        <ele>529.4</ele>
        <time>2020-10-20T07:31:53Z</time>
      </trkpt>
      <trkpt lat="46.47839" lon="5.68668">
        <ele>530.1</ele>
        <time>2020-10-20T07:31:58Z</time>
      </trkpt>
      <trkpt lat="46.47837" lon="5.68674">
        <ele>532.1</ele>
        <time>2020-10-20T07:32:03Z</time>
      </trkpt>
      <trkpt lat="46.47833" lon="5.68679">
        <ele>534.3</ele>
        <time>2020-10-20T07:32:08Z</time>
      </trkpt>
      <trkpt lat="46.4783" lon="5.68684">
        <ele>535.6</ele>
        <time>2020-10-20T07:32:11Z</time>
      </trkpt>
      <trkpt lat="46.47827" lon="5.68689">
        <ele>536.9</ele>
        <time>2020-10-20T07:32:15Z</time>
      </trkpt>
      <trkpt lat="46.47828" lon="5.68696">
        <ele>536.7</ele>
        <time>2020-10-20T07:32:25Z</time>
      </trkpt>
      <trkpt lat="46.47831" lon="5.68701">
        <ele>534.6</ele>
        <time>2020-10-20T07:32:33Z</time>
      </trkpt>
      <trkpt lat="46.47833" lon="5.68708">
        <ele>533.6</ele>
        <time>2020-10-20T07:32:38Z</time>
      </trkpt>
      <trkpt lat="46.47836" lon="5.68714">
        <ele>532.5</ele>
        <time>2020-10-20T07:32:44Z</time>
      </trkpt>
      <trkpt lat="46.47839" lon="5.6872">
        <ele>532.5</ele>
        <time>2020-10-20T07:32:48Z</time>
      </trkpt>
      <trkpt lat="46.47842" lon="5.68726">
        <ele>532.6</ele>
        <time>2020-10-20T07:32:52Z</time>
      </trkpt>
      <trkpt lat="46.47844" lon="5.68731">
        <ele>532.8</ele>
        <time>2020-10-20T07:32:56Z</time>
      </trkpt>
      <trkpt lat="46.47848" lon="5.68736">
        <ele>532.5</ele>
        <time>2020-10-20T07:33:00Z</time>
      </trkpt>
      <trkpt lat="46.47853" lon="5.68737">
        <ele>529.9</ele>
        <time>2020-10-20T07:33:12Z</time>
      </trkpt>
      <trkpt lat="46.47851" lon="5.68731">
        <ele>527.1</ele>
        <time>2020-10-20T07:33:26Z</time>
      </trkpt>
      <trkpt lat="46.47851" lon="5.68738">
        <ele>525.8</ele>
        <time>2020-10-20T07:33:37Z</time>
      </trkpt>
      <trkpt lat="46.47856" lon="5.68743">
        <ele>525.3</ele>
        <time>2020-10-20T07:33:41Z</time>
      </trkpt>
      <trkpt lat="46.4786" lon="5.68748">
        <ele>525.1</ele>
        <time>2020-10-20T07:33:45Z</time>
      </trkpt>
      <trkpt lat="46.47864" lon="5.68751">
        <ele>524.9</ele>
        <time>2020-10-20T07:33:50Z</time>
      </trkpt>
      <trkpt lat="46.47868" lon="5.68756">
        <ele>524.7</ele>
        <time>2020-10-20T07:33:55Z</time>
      </trkpt>
      <trkpt lat="46.4787" lon="5.68763">
        <ele>524.4</ele>
        <time>2020-10-20T07:33:59Z</time>
      </trkpt>
      <trkpt lat="46.47868" lon="5.6877">
        <ele>524</ele>
        <time>2020-10-20T07:34:04Z</time>
      </trkpt>
      <trkpt lat="46.47871" lon="5.68775">
        <ele>521.3</ele>
        <time>2020-10-20T07:34:35Z</time>
      </trkpt>
      <trkpt lat="46.47876" lon="5.68777">
        <ele>520.8</ele>
        <time>2020-10-20T07:34:40Z</time>
      </trkpt>
      <trkpt lat="46.4788" lon="5.6878">
        <ele>520</ele>
        <time>2020-10-20T07:34:45Z</time>
      </trkpt>
      <trkpt lat="46.47885" lon="5.68781">
        <ele>519.1</ele>
        <time>2020-10-20T07:34:50Z</time>
      </trkpt>
      <trkpt lat="46.4789" lon="5.68781">
        <ele>517.8</ele>
        <time>2020-10-20T07:34:55Z</time>
      </trkpt>
      <trkpt lat="46.47895" lon="5.68779">
        <ele>516.6</ele>
        <time>2020-10-20T07:35:00Z</time>
      </trkpt>
      <trkpt lat="46.479" lon="5.68778">
        <ele>515.7</ele>
        <time>2020-10-20T07:35:06Z</time>
      </trkpt>
      <trkpt lat="46.47905" lon="5.68776">
        <ele>515.2</ele>
        <time>2020-10-20T07:35:12Z</time>
      </trkpt>
      <trkpt lat="46.4791" lon="5.68774">
        <ele>515.2</ele>
        <time>2020-10-20T07:35:17Z</time>
      </trkpt>
      <trkpt lat="46.47915" lon="5.68774">
        <ele>515.7</ele>
        <time>2020-10-20T07:35:22Z</time>
      </trkpt>
      <trkpt lat="46.4792" lon="5.68773">
        <ele>516.5</ele>
        <time>2020-10-20T07:35:26Z</time>
      </trkpt>
      <trkpt lat="46.47924" lon="5.68769">
        <ele>517.3</ele>
        <time>2020-10-20T07:35:30Z</time>
      </trkpt>
      <trkpt lat="46.47929" lon="5.68766">
        <ele>518.3</ele>
        <time>2020-10-20T07:35:35Z</time>
      </trkpt>
      <trkpt lat="46.47934" lon="5.68764">
        <ele>518.8</ele>
        <time>2020-10-20T07:35:40Z</time>
      </trkpt>
      <trkpt lat="46.47938" lon="5.68761">
        <ele>517.9</ele>
        <time>2020-10-20T07:35:46Z</time>
      </trkpt>
      <trkpt lat="46.4794" lon="5.68755">
        <ele>516.8</ele>
        <time>2020-10-20T07:35:50Z</time>
      </trkpt>
      <trkpt lat="46.47944" lon="5.68752">
        <ele>514.7</ele>
        <time>2020-10-20T07:35:56Z</time>
      </trkpt>
      <trkpt lat="46.47949" lon="5.68749">
        <ele>512.9</ele>
        <time>2020-10-20T07:36:01Z</time>
      </trkpt>
      <trkpt lat="46.47953" lon="5.68746">
        <ele>511</ele>
        <time>2020-10-20T07:36:07Z</time>
      </trkpt>
      <trkpt lat="46.47957" lon="5.68743">
        <ele>509.8</ele>
        <time>2020-10-20T07:36:11Z</time>
      </trkpt>
      <trkpt lat="46.47961" lon="5.68739">
        <ele>508.7</ele>
        <time>2020-10-20T07:36:17Z</time>
      </trkpt>
      <trkpt lat="46.47966" lon="5.68735">
        <ele>508</ele>
        <time>2020-10-20T07:36:23Z</time>
      </trkpt>
      <trkpt lat="46.4797" lon="5.68732">
        <ele>507.5</ele>
        <time>2020-10-20T07:36:27Z</time>
      </trkpt>
      <trkpt lat="46.47974" lon="5.6873">
        <ele>507.4</ele>
        <time>2020-10-20T07:36:32Z</time>
      </trkpt>
      <trkpt lat="46.47979" lon="5.68728">
        <ele>507.1</ele>
        <time>2020-10-20T07:36:37Z</time>
      </trkpt>
      <trkpt lat="46.47984" lon="5.68728">
        <ele>506.5</ele>
        <time>2020-10-20T07:36:40Z</time>
      </trkpt>
      <trkpt lat="46.47989" lon="5.68728">
        <ele>506</ele>
        <time>2020-10-20T07:36:44Z</time>
      </trkpt>
      <trkpt lat="46.47994" lon="5.68728">
        <ele>505.9</ele>
        <time>2020-10-20T07:36:51Z</time>
      </trkpt>
      <trkpt lat="46.47999" lon="5.68729">
        <ele>506.5</ele>
        <time>2020-10-20T07:36:55Z</time>
      </trkpt>
      <trkpt lat="46.48004" lon="5.68728">
        <ele>507.8</ele>
        <time>2020-10-20T07:37:00Z</time>
      </trkpt>
      <trkpt lat="46.48009" lon="5.68727">
        <ele>510</ele>
        <time>2020-10-20T07:37:08Z</time>
      </trkpt>
      <trkpt lat="46.48014" lon="5.68726">
        <ele>511.1</ele>
        <time>2020-10-20T07:37:13Z</time>
      </trkpt>
      <trkpt lat="46.48019" lon="5.68726">
        <ele>511.9</ele>
        <time>2020-10-20T07:37:17Z</time>
      </trkpt>
      <trkpt lat="46.48024" lon="5.68727">
        <ele>512.7</ele>
        <time>2020-10-20T07:37:22Z</time>
      </trkpt>
      <trkpt lat="46.48029" lon="5.68727">
        <ele>512</ele>
        <time>2020-10-20T07:37:30Z</time>
      </trkpt>
      <trkpt lat="46.48033" lon="5.68726">
        <ele>508.5</ele>
        <time>2020-10-20T07:37:38Z</time>
      </trkpt>
      <trkpt lat="46.48038" lon="5.68726">
        <ele>505.8</ele>
        <time>2020-10-20T07:37:44Z</time>
      </trkpt>
      <trkpt lat="46.48043" lon="5.68725">
        <ele>504.1</ele>
        <time>2020-10-20T07:37:49Z</time>
      </trkpt>
      <trkpt lat="46.48048" lon="5.68722">
        <ele>502.4</ele>
        <time>2020-10-20T07:37:52Z</time>
      </trkpt>
      <trkpt lat="46.48053" lon="5.68722">
        <ele>500.9</ele>
        <time>2020-10-20T07:37:57Z</time>
      </trkpt>
      <trkpt lat="46.48058" lon="5.68721">
        <ele>499.7</ele>
        <time>2020-10-20T07:38:02Z</time>
      </trkpt>
      <trkpt lat="46.48063" lon="5.68719">
        <ele>498.7</ele>
        <time>2020-10-20T07:38:06Z</time>
      </trkpt>
      <trkpt lat="46.48067" lon="5.68717">
        <ele>497.7</ele>
        <time>2020-10-20T07:38:10Z</time>
      </trkpt>
      <trkpt lat="46.48072" lon="5.68715">
        <ele>496.9</ele>
        <time>2020-10-20T07:38:14Z</time>
      </trkpt>
      <trkpt lat="46.48076" lon="5.68711">
        <ele>495.1</ele>
        <time>2020-10-20T07:38:17Z</time>
      </trkpt>
      <trkpt lat="46.4808" lon="5.68706">
        <ele>492.6</ele>
        <time>2020-10-20T07:38:21Z</time>
      </trkpt>
      <trkpt lat="46.48083" lon="5.687">
        <ele>490</ele>
        <time>2020-10-20T07:38:26Z</time>
      </trkpt>
      <trkpt lat="46.48087" lon="5.68697">
        <ele>487.2</ele>
        <time>2020-10-20T07:38:32Z</time>
      </trkpt>
      <trkpt lat="46.48091" lon="5.68695">
        <ele>486</ele>
        <time>2020-10-20T07:38:35Z</time>
      </trkpt>
      <trkpt lat="46.48095" lon="5.68693">
        <ele>484.5</ele>
        <time>2020-10-20T07:38:39Z</time>
      </trkpt>
      <trkpt lat="46.48099" lon="5.68688">
        <ele>483</ele>
        <time>2020-10-20T07:38:45Z</time>
      </trkpt>
      <trkpt lat="46.48103" lon="5.68682">
        <ele>482.2</ele>
        <time>2020-10-20T07:38:51Z</time>
      </trkpt>
      <trkpt lat="46.48107" lon="5.68677">
        <ele>481.8</ele>
        <time>2020-10-20T07:38:57Z</time>
      </trkpt>
      <trkpt lat="46.4811" lon="5.6867">
        <ele>481</ele>
        <time>2020-10-20T07:39:02Z</time>
      </trkpt>
      <trkpt lat="46.48111" lon="5.68664">
        <ele>479.7</ele>
        <time>2020-10-20T07:39:07Z</time>
      </trkpt>
      <trkpt lat="46.48113" lon="5.68657">
        <ele>478</ele>
        <time>2020-10-20T07:39:12Z</time>
      </trkpt>
      <trkpt lat="46.48117" lon="5.68651">
        <ele>476</ele>
        <time>2020-10-20T07:39:17Z</time>
      </trkpt>
      <trkpt lat="46.4812" lon="5.68646">
        <ele>473.8</ele>
        <time>2020-10-20T07:39:23Z</time>
      </trkpt>
      <trkpt lat="46.48124" lon="5.6864">
        <ele>472.3</ele>
        <time>2020-10-20T07:39:28Z</time>
      </trkpt>
      <trkpt lat="46.48127" lon="5.68635">
        <ele>471.1</ele>
        <time>2020-10-20T07:39:32Z</time>
      </trkpt>
      <trkpt lat="46.4813" lon="5.68629">
        <ele>470.2</ele>
        <time>2020-10-20T07:39:36Z</time>
      </trkpt>
      <trkpt lat="46.48134" lon="5.68624">
        <ele>469.6</ele>
        <time>2020-10-20T07:39:40Z</time>
      </trkpt>
      <trkpt lat="46.4814" lon="5.68621">
        <ele>469.1</ele>
        <time>2020-10-20T07:39:44Z</time>
      </trkpt>
      <trkpt lat="46.48144" lon="5.6862">
        <ele>469.1</ele>
        <time>2020-10-20T07:39:49Z</time>
      </trkpt>
      <trkpt lat="46.48139" lon="5.68619">
        <ele>473.2</ele>
        <time>2020-10-20T07:41:15Z</time>
      </trkpt>
      <trkpt lat="46.48133" lon="5.6862">
        <ele>476.3</ele>
        <time>2020-10-20T07:41:25Z</time>
      </trkpt>
      <trkpt lat="46.48132" lon="5.68613">
        <ele>477</ele>
        <time>2020-10-20T07:41:32Z</time>
      </trkpt>
      <trkpt lat="46.48133" lon="5.68606">
        <ele>477.5</ele>
        <time>2020-10-20T07:41:37Z</time>
      </trkpt>
      <trkpt lat="46.48133" lon="5.68599">
        <ele>478.2</ele>
        <time>2020-10-20T07:41:43Z</time>
      </trkpt>
      <trkpt lat="46.4813" lon="5.68593">
        <ele>478.7</ele>
        <time>2020-10-20T07:41:47Z</time>
      </trkpt>
      <trkpt lat="46.48127" lon="5.68587">
        <ele>479.3</ele>
        <time>2020-10-20T07:41:52Z</time>
      </trkpt>
      <trkpt lat="46.48124" lon="5.68581">
        <ele>479.7</ele>
        <time>2020-10-20T07:41:56Z</time>
      </trkpt>
      <trkpt lat="46.4812" lon="5.68576">
        <ele>479.9</ele>
        <time>2020-10-20T07:42:00Z</time>
      </trkpt>
      <trkpt lat="46.48117" lon="5.68571">
        <ele>479.9</ele>
        <time>2020-10-20T07:42:05Z</time>
      </trkpt>
      <trkpt lat="46.48113" lon="5.68566">
        <ele>479.9</ele>
        <time>2020-10-20T07:42:10Z</time>
      </trkpt>
      <trkpt lat="46.4811" lon="5.6856">
        <ele>479.9</ele>
        <time>2020-10-20T07:42:14Z</time>
      </trkpt>
      <trkpt lat="46.48108" lon="5.68555">
        <ele>480</ele>
        <time>2020-10-20T07:42:19Z</time>
      </trkpt>
      <trkpt lat="46.48106" lon="5.68548">
        <ele>480.1</ele>
        <time>2020-10-20T07:42:24Z</time>
      </trkpt>
      <trkpt lat="46.48104" lon="5.68541">
        <ele>480.2</ele>
        <time>2020-10-20T07:42:30Z</time>
      </trkpt>
      <trkpt lat="46.48102" lon="5.68534">
        <ele>479.9</ele>
        <time>2020-10-20T07:42:37Z</time>
      </trkpt>
      <trkpt lat="46.48099" lon="5.68531">
        <ele>479.2</ele>
        <time>2020-10-20T07:42:45Z</time>
      </trkpt>
      <trkpt lat="46.48095" lon="5.68526">
        <ele>478.1</ele>
        <time>2020-10-20T07:42:52Z</time>
      </trkpt>
      <trkpt lat="46.48086" lon="5.68524">
        <ele>476.8</ele>
        <time>2020-10-20T07:42:54Z</time>
      </trkpt>
      <trkpt lat="46.48081" lon="5.68523">
        <ele>475.5</ele>
        <time>2020-10-20T07:42:56Z</time>
      </trkpt>
      <trkpt lat="46.48076" lon="5.68523">
        <ele>473.6</ele>
        <time>2020-10-20T07:43:00Z</time>
      </trkpt>
      <trkpt lat="46.48071" lon="5.68522">
        <ele>471</ele>
        <time>2020-10-20T07:43:09Z</time>
      </trkpt>
      <trkpt lat="46.48066" lon="5.68522">
        <ele>469.7</ele>
        <time>2020-10-20T07:43:14Z</time>
      </trkpt>
      <trkpt lat="46.48062" lon="5.6852">
        <ele>468.5</ele>
        <time>2020-10-20T07:43:19Z</time>
      </trkpt>
      <trkpt lat="46.48056" lon="5.68519">
        <ele>467.5</ele>
        <time>2020-10-20T07:43:24Z</time>
      </trkpt>
      <trkpt lat="46.48051" lon="5.68518">
        <ele>466.7</ele>
        <time>2020-10-20T07:43:29Z</time>
      </trkpt>
      <trkpt lat="46.48046" lon="5.68516">
        <ele>465.8</ele>
        <time>2020-10-20T07:43:33Z</time>
      </trkpt>
      <trkpt lat="46.48041" lon="5.68516">
        <ele>464.8</ele>
        <time>2020-10-20T07:43:37Z</time>
      </trkpt>
      <trkpt lat="46.48038" lon="5.68511">
        <ele>463.5</ele>
        <time>2020-10-20T07:43:44Z</time>
      </trkpt>
      <trkpt lat="46.48035" lon="5.68506">
        <ele>462.7</ele>
        <time>2020-10-20T07:43:50Z</time>
      </trkpt>
      <trkpt lat="46.48032" lon="5.685">
        <ele>462.2</ele>
        <time>2020-10-20T07:43:57Z</time>
      </trkpt>
      <trkpt lat="46.48029" lon="5.68493">
        <ele>462</ele>
        <time>2020-10-20T07:44:01Z</time>
      </trkpt>
      <trkpt lat="46.48026" lon="5.68486">
        <ele>462</ele>
        <time>2020-10-20T07:44:04Z</time>
      </trkpt>
      <trkpt lat="46.48023" lon="5.6848">
        <ele>461.9</ele>
        <time>2020-10-20T07:44:07Z</time>
      </trkpt>
      <trkpt lat="46.48022" lon="5.68473">
        <ele>461.2</ele>
        <time>2020-10-20T07:44:12Z</time>
      </trkpt>
      <trkpt lat="46.48021" lon="5.68466">
        <ele>460.2</ele>
        <time>2020-10-20T07:44:17Z</time>
      </trkpt>
      <trkpt lat="46.48023" lon="5.6846">
        <ele>459.4</ele>
        <time>2020-10-20T07:44:21Z</time>
      </trkpt>
      <trkpt lat="46.48025" lon="5.68454">
        <ele>458.5</ele>
        <time>2020-10-20T07:44:25Z</time>
      </trkpt>
      <trkpt lat="46.48027" lon="5.68447">
        <ele>458</ele>
        <time>2020-10-20T07:44:29Z</time>
      </trkpt>
      <trkpt lat="46.48026" lon="5.6844">
        <ele>457.7</ele>
        <time>2020-10-20T07:44:33Z</time>
      </trkpt>
      <trkpt lat="46.48028" lon="5.68433">
        <ele>456.4</ele>
        <time>2020-10-20T07:44:40Z</time>
      </trkpt>
      <trkpt lat="46.4803" lon="5.68426">
        <ele>454.9</ele>
        <time>2020-10-20T07:44:45Z</time>
      </trkpt>
      <trkpt lat="46.48033" lon="5.6842">
        <ele>453.1</ele>
        <time>2020-10-20T07:44:51Z</time>
      </trkpt>
      <trkpt lat="46.48037" lon="5.68415">
        <ele>452.1</ele>
        <time>2020-10-20T07:44:56Z</time>
      </trkpt>
      <trkpt lat="46.48033" lon="5.68397">
        <ele>454.2</ele>
        <time>2020-10-20T07:44:58Z</time>
      </trkpt>
      <trkpt lat="46.48033" lon="5.68388">
        <ele>455.1</ele>
        <time>2020-10-20T07:45:00Z</time>
      </trkpt>
      <trkpt lat="46.48035" lon="5.68382">
        <ele>456</ele>
        <time>2020-10-20T07:45:03Z</time>
      </trkpt>
      <trkpt lat="46.48038" lon="5.68377">
        <ele>456.6</ele>
        <time>2020-10-20T07:45:07Z</time>
      </trkpt>
      <trkpt lat="46.48042" lon="5.68372">
        <ele>456.7</ele>
        <time>2020-10-20T07:45:11Z</time>
      </trkpt>
      <trkpt lat="46.48046" lon="5.68368">
        <ele>456.5</ele>
        <time>2020-10-20T07:45:15Z</time>
      </trkpt>
      <trkpt lat="46.48049" lon="5.68363">
        <ele>456.1</ele>
        <time>2020-10-20T07:45:19Z</time>
      </trkpt>
      <trkpt lat="46.48054" lon="5.68359">
        <ele>455.4</ele>
        <time>2020-10-20T07:45:24Z</time>
      </trkpt>
      <trkpt lat="46.48058" lon="5.68354">
        <ele>454.6</ele>
        <time>2020-10-20T07:45:29Z</time>
      </trkpt>
      <trkpt lat="46.48061" lon="5.68348">
        <ele>453.9</ele>
        <time>2020-10-20T07:45:34Z</time>
      </trkpt>
      <trkpt lat="46.48064" lon="5.68343">
        <ele>453.1</ele>
        <time>2020-10-20T07:45:39Z</time>
      </trkpt>
      <trkpt lat="46.48066" lon="5.68337">
        <ele>452.2</ele>
        <time>2020-10-20T07:45:44Z</time>
      </trkpt>
      <trkpt lat="46.48069" lon="5.68332">
        <ele>451.7</ele>
        <time>2020-10-20T07:45:48Z</time>
      </trkpt>
      <trkpt lat="46.48072" lon="5.68327">
        <ele>451</ele>
        <time>2020-10-20T07:45:54Z</time>
      </trkpt>
      <trkpt lat="46.48074" lon="5.6832">
        <ele>450.3</ele>
        <time>2020-10-20T07:46:00Z</time>
      </trkpt>
      <trkpt lat="46.48076" lon="5.68313">
        <ele>450.1</ele>
        <time>2020-10-20T07:46:07Z</time>
      </trkpt>
      <trkpt lat="46.48076" lon="5.68306">
        <ele>449.5</ele>
        <time>2020-10-20T07:46:12Z</time>
      </trkpt>
      <trkpt lat="46.48077" lon="5.68299">
        <ele>449.2</ele>
        <time>2020-10-20T07:46:17Z</time>
      </trkpt>
      <trkpt lat="46.48078" lon="5.68293">
        <ele>449.1</ele>
        <time>2020-10-20T07:46:22Z</time>
      </trkpt>
      <trkpt lat="46.48078" lon="5.68285">
        <ele>449</ele>
        <time>2020-10-20T07:46:27Z</time>
      </trkpt>
      <trkpt lat="46.48078" lon="5.68278">
        <ele>448.8</ele>
        <time>2020-10-20T07:46:31Z</time>
      </trkpt>
      <trkpt lat="46.48079" lon="5.6827">
        <ele>448.7</ele>
        <time>2020-10-20T07:46:35Z</time>
      </trkpt>
      <trkpt lat="46.48081" lon="5.68263">
        <ele>448.6</ele>
        <time>2020-10-20T07:46:40Z</time>
      </trkpt>
      <trkpt lat="46.48083" lon="5.68257">
        <ele>448.5</ele>
        <time>2020-10-20T07:46:44Z</time>
      </trkpt>
      <trkpt lat="46.48085" lon="5.68251">
        <ele>448.4</ele>
        <time>2020-10-20T07:46:49Z</time>
      </trkpt>
      <trkpt lat="46.48087" lon="5.68245">
        <ele>448.4</ele>
        <time>2020-10-20T07:46:56Z</time>
      </trkpt>
      <trkpt lat="46.48087" lon="5.68238">
        <ele>447.8</ele>
        <time>2020-10-20T07:47:06Z</time>
      </trkpt>
      <trkpt lat="46.48087" lon="5.68232">
        <ele>449.3</ele>
        <time>2020-10-20T07:47:21Z</time>
      </trkpt>
      <trkpt lat="46.48085" lon="5.68226">
        <ele>448.2</ele>
        <time>2020-10-20T07:47:28Z</time>
      </trkpt>
      <trkpt lat="46.48081" lon="5.68221">
        <ele>446.8</ele>
        <time>2020-10-20T07:47:32Z</time>
      </trkpt>
      <trkpt lat="46.48078" lon="5.68216">
        <ele>445.2</ele>
        <time>2020-10-20T07:47:37Z</time>
      </trkpt>
      <trkpt lat="46.48075" lon="5.68209">
        <ele>444.3</ele>
        <time>2020-10-20T07:47:42Z</time>
      </trkpt>
      <trkpt lat="46.48072" lon="5.68204">
        <ele>444.1</ele>
        <time>2020-10-20T07:47:46Z</time>
      </trkpt>
      <trkpt lat="46.4807" lon="5.68197">
        <ele>445</ele>
        <time>2020-10-20T07:47:51Z</time>
      </trkpt>
      <trkpt lat="46.48066" lon="5.68191">
        <ele>445.4</ele>
        <time>2020-10-20T07:47:55Z</time>
      </trkpt>
      <trkpt lat="46.48062" lon="5.68187">
        <ele>445.2</ele>
        <time>2020-10-20T07:47:58Z</time>
      </trkpt>
      <trkpt lat="46.48057" lon="5.68182">
        <ele>444.9</ele>
        <time>2020-10-20T07:48:02Z</time>
      </trkpt>
      <trkpt lat="46.48054" lon="5.68176">
        <ele>445</ele>
        <time>2020-10-20T07:48:07Z</time>
      </trkpt>
      <trkpt lat="46.48052" lon="5.6817">
        <ele>445.5</ele>
        <time>2020-10-20T07:48:12Z</time>
      </trkpt>
      <trkpt lat="46.48049" lon="5.68164">
        <ele>446.7</ele>
        <time>2020-10-20T07:48:17Z</time>
      </trkpt>
      <trkpt lat="46.48045" lon="5.6816">
        <ele>447.5</ele>
        <time>2020-10-20T07:48:22Z</time>
      </trkpt>
      <trkpt lat="46.48043" lon="5.68154">
        <ele>448</ele>
        <time>2020-10-20T07:48:25Z</time>
      </trkpt>
      <trkpt lat="46.48041" lon="5.68148">
        <ele>448.5</ele>
        <time>2020-10-20T07:48:28Z</time>
      </trkpt>
      <trkpt lat="46.48038" lon="5.68141">
        <ele>449</ele>
        <time>2020-10-20T07:48:32Z</time>
      </trkpt>
      <trkpt lat="46.48038" lon="5.68134">
        <ele>449.5</ele>
        <time>2020-10-20T07:48:38Z</time>
      </trkpt>
      <trkpt lat="46.48035" lon="5.68129">
        <ele>449.3</ele>
        <time>2020-10-20T07:48:43Z</time>
      </trkpt>
      <trkpt lat="46.4803" lon="5.68126">
        <ele>448.9</ele>
        <time>2020-10-20T07:48:47Z</time>
      </trkpt>
      <trkpt lat="46.48027" lon="5.68122">
        <ele>448.9</ele>
        <time>2020-10-20T07:48:50Z</time>
      </trkpt>
      <trkpt lat="46.48024" lon="5.68117">
        <ele>448.6</ele>
        <time>2020-10-20T07:48:55Z</time>
      </trkpt>
      <trkpt lat="46.4802" lon="5.68114">
        <ele>449.1</ele>
        <time>2020-10-20T07:49:02Z</time>
      </trkpt>
      <trkpt lat="46.48016" lon="5.68112">
        <ele>449.8</ele>
        <time>2020-10-20T07:49:07Z</time>
      </trkpt>
      <trkpt lat="46.48012" lon="5.68108">
        <ele>450.8</ele>
        <time>2020-10-20T07:49:14Z</time>
      </trkpt>
      <trkpt lat="46.48008" lon="5.68102">
        <ele>448.8</ele>
        <time>2020-10-20T07:49:18Z</time>
      </trkpt>
      <trkpt lat="46.48003" lon="5.68096">
        <ele>448.1</ele>
        <time>2020-10-20T07:49:21Z</time>
      </trkpt>
      <trkpt lat="46.47999" lon="5.68092">
        <ele>447.5</ele>
        <time>2020-10-20T07:49:26Z</time>
      </trkpt>
      <trkpt lat="46.47995" lon="5.68089">
        <ele>448</ele>
        <time>2020-10-20T07:49:32Z</time>
      </trkpt>
      <trkpt lat="46.4799" lon="5.68088">
        <ele>448.4</ele>
        <time>2020-10-20T07:49:44Z</time>
      </trkpt>
      <trkpt lat="46.47987" lon="5.68084">
        <ele>449.6</ele>
        <time>2020-10-20T07:49:52Z</time>
      </trkpt>
      <trkpt lat="46.47982" lon="5.68081">
        <ele>451.8</ele>
        <time>2020-10-20T07:50:00Z</time>
      </trkpt>
      <trkpt lat="46.47977" lon="5.68079">
        <ele>452.9</ele>
        <time>2020-10-20T07:50:03Z</time>
      </trkpt>
      <trkpt lat="46.47973" lon="5.68074">
        <ele>454.6</ele>
        <time>2020-10-20T07:50:10Z</time>
      </trkpt>
      <trkpt lat="46.4797" lon="5.6807">
        <ele>454.9</ele>
        <time>2020-10-20T07:50:14Z</time>
      </trkpt>
      <trkpt lat="46.47966" lon="5.68067">
        <ele>455.2</ele>
        <time>2020-10-20T07:50:18Z</time>
      </trkpt>
      <trkpt lat="46.47962" lon="5.68063">
        <ele>455.6</ele>
        <time>2020-10-20T07:50:23Z</time>
      </trkpt>
      <trkpt lat="46.47957" lon="5.68059">
        <ele>455.9</ele>
        <time>2020-10-20T07:50:27Z</time>
      </trkpt>
      <trkpt lat="46.47953" lon="5.68056">
        <ele>456.3</ele>
        <time>2020-10-20T07:50:33Z</time>
      </trkpt>
      <trkpt lat="46.47949" lon="5.68052">
        <ele>456.5</ele>
        <time>2020-10-20T07:50:40Z</time>
      </trkpt>
      <trkpt lat="46.47946" lon="5.68045">
        <ele>457.2</ele>
        <time>2020-10-20T07:50:47Z</time>
      </trkpt>
      <trkpt lat="46.47943" lon="5.6804">
        <ele>458.1</ele>
        <time>2020-10-20T07:50:53Z</time>
      </trkpt>
      <trkpt lat="46.4794" lon="5.68034">
        <ele>458.2</ele>
        <time>2020-10-20T07:50:57Z</time>
      </trkpt>
      <trkpt lat="46.47937" lon="5.68029">
        <ele>458.2</ele>
        <time>2020-10-20T07:51:02Z</time>
      </trkpt>
      <trkpt lat="46.47933" lon="5.68024">
        <ele>458</ele>
        <time>2020-10-20T07:51:06Z</time>
      </trkpt>
      <trkpt lat="46.47929" lon="5.68019">
        <ele>457.8</ele>
        <time>2020-10-20T07:51:10Z</time>
      </trkpt>
      <trkpt lat="46.47926" lon="5.68013">
        <ele>457.4</ele>
        <time>2020-10-20T07:51:15Z</time>
      </trkpt>
      <trkpt lat="46.47923" lon="5.68008">
        <ele>457</ele>
        <time>2020-10-20T07:51:20Z</time>
      </trkpt>
      <trkpt lat="46.47919" lon="5.68004">
        <ele>456.7</ele>
        <time>2020-10-20T07:51:25Z</time>
      </trkpt>
      <trkpt lat="46.47917" lon="5.67998">
        <ele>457</ele>
        <time>2020-10-20T07:51:34Z</time>
      </trkpt>
      <trkpt lat="46.47914" lon="5.67994">
        <ele>456.5</ele>
        <time>2020-10-20T07:51:38Z</time>
      </trkpt>
      <trkpt lat="46.4791" lon="5.67989">
        <ele>455.2</ele>
        <time>2020-10-20T07:51:43Z</time>
      </trkpt>
      <trkpt lat="46.47907" lon="5.67983">
        <ele>453.7</ele>
        <time>2020-10-20T07:51:48Z</time>
      </trkpt>
      <trkpt lat="46.47902" lon="5.67974">
        <ele>453.8</ele>
        <time>2020-10-20T07:51:51Z</time>
      </trkpt>
      <trkpt lat="46.47899" lon="5.67969">
        <ele>453.7</ele>
        <time>2020-10-20T07:51:53Z</time>
      </trkpt>
      <trkpt lat="46.47895" lon="5.67964">
        <ele>453.7</ele>
        <time>2020-10-20T07:51:57Z</time>
      </trkpt>
      <trkpt lat="46.47891" lon="5.67959">
        <ele>453.1</ele>
        <time>2020-10-20T07:52:02Z</time>
      </trkpt>
      <trkpt lat="46.47887" lon="5.67956">
        <ele>452.4</ele>
        <time>2020-10-20T07:52:06Z</time>
      </trkpt>
      <trkpt lat="46.47883" lon="5.67952">
        <ele>451.5</ele>
        <time>2020-10-20T07:52:11Z</time>
      </trkpt>
      <trkpt lat="46.47878" lon="5.6795">
        <ele>450.5</ele>
        <time>2020-10-20T07:52:19Z</time>
      </trkpt>
      <trkpt lat="46.47873" lon="5.67948">
        <ele>449.9</ele>
        <time>2020-10-20T07:52:25Z</time>
      </trkpt>
      <trkpt lat="46.4787" lon="5.67944">
        <ele>449.8</ele>
        <time>2020-10-20T07:52:31Z</time>
      </trkpt>
      <trkpt lat="46.47866" lon="5.67939">
        <ele>449.6</ele>
        <time>2020-10-20T07:52:37Z</time>
      </trkpt>
      <trkpt lat="46.47861" lon="5.67939">
        <ele>449.3</ele>
        <time>2020-10-20T07:52:43Z</time>
      </trkpt>
      <trkpt lat="46.47856" lon="5.67939">
        <ele>449.1</ele>
        <time>2020-10-20T07:52:48Z</time>
      </trkpt>
      <trkpt lat="46.47851" lon="5.67939">
        <ele>448.7</ele>
        <time>2020-10-20T07:52:53Z</time>
      </trkpt>
      <trkpt lat="46.47845" lon="5.6794">
        <ele>448.6</ele>
        <time>2020-10-20T07:52:58Z</time>
      </trkpt>
      <trkpt lat="46.47841" lon="5.67943">
        <ele>448</ele>
        <time>2020-10-20T07:53:02Z</time>
      </trkpt>
      <trkpt lat="46.47837" lon="5.67947">
        <ele>447.2</ele>
        <time>2020-10-20T07:53:06Z</time>
      </trkpt>
      <trkpt lat="46.47832" lon="5.6795">
        <ele>446.1</ele>
        <time>2020-10-20T07:53:11Z</time>
      </trkpt>
      <trkpt lat="46.47828" lon="5.67951">
        <ele>445.2</ele>
        <time>2020-10-20T07:53:16Z</time>
      </trkpt>
      <trkpt lat="46.47823" lon="5.67953">
        <ele>444.5</ele>
        <time>2020-10-20T07:53:21Z</time>
      </trkpt>
      <trkpt lat="46.47818" lon="5.67954">
        <ele>443.9</ele>
        <time>2020-10-20T07:53:26Z</time>
      </trkpt>
      <trkpt lat="46.47813" lon="5.67955">
        <ele>443.6</ele>
        <time>2020-10-20T07:53:31Z</time>
      </trkpt>
      <trkpt lat="46.47809" lon="5.67954">
        <ele>443.8</ele>
        <time>2020-10-20T07:53:37Z</time>
      </trkpt>
      <trkpt lat="46.47804" lon="5.67952">
        <ele>444.2</ele>
        <time>2020-10-20T07:53:42Z</time>
      </trkpt>
      <trkpt lat="46.47799" lon="5.67951">
        <ele>444.5</ele>
        <time>2020-10-20T07:53:49Z</time>
      </trkpt>
      <trkpt lat="46.47794" lon="5.67953">
        <ele>444.7</ele>
        <time>2020-10-20T07:53:55Z</time>
      </trkpt>
      <trkpt lat="46.47788" lon="5.67953">
        <ele>444.9</ele>
        <time>2020-10-20T07:53:59Z</time>
      </trkpt>
      <trkpt lat="46.47784" lon="5.67954">
        <ele>445</ele>
        <time>2020-10-20T07:54:03Z</time>
      </trkpt>
      <trkpt lat="46.47778" lon="5.67955">
        <ele>445.1</ele>
        <time>2020-10-20T07:54:07Z</time>
      </trkpt>
      <trkpt lat="46.47773" lon="5.67955">
        <ele>445</ele>
        <time>2020-10-20T07:54:12Z</time>
      </trkpt>
      <trkpt lat="46.47768" lon="5.67954">
        <ele>445</ele>
        <time>2020-10-20T07:54:18Z</time>
      </trkpt>
      <trkpt lat="46.47763" lon="5.67954">
        <ele>444.8</ele>
        <time>2020-10-20T07:54:24Z</time>
      </trkpt>
      <trkpt lat="46.47758" lon="5.67951">
        <ele>444.5</ele>
        <time>2020-10-20T07:54:29Z</time>
      </trkpt>
      <trkpt lat="46.47754" lon="5.67949">
        <ele>444.4</ele>
        <time>2020-10-20T07:54:33Z</time>
      </trkpt>
      <trkpt lat="46.47749" lon="5.67947">
        <ele>444.1</ele>
        <time>2020-10-20T07:54:38Z</time>
      </trkpt>
      <trkpt lat="46.47744" lon="5.67945">
        <ele>443.6</ele>
        <time>2020-10-20T07:54:44Z</time>
      </trkpt>
      <trkpt lat="46.47739" lon="5.67942">
        <ele>442.6</ele>
        <time>2020-10-20T07:54:51Z</time>
      </trkpt>
      <trkpt lat="46.47734" lon="5.67941">
        <ele>441.6</ele>
        <time>2020-10-20T07:54:57Z</time>
      </trkpt>
      <trkpt lat="46.47721" lon="5.67936">
        <ele>447.3</ele>
        <time>2020-10-20T07:55:00Z</time>
      </trkpt>
      <trkpt lat="46.47713" lon="5.67934">
        <ele>449.9</ele>
        <time>2020-10-20T07:55:02Z</time>
      </trkpt>
      <trkpt lat="46.47708" lon="5.67932">
        <ele>453.8</ele>
        <time>2020-10-20T07:55:05Z</time>
      </trkpt>
      <trkpt lat="46.47703" lon="5.67931">
        <ele>456.9</ele>
        <time>2020-10-20T07:55:10Z</time>
      </trkpt>
      <trkpt lat="46.47699" lon="5.67931">
        <ele>457.8</ele>
        <time>2020-10-20T07:55:15Z</time>
      </trkpt>
      <trkpt lat="46.47694" lon="5.67933">
        <ele>457.5</ele>
        <time>2020-10-20T07:55:21Z</time>
      </trkpt>
      <trkpt lat="46.47689" lon="5.67934">
        <ele>457.4</ele>
        <time>2020-10-20T07:55:29Z</time>
      </trkpt>
      <trkpt lat="46.47684" lon="5.67933">
        <ele>457</ele>
        <time>2020-10-20T07:55:37Z</time>
      </trkpt>
      <trkpt lat="46.47679" lon="5.67932">
        <ele>455.2</ele>
        <time>2020-10-20T07:55:43Z</time>
      </trkpt>
      <trkpt lat="46.47673" lon="5.67932">
        <ele>452.8</ele>
        <time>2020-10-20T07:55:49Z</time>
      </trkpt>
      <trkpt lat="46.47668" lon="5.67932">
        <ele>453</ele>
        <time>2020-10-20T07:55:57Z</time>
      </trkpt>
      <trkpt lat="46.47664" lon="5.67932">
        <ele>453.2</ele>
        <time>2020-10-20T07:56:03Z</time>
      </trkpt>
      <trkpt lat="46.47659" lon="5.67934">
        <ele>452.8</ele>
        <time>2020-10-20T07:56:08Z</time>
      </trkpt>
      <trkpt lat="46.47654" lon="5.67935">
        <ele>453</ele>
        <time>2020-10-20T07:56:12Z</time>
      </trkpt>
      <trkpt lat="46.4765" lon="5.67937">
        <ele>453.2</ele>
        <time>2020-10-20T07:56:17Z</time>
      </trkpt>
      <trkpt lat="46.47645" lon="5.6794">
        <ele>453.7</ele>
        <time>2020-10-20T07:56:22Z</time>
      </trkpt>
      <trkpt lat="46.47639" lon="5.67939">
        <ele>454.4</ele>
        <time>2020-10-20T07:56:26Z</time>
      </trkpt>
      <trkpt lat="46.47635" lon="5.67939">
        <ele>455.4</ele>
        <time>2020-10-20T07:56:32Z</time>
      </trkpt>
      <trkpt lat="46.4763" lon="5.67942">
        <ele>456.2</ele>
        <time>2020-10-20T07:56:38Z</time>
      </trkpt>
      <trkpt lat="46.47625" lon="5.6794">
        <ele>456.8</ele>
        <time>2020-10-20T07:56:45Z</time>
      </trkpt>
      <trkpt lat="46.4762" lon="5.67943">
        <ele>456.6</ele>
        <time>2020-10-20T07:56:53Z</time>
      </trkpt>
      <trkpt lat="46.47616" lon="5.67946">
        <ele>456.3</ele>
        <time>2020-10-20T07:56:58Z</time>
      </trkpt>
      <trkpt lat="46.47611" lon="5.67947">
        <ele>456.3</ele>
        <time>2020-10-20T07:57:03Z</time>
      </trkpt>
      <trkpt lat="46.47605" lon="5.67947">
        <ele>456.5</ele>
        <time>2020-10-20T07:57:08Z</time>
      </trkpt>
      <trkpt lat="46.476" lon="5.67946">
        <ele>456.8</ele>
        <time>2020-10-20T07:57:11Z</time>
      </trkpt>
      <trkpt lat="46.47595" lon="5.67944">
        <ele>457.5</ele>
        <time>2020-10-20T07:57:15Z</time>
      </trkpt>
      <trkpt lat="46.4759" lon="5.67946">
        <ele>458.6</ele>
        <time>2020-10-20T07:57:20Z</time>
      </trkpt>
      <trkpt lat="46.47592" lon="5.67952">
        <ele>458.8</ele>
        <time>2020-10-20T07:57:25Z</time>
      </trkpt>
      <trkpt lat="46.47588" lon="5.67956">
        <ele>458.3</ele>
        <time>2020-10-20T07:57:36Z</time>
      </trkpt>
      <trkpt lat="46.47582" lon="5.67955">
        <ele>457.5</ele>
        <time>2020-10-20T07:57:40Z</time>
      </trkpt>
      <trkpt lat="46.47578" lon="5.67952">
        <ele>457</ele>
        <time>2020-10-20T07:57:44Z</time>
      </trkpt>
      <trkpt lat="46.47573" lon="5.67951">
        <ele>456.9</ele>
        <time>2020-10-20T07:57:48Z</time>
      </trkpt>
      <trkpt lat="46.47567" lon="5.6795">
        <ele>457.1</ele>
        <time>2020-10-20T07:57:52Z</time>
      </trkpt>
      <trkpt lat="46.47562" lon="5.67948">
        <ele>458</ele>
        <time>2020-10-20T07:57:57Z</time>
      </trkpt>
      <trkpt lat="46.47558" lon="5.67946">
        <ele>459.5</ele>
        <time>2020-10-20T07:58:03Z</time>
      </trkpt>
      <trkpt lat="46.47553" lon="5.67945">
        <ele>460.4</ele>
        <time>2020-10-20T07:58:10Z</time>
      </trkpt>
      <trkpt lat="46.47548" lon="5.67945">
        <ele>460.8</ele>
        <time>2020-10-20T07:58:15Z</time>
      </trkpt>
      <trkpt lat="46.47542" lon="5.67944">
        <ele>461.4</ele>
        <time>2020-10-20T07:58:20Z</time>
      </trkpt>
      <trkpt lat="46.47538" lon="5.67943">
        <ele>462</ele>
        <time>2020-10-20T07:58:24Z</time>
      </trkpt>
      <trkpt lat="46.47533" lon="5.6794">
        <ele>463</ele>
        <time>2020-10-20T07:58:29Z</time>
      </trkpt>
      <trkpt lat="46.47528" lon="5.67939">
        <ele>463.9</ele>
        <time>2020-10-20T07:58:34Z</time>
      </trkpt>
      <trkpt lat="46.47523" lon="5.67937">
        <ele>464.7</ele>
        <time>2020-10-20T07:58:39Z</time>
      </trkpt>
      <trkpt lat="46.47518" lon="5.67933">
        <ele>465.4</ele>
        <time>2020-10-20T07:58:44Z</time>
      </trkpt>
      <trkpt lat="46.47513" lon="5.67931">
        <ele>466.2</ele>
        <time>2020-10-20T07:58:49Z</time>
      </trkpt>
      <trkpt lat="46.47508" lon="5.6793">
        <ele>467.7</ele>
        <time>2020-10-20T07:58:55Z</time>
      </trkpt>
      <trkpt lat="46.47504" lon="5.67928">
        <ele>468.8</ele>
        <time>2020-10-20T07:59:00Z</time>
      </trkpt>
      <trkpt lat="46.475" lon="5.67923">
        <ele>469.6</ele>
        <time>2020-10-20T07:59:05Z</time>
      </trkpt>
      <trkpt lat="46.47495" lon="5.67918">
        <ele>471.1</ele>
        <time>2020-10-20T07:59:12Z</time>
      </trkpt>
      <trkpt lat="46.47492" lon="5.67913">
        <ele>472.3</ele>
        <time>2020-10-20T07:59:17Z</time>
      </trkpt>
      <trkpt lat="46.47487" lon="5.67914">
        <ele>473.1</ele>
        <time>2020-10-20T07:59:21Z</time>
      </trkpt>
      <trkpt lat="46.47482" lon="5.6791">
        <ele>474.7</ele>
        <time>2020-10-20T07:59:27Z</time>
      </trkpt>
      <trkpt lat="46.47478" lon="5.67906">
        <ele>475.9</ele>
        <time>2020-10-20T07:59:32Z</time>
      </trkpt>
      <trkpt lat="46.47475" lon="5.67901">
        <ele>476.8</ele>
        <time>2020-10-20T07:59:36Z</time>
      </trkpt>
      <trkpt lat="46.47474" lon="5.67894">
        <ele>477.9</ele>
        <time>2020-10-20T07:59:41Z</time>
      </trkpt>
      <trkpt lat="46.47471" lon="5.67888">
        <ele>478.8</ele>
        <time>2020-10-20T07:59:47Z</time>
      </trkpt>
      <trkpt lat="46.47468" lon="5.67883">
        <ele>478.9</ele>
        <time>2020-10-20T07:59:52Z</time>
      </trkpt>
      <trkpt lat="46.47466" lon="5.67877">
        <ele>479.1</ele>
        <time>2020-10-20T07:59:57Z</time>
      </trkpt>
      <trkpt lat="46.47462" lon="5.67873">
        <ele>479.3</ele>
        <time>2020-10-20T08:00:03Z</time>
      </trkpt>
      <trkpt lat="46.4746" lon="5.67867">
        <ele>480</ele>
        <time>2020-10-20T08:00:08Z</time>
      </trkpt>
      <trkpt lat="46.47457" lon="5.67861">
        <ele>480.7</ele>
        <time>2020-10-20T08:00:14Z</time>
      </trkpt>
      <trkpt lat="46.47455" lon="5.67855">
        <ele>481.3</ele>
        <time>2020-10-20T08:00:20Z</time>
      </trkpt>
      <trkpt lat="46.47451" lon="5.6785">
        <ele>481.8</ele>
        <time>2020-10-20T08:00:25Z</time>
      </trkpt>
      <trkpt lat="46.47448" lon="5.67845">
        <ele>482.3</ele>
        <time>2020-10-20T08:00:30Z</time>
      </trkpt>
      <trkpt lat="46.47443" lon="5.67841">
        <ele>482.6</ele>
        <time>2020-10-20T08:00:35Z</time>
      </trkpt>
      <trkpt lat="46.47439" lon="5.67836">
        <ele>482.6</ele>
        <time>2020-10-20T08:00:39Z</time>
      </trkpt>
      <trkpt lat="46.47436" lon="5.6783">
        <ele>482.9</ele>
        <time>2020-10-20T08:00:43Z</time>
      </trkpt>
      <trkpt lat="46.47431" lon="5.67826">
        <ele>483</ele>
        <time>2020-10-20T08:00:48Z</time>
      </trkpt>
      <trkpt lat="46.47427" lon="5.67824">
        <ele>483</ele>
        <time>2020-10-20T08:00:52Z</time>
      </trkpt>
      <trkpt lat="46.47423" lon="5.6782">
        <ele>482.7</ele>
        <time>2020-10-20T08:00:58Z</time>
      </trkpt>
      <trkpt lat="46.47418" lon="5.67818">
        <ele>482.3</ele>
        <time>2020-10-20T08:01:04Z</time>
      </trkpt>
      <trkpt lat="46.47413" lon="5.67816">
        <ele>482</ele>
        <time>2020-10-20T08:01:10Z</time>
      </trkpt>
      <trkpt lat="46.47408" lon="5.67816">
        <ele>481.7</ele>
        <time>2020-10-20T08:01:16Z</time>
      </trkpt>
      <trkpt lat="46.47403" lon="5.67818">
        <ele>481.6</ele>
        <time>2020-10-20T08:01:20Z</time>
      </trkpt>
      <trkpt lat="46.47398" lon="5.67821">
        <ele>481.3</ele>
        <time>2020-10-20T08:01:25Z</time>
      </trkpt>
      <trkpt lat="46.47395" lon="5.67825">
        <ele>481.2</ele>
        <time>2020-10-20T08:01:29Z</time>
      </trkpt>
      <trkpt lat="46.4739" lon="5.67828">
        <ele>481.2</ele>
        <time>2020-10-20T08:01:34Z</time>
      </trkpt>
      <trkpt lat="46.47385" lon="5.67831">
        <ele>481.3</ele>
        <time>2020-10-20T08:01:39Z</time>
      </trkpt>
      <trkpt lat="46.47381" lon="5.67834">
        <ele>481.3</ele>
        <time>2020-10-20T08:01:43Z</time>
      </trkpt>
      <trkpt lat="46.47376" lon="5.67837">
        <ele>480.7</ele>
        <time>2020-10-20T08:01:52Z</time>
      </trkpt>
      <trkpt lat="46.47372" lon="5.67838">
        <ele>480.2</ele>
        <time>2020-10-20T08:01:58Z</time>
      </trkpt>
      <trkpt lat="46.47367" lon="5.67841">
        <ele>479.6</ele>
        <time>2020-10-20T08:02:03Z</time>
      </trkpt>
      <trkpt lat="46.47362" lon="5.67844">
        <ele>479</ele>
        <time>2020-10-20T08:02:09Z</time>
      </trkpt>
      <trkpt lat="46.47358" lon="5.67844">
        <ele>478.6</ele>
        <time>2020-10-20T08:02:13Z</time>
      </trkpt>
      <trkpt lat="46.47353" lon="5.67843">
        <ele>478.2</ele>
        <time>2020-10-20T08:02:17Z</time>
      </trkpt>
      <trkpt lat="46.47348" lon="5.67842">
        <ele>477.9</ele>
        <time>2020-10-20T08:02:21Z</time>
      </trkpt>
      <trkpt lat="46.47343" lon="5.6784">
        <ele>477.9</ele>
        <time>2020-10-20T08:02:25Z</time>
      </trkpt>
      <trkpt lat="46.47338" lon="5.67838">
        <ele>477.7</ele>
        <time>2020-10-20T08:02:31Z</time>
      </trkpt>
      <trkpt lat="46.47337" lon="5.67831">
        <ele>477.2</ele>
        <time>2020-10-20T08:02:38Z</time>
      </trkpt>
      <trkpt lat="46.47335" lon="5.67825">
        <ele>478.1</ele>
        <time>2020-10-20T08:02:49Z</time>
      </trkpt>
      <trkpt lat="46.47335" lon="5.67818">
        <ele>479.7</ele>
        <time>2020-10-20T08:03:05Z</time>
      </trkpt>
      <trkpt lat="46.47339" lon="5.67816">
        <ele>480.1</ele>
        <time>2020-10-20T08:03:11Z</time>
      </trkpt>
      <trkpt lat="46.47344" lon="5.67813">
        <ele>480.2</ele>
        <time>2020-10-20T08:03:16Z</time>
      </trkpt>
      <trkpt lat="46.47347" lon="5.67808">
        <ele>480.3</ele>
        <time>2020-10-20T08:03:20Z</time>
      </trkpt>
      <trkpt lat="46.47351" lon="5.67805">
        <ele>480.6</ele>
        <time>2020-10-20T08:03:23Z</time>
      </trkpt>
      <trkpt lat="46.47356" lon="5.678">
        <ele>481.6</ele>
        <time>2020-10-20T08:03:27Z</time>
      </trkpt>
      <trkpt lat="46.47358" lon="5.67794">
        <ele>483.6</ele>
        <time>2020-10-20T08:03:33Z</time>
      </trkpt>
      <trkpt lat="46.47361" lon="5.67787">
        <ele>485.1</ele>
        <time>2020-10-20T08:03:39Z</time>
      </trkpt>
      <trkpt lat="46.47363" lon="5.67781">
        <ele>486.6</ele>
        <time>2020-10-20T08:03:45Z</time>
      </trkpt>
      <trkpt lat="46.47366" lon="5.67775">
        <ele>488.5</ele>
        <time>2020-10-20T08:03:53Z</time>
      </trkpt>
      <trkpt lat="46.4737" lon="5.67772">
        <ele>488.6</ele>
        <time>2020-10-20T08:03:59Z</time>
      </trkpt>
      <trkpt lat="46.47374" lon="5.67768">
        <ele>488.3</ele>
        <time>2020-10-20T08:04:03Z</time>
      </trkpt>
      <trkpt lat="46.47378" lon="5.67764">
        <ele>487.9</ele>
        <time>2020-10-20T08:04:07Z</time>
      </trkpt>
      <trkpt lat="46.47382" lon="5.6776">
        <ele>487.8</ele>
        <time>2020-10-20T08:04:11Z</time>
      </trkpt>
      <trkpt lat="46.47386" lon="5.67757">
        <ele>486.9</ele>
        <time>2020-10-20T08:04:16Z</time>
      </trkpt>
      <trkpt lat="46.4739" lon="5.67753">
        <ele>486.4</ele>
        <time>2020-10-20T08:04:20Z</time>
      </trkpt>
      <trkpt lat="46.47394" lon="5.67748">
        <ele>486.2</ele>
        <time>2020-10-20T08:04:24Z</time>
      </trkpt>
      <trkpt lat="46.47398" lon="5.67744">
        <ele>486.3</ele>
        <time>2020-10-20T08:04:27Z</time>
      </trkpt>
      <trkpt lat="46.47402" lon="5.6774">
        <ele>486.5</ele>
        <time>2020-10-20T08:04:31Z</time>
      </trkpt>
      <trkpt lat="46.47406" lon="5.67736">
        <ele>486.7</ele>
        <time>2020-10-20T08:04:36Z</time>
      </trkpt>
      <trkpt lat="46.47409" lon="5.67731">
        <ele>486.2</ele>
        <time>2020-10-20T08:04:41Z</time>
      </trkpt>
      <trkpt lat="46.47411" lon="5.67724">
        <ele>485.5</ele>
        <time>2020-10-20T08:04:47Z</time>
      </trkpt>
      <trkpt lat="46.47415" lon="5.67719">
        <ele>485</ele>
        <time>2020-10-20T08:04:54Z</time>
      </trkpt>
      <trkpt lat="46.47419" lon="5.67718">
        <ele>483.7</ele>
        <time>2020-10-20T08:05:02Z</time>
      </trkpt>
      <trkpt lat="46.47423" lon="5.67713">
        <ele>481.9</ele>
        <time>2020-10-20T08:05:13Z</time>
      </trkpt>
      <trkpt lat="46.47428" lon="5.67712">
        <ele>483.3</ele>
        <time>2020-10-20T08:05:34Z</time>
      </trkpt>
      <trkpt lat="46.47424" lon="5.6771">
        <ele>481.9</ele>
        <time>2020-10-20T08:05:52Z</time>
      </trkpt>
      <trkpt lat="46.47419" lon="5.6771">
        <ele>481</ele>
        <time>2020-10-20T08:05:57Z</time>
      </trkpt>
      <trkpt lat="46.47417" lon="5.67715">
        <ele>481</ele>
        <time>2020-10-20T08:06:09Z</time>
      </trkpt>
      <trkpt lat="46.47423" lon="5.67717">
        <ele>482.9</ele>
        <time>2020-10-20T08:06:30Z</time>
      </trkpt>
      <trkpt lat="46.47427" lon="5.6772">
        <ele>483.7</ele>
        <time>2020-10-20T08:06:35Z</time>
      </trkpt>
      <trkpt lat="46.47432" lon="5.67721">
        <ele>484.5</ele>
        <time>2020-10-20T08:06:42Z</time>
      </trkpt>
      <trkpt lat="46.47427" lon="5.67721">
        <ele>484</ele>
        <time>2020-10-20T08:07:26Z</time>
      </trkpt>
      <trkpt lat="46.47424" lon="5.67717">
        <ele>485</ele>
        <time>2020-10-20T08:07:59Z</time>
      </trkpt>
      <trkpt lat="46.4742" lon="5.6772">
        <ele>483.2</ele>
        <time>2020-10-20T08:11:25Z</time>
      </trkpt>
      <trkpt lat="46.47415" lon="5.67724">
        <ele>481.5</ele>
        <time>2020-10-20T08:11:48Z</time>
      </trkpt>
      <trkpt lat="46.47413" lon="5.6773">
        <ele>481</ele>
        <time>2020-10-20T08:11:53Z</time>
      </trkpt>
      <trkpt lat="46.47409" lon="5.67735">
        <ele>480.5</ele>
        <time>2020-10-20T08:11:58Z</time>
      </trkpt>
      <trkpt lat="46.47406" lon="5.6774">
        <ele>480.2</ele>
        <time>2020-10-20T08:12:03Z</time>
      </trkpt>
      <trkpt lat="46.47403" lon="5.67745">
        <ele>480</ele>
        <time>2020-10-20T08:12:09Z</time>
      </trkpt>
      <trkpt lat="46.47398" lon="5.67748">
        <ele>479.8</ele>
        <time>2020-10-20T08:12:15Z</time>
      </trkpt>
      <trkpt lat="46.47394" lon="5.67753">
        <ele>480.1</ele>
        <time>2020-10-20T08:12:20Z</time>
      </trkpt>
      <trkpt lat="46.4739" lon="5.67758">
        <ele>480.6</ele>
        <time>2020-10-20T08:12:24Z</time>
      </trkpt>
      <trkpt lat="46.47387" lon="5.67763">
        <ele>481.6</ele>
        <time>2020-10-20T08:12:28Z</time>
      </trkpt>
      <trkpt lat="46.47383" lon="5.67768">
        <ele>482.8</ele>
        <time>2020-10-20T08:12:32Z</time>
      </trkpt>
      <trkpt lat="46.47379" lon="5.6777">
        <ele>484.4</ele>
        <time>2020-10-20T08:12:37Z</time>
      </trkpt>
      <trkpt lat="46.47374" lon="5.67772">
        <ele>485.7</ele>
        <time>2020-10-20T08:12:42Z</time>
      </trkpt>
      <trkpt lat="46.4737" lon="5.67776">
        <ele>487</ele>
        <time>2020-10-20T08:12:47Z</time>
      </trkpt>
      <trkpt lat="46.47366" lon="5.67781">
        <ele>488.1</ele>
        <time>2020-10-20T08:12:51Z</time>
      </trkpt>
      <trkpt lat="46.47361" lon="5.67783">
        <ele>489.4</ele>
        <time>2020-10-20T08:12:56Z</time>
      </trkpt>
      <trkpt lat="46.47357" lon="5.67787">
        <ele>490.4</ele>
        <time>2020-10-20T08:13:01Z</time>
      </trkpt>
      <trkpt lat="46.47354" lon="5.67793">
        <ele>491.2</ele>
        <time>2020-10-20T08:13:06Z</time>
      </trkpt>
      <trkpt lat="46.47352" lon="5.67799">
        <ele>491.6</ele>
        <time>2020-10-20T08:13:10Z</time>
      </trkpt>
      <trkpt lat="46.4735" lon="5.67805">
        <ele>491.5</ele>
        <time>2020-10-20T08:13:17Z</time>
      </trkpt>
      <trkpt lat="46.47346" lon="5.67811">
        <ele>490.9</ele>
        <time>2020-10-20T08:13:24Z</time>
      </trkpt>
      <trkpt lat="46.47343" lon="5.67816">
        <ele>490.6</ele>
        <time>2020-10-20T08:13:30Z</time>
      </trkpt>
      <trkpt lat="46.47338" lon="5.67819">
        <ele>489.5</ele>
        <time>2020-10-20T08:13:37Z</time>
      </trkpt>
      <trkpt lat="46.47333" lon="5.67823">
        <ele>489.1</ele>
        <time>2020-10-20T08:13:41Z</time>
      </trkpt>
      <trkpt lat="46.47328" lon="5.67825">
        <ele>488.5</ele>
        <time>2020-10-20T08:13:45Z</time>
      </trkpt>
      <trkpt lat="46.47324" lon="5.67828">
        <ele>487.9</ele>
        <time>2020-10-20T08:13:50Z</time>
      </trkpt>
      <trkpt lat="46.47319" lon="5.6783">
        <ele>487.1</ele>
        <time>2020-10-20T08:13:55Z</time>
      </trkpt>
      <trkpt lat="46.47314" lon="5.67832">
        <ele>486.6</ele>
        <time>2020-10-20T08:14:00Z</time>
      </trkpt>
      <trkpt lat="46.47309" lon="5.67834">
        <ele>486.3</ele>
        <time>2020-10-20T08:14:05Z</time>
      </trkpt>
      <trkpt lat="46.47304" lon="5.67838">
        <ele>485.9</ele>
        <time>2020-10-20T08:14:10Z</time>
      </trkpt>
      <trkpt lat="46.473" lon="5.6784">
        <ele>485.7</ele>
        <time>2020-10-20T08:14:15Z</time>
      </trkpt>
      <trkpt lat="46.47296" lon="5.67845">
        <ele>485.5</ele>
        <time>2020-10-20T08:14:20Z</time>
      </trkpt>
      <trkpt lat="46.47291" lon="5.67849">
        <ele>485.4</ele>
        <time>2020-10-20T08:14:25Z</time>
      </trkpt>
      <trkpt lat="46.47287" lon="5.67853">
        <ele>485.3</ele>
        <time>2020-10-20T08:14:31Z</time>
      </trkpt>
      <trkpt lat="46.47283" lon="5.67857">
        <ele>485.3</ele>
        <time>2020-10-20T08:14:36Z</time>
      </trkpt>
      <trkpt lat="46.4728" lon="5.67862">
        <ele>485.4</ele>
        <time>2020-10-20T08:14:41Z</time>
      </trkpt>
      <trkpt lat="46.47275" lon="5.67866">
        <ele>485.8</ele>
        <time>2020-10-20T08:14:47Z</time>
      </trkpt>
      <trkpt lat="46.47272" lon="5.6787">
        <ele>486.2</ele>
        <time>2020-10-20T08:14:52Z</time>
      </trkpt>
      <trkpt lat="46.47268" lon="5.67874">
        <ele>486.4</ele>
        <time>2020-10-20T08:14:57Z</time>
      </trkpt>
      <trkpt lat="46.47263" lon="5.67873">
        <ele>486.9</ele>
        <time>2020-10-20T08:15:06Z</time>
      </trkpt>
      <trkpt lat="46.47258" lon="5.67879">
        <ele>489.6</ele>
        <time>2020-10-20T08:15:52Z</time>
      </trkpt>
      <trkpt lat="46.47254" lon="5.67881">
        <ele>491.9</ele>
        <time>2020-10-20T08:15:59Z</time>
      </trkpt>
      <trkpt lat="46.4725" lon="5.67883">
        <ele>492.7</ele>
        <time>2020-10-20T08:16:07Z</time>
      </trkpt>
      <trkpt lat="46.47245" lon="5.67885">
        <ele>492.9</ele>
        <time>2020-10-20T08:16:12Z</time>
      </trkpt>
      <trkpt lat="46.47239" lon="5.67887">
        <ele>493.1</ele>
        <time>2020-10-20T08:16:16Z</time>
      </trkpt>
      <trkpt lat="46.47234" lon="5.67889">
        <ele>493</ele>
        <time>2020-10-20T08:16:21Z</time>
      </trkpt>
      <trkpt lat="46.47229" lon="5.67891">
        <ele>492.3</ele>
        <time>2020-10-20T08:16:26Z</time>
      </trkpt>
      <trkpt lat="46.47223" lon="5.67894">
        <ele>493</ele>
        <time>2020-10-20T08:16:30Z</time>
      </trkpt>
      <trkpt lat="46.47219" lon="5.67897">
        <ele>493.7</ele>
        <time>2020-10-20T08:16:33Z</time>
      </trkpt>
      <trkpt lat="46.47214" lon="5.67901">
        <ele>494.6</ele>
        <time>2020-10-20T08:16:37Z</time>
      </trkpt>
      <trkpt lat="46.4721" lon="5.67904">
        <ele>495.5</ele>
        <time>2020-10-20T08:16:42Z</time>
      </trkpt>
      <trkpt lat="46.47205" lon="5.67907">
        <ele>495.5</ele>
        <time>2020-10-20T08:16:46Z</time>
      </trkpt>
      <trkpt lat="46.472" lon="5.6791">
        <ele>494.6</ele>
        <time>2020-10-20T08:16:52Z</time>
      </trkpt>
      <trkpt lat="46.47195" lon="5.67914">
        <ele>493.9</ele>
        <time>2020-10-20T08:16:58Z</time>
      </trkpt>
      <trkpt lat="46.47191" lon="5.67918">
        <ele>493.5</ele>
        <time>2020-10-20T08:17:03Z</time>
      </trkpt>
      <trkpt lat="46.47187" lon="5.67922">
        <ele>493</ele>
        <time>2020-10-20T08:17:07Z</time>
      </trkpt>
      <trkpt lat="46.47183" lon="5.67925">
        <ele>492.4</ele>
        <time>2020-10-20T08:17:11Z</time>
      </trkpt>
      <trkpt lat="46.47178" lon="5.67929">
        <ele>491.3</ele>
        <time>2020-10-20T08:17:17Z</time>
      </trkpt>
      <trkpt lat="46.47173" lon="5.67932">
        <ele>490</ele>
        <time>2020-10-20T08:17:23Z</time>
      </trkpt>
      <trkpt lat="46.47168" lon="5.67934">
        <ele>489.3</ele>
        <time>2020-10-20T08:17:27Z</time>
      </trkpt>
      <trkpt lat="46.47164" lon="5.67937">
        <ele>488.9</ele>
        <time>2020-10-20T08:17:31Z</time>
      </trkpt>
      <trkpt lat="46.47159" lon="5.67941">
        <ele>488.4</ele>
        <time>2020-10-20T08:17:36Z</time>
      </trkpt>
      <trkpt lat="46.47155" lon="5.67943">
        <ele>488</ele>
        <time>2020-10-20T08:17:41Z</time>
      </trkpt>
      <trkpt lat="46.4715" lon="5.67946">
        <ele>487.6</ele>
        <time>2020-10-20T08:17:47Z</time>
      </trkpt>
      <trkpt lat="46.47145" lon="5.67949">
        <ele>487.1</ele>
        <time>2020-10-20T08:17:52Z</time>
      </trkpt>
      <trkpt lat="46.4714" lon="5.67952">
        <ele>486.5</ele>
        <time>2020-10-20T08:17:57Z</time>
      </trkpt>
      <trkpt lat="46.47136" lon="5.67954">
        <ele>486.1</ele>
        <time>2020-10-20T08:18:01Z</time>
      </trkpt>
      <trkpt lat="46.47131" lon="5.67957">
        <ele>485.4</ele>
        <time>2020-10-20T08:18:06Z</time>
      </trkpt>
      <trkpt lat="46.47127" lon="5.67962">
        <ele>484.9</ele>
        <time>2020-10-20T08:18:12Z</time>
      </trkpt>
      <trkpt lat="46.47122" lon="5.67965">
        <ele>484.5</ele>
        <time>2020-10-20T08:18:17Z</time>
      </trkpt>
      <trkpt lat="46.47118" lon="5.6797">
        <ele>484.2</ele>
        <time>2020-10-20T08:18:22Z</time>
      </trkpt>
      <trkpt lat="46.47113" lon="5.67973">
        <ele>484</ele>
        <time>2020-10-20T08:18:27Z</time>
      </trkpt>
      <trkpt lat="46.47109" lon="5.67975">
        <ele>483.9</ele>
        <time>2020-10-20T08:18:31Z</time>
      </trkpt>
      <trkpt lat="46.47104" lon="5.67978">
        <ele>483.9</ele>
        <time>2020-10-20T08:18:35Z</time>
      </trkpt>
      <trkpt lat="46.471" lon="5.67982">
        <ele>483.9</ele>
        <time>2020-10-20T08:18:39Z</time>
      </trkpt>
      <trkpt lat="46.47096" lon="5.67986">
        <ele>483.7</ele>
        <time>2020-10-20T08:18:43Z</time>
      </trkpt>
      <trkpt lat="46.47092" lon="5.67992">
        <ele>483.3</ele>
        <time>2020-10-20T08:18:48Z</time>
      </trkpt>
      <trkpt lat="46.47088" lon="5.67994">
        <ele>482.8</ele>
        <time>2020-10-20T08:18:53Z</time>
      </trkpt>
      <trkpt lat="46.47082" lon="5.67996">
        <ele>482.3</ele>
        <time>2020-10-20T08:18:58Z</time>
      </trkpt>
      <trkpt lat="46.47077" lon="5.67998">
        <ele>482</ele>
        <time>2020-10-20T08:19:02Z</time>
      </trkpt>
      <trkpt lat="46.47073" lon="5.68">
        <ele>481.6</ele>
        <time>2020-10-20T08:19:06Z</time>
      </trkpt>
      <trkpt lat="46.47068" lon="5.68003">
        <ele>481.3</ele>
        <time>2020-10-20T08:19:11Z</time>
      </trkpt>
      <trkpt lat="46.47063" lon="5.68005">
        <ele>481.1</ele>
        <time>2020-10-20T08:19:17Z</time>
      </trkpt>
      <trkpt lat="46.47058" lon="5.68007">
        <ele>480.9</ele>
        <time>2020-10-20T08:19:22Z</time>
      </trkpt>
      <trkpt lat="46.47053" lon="5.6801">
        <ele>480.6</ele>
        <time>2020-10-20T08:19:27Z</time>
      </trkpt>
      <trkpt lat="46.47049" lon="5.68014">
        <ele>480.4</ele>
        <time>2020-10-20T08:19:31Z</time>
      </trkpt>
      <trkpt lat="46.47044" lon="5.68018">
        <ele>480.2</ele>
        <time>2020-10-20T08:19:36Z</time>
      </trkpt>
      <trkpt lat="46.47041" lon="5.68024">
        <ele>479.7</ele>
        <time>2020-10-20T08:19:41Z</time>
      </trkpt>
      <trkpt lat="46.47036" lon="5.68026">
        <ele>479</ele>
        <time>2020-10-20T08:19:46Z</time>
      </trkpt>
      <trkpt lat="46.47031" lon="5.68028">
        <ele>478.3</ele>
        <time>2020-10-20T08:19:51Z</time>
      </trkpt>
      <trkpt lat="46.47026" lon="5.68029">
        <ele>477.8</ele>
        <time>2020-10-20T08:19:55Z</time>
      </trkpt>
      <trkpt lat="46.47021" lon="5.6803">
        <ele>477.3</ele>
        <time>2020-10-20T08:19:59Z</time>
      </trkpt>
      <trkpt lat="46.47016" lon="5.68031">
        <ele>476.5</ele>
        <time>2020-10-20T08:20:04Z</time>
      </trkpt>
      <trkpt lat="46.47011" lon="5.68032">
        <ele>479.4</ele>
        <time>2020-10-20T08:20:07Z</time>
      </trkpt>
      <trkpt lat="46.47007" lon="5.68034">
        <ele>481.5</ele>
        <time>2020-10-20T08:20:10Z</time>
      </trkpt>
      <trkpt lat="46.47002" lon="5.68035">
        <ele>483.8</ele>
        <time>2020-10-20T08:20:15Z</time>
      </trkpt>
      <trkpt lat="46.46997" lon="5.68036">
        <ele>484.6</ele>
        <time>2020-10-20T08:20:19Z</time>
      </trkpt>
      <trkpt lat="46.46992" lon="5.68038">
        <ele>484.6</ele>
        <time>2020-10-20T08:20:23Z</time>
      </trkpt>
      <trkpt lat="46.46988" lon="5.68041">
        <ele>484.3</ele>
        <time>2020-10-20T08:20:27Z</time>
      </trkpt>
      <trkpt lat="46.46983" lon="5.68042">
        <ele>483.8</ele>
        <time>2020-10-20T08:20:31Z</time>
      </trkpt>
      <trkpt lat="46.46978" lon="5.68044">
        <ele>482.8</ele>
        <time>2020-10-20T08:20:37Z</time>
      </trkpt>
      <trkpt lat="46.46973" lon="5.68047">
        <ele>481.6</ele>
        <time>2020-10-20T08:20:43Z</time>
      </trkpt>
      <trkpt lat="46.4697" lon="5.68051">
        <ele>480.6</ele>
        <time>2020-10-20T08:20:48Z</time>
      </trkpt>
      <trkpt lat="46.46965" lon="5.68053">
        <ele>479.9</ele>
        <time>2020-10-20T08:20:53Z</time>
      </trkpt>
      <trkpt lat="46.4696" lon="5.68055">
        <ele>479.1</ele>
        <time>2020-10-20T08:20:58Z</time>
      </trkpt>
      <trkpt lat="46.46955" lon="5.68057">
        <ele>478.3</ele>
        <time>2020-10-20T08:21:03Z</time>
      </trkpt>
      <trkpt lat="46.4695" lon="5.68059">
        <ele>477.5</ele>
        <time>2020-10-20T08:21:08Z</time>
      </trkpt>
      <trkpt lat="46.46944" lon="5.6806">
        <ele>476.6</ele>
        <time>2020-10-20T08:21:13Z</time>
      </trkpt>
      <trkpt lat="46.4694" lon="5.68063">
        <ele>475.5</ele>
        <time>2020-10-20T08:21:19Z</time>
      </trkpt>
      <trkpt lat="46.46935" lon="5.68066">
        <ele>474.5</ele>
        <time>2020-10-20T08:21:24Z</time>
      </trkpt>
      <trkpt lat="46.46931" lon="5.68066">
        <ele>473.9</ele>
        <time>2020-10-20T08:21:28Z</time>
      </trkpt>
      <trkpt lat="46.46926" lon="5.68067">
        <ele>473.1</ele>
        <time>2020-10-20T08:21:33Z</time>
      </trkpt>
      <trkpt lat="46.46921" lon="5.68069">
        <ele>472.1</ele>
        <time>2020-10-20T08:21:38Z</time>
      </trkpt>
      <trkpt lat="46.46916" lon="5.68071">
        <ele>470.9</ele>
        <time>2020-10-20T08:21:43Z</time>
      </trkpt>
      <trkpt lat="46.46911" lon="5.68073">
        <ele>469.5</ele>
        <time>2020-10-20T08:21:48Z</time>
      </trkpt>
      <trkpt lat="46.46906" lon="5.68073">
        <ele>468.3</ele>
        <time>2020-10-20T08:21:53Z</time>
      </trkpt>
      <trkpt lat="46.46901" lon="5.68074">
        <ele>467.2</ele>
        <time>2020-10-20T08:21:58Z</time>
      </trkpt>
      <trkpt lat="46.46896" lon="5.68076">
        <ele>466.3</ele>
        <time>2020-10-20T08:22:02Z</time>
      </trkpt>
      <trkpt lat="46.46891" lon="5.68078">
        <ele>465.3</ele>
        <time>2020-10-20T08:22:07Z</time>
      </trkpt>
      <trkpt lat="46.46886" lon="5.6808">
        <ele>464.3</ele>
        <time>2020-10-20T08:22:12Z</time>
      </trkpt>
      <trkpt lat="46.46881" lon="5.68084">
        <ele>463.5</ele>
        <time>2020-10-20T08:22:17Z</time>
      </trkpt>
      <trkpt lat="46.46877" lon="5.68086">
        <ele>462.9</ele>
        <time>2020-10-20T08:22:21Z</time>
      </trkpt>
      <trkpt lat="46.46872" lon="5.68088">
        <ele>462.4</ele>
        <time>2020-10-20T08:22:25Z</time>
      </trkpt>
      <trkpt lat="46.46867" lon="5.68089">
        <ele>461.7</ele>
        <time>2020-10-20T08:22:30Z</time>
      </trkpt>
      <trkpt lat="46.46862" lon="5.6809">
        <ele>461.1</ele>
        <time>2020-10-20T08:22:35Z</time>
      </trkpt>
      <trkpt lat="46.46858" lon="5.68092">
        <ele>460.5</ele>
        <time>2020-10-20T08:22:40Z</time>
      </trkpt>
      <trkpt lat="46.46854" lon="5.68097">
        <ele>459.8</ele>
        <time>2020-10-20T08:22:45Z</time>
      </trkpt>
      <trkpt lat="46.46849" lon="5.68099">
        <ele>458.6</ele>
        <time>2020-10-20T08:22:51Z</time>
      </trkpt>
      <trkpt lat="46.46844" lon="5.68101">
        <ele>457.6</ele>
        <time>2020-10-20T08:22:56Z</time>
      </trkpt>
      <trkpt lat="46.4684" lon="5.68103">
        <ele>456.5</ele>
        <time>2020-10-20T08:23:01Z</time>
      </trkpt>
      <trkpt lat="46.46834" lon="5.68105">
        <ele>455.3</ele>
        <time>2020-10-20T08:23:07Z</time>
      </trkpt>
      <trkpt lat="46.4683" lon="5.68109">
        <ele>454.8</ele>
        <time>2020-10-20T08:23:11Z</time>
      </trkpt>
      <trkpt lat="46.46826" lon="5.68113">
        <ele>454.5</ele>
        <time>2020-10-20T08:23:16Z</time>
      </trkpt>
      <trkpt lat="46.4682" lon="5.68113">
        <ele>454.6</ele>
        <time>2020-10-20T08:23:21Z</time>
      </trkpt>
      <trkpt lat="46.46816" lon="5.68114">
        <ele>454.5</ele>
        <time>2020-10-20T08:23:26Z</time>
      </trkpt>
      <trkpt lat="46.46811" lon="5.68117">
        <ele>454.8</ele>
        <time>2020-10-20T08:23:31Z</time>
      </trkpt>
      <trkpt lat="46.46803" lon="5.68124">
        <ele>461</ele>
        <time>2020-10-20T08:23:34Z</time>
      </trkpt>
      <trkpt lat="46.46799" lon="5.68129">
        <ele>463.8</ele>
        <time>2020-10-20T08:23:36Z</time>
      </trkpt>
      <trkpt lat="46.46795" lon="5.68132">
        <ele>468.3</ele>
        <time>2020-10-20T08:23:39Z</time>
      </trkpt>
      <trkpt lat="46.4679" lon="5.68135">
        <ele>472.1</ele>
        <time>2020-10-20T08:23:43Z</time>
      </trkpt>
      <trkpt lat="46.46785" lon="5.68138">
        <ele>474.8</ele>
        <time>2020-10-20T08:23:47Z</time>
      </trkpt>
      <trkpt lat="46.4678" lon="5.68141">
        <ele>476.8</ele>
        <time>2020-10-20T08:23:52Z</time>
      </trkpt>
      <trkpt lat="46.46775" lon="5.68142">
        <ele>478.7</ele>
        <time>2020-10-20T08:23:58Z</time>
      </trkpt>
      <trkpt lat="46.46771" lon="5.68144">
        <ele>480.4</ele>
        <time>2020-10-20T08:24:04Z</time>
      </trkpt>
      <trkpt lat="46.46767" lon="5.68148">
        <ele>481.5</ele>
        <time>2020-10-20T08:24:10Z</time>
      </trkpt>
      <trkpt lat="46.46764" lon="5.68154">
        <ele>482.5</ele>
        <time>2020-10-20T08:24:16Z</time>
      </trkpt>
      <trkpt lat="46.46761" lon="5.68159">
        <ele>483.5</ele>
        <time>2020-10-20T08:24:21Z</time>
      </trkpt>
      <trkpt lat="46.46756" lon="5.68162">
        <ele>484.6</ele>
        <time>2020-10-20T08:24:26Z</time>
      </trkpt>
      <trkpt lat="46.46751" lon="5.68165">
        <ele>485.3</ele>
        <time>2020-10-20T08:24:31Z</time>
      </trkpt>
      <trkpt lat="46.46746" lon="5.68166">
        <ele>486.1</ele>
        <time>2020-10-20T08:24:36Z</time>
      </trkpt>
      <trkpt lat="46.46741" lon="5.68166">
        <ele>486.1</ele>
        <time>2020-10-20T08:24:41Z</time>
      </trkpt>
      <trkpt lat="46.46736" lon="5.68168">
        <ele>485.6</ele>
        <time>2020-10-20T08:24:46Z</time>
      </trkpt>
      <trkpt lat="46.46732" lon="5.68171">
        <ele>484.9</ele>
        <time>2020-10-20T08:24:50Z</time>
      </trkpt>
      <trkpt lat="46.46727" lon="5.68173">
        <ele>484.1</ele>
        <time>2020-10-20T08:24:54Z</time>
      </trkpt>
      <trkpt lat="46.46722" lon="5.68176">
        <ele>483</ele>
        <time>2020-10-20T08:24:59Z</time>
      </trkpt>
      <trkpt lat="46.46717" lon="5.68178">
        <ele>481.7</ele>
        <time>2020-10-20T08:25:04Z</time>
      </trkpt>
      <trkpt lat="46.46712" lon="5.68181">
        <ele>480.5</ele>
        <time>2020-10-20T08:25:08Z</time>
      </trkpt>
      <trkpt lat="46.46708" lon="5.68184">
        <ele>479.4</ele>
        <time>2020-10-20T08:25:12Z</time>
      </trkpt>
      <trkpt lat="46.46703" lon="5.68188">
        <ele>478.3</ele>
        <time>2020-10-20T08:25:16Z</time>
      </trkpt>
      <trkpt lat="46.467" lon="5.68193">
        <ele>477.4</ele>
        <time>2020-10-20T08:25:20Z</time>
      </trkpt>
      <trkpt lat="46.46695" lon="5.68195">
        <ele>476.3</ele>
        <time>2020-10-20T08:25:25Z</time>
      </trkpt>
      <trkpt lat="46.4669" lon="5.68196">
        <ele>475.4</ele>
        <time>2020-10-20T08:25:30Z</time>
      </trkpt>
      <trkpt lat="46.46685" lon="5.68196">
        <ele>474.5</ele>
        <time>2020-10-20T08:25:35Z</time>
      </trkpt>
      <trkpt lat="46.4668" lon="5.68198">
        <ele>473.7</ele>
        <time>2020-10-20T08:25:40Z</time>
      </trkpt>
      <trkpt lat="46.46676" lon="5.68201">
        <ele>473.1</ele>
        <time>2020-10-20T08:25:47Z</time>
      </trkpt>
      <trkpt lat="46.4667" lon="5.68204">
        <ele>472.2</ele>
        <time>2020-10-20T08:25:53Z</time>
      </trkpt>
      <trkpt lat="46.46666" lon="5.68207">
        <ele>471.4</ele>
        <time>2020-10-20T08:25:58Z</time>
      </trkpt>
      <trkpt lat="46.46662" lon="5.6821">
        <ele>470.8</ele>
        <time>2020-10-20T08:26:03Z</time>
      </trkpt>
      <trkpt lat="46.46658" lon="5.68213">
        <ele>470.2</ele>
        <time>2020-10-20T08:26:08Z</time>
      </trkpt>
      <trkpt lat="46.46654" lon="5.68218">
        <ele>470.1</ele>
        <time>2020-10-20T08:26:12Z</time>
      </trkpt>
      <trkpt lat="46.4665" lon="5.68222">
        <ele>470.1</ele>
        <time>2020-10-20T08:26:17Z</time>
      </trkpt>
      <trkpt lat="46.46646" lon="5.68226">
        <ele>470.1</ele>
        <time>2020-10-20T08:26:22Z</time>
      </trkpt>
      <trkpt lat="46.4664" lon="5.68227">
        <ele>470.2</ele>
        <time>2020-10-20T08:26:27Z</time>
      </trkpt>
      <trkpt lat="46.46634" lon="5.68228">
        <ele>471.4</ele>
        <time>2020-10-20T08:26:32Z</time>
      </trkpt>
      <trkpt lat="46.46629" lon="5.68227">
        <ele>472.6</ele>
        <time>2020-10-20T08:26:37Z</time>
      </trkpt>
      <trkpt lat="46.46623" lon="5.68228">
        <ele>473.3</ele>
        <time>2020-10-20T08:26:42Z</time>
      </trkpt>
      <trkpt lat="46.46619" lon="5.6823">
        <ele>474.1</ele>
        <time>2020-10-20T08:26:46Z</time>
      </trkpt>
      <trkpt lat="46.46614" lon="5.68232">
        <ele>474.9</ele>
        <time>2020-10-20T08:26:49Z</time>
      </trkpt>
      <trkpt lat="46.46609" lon="5.68234">
        <ele>476.1</ele>
        <time>2020-10-20T08:26:54Z</time>
      </trkpt>
      <trkpt lat="46.46605" lon="5.68236">
        <ele>476.2</ele>
        <time>2020-10-20T08:27:01Z</time>
      </trkpt>
      <trkpt lat="46.46602" lon="5.68241">
        <ele>475.5</ele>
        <time>2020-10-20T08:27:07Z</time>
      </trkpt>
      <trkpt lat="46.46597" lon="5.68245">
        <ele>475</ele>
        <time>2020-10-20T08:27:12Z</time>
      </trkpt>
      <trkpt lat="46.46593" lon="5.68248">
        <ele>474.7</ele>
        <time>2020-10-20T08:27:17Z</time>
      </trkpt>
      <trkpt lat="46.46588" lon="5.68251">
        <ele>474.5</ele>
        <time>2020-10-20T08:27:23Z</time>
      </trkpt>
      <trkpt lat="46.46583" lon="5.68254">
        <ele>474.6</ele>
        <time>2020-10-20T08:27:28Z</time>
      </trkpt>
      <trkpt lat="46.46578" lon="5.68256">
        <ele>474.7</ele>
        <time>2020-10-20T08:27:32Z</time>
      </trkpt>
      <trkpt lat="46.46573" lon="5.68258">
        <ele>474.8</ele>
        <time>2020-10-20T08:27:36Z</time>
      </trkpt>
      <trkpt lat="46.46569" lon="5.6826">
        <ele>474.9</ele>
        <time>2020-10-20T08:27:40Z</time>
      </trkpt>
      <trkpt lat="46.46565" lon="5.68262">
        <ele>475</ele>
        <time>2020-10-20T08:27:44Z</time>
      </trkpt>
      <trkpt lat="46.4656" lon="5.6826">
        <ele>475.3</ele>
        <time>2020-10-20T08:27:49Z</time>
      </trkpt>
      <trkpt lat="46.46555" lon="5.68257">
        <ele>475.4</ele>
        <time>2020-10-20T08:27:55Z</time>
      </trkpt>
      <trkpt lat="46.4655" lon="5.68259">
        <ele>474.8</ele>
        <time>2020-10-20T08:28:00Z</time>
      </trkpt>
      <trkpt lat="46.46546" lon="5.68262">
        <ele>473.6</ele>
        <time>2020-10-20T08:28:05Z</time>
      </trkpt>
      <trkpt lat="46.46541" lon="5.68265">
        <ele>472.8</ele>
        <time>2020-10-20T08:28:12Z</time>
      </trkpt>
      <trkpt lat="46.46538" lon="5.6827">
        <ele>472.1</ele>
        <time>2020-10-20T08:28:18Z</time>
      </trkpt>
      <trkpt lat="46.46534" lon="5.68274">
        <ele>471.6</ele>
        <time>2020-10-20T08:28:23Z</time>
      </trkpt>
      <trkpt lat="46.46529" lon="5.68276">
        <ele>470.9</ele>
        <time>2020-10-20T08:28:31Z</time>
      </trkpt>
      <trkpt lat="46.46524" lon="5.68276">
        <ele>470.3</ele>
        <time>2020-10-20T08:28:40Z</time>
      </trkpt>
      <trkpt lat="46.4652" lon="5.68272">
        <ele>469.3</ele>
        <time>2020-10-20T08:28:47Z</time>
      </trkpt>
      <trkpt lat="46.46515" lon="5.68273">
        <ele>468.3</ele>
        <time>2020-10-20T08:28:54Z</time>
      </trkpt>
      <trkpt lat="46.46511" lon="5.68275">
        <ele>470.2</ele>
        <time>2020-10-20T08:29:00Z</time>
      </trkpt>
      <trkpt lat="46.46506" lon="5.68278">
        <ele>471.8</ele>
        <time>2020-10-20T08:29:07Z</time>
      </trkpt>
      <trkpt lat="46.46502" lon="5.6828">
        <ele>472.3</ele>
        <time>2020-10-20T08:29:12Z</time>
      </trkpt>
      <trkpt lat="46.46497" lon="5.68282">
        <ele>471.5</ele>
        <time>2020-10-20T08:29:18Z</time>
      </trkpt>
      <trkpt lat="46.4649" lon="5.68286">
        <ele>472.8</ele>
        <time>2020-10-20T08:29:22Z</time>
      </trkpt>
      <trkpt lat="46.46485" lon="5.68291">
        <ele>473.9</ele>
        <time>2020-10-20T08:29:25Z</time>
      </trkpt>
      <trkpt lat="46.46481" lon="5.68295">
        <ele>475.1</ele>
        <time>2020-10-20T08:29:31Z</time>
      </trkpt>
      <trkpt lat="46.46477" lon="5.683">
        <ele>475.3</ele>
        <time>2020-10-20T08:29:37Z</time>
      </trkpt>
      <trkpt lat="46.46474" lon="5.68305">
        <ele>475</ele>
        <time>2020-10-20T08:29:42Z</time>
      </trkpt>
      <trkpt lat="46.4647" lon="5.68309">
        <ele>474.3</ele>
        <time>2020-10-20T08:29:47Z</time>
      </trkpt>
      <trkpt lat="46.46466" lon="5.68311">
        <ele>474</ele>
        <time>2020-10-20T08:29:51Z</time>
      </trkpt>
      <trkpt lat="46.46462" lon="5.68314">
        <ele>473.2</ele>
        <time>2020-10-20T08:29:59Z</time>
      </trkpt>
      <trkpt lat="46.46459" lon="5.68321">
        <ele>472.9</ele>
        <time>2020-10-20T08:30:12Z</time>
      </trkpt>
      <trkpt lat="46.46455" lon="5.68325">
        <ele>473</ele>
        <time>2020-10-20T08:30:16Z</time>
      </trkpt>
      <trkpt lat="46.46452" lon="5.6833">
        <ele>473</ele>
        <time>2020-10-20T08:30:20Z</time>
      </trkpt>
      <trkpt lat="46.46448" lon="5.68336">
        <ele>473.1</ele>
        <time>2020-10-20T08:30:25Z</time>
      </trkpt>
      <trkpt lat="46.46446" lon="5.68342">
        <ele>473.3</ele>
        <time>2020-10-20T08:30:31Z</time>
      </trkpt>
      <trkpt lat="46.46443" lon="5.68347">
        <ele>473.4</ele>
        <time>2020-10-20T08:30:36Z</time>
      </trkpt>
      <trkpt lat="46.46439" lon="5.68352">
        <ele>473.5</ele>
        <time>2020-10-20T08:30:41Z</time>
      </trkpt>
      <trkpt lat="46.46435" lon="5.68358">
        <ele>473.5</ele>
        <time>2020-10-20T08:30:46Z</time>
      </trkpt>
      <trkpt lat="46.46432" lon="5.68363">
        <ele>473.6</ele>
        <time>2020-10-20T08:30:50Z</time>
      </trkpt>
      <trkpt lat="46.46429" lon="5.68368">
        <ele>473.7</ele>
        <time>2020-10-20T08:30:55Z</time>
      </trkpt>
      <trkpt lat="46.46425" lon="5.68372">
        <ele>473.9</ele>
        <time>2020-10-20T08:31:01Z</time>
      </trkpt>
      <trkpt lat="46.4642" lon="5.68376">
        <ele>474.2</ele>
        <time>2020-10-20T08:31:07Z</time>
      </trkpt>
      <trkpt lat="46.46416" lon="5.68379">
        <ele>474.5</ele>
        <time>2020-10-20T08:31:12Z</time>
      </trkpt>
      <trkpt lat="46.46412" lon="5.68382">
        <ele>474.7</ele>
        <time>2020-10-20T08:31:18Z</time>
      </trkpt>
      <trkpt lat="46.46407" lon="5.68386">
        <ele>475</ele>
        <time>2020-10-20T08:31:25Z</time>
      </trkpt>
      <trkpt lat="46.46403" lon="5.68392">
        <ele>475.2</ele>
        <time>2020-10-20T08:31:30Z</time>
      </trkpt>
      <trkpt lat="46.46401" lon="5.68398">
        <ele>475.4</ele>
        <time>2020-10-20T08:31:34Z</time>
      </trkpt>
      <trkpt lat="46.46397" lon="5.68404">
        <ele>475.5</ele>
        <time>2020-10-20T08:31:38Z</time>
      </trkpt>
      <trkpt lat="46.46394" lon="5.68409">
        <ele>475.7</ele>
        <time>2020-10-20T08:31:42Z</time>
      </trkpt>
      <trkpt lat="46.4639" lon="5.68414">
        <ele>475.9</ele>
        <time>2020-10-20T08:31:47Z</time>
      </trkpt>
      <trkpt lat="46.46387" lon="5.6842">
        <ele>476.6</ele>
        <time>2020-10-20T08:31:54Z</time>
      </trkpt>
      <trkpt lat="46.46387" lon="5.68428">
        <ele>477</ele>
        <time>2020-10-20T08:32:00Z</time>
      </trkpt>
      <trkpt lat="46.46387" lon="5.68436">
        <ele>477.4</ele>
        <time>2020-10-20T08:32:07Z</time>
      </trkpt>
      <trkpt lat="46.46389" lon="5.68442">
        <ele>477.6</ele>
        <time>2020-10-20T08:32:13Z</time>
      </trkpt>
      <trkpt lat="46.46391" lon="5.68448">
        <ele>477.8</ele>
        <time>2020-10-20T08:32:17Z</time>
      </trkpt>
      <trkpt lat="46.46394" lon="5.68454">
        <ele>478.1</ele>
        <time>2020-10-20T08:32:21Z</time>
      </trkpt>
      <trkpt lat="46.46398" lon="5.68459">
        <ele>478.5</ele>
        <time>2020-10-20T08:32:27Z</time>
      </trkpt>
      <trkpt lat="46.46401" lon="5.68464">
        <ele>479</ele>
        <time>2020-10-20T08:32:31Z</time>
      </trkpt>
      <trkpt lat="46.46404" lon="5.68469">
        <ele>479.5</ele>
        <time>2020-10-20T08:32:37Z</time>
      </trkpt>
      <trkpt lat="46.46408" lon="5.68474">
        <ele>479.9</ele>
        <time>2020-10-20T08:32:43Z</time>
      </trkpt>
      <trkpt lat="46.46411" lon="5.6848">
        <ele>480.1</ele>
        <time>2020-10-20T08:32:48Z</time>
      </trkpt>
      <trkpt lat="46.46415" lon="5.68489">
        <ele>479.7</ele>
        <time>2020-10-20T08:32:54Z</time>
      </trkpt>
      <trkpt lat="46.46417" lon="5.68495">
        <ele>479.4</ele>
        <time>2020-10-20T08:32:57Z</time>
      </trkpt>
      <trkpt lat="46.46419" lon="5.685">
        <ele>478.9</ele>
        <time>2020-10-20T08:33:02Z</time>
      </trkpt>
      <trkpt lat="46.46423" lon="5.68503">
        <ele>478.6</ele>
        <time>2020-10-20T08:33:07Z</time>
      </trkpt>
      <trkpt lat="46.46428" lon="5.68507">
        <ele>478.4</ele>
        <time>2020-10-20T08:33:14Z</time>
      </trkpt>
      <trkpt lat="46.46431" lon="5.68512">
        <ele>478.4</ele>
        <time>2020-10-20T08:33:20Z</time>
      </trkpt>
      <trkpt lat="46.46436" lon="5.68513">
        <ele>478</ele>
        <time>2020-10-20T08:33:26Z</time>
      </trkpt>
      <trkpt lat="46.46441" lon="5.68515">
        <ele>477.6</ele>
        <time>2020-10-20T08:33:31Z</time>
      </trkpt>
      <trkpt lat="46.46446" lon="5.68517">
        <ele>477</ele>
        <time>2020-10-20T08:33:36Z</time>
      </trkpt>
      <trkpt lat="46.4645" lon="5.68521">
        <ele>476</ele>
        <time>2020-10-20T08:33:44Z</time>
      </trkpt>
      <trkpt lat="46.46454" lon="5.68524">
        <ele>475.5</ele>
        <time>2020-10-20T08:33:50Z</time>
      </trkpt>
      <trkpt lat="46.46457" lon="5.68531">
        <ele>475</ele>
        <time>2020-10-20T08:33:56Z</time>
      </trkpt>
      <trkpt lat="46.4646" lon="5.68536">
        <ele>474.9</ele>
        <time>2020-10-20T08:34:01Z</time>
      </trkpt>
      <trkpt lat="46.46462" lon="5.68543">
        <ele>474.8</ele>
        <time>2020-10-20T08:34:06Z</time>
      </trkpt>
      <trkpt lat="46.46463" lon="5.6855">
        <ele>474.6</ele>
        <time>2020-10-20T08:34:12Z</time>
      </trkpt>
      <trkpt lat="46.46468" lon="5.68551">
        <ele>473.2</ele>
        <time>2020-10-20T08:34:32Z</time>
      </trkpt>
      <trkpt lat="46.46464" lon="5.68556">
        <ele>473</ele>
        <time>2020-10-20T08:34:52Z</time>
      </trkpt>
      <trkpt lat="46.46463" lon="5.68563">
        <ele>474.3</ele>
        <time>2020-10-20T08:35:04Z</time>
      </trkpt>
      <trkpt lat="46.46462" lon="5.68569">
        <ele>476.1</ele>
        <time>2020-10-20T08:35:09Z</time>
      </trkpt>
      <trkpt lat="46.4646" lon="5.68576">
        <ele>478.2</ele>
        <time>2020-10-20T08:35:14Z</time>
      </trkpt>
      <trkpt lat="46.46459" lon="5.68583">
        <ele>479.6</ele>
        <time>2020-10-20T08:35:18Z</time>
      </trkpt>
      <trkpt lat="46.46458" lon="5.6859">
        <ele>481.4</ele>
        <time>2020-10-20T08:35:25Z</time>
      </trkpt>
      <trkpt lat="46.46456" lon="5.68596">
        <ele>482.4</ele>
        <time>2020-10-20T08:35:31Z</time>
      </trkpt>
      <trkpt lat="46.46454" lon="5.68603">
        <ele>483.2</ele>
        <time>2020-10-20T08:35:38Z</time>
      </trkpt>
      <trkpt lat="46.46451" lon="5.6861">
        <ele>484.5</ele>
        <time>2020-10-20T08:35:46Z</time>
      </trkpt>
      <trkpt lat="46.46448" lon="5.68615">
        <ele>485.6</ele>
        <time>2020-10-20T08:35:53Z</time>
      </trkpt>
      <trkpt lat="46.46444" lon="5.68618">
        <ele>485.6</ele>
        <time>2020-10-20T08:35:59Z</time>
      </trkpt>
      <trkpt lat="46.46439" lon="5.6862">
        <ele>485.8</ele>
        <time>2020-10-20T08:36:06Z</time>
      </trkpt>
      <trkpt lat="46.46435" lon="5.68623">
        <ele>485.9</ele>
        <time>2020-10-20T08:36:12Z</time>
      </trkpt>
      <trkpt lat="46.4643" lon="5.68626">
        <ele>485.4</ele>
        <time>2020-10-20T08:36:19Z</time>
      </trkpt>
      <trkpt lat="46.46426" lon="5.68627">
        <ele>484.4</ele>
        <time>2020-10-20T08:36:25Z</time>
      </trkpt>
      <trkpt lat="46.46421" lon="5.6863">
        <ele>482.8</ele>
        <time>2020-10-20T08:36:31Z</time>
      </trkpt>
      <trkpt lat="46.46417" lon="5.68633">
        <ele>480.7</ele>
        <time>2020-10-20T08:36:37Z</time>
      </trkpt>
      <trkpt lat="46.46413" lon="5.68635">
        <ele>478.9</ele>
        <time>2020-10-20T08:36:44Z</time>
      </trkpt>
      <trkpt lat="46.46408" lon="5.68638">
        <ele>476.5</ele>
        <time>2020-10-20T08:36:52Z</time>
      </trkpt>
      <trkpt lat="46.46404" lon="5.68641">
        <ele>475.1</ele>
        <time>2020-10-20T08:36:57Z</time>
      </trkpt>
      <trkpt lat="46.46399" lon="5.68644">
        <ele>474</ele>
        <time>2020-10-20T08:37:02Z</time>
      </trkpt>
      <trkpt lat="46.46395" lon="5.68649">
        <ele>472.8</ele>
        <time>2020-10-20T08:37:07Z</time>
      </trkpt>
      <trkpt lat="46.4639" lon="5.68653">
        <ele>471.7</ele>
        <time>2020-10-20T08:37:12Z</time>
      </trkpt>
      <trkpt lat="46.46385" lon="5.68654">
        <ele>470.4</ele>
        <time>2020-10-20T08:37:18Z</time>
      </trkpt>
      <trkpt lat="46.46381" lon="5.68658">
        <ele>469.3</ele>
        <time>2020-10-20T08:37:24Z</time>
      </trkpt>
      <trkpt lat="46.46376" lon="5.6866">
        <ele>468.3</ele>
        <time>2020-10-20T08:37:30Z</time>
      </trkpt>
      <trkpt lat="46.46371" lon="5.68662">
        <ele>467.4</ele>
        <time>2020-10-20T08:37:35Z</time>
      </trkpt>
      <trkpt lat="46.46366" lon="5.68664">
        <ele>466.7</ele>
        <time>2020-10-20T08:37:40Z</time>
      </trkpt>
      <trkpt lat="46.46361" lon="5.68665">
        <ele>466.2</ele>
        <time>2020-10-20T08:37:45Z</time>
      </trkpt>
      <trkpt lat="46.46356" lon="5.68666">
        <ele>465.8</ele>
        <time>2020-10-20T08:37:51Z</time>
      </trkpt>
      <trkpt lat="46.46351" lon="5.68666">
        <ele>465.4</ele>
        <time>2020-10-20T08:37:57Z</time>
      </trkpt>
      <trkpt lat="46.46347" lon="5.68663">
        <ele>465.1</ele>
        <time>2020-10-20T08:38:03Z</time>
      </trkpt>
      <trkpt lat="46.46342" lon="5.68661">
        <ele>464.8</ele>
        <time>2020-10-20T08:38:09Z</time>
      </trkpt>
      <trkpt lat="46.46338" lon="5.6866">
        <ele>464.4</ele>
        <time>2020-10-20T08:38:14Z</time>
      </trkpt>
      <trkpt lat="46.46333" lon="5.68658">
        <ele>463.7</ele>
        <time>2020-10-20T08:38:20Z</time>
      </trkpt>
      <trkpt lat="46.46328" lon="5.68656">
        <ele>463</ele>
        <time>2020-10-20T08:38:25Z</time>
      </trkpt>
      <trkpt lat="46.46324" lon="5.68653">
        <ele>462.2</ele>
        <time>2020-10-20T08:38:31Z</time>
      </trkpt>
      <trkpt lat="46.46319" lon="5.68649">
        <ele>461.2</ele>
        <time>2020-10-20T08:38:37Z</time>
      </trkpt>
      <trkpt lat="46.46315" lon="5.68648">
        <ele>460.3</ele>
        <time>2020-10-20T08:38:43Z</time>
      </trkpt>
      <trkpt lat="46.4631" lon="5.68645">
        <ele>459.6</ele>
        <time>2020-10-20T08:38:49Z</time>
      </trkpt>
      <trkpt lat="46.46305" lon="5.68645">
        <ele>458.8</ele>
        <time>2020-10-20T08:38:54Z</time>
      </trkpt>
      <trkpt lat="46.46299" lon="5.68643">
        <ele>457.6</ele>
        <time>2020-10-20T08:39:00Z</time>
      </trkpt>
      <trkpt lat="46.46295" lon="5.68641">
        <ele>456.7</ele>
        <time>2020-10-20T08:39:05Z</time>
      </trkpt>
      <trkpt lat="46.4629" lon="5.68641">
        <ele>455.8</ele>
        <time>2020-10-20T08:39:11Z</time>
      </trkpt>
      <trkpt lat="46.46286" lon="5.68646">
        <ele>455.4</ele>
        <time>2020-10-20T08:39:16Z</time>
      </trkpt>
      <trkpt lat="46.46283" lon="5.68653">
        <ele>455.3</ele>
        <time>2020-10-20T08:39:21Z</time>
      </trkpt>
      <trkpt lat="46.46283" lon="5.6866">
        <ele>455.5</ele>
        <time>2020-10-20T08:39:26Z</time>
      </trkpt>
      <trkpt lat="46.46282" lon="5.68667">
        <ele>455.4</ele>
        <time>2020-10-20T08:39:32Z</time>
      </trkpt>
      <trkpt lat="46.46281" lon="5.68674">
        <ele>455.1</ele>
        <time>2020-10-20T08:39:36Z</time>
      </trkpt>
      <trkpt lat="46.46279" lon="5.6868">
        <ele>454.7</ele>
        <time>2020-10-20T08:39:40Z</time>
      </trkpt>
      <trkpt lat="46.46277" lon="5.68687">
        <ele>454.1</ele>
        <time>2020-10-20T08:39:45Z</time>
      </trkpt>
      <trkpt lat="46.46276" lon="5.68693">
        <ele>454.8</ele>
        <time>2020-10-20T08:39:48Z</time>
      </trkpt>
      <trkpt lat="46.46274" lon="5.687">
        <ele>455.7</ele>
        <time>2020-10-20T08:39:53Z</time>
      </trkpt>
      <trkpt lat="46.4627" lon="5.68705">
        <ele>456.5</ele>
        <time>2020-10-20T08:39:59Z</time>
      </trkpt>
      <trkpt lat="46.46265" lon="5.68708">
        <ele>457.1</ele>
        <time>2020-10-20T08:40:06Z</time>
      </trkpt>
      <trkpt lat="46.4626" lon="5.68709">
        <ele>452</ele>
        <time>2020-10-20T08:40:31Z</time>
      </trkpt>
      <trkpt lat="46.46262" lon="5.68702">
        <ele>452.1</ele>
        <time>2020-10-20T08:40:44Z</time>
      </trkpt>
      <trkpt lat="46.46263" lon="5.68695">
        <ele>452.1</ele>
        <time>2020-10-20T08:40:48Z</time>
      </trkpt>
      <trkpt lat="46.46264" lon="5.68688">
        <ele>452.4</ele>
        <time>2020-10-20T08:40:53Z</time>
      </trkpt>
      <trkpt lat="46.46265" lon="5.68681">
        <ele>452.4</ele>
        <time>2020-10-20T08:40:57Z</time>
      </trkpt>
      <trkpt lat="46.46266" lon="5.68674">
        <ele>452.1</ele>
        <time>2020-10-20T08:41:01Z</time>
      </trkpt>
      <trkpt lat="46.46265" lon="5.68667">
        <ele>451.2</ele>
        <time>2020-10-20T08:41:07Z</time>
      </trkpt>
      <trkpt lat="46.46266" lon="5.6866">
        <ele>450.2</ele>
        <time>2020-10-20T08:41:12Z</time>
      </trkpt>
      <trkpt lat="46.46265" lon="5.68652">
        <ele>449.6</ele>
        <time>2020-10-20T08:41:16Z</time>
      </trkpt>
      <trkpt lat="46.46265" lon="5.68645">
        <ele>449.8</ele>
        <time>2020-10-20T08:41:19Z</time>
      </trkpt>
      <trkpt lat="46.46264" lon="5.68638">
        <ele>450.2</ele>
        <time>2020-10-20T08:41:22Z</time>
      </trkpt>
      <trkpt lat="46.46265" lon="5.68631">
        <ele>451.3</ele>
        <time>2020-10-20T08:41:28Z</time>
      </trkpt>
      <trkpt lat="46.46261" lon="5.68634">
        <ele>448.5</ele>
        <time>2020-10-20T08:41:47Z</time>
      </trkpt>
      <trkpt lat="46.46256" lon="5.68637">
        <ele>447.1</ele>
        <time>2020-10-20T08:41:53Z</time>
      </trkpt>
      <trkpt lat="46.46252" lon="5.68638">
        <ele>445.6</ele>
        <time>2020-10-20T08:41:59Z</time>
      </trkpt>
      <trkpt lat="46.46247" lon="5.6864">
        <ele>444.1</ele>
        <time>2020-10-20T08:42:06Z</time>
      </trkpt>
      <trkpt lat="46.46243" lon="5.68642">
        <ele>442.8</ele>
        <time>2020-10-20T08:42:13Z</time>
      </trkpt>
      <trkpt lat="46.46239" lon="5.68647">
        <ele>441.3</ele>
        <time>2020-10-20T08:42:24Z</time>
      </trkpt>
      <trkpt lat="46.46239" lon="5.68655">
        <ele>440.8</ele>
        <time>2020-10-20T08:42:30Z</time>
      </trkpt>
      <trkpt lat="46.46238" lon="5.68662">
        <ele>440.4</ele>
        <time>2020-10-20T08:42:36Z</time>
      </trkpt>
      <trkpt lat="46.46237" lon="5.68669">
        <ele>440</ele>
        <time>2020-10-20T08:42:43Z</time>
      </trkpt>
      <trkpt lat="46.46235" lon="5.68675">
        <ele>439.1</ele>
        <time>2020-10-20T08:42:53Z</time>
      </trkpt>
      <trkpt lat="46.46231" lon="5.68677">
        <ele>438.8</ele>
        <time>2020-10-20T08:43:00Z</time>
      </trkpt>
      <trkpt lat="46.46227" lon="5.68683">
        <ele>438.7</ele>
        <time>2020-10-20T08:43:05Z</time>
      </trkpt>
      <trkpt lat="46.46224" lon="5.68687">
        <ele>438.7</ele>
        <time>2020-10-20T08:43:10Z</time>
      </trkpt>
      <trkpt lat="46.4622" lon="5.68692">
        <ele>438.5</ele>
        <time>2020-10-20T08:43:17Z</time>
      </trkpt>
      <trkpt lat="46.46218" lon="5.68699">
        <ele>437.8</ele>
        <time>2020-10-20T08:43:23Z</time>
      </trkpt>
      <trkpt lat="46.46214" lon="5.68703">
        <ele>436.9</ele>
        <time>2020-10-20T08:43:28Z</time>
      </trkpt>
      <trkpt lat="46.4621" lon="5.68707">
        <ele>435.9</ele>
        <time>2020-10-20T08:43:33Z</time>
      </trkpt>
      <trkpt lat="46.46206" lon="5.6871">
        <ele>434.8</ele>
        <time>2020-10-20T08:43:39Z</time>
      </trkpt>
      <trkpt lat="46.46201" lon="5.68713">
        <ele>434</ele>
        <time>2020-10-20T08:43:46Z</time>
      </trkpt>
      <trkpt lat="46.46197" lon="5.68716">
        <ele>433.2</ele>
        <time>2020-10-20T08:43:52Z</time>
      </trkpt>
      <trkpt lat="46.46192" lon="5.68718">
        <ele>432.3</ele>
        <time>2020-10-20T08:43:58Z</time>
      </trkpt>
      <trkpt lat="46.46187" lon="5.6872">
        <ele>431.3</ele>
        <time>2020-10-20T08:44:06Z</time>
      </trkpt>
      <trkpt lat="46.46183" lon="5.68723">
        <ele>430.4</ele>
        <time>2020-10-20T08:44:14Z</time>
      </trkpt>
      <trkpt lat="46.4618" lon="5.68729">
        <ele>429.8</ele>
        <time>2020-10-20T08:44:23Z</time>
      </trkpt>
      <trkpt lat="46.46177" lon="5.68733">
        <ele>429.3</ele>
        <time>2020-10-20T08:44:31Z</time>
      </trkpt>
      <trkpt lat="46.46172" lon="5.6873">
        <ele>428.4</ele>
        <time>2020-10-20T08:44:37Z</time>
      </trkpt>
      <trkpt lat="46.46168" lon="5.68735">
        <ele>422.6</ele>
        <time>2020-10-20T08:45:34Z</time>
      </trkpt>
      <trkpt lat="46.46168" lon="5.68742">
        <ele>422.5</ele>
        <time>2020-10-20T08:45:40Z</time>
      </trkpt>
      <trkpt lat="46.46169" lon="5.6875">
        <ele>422.5</ele>
        <time>2020-10-20T08:45:54Z</time>
      </trkpt>
      <trkpt lat="46.46165" lon="5.6875">
        <ele>422</ele>
        <time>2020-10-20T08:46:05Z</time>
      </trkpt>
      <trkpt lat="46.46162" lon="5.68756">
        <ele>421.9</ele>
        <time>2020-10-20T08:46:11Z</time>
      </trkpt>
      <trkpt lat="46.46159" lon="5.68761">
        <ele>421.8</ele>
        <time>2020-10-20T08:46:17Z</time>
      </trkpt>
      <trkpt lat="46.46154" lon="5.68765">
        <ele>421.8</ele>
        <time>2020-10-20T08:46:23Z</time>
      </trkpt>
      <trkpt lat="46.4615" lon="5.68768">
        <ele>422.1</ele>
        <time>2020-10-20T08:46:28Z</time>
      </trkpt>
      <trkpt lat="46.46147" lon="5.68774">
        <ele>422.8</ele>
        <time>2020-10-20T08:46:33Z</time>
      </trkpt>
      <trkpt lat="46.46145" lon="5.6878">
        <ele>423.5</ele>
        <time>2020-10-20T08:46:39Z</time>
      </trkpt>
      <trkpt lat="46.46142" lon="5.68787">
        <ele>423.9</ele>
        <time>2020-10-20T08:46:45Z</time>
      </trkpt>
      <trkpt lat="46.46139" lon="5.68792">
        <ele>424.5</ele>
        <time>2020-10-20T08:46:50Z</time>
      </trkpt>
      <trkpt lat="46.46137" lon="5.68798">
        <ele>425.6</ele>
        <time>2020-10-20T08:47:01Z</time>
      </trkpt>
      <trkpt lat="46.46137" lon="5.68805">
        <ele>426.9</ele>
        <time>2020-10-20T08:47:05Z</time>
      </trkpt>
      <trkpt lat="46.46138" lon="5.68812">
        <ele>428.4</ele>
        <time>2020-10-20T08:47:10Z</time>
      </trkpt>
      <trkpt lat="46.4614" lon="5.68819">
        <ele>429.8</ele>
        <time>2020-10-20T08:47:18Z</time>
      </trkpt>
      <trkpt lat="46.46143" lon="5.68823">
        <ele>430.3</ele>
        <time>2020-10-20T08:47:23Z</time>
      </trkpt>
      <trkpt lat="46.46148" lon="5.68828">
        <ele>431.1</ele>
        <time>2020-10-20T08:47:30Z</time>
      </trkpt>
      <trkpt lat="46.46153" lon="5.6883">
        <ele>431.7</ele>
        <time>2020-10-20T08:47:35Z</time>
      </trkpt>
      <trkpt lat="46.46158" lon="5.68831">
        <ele>432.3</ele>
        <time>2020-10-20T08:47:40Z</time>
      </trkpt>
      <trkpt lat="46.46162" lon="5.68832">
        <ele>432.3</ele>
        <time>2020-10-20T08:47:45Z</time>
      </trkpt>
      <trkpt lat="46.46167" lon="5.68834">
        <ele>431.7</ele>
        <time>2020-10-20T08:47:51Z</time>
      </trkpt>
      <trkpt lat="46.46172" lon="5.68833">
        <ele>430.9</ele>
        <time>2020-10-20T08:47:57Z</time>
      </trkpt>
      <trkpt lat="46.46177" lon="5.68835">
        <ele>430.3</ele>
        <time>2020-10-20T08:48:02Z</time>
      </trkpt>
      <trkpt lat="46.46182" lon="5.68835">
        <ele>429.8</ele>
        <time>2020-10-20T08:48:07Z</time>
      </trkpt>
      <trkpt lat="46.46187" lon="5.68834">
        <ele>429.3</ele>
        <time>2020-10-20T08:48:11Z</time>
      </trkpt>
      <trkpt lat="46.46191" lon="5.68832">
        <ele>428.5</ele>
        <time>2020-10-20T08:48:21Z</time>
      </trkpt>
      <trkpt lat="46.46195" lon="5.68828">
        <ele>426.1</ele>
        <time>2020-10-20T08:48:43Z</time>
      </trkpt>
      <trkpt lat="46.46199" lon="5.68828">
        <ele>426</ele>
        <time>2020-10-20T08:48:51Z</time>
      </trkpt>
      <trkpt lat="46.46205" lon="5.68826">
        <ele>426.3</ele>
        <time>2020-10-20T08:48:57Z</time>
      </trkpt>
      <trkpt lat="46.4621" lon="5.68826">
        <ele>426.4</ele>
        <time>2020-10-20T08:49:02Z</time>
      </trkpt>
      <trkpt lat="46.46216" lon="5.68825">
        <ele>426.5</ele>
        <time>2020-10-20T08:49:07Z</time>
      </trkpt>
      <trkpt lat="46.4622" lon="5.68826">
        <ele>426.8</ele>
        <time>2020-10-20T08:49:11Z</time>
      </trkpt>
      <trkpt lat="46.46225" lon="5.68825">
        <ele>427.1</ele>
        <time>2020-10-20T08:49:16Z</time>
      </trkpt>
      <trkpt lat="46.4623" lon="5.68824">
        <ele>427.5</ele>
        <time>2020-10-20T08:49:20Z</time>
      </trkpt>
      <trkpt lat="46.46234" lon="5.68823">
        <ele>428</ele>
        <time>2020-10-20T08:49:24Z</time>
      </trkpt>
      <trkpt lat="46.46239" lon="5.68821">
        <ele>428.4</ele>
        <time>2020-10-20T08:49:29Z</time>
      </trkpt>
      <trkpt lat="46.46244" lon="5.68821">
        <ele>428.8</ele>
        <time>2020-10-20T08:49:34Z</time>
      </trkpt>
      <trkpt lat="46.46249" lon="5.68817">
        <ele>428.9</ele>
        <time>2020-10-20T08:49:38Z</time>
      </trkpt>
      <trkpt lat="46.46254" lon="5.68815">
        <ele>428.9</ele>
        <time>2020-10-20T08:49:42Z</time>
      </trkpt>
      <trkpt lat="46.46259" lon="5.68814">
        <ele>429.2</ele>
        <time>2020-10-20T08:49:48Z</time>
      </trkpt>
      <trkpt lat="46.46264" lon="5.68812">
        <ele>429.6</ele>
        <time>2020-10-20T08:49:53Z</time>
      </trkpt>
      <trkpt lat="46.46268" lon="5.6881">
        <ele>429.9</ele>
        <time>2020-10-20T08:49:57Z</time>
      </trkpt>
      <trkpt lat="46.46273" lon="5.68807">
        <ele>430.5</ele>
        <time>2020-10-20T08:50:02Z</time>
      </trkpt>
      <trkpt lat="46.46278" lon="5.68805">
        <ele>431.2</ele>
        <time>2020-10-20T08:50:07Z</time>
      </trkpt>
      <trkpt lat="46.46283" lon="5.68803">
        <ele>431.9</ele>
        <time>2020-10-20T08:50:12Z</time>
      </trkpt>
      <trkpt lat="46.46288" lon="5.68802">
        <ele>432.6</ele>
        <time>2020-10-20T08:50:17Z</time>
      </trkpt>
      <trkpt lat="46.46293" lon="5.68799">
        <ele>432.9</ele>
        <time>2020-10-20T08:50:22Z</time>
      </trkpt>
      <trkpt lat="46.46298" lon="5.68797">
        <ele>433.3</ele>
        <time>2020-10-20T08:50:27Z</time>
      </trkpt>
      <trkpt lat="46.46303" lon="5.68796">
        <ele>433.6</ele>
        <time>2020-10-20T08:50:32Z</time>
      </trkpt>
      <trkpt lat="46.46308" lon="5.68796">
        <ele>433.5</ele>
        <time>2020-10-20T08:50:38Z</time>
      </trkpt>
      <trkpt lat="46.46313" lon="5.68797">
        <ele>433.6</ele>
        <time>2020-10-20T08:50:42Z</time>
      </trkpt>
      <trkpt lat="46.46318" lon="5.68796">
        <ele>433.6</ele>
        <time>2020-10-20T08:50:46Z</time>
      </trkpt>
      <trkpt lat="46.46323" lon="5.68797">
        <ele>433.8</ele>
        <time>2020-10-20T08:50:51Z</time>
      </trkpt>
      <trkpt lat="46.46327" lon="5.68798">
        <ele>433.9</ele>
        <time>2020-10-20T08:50:57Z</time>
      </trkpt>
      <trkpt lat="46.46332" lon="5.68797">
        <ele>434</ele>
        <time>2020-10-20T08:51:02Z</time>
      </trkpt>
      <trkpt lat="46.46337" lon="5.68797">
        <ele>434.3</ele>
        <time>2020-10-20T08:51:07Z</time>
      </trkpt>
      <trkpt lat="46.46342" lon="5.688">
        <ele>434.6</ele>
        <time>2020-10-20T08:51:21Z</time>
      </trkpt>
      <trkpt lat="46.46346" lon="5.68799">
        <ele>434.6</ele>
        <time>2020-10-20T08:51:26Z</time>
      </trkpt>
      <trkpt lat="46.46352" lon="5.68798">
        <ele>434.5</ele>
        <time>2020-10-20T08:51:31Z</time>
      </trkpt>
      <trkpt lat="46.46356" lon="5.68799">
        <ele>434.5</ele>
        <time>2020-10-20T08:51:35Z</time>
      </trkpt>
      <trkpt lat="46.46362" lon="5.68799">
        <ele>434.5</ele>
        <time>2020-10-20T08:51:40Z</time>
      </trkpt>
      <trkpt lat="46.46367" lon="5.68799">
        <ele>434.3</ele>
        <time>2020-10-20T08:51:45Z</time>
      </trkpt>
      <trkpt lat="46.46372" lon="5.68799">
        <ele>434.2</ele>
        <time>2020-10-20T08:51:50Z</time>
      </trkpt>
      <trkpt lat="46.46377" lon="5.68799">
        <ele>433.8</ele>
        <time>2020-10-20T08:51:55Z</time>
      </trkpt>
      <trkpt lat="46.46381" lon="5.68799">
        <ele>433.3</ele>
        <time>2020-10-20T08:52:01Z</time>
      </trkpt>
      <trkpt lat="46.46384" lon="5.68805">
        <ele>432.7</ele>
        <time>2020-10-20T08:52:09Z</time>
      </trkpt>
      <trkpt lat="46.46382" lon="5.68811">
        <ele>432.4</ele>
        <time>2020-10-20T08:52:16Z</time>
      </trkpt>
      <trkpt lat="46.46381" lon="5.68818">
        <ele>432</ele>
        <time>2020-10-20T08:52:22Z</time>
      </trkpt>
      <trkpt lat="46.46381" lon="5.68825">
        <ele>431.7</ele>
        <time>2020-10-20T08:52:29Z</time>
      </trkpt>
      <trkpt lat="46.46383" lon="5.68818">
        <ele>432.4</ele>
        <time>2020-10-20T08:53:00Z</time>
      </trkpt>
      <trkpt lat="46.4638" lon="5.68824">
        <ele>434.2</ele>
        <time>2020-10-20T08:53:31Z</time>
      </trkpt>
      <trkpt lat="46.46381" lon="5.68831">
        <ele>434.2</ele>
        <time>2020-10-20T08:53:40Z</time>
      </trkpt>
      <trkpt lat="46.46385" lon="5.68831">
        <ele>433.9</ele>
        <time>2020-10-20T08:53:52Z</time>
      </trkpt>
      <trkpt lat="46.46389" lon="5.68833">
        <ele>434.1</ele>
        <time>2020-10-20T08:54:01Z</time>
      </trkpt>
      <trkpt lat="46.46393" lon="5.68838">
        <ele>434.4</ele>
        <time>2020-10-20T08:54:07Z</time>
      </trkpt>
      <trkpt lat="46.46398" lon="5.68842">
        <ele>434.6</ele>
        <time>2020-10-20T08:54:13Z</time>
      </trkpt>
      <trkpt lat="46.46403" lon="5.68844">
        <ele>434.5</ele>
        <time>2020-10-20T08:54:18Z</time>
      </trkpt>
      <trkpt lat="46.46407" lon="5.68846">
        <ele>434.3</ele>
        <time>2020-10-20T08:54:22Z</time>
      </trkpt>
      <trkpt lat="46.46412" lon="5.68848">
        <ele>434</ele>
        <time>2020-10-20T08:54:27Z</time>
      </trkpt>
      <trkpt lat="46.46416" lon="5.68851">
        <ele>433.9</ele>
        <time>2020-10-20T08:54:37Z</time>
      </trkpt>
      <trkpt lat="46.4642" lon="5.68856">
        <ele>433.3</ele>
        <time>2020-10-20T08:54:43Z</time>
      </trkpt>
      <trkpt lat="46.46424" lon="5.6886">
        <ele>432.9</ele>
        <time>2020-10-20T08:54:48Z</time>
      </trkpt>
      <trkpt lat="46.46427" lon="5.68865">
        <ele>432.2</ele>
        <time>2020-10-20T08:54:54Z</time>
      </trkpt>
      <trkpt lat="46.46431" lon="5.68867">
        <ele>431.3</ele>
        <time>2020-10-20T08:54:59Z</time>
      </trkpt>
      <trkpt lat="46.46436" lon="5.68871">
        <ele>430.4</ele>
        <time>2020-10-20T08:55:04Z</time>
      </trkpt>
      <trkpt lat="46.4644" lon="5.68875">
        <ele>429.7</ele>
        <time>2020-10-20T08:55:09Z</time>
      </trkpt>
      <trkpt lat="46.46444" lon="5.6888">
        <ele>429.1</ele>
        <time>2020-10-20T08:55:14Z</time>
      </trkpt>
      <trkpt lat="46.46447" lon="5.68886">
        <ele>428.9</ele>
        <time>2020-10-20T08:55:19Z</time>
      </trkpt>
      <trkpt lat="46.46451" lon="5.68891">
        <ele>429.3</ele>
        <time>2020-10-20T08:55:24Z</time>
      </trkpt>
      <trkpt lat="46.46454" lon="5.68897">
        <ele>429.8</ele>
        <time>2020-10-20T08:55:29Z</time>
      </trkpt>
      <trkpt lat="46.46458" lon="5.68901">
        <ele>430.5</ele>
        <time>2020-10-20T08:55:35Z</time>
      </trkpt>
      <trkpt lat="46.46462" lon="5.68904">
        <ele>429.1</ele>
        <time>2020-10-20T08:55:51Z</time>
      </trkpt>
      <trkpt lat="46.46465" lon="5.6891">
        <ele>428.6</ele>
        <time>2020-10-20T08:55:56Z</time>
      </trkpt>
      <trkpt lat="46.46469" lon="5.68915">
        <ele>428.2</ele>
        <time>2020-10-20T08:56:01Z</time>
      </trkpt>
      <trkpt lat="46.46472" lon="5.6892">
        <ele>428.2</ele>
        <time>2020-10-20T08:56:06Z</time>
      </trkpt>
      <trkpt lat="46.46476" lon="5.68925">
        <ele>428.2</ele>
        <time>2020-10-20T08:56:11Z</time>
      </trkpt>
      <trkpt lat="46.4648" lon="5.68929">
        <ele>428.3</ele>
        <time>2020-10-20T08:56:16Z</time>
      </trkpt>
      <trkpt lat="46.46485" lon="5.68931">
        <ele>428.2</ele>
        <time>2020-10-20T08:56:21Z</time>
      </trkpt>
      <trkpt lat="46.46489" lon="5.68935">
        <ele>427.8</ele>
        <time>2020-10-20T08:56:26Z</time>
      </trkpt>
      <trkpt lat="46.46494" lon="5.68938">
        <ele>427.5</ele>
        <time>2020-10-20T08:56:31Z</time>
      </trkpt>
      <trkpt lat="46.46498" lon="5.68941">
        <ele>427.3</ele>
        <time>2020-10-20T08:56:36Z</time>
      </trkpt>
      <trkpt lat="46.46502" lon="5.68945">
        <ele>427.2</ele>
        <time>2020-10-20T08:56:41Z</time>
      </trkpt>
      <trkpt lat="46.46506" lon="5.6895">
        <ele>427.2</ele>
        <time>2020-10-20T08:56:46Z</time>
      </trkpt>
      <trkpt lat="46.4651" lon="5.68954">
        <ele>427.3</ele>
        <time>2020-10-20T08:56:50Z</time>
      </trkpt>
      <trkpt lat="46.46512" lon="5.6896">
        <ele>427.5</ele>
        <time>2020-10-20T08:56:54Z</time>
      </trkpt>
      <trkpt lat="46.46516" lon="5.68966">
        <ele>428.7</ele>
        <time>2020-10-20T08:56:59Z</time>
      </trkpt>
      <trkpt lat="46.46515" lon="5.68972">
        <ele>428.8</ele>
        <time>2020-10-20T08:57:28Z</time>
      </trkpt>
      <trkpt lat="46.46513" lon="5.68979">
        <ele>428.8</ele>
        <time>2020-10-20T08:57:32Z</time>
      </trkpt>
      <trkpt lat="46.46513" lon="5.68986">
        <ele>429.3</ele>
        <time>2020-10-20T08:57:36Z</time>
      </trkpt>
      <trkpt lat="46.46513" lon="5.68993">
        <ele>431.8</ele>
        <time>2020-10-20T08:57:40Z</time>
      </trkpt>
      <trkpt lat="46.46515" lon="5.69001">
        <ele>433.9</ele>
        <time>2020-10-20T08:57:44Z</time>
      </trkpt>
      <trkpt lat="46.46518" lon="5.69006">
        <ele>432.8</ele>
        <time>2020-10-20T08:57:49Z</time>
      </trkpt>
      <trkpt lat="46.46521" lon="5.69011">
        <ele>430.8</ele>
        <time>2020-10-20T08:57:55Z</time>
      </trkpt>
      <trkpt lat="46.46524" lon="5.69017">
        <ele>429</ele>
        <time>2020-10-20T08:58:01Z</time>
      </trkpt>
      <trkpt lat="46.46523" lon="5.69025">
        <ele>428.7</ele>
        <time>2020-10-20T08:58:12Z</time>
      </trkpt>
      <trkpt lat="46.46521" lon="5.69032">
        <ele>429.9</ele>
        <time>2020-10-20T08:58:17Z</time>
      </trkpt>
      <trkpt lat="46.46517" lon="5.69036">
        <ele>432</ele>
        <time>2020-10-20T08:58:28Z</time>
      </trkpt>
      <trkpt lat="46.46512" lon="5.69034">
        <ele>433.2</ele>
        <time>2020-10-20T08:58:36Z</time>
      </trkpt>
      <trkpt lat="46.46508" lon="5.69033">
        <ele>433.2</ele>
        <time>2020-10-20T08:58:42Z</time>
      </trkpt>
      <trkpt lat="46.46502" lon="5.69033">
        <ele>432.7</ele>
        <time>2020-10-20T08:58:47Z</time>
      </trkpt>
      <trkpt lat="46.46497" lon="5.69034">
        <ele>432.5</ele>
        <time>2020-10-20T08:58:51Z</time>
      </trkpt>
      <trkpt lat="46.46492" lon="5.69038">
        <ele>433.2</ele>
        <time>2020-10-20T08:58:56Z</time>
      </trkpt>
      <trkpt lat="46.46488" lon="5.69042">
        <ele>433.2</ele>
        <time>2020-10-20T08:59:00Z</time>
      </trkpt>
      <trkpt lat="46.46484" lon="5.69045">
        <ele>432.8</ele>
        <time>2020-10-20T08:59:08Z</time>
      </trkpt>
      <trkpt lat="46.46483" lon="5.69052">
        <ele>432.6</ele>
        <time>2020-10-20T08:59:17Z</time>
      </trkpt>
      <trkpt lat="46.46483" lon="5.69058">
        <ele>433.1</ele>
        <time>2020-10-20T08:59:22Z</time>
      </trkpt>
      <trkpt lat="46.46483" lon="5.69065">
        <ele>433.9</ele>
        <time>2020-10-20T08:59:27Z</time>
      </trkpt>
      <trkpt lat="46.46485" lon="5.69072">
        <ele>432.9</ele>
        <time>2020-10-20T09:00:24Z</time>
      </trkpt>
      <trkpt lat="46.46486" lon="5.69079">
        <ele>430.7</ele>
        <time>2020-10-20T09:00:32Z</time>
      </trkpt>
      <trkpt lat="46.46488" lon="5.69084">
        <ele>429.9</ele>
        <time>2020-10-20T09:00:37Z</time>
      </trkpt>
      <trkpt lat="46.46492" lon="5.69089">
        <ele>428.9</ele>
        <time>2020-10-20T09:00:42Z</time>
      </trkpt>
      <trkpt lat="46.46494" lon="5.69095">
        <ele>427.8</ele>
        <time>2020-10-20T09:00:47Z</time>
      </trkpt>
      <trkpt lat="46.46497" lon="5.69101">
        <ele>426.9</ele>
        <time>2020-10-20T09:00:52Z</time>
      </trkpt>
      <trkpt lat="46.46501" lon="5.69105">
        <ele>426.2</ele>
        <time>2020-10-20T09:00:59Z</time>
      </trkpt>
      <trkpt lat="46.46505" lon="5.6911">
        <ele>425.5</ele>
        <time>2020-10-20T09:01:06Z</time>
      </trkpt>
      <trkpt lat="46.46512" lon="5.6912">
        <ele>428.3</ele>
        <time>2020-10-20T09:01:12Z</time>
      </trkpt>
      <trkpt lat="46.46515" lon="5.69126">
        <ele>429.7</ele>
        <time>2020-10-20T09:01:14Z</time>
      </trkpt>
      <trkpt lat="46.46519" lon="5.6913">
        <ele>432.6</ele>
        <time>2020-10-20T09:01:18Z</time>
      </trkpt>
      <trkpt lat="46.46524" lon="5.69128">
        <ele>435.4</ele>
        <time>2020-10-20T09:01:22Z</time>
      </trkpt>
      <trkpt lat="46.46529" lon="5.69129">
        <ele>437.7</ele>
        <time>2020-10-20T09:01:29Z</time>
      </trkpt>
      <trkpt lat="46.46533" lon="5.69134">
        <ele>437.8</ele>
        <time>2020-10-20T09:01:35Z</time>
      </trkpt>
      <trkpt lat="46.46537" lon="5.69138">
        <ele>437.2</ele>
        <time>2020-10-20T09:01:41Z</time>
      </trkpt>
      <trkpt lat="46.46542" lon="5.69142">
        <ele>436.4</ele>
        <time>2020-10-20T09:01:46Z</time>
      </trkpt>
      <trkpt lat="46.46545" lon="5.69146">
        <ele>435.5</ele>
        <time>2020-10-20T09:01:51Z</time>
      </trkpt>
      <trkpt lat="46.46549" lon="5.6915">
        <ele>434.1</ele>
        <time>2020-10-20T09:01:58Z</time>
      </trkpt>
      <trkpt lat="46.46554" lon="5.69153">
        <ele>432.8</ele>
        <time>2020-10-20T09:02:04Z</time>
      </trkpt>
      <trkpt lat="46.46559" lon="5.69154">
        <ele>431.4</ele>
        <time>2020-10-20T09:02:11Z</time>
      </trkpt>
      <trkpt lat="46.46563" lon="5.69159">
        <ele>430.5</ele>
        <time>2020-10-20T09:02:17Z</time>
      </trkpt>
      <trkpt lat="46.46567" lon="5.69165">
        <ele>430</ele>
        <time>2020-10-20T09:02:23Z</time>
      </trkpt>
      <trkpt lat="46.46571" lon="5.6917">
        <ele>429.6</ele>
        <time>2020-10-20T09:02:30Z</time>
      </trkpt>
      <trkpt lat="46.46575" lon="5.69173">
        <ele>429.8</ele>
        <time>2020-10-20T09:02:36Z</time>
      </trkpt>
      <trkpt lat="46.4658" lon="5.69177">
        <ele>429.7</ele>
        <time>2020-10-20T09:02:41Z</time>
      </trkpt>
      <trkpt lat="46.46583" lon="5.69182">
        <ele>429.6</ele>
        <time>2020-10-20T09:02:45Z</time>
      </trkpt>
      <trkpt lat="46.46587" lon="5.69187">
        <ele>429.2</ele>
        <time>2020-10-20T09:02:49Z</time>
      </trkpt>
      <trkpt lat="46.46589" lon="5.69194">
        <ele>428.6</ele>
        <time>2020-10-20T09:02:54Z</time>
      </trkpt>
      <trkpt lat="46.4659" lon="5.692">
        <ele>427.9</ele>
        <time>2020-10-20T09:02:59Z</time>
      </trkpt>
      <trkpt lat="46.46589" lon="5.69208">
        <ele>427.8</ele>
        <time>2020-10-20T09:03:05Z</time>
      </trkpt>
      <trkpt lat="46.46587" lon="5.69218">
        <ele>430</ele>
        <time>2020-10-20T09:03:47Z</time>
      </trkpt>
      <trkpt lat="46.46585" lon="5.69225">
        <ele>431.1</ele>
        <time>2020-10-20T09:03:51Z</time>
      </trkpt>
      <trkpt lat="46.46582" lon="5.6923">
        <ele>432.3</ele>
        <time>2020-10-20T09:03:57Z</time>
      </trkpt>
      <trkpt lat="46.46577" lon="5.69233">
        <ele>431.7</ele>
        <time>2020-10-20T09:04:05Z</time>
      </trkpt>
      <trkpt lat="46.46574" lon="5.69238">
        <ele>431.2</ele>
        <time>2020-10-20T09:04:09Z</time>
      </trkpt>
      <trkpt lat="46.46569" lon="5.69244">
        <ele>431.2</ele>
        <time>2020-10-20T09:04:13Z</time>
      </trkpt>
      <trkpt lat="46.46566" lon="5.69249">
        <ele>431.7</ele>
        <time>2020-10-20T09:04:16Z</time>
      </trkpt>
      <trkpt lat="46.46562" lon="5.69254">
        <ele>432.5</ele>
        <time>2020-10-20T09:04:20Z</time>
      </trkpt>
      <trkpt lat="46.46558" lon="5.69259">
        <ele>433</ele>
        <time>2020-10-20T09:04:23Z</time>
      </trkpt>
      <trkpt lat="46.46554" lon="5.69263">
        <ele>433.8</ele>
        <time>2020-10-20T09:04:27Z</time>
      </trkpt>
      <trkpt lat="46.4655" lon="5.69266">
        <ele>435.1</ele>
        <time>2020-10-20T09:04:32Z</time>
      </trkpt>
      <trkpt lat="46.46546" lon="5.69272">
        <ele>436.6</ele>
        <time>2020-10-20T09:04:37Z</time>
      </trkpt>
      <trkpt lat="46.46541" lon="5.69269">
        <ele>438.4</ele>
        <time>2020-10-20T09:04:43Z</time>
      </trkpt>
      <trkpt lat="46.46536" lon="5.69267">
        <ele>439.7</ele>
        <time>2020-10-20T09:04:48Z</time>
      </trkpt>
      <trkpt lat="46.46531" lon="5.69265">
        <ele>440.4</ele>
        <time>2020-10-20T09:04:52Z</time>
      </trkpt>
      <trkpt lat="46.46527" lon="5.69264">
        <ele>441.2</ele>
        <time>2020-10-20T09:04:56Z</time>
      </trkpt>
      <trkpt lat="46.46521" lon="5.69263">
        <ele>442.2</ele>
        <time>2020-10-20T09:05:01Z</time>
      </trkpt>
      <trkpt lat="46.46517" lon="5.69261">
        <ele>443</ele>
        <time>2020-10-20T09:05:05Z</time>
      </trkpt>
      <trkpt lat="46.46512" lon="5.69259">
        <ele>443.6</ele>
        <time>2020-10-20T09:05:09Z</time>
      </trkpt>
      <trkpt lat="46.46508" lon="5.69259">
        <ele>444.1</ele>
        <time>2020-10-20T09:05:13Z</time>
      </trkpt>
      <trkpt lat="46.46503" lon="5.69261">
        <ele>444.4</ele>
        <time>2020-10-20T09:05:18Z</time>
      </trkpt>
      <trkpt lat="46.46498" lon="5.69264">
        <ele>444.2</ele>
        <time>2020-10-20T09:05:23Z</time>
      </trkpt>
      <trkpt lat="46.46494" lon="5.69266">
        <ele>443.6</ele>
        <time>2020-10-20T09:05:29Z</time>
      </trkpt>
      <trkpt lat="46.46489" lon="5.69268">
        <ele>442.9</ele>
        <time>2020-10-20T09:05:34Z</time>
      </trkpt>
      <trkpt lat="46.46486" lon="5.69273">
        <ele>441.6</ele>
        <time>2020-10-20T09:05:39Z</time>
      </trkpt>
      <trkpt lat="46.46481" lon="5.69276">
        <ele>439.5</ele>
        <time>2020-10-20T09:05:45Z</time>
      </trkpt>
      <trkpt lat="46.46476" lon="5.69275">
        <ele>438.1</ele>
        <time>2020-10-20T09:05:50Z</time>
      </trkpt>
      <trkpt lat="46.46471" lon="5.69276">
        <ele>436.5</ele>
        <time>2020-10-20T09:05:55Z</time>
      </trkpt>
      <trkpt lat="46.46466" lon="5.69279">
        <ele>434.8</ele>
        <time>2020-10-20T09:06:01Z</time>
      </trkpt>
      <trkpt lat="46.46462" lon="5.69282">
        <ele>433.8</ele>
        <time>2020-10-20T09:06:06Z</time>
      </trkpt>
      <trkpt lat="46.46458" lon="5.69285">
        <ele>433.4</ele>
        <time>2020-10-20T09:06:11Z</time>
      </trkpt>
      <trkpt lat="46.46454" lon="5.6929">
        <ele>433.2</ele>
        <time>2020-10-20T09:06:16Z</time>
      </trkpt>
      <trkpt lat="46.46452" lon="5.69296">
        <ele>434.1</ele>
        <time>2020-10-20T09:06:22Z</time>
      </trkpt>
      <trkpt lat="46.46448" lon="5.69295">
        <ele>435.4</ele>
        <time>2020-10-20T09:07:04Z</time>
      </trkpt>
      <trkpt lat="46.46443" lon="5.69294">
        <ele>435.8</ele>
        <time>2020-10-20T09:07:10Z</time>
      </trkpt>
      <trkpt lat="46.46438" lon="5.69294">
        <ele>434.9</ele>
        <time>2020-10-20T09:07:15Z</time>
      </trkpt>
      <trkpt lat="46.46435" lon="5.693">
        <ele>432.6</ele>
        <time>2020-10-20T09:07:21Z</time>
      </trkpt>
      <trkpt lat="46.46433" lon="5.69308">
        <ele>431.3</ele>
        <time>2020-10-20T09:07:25Z</time>
      </trkpt>
      <trkpt lat="46.46432" lon="5.69314">
        <ele>429.9</ele>
        <time>2020-10-20T09:07:31Z</time>
      </trkpt>
      <trkpt lat="46.46431" lon="5.69322">
        <ele>429.4</ele>
        <time>2020-10-20T09:07:37Z</time>
      </trkpt>
      <trkpt lat="46.4643" lon="5.69328">
        <ele>429.4</ele>
        <time>2020-10-20T09:07:43Z</time>
      </trkpt>
      <trkpt lat="46.46429" lon="5.69335">
        <ele>430.1</ele>
        <time>2020-10-20T09:07:49Z</time>
      </trkpt>
      <trkpt lat="46.46426" lon="5.6934">
        <ele>431.2</ele>
        <time>2020-10-20T09:07:57Z</time>
      </trkpt>
      <trkpt lat="46.46423" lon="5.69346">
        <ele>431.6</ele>
        <time>2020-10-20T09:08:06Z</time>
      </trkpt>
      <trkpt lat="46.4642" lon="5.69352">
        <ele>431.6</ele>
        <time>2020-10-20T09:08:11Z</time>
      </trkpt>
      <trkpt lat="46.46419" lon="5.69359">
        <ele>431.4</ele>
        <time>2020-10-20T09:08:16Z</time>
      </trkpt>
      <trkpt lat="46.46419" lon="5.69366">
        <ele>430.7</ele>
        <time>2020-10-20T09:08:37Z</time>
      </trkpt>
      <trkpt lat="46.4642" lon="5.69373">
        <ele>430.4</ele>
        <time>2020-10-20T09:08:44Z</time>
      </trkpt>
      <trkpt lat="46.4642" lon="5.6938">
        <ele>430.3</ele>
        <time>2020-10-20T09:08:50Z</time>
      </trkpt>
      <trkpt lat="46.4642" lon="5.69387">
        <ele>430.2</ele>
        <time>2020-10-20T09:08:56Z</time>
      </trkpt>
      <trkpt lat="46.46421" lon="5.69394">
        <ele>430.4</ele>
        <time>2020-10-20T09:09:01Z</time>
      </trkpt>
      <trkpt lat="46.46421" lon="5.694">
        <ele>430.4</ele>
        <time>2020-10-20T09:09:07Z</time>
      </trkpt>
      <trkpt lat="46.46421" lon="5.69408">
        <ele>430.3</ele>
        <time>2020-10-20T09:09:12Z</time>
      </trkpt>
      <trkpt lat="46.46422" lon="5.69415">
        <ele>430.1</ele>
        <time>2020-10-20T09:09:19Z</time>
      </trkpt>
      <trkpt lat="46.46421" lon="5.69422">
        <ele>429.5</ele>
        <time>2020-10-20T09:09:25Z</time>
      </trkpt>
      <trkpt lat="46.46419" lon="5.69428">
        <ele>429.5</ele>
        <time>2020-10-20T09:09:32Z</time>
      </trkpt>
      <trkpt lat="46.46417" lon="5.69435">
        <ele>429.5</ele>
        <time>2020-10-20T09:09:43Z</time>
      </trkpt>
      <trkpt lat="46.46414" lon="5.69441">
        <ele>429.4</ele>
        <time>2020-10-20T09:09:49Z</time>
      </trkpt>
      <trkpt lat="46.46412" lon="5.69448">
        <ele>429.1</ele>
        <time>2020-10-20T09:09:54Z</time>
      </trkpt>
      <trkpt lat="46.4641" lon="5.69454">
        <ele>429.5</ele>
        <time>2020-10-20T09:10:10Z</time>
      </trkpt>
      <trkpt lat="46.46409" lon="5.69461">
        <ele>429.4</ele>
        <time>2020-10-20T09:10:15Z</time>
      </trkpt>
      <trkpt lat="46.46409" lon="5.69468">
        <ele>429.3</ele>
        <time>2020-10-20T09:10:21Z</time>
      </trkpt>
      <trkpt lat="46.4641" lon="5.69475">
        <ele>429.7</ele>
        <time>2020-10-20T09:10:50Z</time>
      </trkpt>
      <trkpt lat="46.46408" lon="5.69481">
        <ele>429.7</ele>
        <time>2020-10-20T09:10:55Z</time>
      </trkpt>
      <trkpt lat="46.46406" lon="5.69488">
        <ele>429.6</ele>
        <time>2020-10-20T09:11:01Z</time>
      </trkpt>
      <trkpt lat="46.46404" lon="5.69494">
        <ele>429.4</ele>
        <time>2020-10-20T09:11:06Z</time>
      </trkpt>
      <trkpt lat="46.464" lon="5.69499">
        <ele>429.5</ele>
        <time>2020-10-20T09:11:11Z</time>
      </trkpt>
      <trkpt lat="46.46396" lon="5.69504">
        <ele>430.1</ele>
        <time>2020-10-20T09:11:15Z</time>
      </trkpt>
      <trkpt lat="46.46393" lon="5.6951">
        <ele>431.7</ele>
        <time>2020-10-20T09:11:21Z</time>
      </trkpt>
      <trkpt lat="46.46389" lon="5.69512">
        <ele>432.5</ele>
        <time>2020-10-20T09:11:30Z</time>
      </trkpt>
      <trkpt lat="46.46384" lon="5.69517">
        <ele>432.6</ele>
        <time>2020-10-20T09:11:35Z</time>
      </trkpt>
      <trkpt lat="46.46382" lon="5.69523">
        <ele>432.5</ele>
        <time>2020-10-20T09:11:39Z</time>
      </trkpt>
      <trkpt lat="46.46379" lon="5.69528">
        <ele>432.5</ele>
        <time>2020-10-20T09:11:43Z</time>
      </trkpt>
      <trkpt lat="46.46375" lon="5.69533">
        <ele>433</ele>
        <time>2020-10-20T09:11:47Z</time>
      </trkpt>
      <trkpt lat="46.46372" lon="5.69538">
        <ele>433.5</ele>
        <time>2020-10-20T09:11:51Z</time>
      </trkpt>
      <trkpt lat="46.4637" lon="5.69544">
        <ele>433.9</ele>
        <time>2020-10-20T09:11:55Z</time>
      </trkpt>
      <trkpt lat="46.46366" lon="5.69549">
        <ele>433.9</ele>
        <time>2020-10-20T09:12:01Z</time>
      </trkpt>
      <trkpt lat="46.46361" lon="5.69554">
        <ele>432.4</ele>
        <time>2020-10-20T09:12:06Z</time>
      </trkpt>
      <trkpt lat="46.46358" lon="5.6956">
        <ele>430.5</ele>
        <time>2020-10-20T09:12:11Z</time>
      </trkpt>
      <trkpt lat="46.46354" lon="5.69562">
        <ele>428.4</ele>
        <time>2020-10-20T09:12:17Z</time>
      </trkpt>
      <trkpt lat="46.46349" lon="5.69564">
        <ele>427.9</ele>
        <time>2020-10-20T09:12:21Z</time>
      </trkpt>
      <trkpt lat="46.46344" lon="5.69566">
        <ele>428</ele>
        <time>2020-10-20T09:12:25Z</time>
      </trkpt>
      <trkpt lat="46.46339" lon="5.69566">
        <ele>428</ele>
        <time>2020-10-20T09:12:31Z</time>
      </trkpt>
      <trkpt lat="46.46334" lon="5.6957">
        <ele>427.8</ele>
        <time>2020-10-20T09:12:39Z</time>
      </trkpt>
      <trkpt lat="46.4633" lon="5.69574">
        <ele>428.7</ele>
        <time>2020-10-20T09:12:45Z</time>
      </trkpt>
      <trkpt lat="46.46325" lon="5.69577">
        <ele>430</ele>
        <time>2020-10-20T09:12:50Z</time>
      </trkpt>
      <trkpt lat="46.46321" lon="5.69577">
        <ele>431.5</ele>
        <time>2020-10-20T09:12:55Z</time>
      </trkpt>
      <trkpt lat="46.46316" lon="5.69579">
        <ele>432.9</ele>
        <time>2020-10-20T09:13:00Z</time>
      </trkpt>
      <trkpt lat="46.46312" lon="5.69581">
        <ele>433.9</ele>
        <time>2020-10-20T09:13:05Z</time>
      </trkpt>
      <trkpt lat="46.46307" lon="5.69585">
        <ele>435.7</ele>
        <time>2020-10-20T09:13:14Z</time>
      </trkpt>
      <trkpt lat="46.46303" lon="5.69589">
        <ele>436.3</ele>
        <time>2020-10-20T09:13:19Z</time>
      </trkpt>
      <trkpt lat="46.46298" lon="5.69594">
        <ele>436.6</ele>
        <time>2020-10-20T09:13:23Z</time>
      </trkpt>
      <trkpt lat="46.46294" lon="5.69598">
        <ele>436.7</ele>
        <time>2020-10-20T09:13:28Z</time>
      </trkpt>
      <trkpt lat="46.4629" lon="5.69602">
        <ele>436.4</ele>
        <time>2020-10-20T09:13:35Z</time>
      </trkpt>
      <trkpt lat="46.46286" lon="5.69606">
        <ele>434.7</ele>
        <time>2020-10-20T09:13:43Z</time>
      </trkpt>
      <trkpt lat="46.46286" lon="5.69613">
        <ele>431.3</ele>
        <time>2020-10-20T09:13:52Z</time>
      </trkpt>
      <trkpt lat="46.4629" lon="5.69616">
        <ele>430</ele>
        <time>2020-10-20T09:13:58Z</time>
      </trkpt>
      <trkpt lat="46.46295" lon="5.69617">
        <ele>428.8</ele>
        <time>2020-10-20T09:14:03Z</time>
      </trkpt>
      <trkpt lat="46.463" lon="5.69618">
        <ele>427.2</ele>
        <time>2020-10-20T09:14:08Z</time>
      </trkpt>
      <trkpt lat="46.46304" lon="5.6962">
        <ele>425.5</ele>
        <time>2020-10-20T09:14:13Z</time>
      </trkpt>
      <trkpt lat="46.46308" lon="5.69617">
        <ele>424.4</ele>
        <time>2020-10-20T09:14:18Z</time>
      </trkpt>
      <trkpt lat="46.46312" lon="5.69612">
        <ele>425.6</ele>
        <time>2020-10-20T09:14:24Z</time>
      </trkpt>
      <trkpt lat="46.46315" lon="5.69608">
        <ele>428.8</ele>
        <time>2020-10-20T09:14:30Z</time>
      </trkpt>
      <trkpt lat="46.4632" lon="5.69605">
        <ele>433</ele>
        <time>2020-10-20T09:14:37Z</time>
      </trkpt>
      <trkpt lat="46.46324" lon="5.69602">
        <ele>435.6</ele>
        <time>2020-10-20T09:14:44Z</time>
      </trkpt>
      <trkpt lat="46.46329" lon="5.69601">
        <ele>436.9</ele>
        <time>2020-10-20T09:14:51Z</time>
      </trkpt>
      <trkpt lat="46.46334" lon="5.69603">
        <ele>436.5</ele>
        <time>2020-10-20T09:14:56Z</time>
      </trkpt>
      <trkpt lat="46.46339" lon="5.69603">
        <ele>436.5</ele>
        <time>2020-10-20T09:15:02Z</time>
      </trkpt>
      <trkpt lat="46.46342" lon="5.69606">
        <ele>434.7</ele>
        <time>2020-10-20T09:15:09Z</time>
      </trkpt>
      <trkpt lat="46.46348" lon="5.69606">
        <ele>433.8</ele>
        <time>2020-10-20T09:15:14Z</time>
      </trkpt>
      <trkpt lat="46.46352" lon="5.69604">
        <ele>433.9</ele>
        <time>2020-10-20T09:15:19Z</time>
      </trkpt>
      <trkpt lat="46.46357" lon="5.69601">
        <ele>434.9</ele>
        <time>2020-10-20T09:15:24Z</time>
      </trkpt>
      <trkpt lat="46.46361" lon="5.69597">
        <ele>436.4</ele>
        <time>2020-10-20T09:15:29Z</time>
      </trkpt>
      <trkpt lat="46.46365" lon="5.69597">
        <ele>439.1</ele>
        <time>2020-10-20T09:15:38Z</time>
      </trkpt>
      <trkpt lat="46.4637" lon="5.69596">
        <ele>440.3</ele>
        <time>2020-10-20T09:15:45Z</time>
      </trkpt>
      <trkpt lat="46.46375" lon="5.69598">
        <ele>440.1</ele>
        <time>2020-10-20T09:15:49Z</time>
      </trkpt>
      <trkpt lat="46.46379" lon="5.69597">
        <ele>439.3</ele>
        <time>2020-10-20T09:15:54Z</time>
      </trkpt>
      <trkpt lat="46.46384" lon="5.69595">
        <ele>438.4</ele>
        <time>2020-10-20T09:16:00Z</time>
      </trkpt>
      <trkpt lat="46.46388" lon="5.69596">
        <ele>437.5</ele>
        <time>2020-10-20T09:16:05Z</time>
      </trkpt>
      <trkpt lat="46.46393" lon="5.69595">
        <ele>436.2</ele>
        <time>2020-10-20T09:16:10Z</time>
      </trkpt>
      <trkpt lat="46.46397" lon="5.69593">
        <ele>435.2</ele>
        <time>2020-10-20T09:16:15Z</time>
      </trkpt>
      <trkpt lat="46.46402" lon="5.69589">
        <ele>434.6</ele>
        <time>2020-10-20T09:16:20Z</time>
      </trkpt>
      <trkpt lat="46.46407" lon="5.69589">
        <ele>433.9</ele>
        <time>2020-10-20T09:16:25Z</time>
      </trkpt>
      <trkpt lat="46.46412" lon="5.6959">
        <ele>432.9</ele>
        <time>2020-10-20T09:16:32Z</time>
      </trkpt>
      <trkpt lat="46.46416" lon="5.69588">
        <ele>431.6</ele>
        <time>2020-10-20T09:16:39Z</time>
      </trkpt>
      <trkpt lat="46.46421" lon="5.69589">
        <ele>430.5</ele>
        <time>2020-10-20T09:16:45Z</time>
      </trkpt>
      <trkpt lat="46.46426" lon="5.69591">
        <ele>429</ele>
        <time>2020-10-20T09:16:50Z</time>
      </trkpt>
      <trkpt lat="46.4643" lon="5.6959">
        <ele>428.2</ele>
        <time>2020-10-20T09:17:00Z</time>
      </trkpt>
      <trkpt lat="46.46435" lon="5.69587">
        <ele>428.5</ele>
        <time>2020-10-20T09:17:05Z</time>
      </trkpt>
      <trkpt lat="46.46439" lon="5.69583">
        <ele>428.6</ele>
        <time>2020-10-20T09:17:11Z</time>
      </trkpt>
      <trkpt lat="46.46443" lon="5.69579">
        <ele>428.3</ele>
        <time>2020-10-20T09:17:18Z</time>
      </trkpt>
      <trkpt lat="46.46448" lon="5.69578">
        <ele>428.4</ele>
        <time>2020-10-20T09:17:24Z</time>
      </trkpt>
      <trkpt lat="46.46452" lon="5.69574">
        <ele>428.6</ele>
        <time>2020-10-20T09:17:30Z</time>
      </trkpt>
      <trkpt lat="46.46455" lon="5.69569">
        <ele>429.7</ele>
        <time>2020-10-20T09:17:35Z</time>
      </trkpt>
      <trkpt lat="46.46459" lon="5.69564">
        <ele>432</ele>
        <time>2020-10-20T09:17:43Z</time>
      </trkpt>
      <trkpt lat="46.46463" lon="5.69562">
        <ele>435.6</ele>
        <time>2020-10-20T09:17:53Z</time>
      </trkpt>
      <trkpt lat="46.46467" lon="5.69559">
        <ele>437.9</ele>
        <time>2020-10-20T09:17:59Z</time>
      </trkpt>
      <trkpt lat="46.46472" lon="5.69556">
        <ele>440</ele>
        <time>2020-10-20T09:18:06Z</time>
      </trkpt>
      <trkpt lat="46.46476" lon="5.69552">
        <ele>442.1</ele>
        <time>2020-10-20T09:18:13Z</time>
      </trkpt>
      <trkpt lat="46.4648" lon="5.69548">
        <ele>444</ele>
        <time>2020-10-20T09:18:20Z</time>
      </trkpt>
      <trkpt lat="46.46484" lon="5.69543">
        <ele>445</ele>
        <time>2020-10-20T09:18:26Z</time>
      </trkpt>
      <trkpt lat="46.46488" lon="5.69539">
        <ele>445.8</ele>
        <time>2020-10-20T09:18:32Z</time>
      </trkpt>
      <trkpt lat="46.46492" lon="5.69536">
        <ele>447.2</ele>
        <time>2020-10-20T09:18:40Z</time>
      </trkpt>
      <trkpt lat="46.46494" lon="5.69542">
        <ele>453.4</ele>
        <time>2020-10-20T09:19:22Z</time>
      </trkpt>
      <trkpt lat="46.46494" lon="5.69549">
        <ele>456.6</ele>
        <time>2020-10-20T09:19:37Z</time>
      </trkpt>
      <trkpt lat="46.46492" lon="5.69557">
        <ele>457.1</ele>
        <time>2020-10-20T09:19:44Z</time>
      </trkpt>
      <trkpt lat="46.46491" lon="5.69563">
        <ele>457.4</ele>
        <time>2020-10-20T09:19:48Z</time>
      </trkpt>
      <trkpt lat="46.46491" lon="5.6957">
        <ele>457.9</ele>
        <time>2020-10-20T09:19:52Z</time>
      </trkpt>
      <trkpt lat="46.46493" lon="5.69577">
        <ele>459.2</ele>
        <time>2020-10-20T09:19:58Z</time>
      </trkpt>
      <trkpt lat="46.46493" lon="5.69584">
        <ele>461.1</ele>
        <time>2020-10-20T09:20:06Z</time>
      </trkpt>
      <trkpt lat="46.46491" lon="5.6959">
        <ele>463.1</ele>
        <time>2020-10-20T09:20:14Z</time>
      </trkpt>
      <trkpt lat="46.46489" lon="5.69596">
        <ele>465</ele>
        <time>2020-10-20T09:20:21Z</time>
      </trkpt>
      <trkpt lat="46.46487" lon="5.69609">
        <ele>467.9</ele>
        <time>2020-10-20T09:20:55Z</time>
      </trkpt>
      <trkpt lat="46.46488" lon="5.69615">
        <ele>468</ele>
        <time>2020-10-20T09:20:59Z</time>
      </trkpt>
      <trkpt lat="46.46491" lon="5.69621">
        <ele>468.2</ele>
        <time>2020-10-20T09:21:07Z</time>
      </trkpt>
      <trkpt lat="46.46491" lon="5.69628">
        <ele>468.3</ele>
        <time>2020-10-20T09:21:16Z</time>
      </trkpt>
      <trkpt lat="46.4649" lon="5.69634">
        <ele>469.1</ele>
        <time>2020-10-20T09:21:24Z</time>
      </trkpt>
      <trkpt lat="46.46487" lon="5.6964">
        <ele>470.7</ele>
        <time>2020-10-20T09:21:59Z</time>
      </trkpt>
      <trkpt lat="46.46483" lon="5.69643">
        <ele>471.7</ele>
        <time>2020-10-20T09:22:05Z</time>
      </trkpt>
      <trkpt lat="46.46487" lon="5.69647">
        <ele>471.3</ele>
        <time>2020-10-20T09:22:57Z</time>
      </trkpt>
      <trkpt lat="46.46489" lon="5.69654">
        <ele>469.8</ele>
        <time>2020-10-20T09:23:10Z</time>
      </trkpt>
      <trkpt lat="46.4649" lon="5.69661">
        <ele>468.7</ele>
        <time>2020-10-20T09:23:17Z</time>
      </trkpt>
      <trkpt lat="46.46489" lon="5.69669">
        <ele>468.1</ele>
        <time>2020-10-20T09:23:30Z</time>
      </trkpt>
      <trkpt lat="46.4649" lon="5.69676">
        <ele>468.2</ele>
        <time>2020-10-20T09:23:35Z</time>
      </trkpt>
      <trkpt lat="46.46494" lon="5.69681">
        <ele>468.3</ele>
        <time>2020-10-20T09:23:42Z</time>
      </trkpt>
      <trkpt lat="46.46494" lon="5.69688">
        <ele>468.7</ele>
        <time>2020-10-20T09:23:48Z</time>
      </trkpt>
      <trkpt lat="46.46493" lon="5.69695">
        <ele>468.9</ele>
        <time>2020-10-20T09:23:55Z</time>
      </trkpt>
      <trkpt lat="46.46491" lon="5.69701">
        <ele>469.3</ele>
        <time>2020-10-20T09:24:03Z</time>
      </trkpt>
      <trkpt lat="46.46489" lon="5.69708">
        <ele>469.3</ele>
        <time>2020-10-20T09:24:10Z</time>
      </trkpt>
      <trkpt lat="46.46488" lon="5.69714">
        <ele>469.2</ele>
        <time>2020-10-20T09:24:18Z</time>
      </trkpt>
      <trkpt lat="46.46488" lon="5.69721">
        <ele>469.4</ele>
        <time>2020-10-20T09:24:24Z</time>
      </trkpt>
      <trkpt lat="46.46486" lon="5.69728">
        <ele>470</ele>
        <time>2020-10-20T09:24:32Z</time>
      </trkpt>
      <trkpt lat="46.46485" lon="5.69734">
        <ele>470.4</ele>
        <time>2020-10-20T09:24:42Z</time>
      </trkpt>
      <trkpt lat="46.46484" lon="5.69742">
        <ele>471.7</ele>
        <time>2020-10-20T09:25:06Z</time>
      </trkpt>
      <trkpt lat="46.46482" lon="5.69748">
        <ele>473</ele>
        <time>2020-10-20T09:25:13Z</time>
      </trkpt>
      <trkpt lat="46.46481" lon="5.69755">
        <ele>474.4</ele>
        <time>2020-10-20T09:25:22Z</time>
      </trkpt>
      <trkpt lat="46.46479" lon="5.69762">
        <ele>475.6</ele>
        <time>2020-10-20T09:25:30Z</time>
      </trkpt>
      <trkpt lat="46.46477" lon="5.69768">
        <ele>477.5</ele>
        <time>2020-10-20T09:25:43Z</time>
      </trkpt>
      <trkpt lat="46.46477" lon="5.69775">
        <ele>478.4</ele>
        <time>2020-10-20T09:25:57Z</time>
      </trkpt>
      <trkpt lat="46.46477" lon="5.69782">
        <ele>479.5</ele>
        <time>2020-10-20T09:26:05Z</time>
      </trkpt>
      <trkpt lat="46.46476" lon="5.69789">
        <ele>480.4</ele>
        <time>2020-10-20T09:26:12Z</time>
      </trkpt>
      <trkpt lat="46.46475" lon="5.69796">
        <ele>481.2</ele>
        <time>2020-10-20T09:26:19Z</time>
      </trkpt>
      <trkpt lat="46.46474" lon="5.69802">
        <ele>482.3</ele>
        <time>2020-10-20T09:26:27Z</time>
      </trkpt>
      <trkpt lat="46.46474" lon="5.69815">
        <ele>484.2</ele>
        <time>2020-10-20T09:26:47Z</time>
      </trkpt>
      <trkpt lat="46.46474" lon="5.69827">
        <ele>489.8</ele>
        <time>2020-10-20T09:28:08Z</time>
      </trkpt>
      <trkpt lat="46.46474" lon="5.69834">
        <ele>493.9</ele>
        <time>2020-10-20T09:28:14Z</time>
      </trkpt>
      <trkpt lat="46.46469" lon="5.69833">
        <ele>496.4</ele>
        <time>2020-10-20T09:28:35Z</time>
      </trkpt>
      <trkpt lat="46.46467" lon="5.69839">
        <ele>495.8</ele>
        <time>2020-10-20T09:28:42Z</time>
      </trkpt>
      <trkpt lat="46.46467" lon="5.69847">
        <ele>495.8</ele>
        <time>2020-10-20T09:28:49Z</time>
      </trkpt>
      <trkpt lat="46.46465" lon="5.69853">
        <ele>496.5</ele>
        <time>2020-10-20T09:28:56Z</time>
      </trkpt>
      <trkpt lat="46.46462" lon="5.69859">
        <ele>497.1</ele>
        <time>2020-10-20T09:29:03Z</time>
      </trkpt>
      <trkpt lat="46.46461" lon="5.69866">
        <ele>497.8</ele>
        <time>2020-10-20T09:29:09Z</time>
      </trkpt>
      <trkpt lat="46.46457" lon="5.69871">
        <ele>498.8</ele>
        <time>2020-10-20T09:29:17Z</time>
      </trkpt>
      <trkpt lat="46.46454" lon="5.69876">
        <ele>500</ele>
        <time>2020-10-20T09:29:25Z</time>
      </trkpt>
      <trkpt lat="46.46454" lon="5.69883">
        <ele>500.5</ele>
        <time>2020-10-20T09:29:32Z</time>
      </trkpt>
      <trkpt lat="46.46455" lon="5.6989">
        <ele>499.8</ele>
        <time>2020-10-20T09:29:37Z</time>
      </trkpt>
      <trkpt lat="46.46457" lon="5.69897">
        <ele>498.1</ele>
        <time>2020-10-20T09:29:44Z</time>
      </trkpt>
      <trkpt lat="46.46455" lon="5.69903">
        <ele>496.3</ele>
        <time>2020-10-20T09:29:51Z</time>
      </trkpt>
      <trkpt lat="46.46454" lon="5.6991">
        <ele>494.3</ele>
        <time>2020-10-20T09:29:58Z</time>
      </trkpt>
      <trkpt lat="46.46451" lon="5.69915">
        <ele>492.2</ele>
        <time>2020-10-20T09:30:06Z</time>
      </trkpt>
      <trkpt lat="46.46448" lon="5.6992">
        <ele>490.5</ele>
        <time>2020-10-20T09:30:13Z</time>
      </trkpt>
      <trkpt lat="46.46447" lon="5.69926">
        <ele>488.8</ele>
        <time>2020-10-20T09:30:20Z</time>
      </trkpt>
      <trkpt lat="46.46447" lon="5.69933">
        <ele>487</ele>
        <time>2020-10-20T09:30:28Z</time>
      </trkpt>
      <trkpt lat="46.46447" lon="5.69941">
        <ele>485.9</ele>
        <time>2020-10-20T09:30:35Z</time>
      </trkpt>
      <trkpt lat="46.46447" lon="5.69947">
        <ele>485.1</ele>
        <time>2020-10-20T09:30:43Z</time>
      </trkpt>
      <trkpt lat="46.46446" lon="5.69954">
        <ele>485.1</ele>
        <time>2020-10-20T09:30:49Z</time>
      </trkpt>
      <trkpt lat="46.46444" lon="5.69961">
        <ele>485.3</ele>
        <time>2020-10-20T09:30:54Z</time>
      </trkpt>
      <trkpt lat="46.46445" lon="5.69967">
        <ele>485.5</ele>
        <time>2020-10-20T09:31:01Z</time>
      </trkpt>
      <trkpt lat="46.46447" lon="5.69975">
        <ele>485.7</ele>
        <time>2020-10-20T09:31:08Z</time>
      </trkpt>
      <trkpt lat="46.46448" lon="5.69981">
        <ele>485.8</ele>
        <time>2020-10-20T09:31:13Z</time>
      </trkpt>
      <trkpt lat="46.46449" lon="5.69987">
        <ele>486.1</ele>
        <time>2020-10-20T09:31:17Z</time>
      </trkpt>
      <trkpt lat="46.46451" lon="5.69994">
        <ele>486.6</ele>
        <time>2020-10-20T09:31:21Z</time>
      </trkpt>
      <trkpt lat="46.46451" lon="5.70002">
        <ele>487.2</ele>
        <time>2020-10-20T09:31:26Z</time>
      </trkpt>
      <trkpt lat="46.46451" lon="5.70008">
        <ele>487.6</ele>
        <time>2020-10-20T09:31:31Z</time>
      </trkpt>
      <trkpt lat="46.46453" lon="5.70016">
        <ele>488.3</ele>
        <time>2020-10-20T09:31:37Z</time>
      </trkpt>
      <trkpt lat="46.46455" lon="5.70022">
        <ele>488.7</ele>
        <time>2020-10-20T09:31:41Z</time>
      </trkpt>
      <trkpt lat="46.46457" lon="5.70029">
        <ele>489.3</ele>
        <time>2020-10-20T09:31:47Z</time>
      </trkpt>
      <trkpt lat="46.46457" lon="5.70036">
        <ele>489.7</ele>
        <time>2020-10-20T09:31:52Z</time>
      </trkpt>
      <trkpt lat="46.46458" lon="5.70043">
        <ele>490</ele>
        <time>2020-10-20T09:31:57Z</time>
      </trkpt>
      <trkpt lat="46.46458" lon="5.70051">
        <ele>490.4</ele>
        <time>2020-10-20T09:32:02Z</time>
      </trkpt>
      <trkpt lat="46.46458" lon="5.70058">
        <ele>491</ele>
        <time>2020-10-20T09:32:07Z</time>
      </trkpt>
      <trkpt lat="46.46459" lon="5.70065">
        <ele>491.6</ele>
        <time>2020-10-20T09:32:15Z</time>
      </trkpt>
      <trkpt lat="46.46455" lon="5.7007">
        <ele>493.2</ele>
        <time>2020-10-20T09:32:26Z</time>
      </trkpt>
      <trkpt lat="46.46451" lon="5.70075">
        <ele>495.4</ele>
        <time>2020-10-20T09:32:39Z</time>
      </trkpt>
      <trkpt lat="46.46448" lon="5.70081">
        <ele>496.8</ele>
        <time>2020-10-20T09:32:43Z</time>
      </trkpt>
      <trkpt lat="46.46446" lon="5.70087">
        <ele>502.1</ele>
        <time>2020-10-20T09:33:06Z</time>
      </trkpt>
      <trkpt lat="46.46444" lon="5.70093">
        <ele>502.5</ele>
        <time>2020-10-20T09:33:11Z</time>
      </trkpt>
      <trkpt lat="46.46441" lon="5.70099">
        <ele>503.1</ele>
        <time>2020-10-20T09:33:15Z</time>
      </trkpt>
      <trkpt lat="46.46437" lon="5.70104">
        <ele>503.8</ele>
        <time>2020-10-20T09:33:20Z</time>
      </trkpt>
      <trkpt lat="46.46433" lon="5.70109">
        <ele>505.3</ele>
        <time>2020-10-20T09:33:27Z</time>
      </trkpt>
      <trkpt lat="46.46428" lon="5.70109">
        <ele>507.1</ele>
        <time>2020-10-20T09:33:35Z</time>
      </trkpt>
      <trkpt lat="46.46423" lon="5.70108">
        <ele>508.2</ele>
        <time>2020-10-20T09:33:40Z</time>
      </trkpt>
      <trkpt lat="46.46418" lon="5.70107">
        <ele>509.3</ele>
        <time>2020-10-20T09:33:45Z</time>
      </trkpt>
      <trkpt lat="46.46413" lon="5.7011">
        <ele>510.3</ele>
        <time>2020-10-20T09:33:52Z</time>
      </trkpt>
      <trkpt lat="46.46409" lon="5.70112">
        <ele>511</ele>
        <time>2020-10-20T09:34:01Z</time>
      </trkpt>
      <trkpt lat="46.46405" lon="5.70117">
        <ele>511.7</ele>
        <time>2020-10-20T09:34:10Z</time>
      </trkpt>
      <trkpt lat="46.46401" lon="5.70121">
        <ele>512.3</ele>
        <time>2020-10-20T09:34:16Z</time>
      </trkpt>
      <trkpt lat="46.46397" lon="5.70125">
        <ele>513.2</ele>
        <time>2020-10-20T09:34:24Z</time>
      </trkpt>
      <trkpt lat="46.46395" lon="5.7013">
        <ele>514</ele>
        <time>2020-10-20T09:34:33Z</time>
      </trkpt>
      <trkpt lat="46.46392" lon="5.70137">
        <ele>514.6</ele>
        <time>2020-10-20T09:34:41Z</time>
      </trkpt>
      <trkpt lat="46.46388" lon="5.70141">
        <ele>514.6</ele>
        <time>2020-10-20T09:34:51Z</time>
      </trkpt>
      <trkpt lat="46.46384" lon="5.70144">
        <ele>514.7</ele>
        <time>2020-10-20T09:34:57Z</time>
      </trkpt>
      <trkpt lat="46.4638" lon="5.70148">
        <ele>514.8</ele>
        <time>2020-10-20T09:35:04Z</time>
      </trkpt>
      <trkpt lat="46.46378" lon="5.70156">
        <ele>515.6</ele>
        <time>2020-10-20T09:35:17Z</time>
      </trkpt>
      <trkpt lat="46.46376" lon="5.70163">
        <ele>515.8</ele>
        <time>2020-10-20T09:35:22Z</time>
      </trkpt>
      <trkpt lat="46.46374" lon="5.7017">
        <ele>515.8</ele>
        <time>2020-10-20T09:35:27Z</time>
      </trkpt>
      <trkpt lat="46.46373" lon="5.70177">
        <ele>515.7</ele>
        <time>2020-10-20T09:35:33Z</time>
      </trkpt>
      <trkpt lat="46.46371" lon="5.70184">
        <ele>515.8</ele>
        <time>2020-10-20T09:35:38Z</time>
      </trkpt>
      <trkpt lat="46.4637" lon="5.70191">
        <ele>515.8</ele>
        <time>2020-10-20T09:35:43Z</time>
      </trkpt>
      <trkpt lat="46.4637" lon="5.70198">
        <ele>515.7</ele>
        <time>2020-10-20T09:35:48Z</time>
      </trkpt>
      <trkpt lat="46.46371" lon="5.70205">
        <ele>515.5</ele>
        <time>2020-10-20T09:35:53Z</time>
      </trkpt>
      <trkpt lat="46.46369" lon="5.70213">
        <ele>515.2</ele>
        <time>2020-10-20T09:36:01Z</time>
      </trkpt>
      <trkpt lat="46.46367" lon="5.70219">
        <ele>515.3</ele>
        <time>2020-10-20T09:36:09Z</time>
      </trkpt>
      <trkpt lat="46.46363" lon="5.70223">
        <ele>515.9</ele>
        <time>2020-10-20T09:36:16Z</time>
      </trkpt>
      <trkpt lat="46.4636" lon="5.70229">
        <ele>516.7</ele>
        <time>2020-10-20T09:36:24Z</time>
      </trkpt>
      <trkpt lat="46.4636" lon="5.70237">
        <ele>523.1</ele>
        <time>2020-10-20T09:38:05Z</time>
      </trkpt>
      <trkpt lat="46.46365" lon="5.70236">
        <ele>524.9</ele>
        <time>2020-10-20T09:38:36Z</time>
      </trkpt>
      <trkpt lat="46.4637" lon="5.70236">
        <ele>526.3</ele>
        <time>2020-10-20T09:38:44Z</time>
      </trkpt>
      <trkpt lat="46.46375" lon="5.70237">
        <ele>527.7</ele>
        <time>2020-10-20T09:38:52Z</time>
      </trkpt>
      <trkpt lat="46.46379" lon="5.70242">
        <ele>528.7</ele>
        <time>2020-10-20T09:39:00Z</time>
      </trkpt>
      <trkpt lat="46.46383" lon="5.70244">
        <ele>528.8</ele>
        <time>2020-10-20T09:39:04Z</time>
      </trkpt>
      <trkpt lat="46.46388" lon="5.70244">
        <ele>529.1</ele>
        <time>2020-10-20T09:39:07Z</time>
      </trkpt>
      <trkpt lat="46.46393" lon="5.70244">
        <ele>530</ele>
        <time>2020-10-20T09:39:11Z</time>
      </trkpt>
      <trkpt lat="46.46398" lon="5.70243">
        <ele>530.4</ele>
        <time>2020-10-20T09:39:16Z</time>
      </trkpt>
      <trkpt lat="46.46403" lon="5.70245">
        <ele>530.3</ele>
        <time>2020-10-20T09:39:22Z</time>
      </trkpt>
      <trkpt lat="46.46406" lon="5.7025">
        <ele>530.3</ele>
        <time>2020-10-20T09:39:26Z</time>
      </trkpt>
      <trkpt lat="46.46411" lon="5.70252">
        <ele>529.5</ele>
        <time>2020-10-20T09:39:32Z</time>
      </trkpt>
      <trkpt lat="46.46416" lon="5.70248">
        <ele>529.2</ele>
        <time>2020-10-20T09:39:38Z</time>
      </trkpt>
      <trkpt lat="46.4642" lon="5.70245">
        <ele>528.8</ele>
        <time>2020-10-20T09:39:43Z</time>
      </trkpt>
      <trkpt lat="46.46424" lon="5.70243">
        <ele>528.4</ele>
        <time>2020-10-20T09:39:48Z</time>
      </trkpt>
      <trkpt lat="46.46429" lon="5.70242">
        <ele>527.6</ele>
        <time>2020-10-20T09:39:53Z</time>
      </trkpt>
      <trkpt lat="46.46433" lon="5.70244">
        <ele>526.9</ele>
        <time>2020-10-20T09:39:58Z</time>
      </trkpt>
      <trkpt lat="46.46439" lon="5.70246">
        <ele>526.2</ele>
        <time>2020-10-20T09:40:03Z</time>
      </trkpt>
      <trkpt lat="46.46444" lon="5.70248">
        <ele>525.1</ele>
        <time>2020-10-20T09:40:08Z</time>
      </trkpt>
      <trkpt lat="46.46449" lon="5.70245">
        <ele>523.8</ele>
        <time>2020-10-20T09:40:14Z</time>
      </trkpt>
      <trkpt lat="46.46453" lon="5.70241">
        <ele>522.8</ele>
        <time>2020-10-20T09:40:19Z</time>
      </trkpt>
      <trkpt lat="46.46458" lon="5.70239">
        <ele>521.8</ele>
        <time>2020-10-20T09:40:25Z</time>
      </trkpt>
      <trkpt lat="46.46463" lon="5.70237">
        <ele>520.8</ele>
        <time>2020-10-20T09:40:30Z</time>
      </trkpt>
      <trkpt lat="46.46468" lon="5.70237">
        <ele>519.8</ele>
        <time>2020-10-20T09:40:36Z</time>
      </trkpt>
      <trkpt lat="46.46473" lon="5.70239">
        <ele>519.5</ele>
        <time>2020-10-20T09:40:42Z</time>
      </trkpt>
      <trkpt lat="46.46477" lon="5.70238">
        <ele>519.7</ele>
        <time>2020-10-20T09:40:57Z</time>
      </trkpt>
      <trkpt lat="46.46482" lon="5.70236">
        <ele>521.2</ele>
        <time>2020-10-20T09:41:04Z</time>
      </trkpt>
      <trkpt lat="46.46487" lon="5.70236">
        <ele>522.4</ele>
        <time>2020-10-20T09:41:10Z</time>
      </trkpt>
      <trkpt lat="46.46492" lon="5.7024">
        <ele>522.8</ele>
        <time>2020-10-20T09:41:16Z</time>
      </trkpt>
      <trkpt lat="46.46495" lon="5.70244">
        <ele>522.5</ele>
        <time>2020-10-20T09:41:21Z</time>
      </trkpt>
      <trkpt lat="46.46499" lon="5.70248">
        <ele>522</ele>
        <time>2020-10-20T09:41:28Z</time>
      </trkpt>
      <trkpt lat="46.46502" lon="5.70252">
        <ele>521.9</ele>
        <time>2020-10-20T09:41:33Z</time>
      </trkpt>
      <trkpt lat="46.46506" lon="5.70257">
        <ele>521.9</ele>
        <time>2020-10-20T09:41:39Z</time>
      </trkpt>
      <trkpt lat="46.46508" lon="5.70263">
        <ele>521.9</ele>
        <time>2020-10-20T09:41:45Z</time>
      </trkpt>
      <trkpt lat="46.46511" lon="5.70269">
        <ele>522.1</ele>
        <time>2020-10-20T09:41:51Z</time>
      </trkpt>
      <trkpt lat="46.46513" lon="5.70276">
        <ele>522.6</ele>
        <time>2020-10-20T09:41:57Z</time>
      </trkpt>
      <trkpt lat="46.46516" lon="5.70282">
        <ele>522.9</ele>
        <time>2020-10-20T09:42:02Z</time>
      </trkpt>
      <trkpt lat="46.46518" lon="5.70288">
        <ele>522.6</ele>
        <time>2020-10-20T09:42:09Z</time>
      </trkpt>
      <trkpt lat="46.46517" lon="5.70294">
        <ele>522.5</ele>
        <time>2020-10-20T09:42:14Z</time>
      </trkpt>
      <trkpt lat="46.46518" lon="5.70302">
        <ele>522.4</ele>
        <time>2020-10-20T09:42:20Z</time>
      </trkpt>
      <trkpt lat="46.46518" lon="5.70309">
        <ele>522.6</ele>
        <time>2020-10-20T09:42:28Z</time>
      </trkpt>
      <trkpt lat="46.46517" lon="5.70317">
        <ele>523</ele>
        <time>2020-10-20T09:42:34Z</time>
      </trkpt>
      <trkpt lat="46.46517" lon="5.70324">
        <ele>523.1</ele>
        <time>2020-10-20T09:42:38Z</time>
      </trkpt>
      <trkpt lat="46.46516" lon="5.70332">
        <ele>523.1</ele>
        <time>2020-10-20T09:42:43Z</time>
      </trkpt>
      <trkpt lat="46.46515" lon="5.70339">
        <ele>523.3</ele>
        <time>2020-10-20T09:42:48Z</time>
      </trkpt>
      <trkpt lat="46.46517" lon="5.70345">
        <ele>525.2</ele>
        <time>2020-10-20T09:43:04Z</time>
      </trkpt>
      <trkpt lat="46.46519" lon="5.70351">
        <ele>526.2</ele>
        <time>2020-10-20T09:43:11Z</time>
      </trkpt>
      <trkpt lat="46.46522" lon="5.70357">
        <ele>527.4</ele>
        <time>2020-10-20T09:43:17Z</time>
      </trkpt>
      <trkpt lat="46.46525" lon="5.70363">
        <ele>528.5</ele>
        <time>2020-10-20T09:43:22Z</time>
      </trkpt>
      <trkpt lat="46.46528" lon="5.70369">
        <ele>529.7</ele>
        <time>2020-10-20T09:43:26Z</time>
      </trkpt>
      <trkpt lat="46.46531" lon="5.70374">
        <ele>531.2</ele>
        <time>2020-10-20T09:43:31Z</time>
      </trkpt>
      <trkpt lat="46.46535" lon="5.70378">
        <ele>532.5</ele>
        <time>2020-10-20T09:43:36Z</time>
      </trkpt>
      <trkpt lat="46.4654" lon="5.70381">
        <ele>533.6</ele>
        <time>2020-10-20T09:43:41Z</time>
      </trkpt>
      <trkpt lat="46.46544" lon="5.70382">
        <ele>534.7</ele>
        <time>2020-10-20T09:43:46Z</time>
      </trkpt>
      <trkpt lat="46.46549" lon="5.70381">
        <ele>536.4</ele>
        <time>2020-10-20T09:43:54Z</time>
      </trkpt>
      <trkpt lat="46.46554" lon="5.70378">
        <ele>537.3</ele>
        <time>2020-10-20T09:44:01Z</time>
      </trkpt>
      <trkpt lat="46.46558" lon="5.70375">
        <ele>537.9</ele>
        <time>2020-10-20T09:44:07Z</time>
      </trkpt>
      <trkpt lat="46.46563" lon="5.70374">
        <ele>538.5</ele>
        <time>2020-10-20T09:44:13Z</time>
      </trkpt>
      <trkpt lat="46.46567" lon="5.70374">
        <ele>539.3</ele>
        <time>2020-10-20T09:44:19Z</time>
      </trkpt>
      <trkpt lat="46.46572" lon="5.70377">
        <ele>540.4</ele>
        <time>2020-10-20T09:44:28Z</time>
      </trkpt>
      <trkpt lat="46.46574" lon="5.70382">
        <ele>539.1</ele>
        <time>2020-10-20T09:44:51Z</time>
      </trkpt>
      <trkpt lat="46.46573" lon="5.70389">
        <ele>538.8</ele>
        <time>2020-10-20T09:45:02Z</time>
      </trkpt>
      <trkpt lat="46.4657" lon="5.70395">
        <ele>539.7</ele>
        <time>2020-10-20T09:45:08Z</time>
      </trkpt>
      <trkpt lat="46.46568" lon="5.70402">
        <ele>540.6</ele>
        <time>2020-10-20T09:45:12Z</time>
      </trkpt>
      <trkpt lat="46.46566" lon="5.70409">
        <ele>542.4</ele>
        <time>2020-10-20T09:45:17Z</time>
      </trkpt>
      <trkpt lat="46.46564" lon="5.70415">
        <ele>544.7</ele>
        <time>2020-10-20T09:45:22Z</time>
      </trkpt>
      <trkpt lat="46.46562" lon="5.70421">
        <ele>547</ele>
        <time>2020-10-20T09:45:27Z</time>
      </trkpt>
      <trkpt lat="46.46559" lon="5.70427">
        <ele>548.5</ele>
        <time>2020-10-20T09:45:32Z</time>
      </trkpt>
      <trkpt lat="46.46556" lon="5.70434">
        <ele>549.5</ele>
        <time>2020-10-20T09:45:37Z</time>
      </trkpt>
      <trkpt lat="46.46554" lon="5.70441">
        <ele>549.8</ele>
        <time>2020-10-20T09:45:41Z</time>
      </trkpt>
      <trkpt lat="46.46554" lon="5.70447">
        <ele>549.9</ele>
        <time>2020-10-20T09:45:45Z</time>
      </trkpt>
      <trkpt lat="46.46554" lon="5.70454">
        <ele>550</ele>
        <time>2020-10-20T09:45:50Z</time>
      </trkpt>
      <trkpt lat="46.46554" lon="5.70461">
        <ele>550.3</ele>
        <time>2020-10-20T09:45:56Z</time>
      </trkpt>
      <trkpt lat="46.46553" lon="5.70468">
        <ele>550.6</ele>
        <time>2020-10-20T09:46:01Z</time>
      </trkpt>
      <trkpt lat="46.46552" lon="5.70475">
        <ele>550.6</ele>
        <time>2020-10-20T09:46:05Z</time>
      </trkpt>
      <trkpt lat="46.46553" lon="5.70483">
        <ele>550.5</ele>
        <time>2020-10-20T09:46:09Z</time>
      </trkpt>
      <trkpt lat="46.46553" lon="5.70489">
        <ele>550</ele>
        <time>2020-10-20T09:46:13Z</time>
      </trkpt>
      <trkpt lat="46.46552" lon="5.70496">
        <ele>549.5</ele>
        <time>2020-10-20T09:46:18Z</time>
      </trkpt>
      <trkpt lat="46.46551" lon="5.70504">
        <ele>549.1</ele>
        <time>2020-10-20T09:46:24Z</time>
      </trkpt>
      <trkpt lat="46.46552" lon="5.7051">
        <ele>548.9</ele>
        <time>2020-10-20T09:46:29Z</time>
      </trkpt>
      <trkpt lat="46.46551" lon="5.70518">
        <ele>549.1</ele>
        <time>2020-10-20T09:46:35Z</time>
      </trkpt>
      <trkpt lat="46.46552" lon="5.70524">
        <ele>549.3</ele>
        <time>2020-10-20T09:46:40Z</time>
      </trkpt>
      <trkpt lat="46.46551" lon="5.70531">
        <ele>549.5</ele>
        <time>2020-10-20T09:46:45Z</time>
      </trkpt>
      <trkpt lat="46.46552" lon="5.70538">
        <ele>549.5</ele>
        <time>2020-10-20T09:46:50Z</time>
      </trkpt>
      <trkpt lat="46.46551" lon="5.70546">
        <ele>549.5</ele>
        <time>2020-10-20T09:46:55Z</time>
      </trkpt>
      <trkpt lat="46.46551" lon="5.70554">
        <ele>549.8</ele>
        <time>2020-10-20T09:47:00Z</time>
      </trkpt>
      <trkpt lat="46.4655" lon="5.70561">
        <ele>550.2</ele>
        <time>2020-10-20T09:47:06Z</time>
      </trkpt>
      <trkpt lat="46.4655" lon="5.70569">
        <ele>550.3</ele>
        <time>2020-10-20T09:47:12Z</time>
      </trkpt>
      <trkpt lat="46.46549" lon="5.70576">
        <ele>550.3</ele>
        <time>2020-10-20T09:47:17Z</time>
      </trkpt>
      <trkpt lat="46.46548" lon="5.70583">
        <ele>550.6</ele>
        <time>2020-10-20T09:47:22Z</time>
      </trkpt>
      <trkpt lat="46.46547" lon="5.7059">
        <ele>551.2</ele>
        <time>2020-10-20T09:47:29Z</time>
      </trkpt>
      <trkpt lat="46.46546" lon="5.70598">
        <ele>551.9</ele>
        <time>2020-10-20T09:47:35Z</time>
      </trkpt>
      <trkpt lat="46.46545" lon="5.70605">
        <ele>552.8</ele>
        <time>2020-10-20T09:47:40Z</time>
      </trkpt>
      <trkpt lat="46.46544" lon="5.70612">
        <ele>553.6</ele>
        <time>2020-10-20T09:47:45Z</time>
      </trkpt>
      <trkpt lat="46.46544" lon="5.70619">
        <ele>554.8</ele>
        <time>2020-10-20T09:47:50Z</time>
      </trkpt>
      <trkpt lat="46.46544" lon="5.70625">
        <ele>555.7</ele>
        <time>2020-10-20T09:47:57Z</time>
      </trkpt>
      <trkpt lat="46.46542" lon="5.70632">
        <ele>556.9</ele>
        <time>2020-10-20T09:48:05Z</time>
      </trkpt>
      <trkpt lat="46.46541" lon="5.70639">
        <ele>557.9</ele>
        <time>2020-10-20T09:48:11Z</time>
      </trkpt>
      <trkpt lat="46.4654" lon="5.70646">
        <ele>558.5</ele>
        <time>2020-10-20T09:48:16Z</time>
      </trkpt>
      <trkpt lat="46.46544" lon="5.70651">
        <ele>561.2</ele>
        <time>2020-10-20T09:48:44Z</time>
      </trkpt>
      <trkpt lat="46.46548" lon="5.70648">
        <ele>562.3</ele>
        <time>2020-10-20T09:48:49Z</time>
      </trkpt>
      <trkpt lat="46.46553" lon="5.70645">
        <ele>563.2</ele>
        <time>2020-10-20T09:48:54Z</time>
      </trkpt>
      <trkpt lat="46.46558" lon="5.70642">
        <ele>563.6</ele>
        <time>2020-10-20T09:48:59Z</time>
      </trkpt>
      <trkpt lat="46.46563" lon="5.70638">
        <ele>563.5</ele>
        <time>2020-10-20T09:49:04Z</time>
      </trkpt>
      <trkpt lat="46.46567" lon="5.70636">
        <ele>563.3</ele>
        <time>2020-10-20T09:49:09Z</time>
      </trkpt>
      <trkpt lat="46.46571" lon="5.70633">
        <ele>563</ele>
        <time>2020-10-20T09:49:14Z</time>
      </trkpt>
      <trkpt lat="46.46576" lon="5.7063">
        <ele>562.7</ele>
        <time>2020-10-20T09:49:18Z</time>
      </trkpt>
      <trkpt lat="46.46581" lon="5.70629">
        <ele>562.1</ele>
        <time>2020-10-20T09:49:23Z</time>
      </trkpt>
      <trkpt lat="46.46586" lon="5.70629">
        <ele>561.3</ele>
        <time>2020-10-20T09:49:28Z</time>
      </trkpt>
      <trkpt lat="46.46591" lon="5.7063">
        <ele>560.8</ele>
        <time>2020-10-20T09:49:33Z</time>
      </trkpt>
      <trkpt lat="46.46596" lon="5.7063">
        <ele>560.4</ele>
        <time>2020-10-20T09:49:38Z</time>
      </trkpt>
      <trkpt lat="46.46601" lon="5.70629">
        <ele>559.7</ele>
        <time>2020-10-20T09:49:43Z</time>
      </trkpt>
      <trkpt lat="46.46606" lon="5.70629">
        <ele>558.5</ele>
        <time>2020-10-20T09:49:49Z</time>
      </trkpt>
      <trkpt lat="46.46612" lon="5.70629">
        <ele>557.3</ele>
        <time>2020-10-20T09:49:54Z</time>
      </trkpt>
      <trkpt lat="46.46617" lon="5.70629">
        <ele>556.4</ele>
        <time>2020-10-20T09:49:59Z</time>
      </trkpt>
      <trkpt lat="46.46621" lon="5.70629">
        <ele>555.9</ele>
        <time>2020-10-20T09:50:03Z</time>
      </trkpt>
      <trkpt lat="46.46626" lon="5.70628">
        <ele>555.4</ele>
        <time>2020-10-20T09:50:07Z</time>
      </trkpt>
      <trkpt lat="46.4663" lon="5.70628">
        <ele>554.8</ele>
        <time>2020-10-20T09:50:11Z</time>
      </trkpt>
      <trkpt lat="46.46636" lon="5.70627">
        <ele>554</ele>
        <time>2020-10-20T09:50:16Z</time>
      </trkpt>
      <trkpt lat="46.4664" lon="5.70627">
        <ele>553.6</ele>
        <time>2020-10-20T09:50:21Z</time>
      </trkpt>
      <trkpt lat="46.46645" lon="5.70627">
        <ele>553.8</ele>
        <time>2020-10-20T09:50:26Z</time>
      </trkpt>
      <trkpt lat="46.4665" lon="5.70626">
        <ele>554.5</ele>
        <time>2020-10-20T09:50:33Z</time>
      </trkpt>
      <trkpt lat="46.46654" lon="5.70625">
        <ele>554.2</ele>
        <time>2020-10-20T09:50:39Z</time>
      </trkpt>
      <trkpt lat="46.46659" lon="5.70624">
        <ele>553.5</ele>
        <time>2020-10-20T09:50:45Z</time>
      </trkpt>
      <trkpt lat="46.46665" lon="5.70623">
        <ele>552.9</ele>
        <time>2020-10-20T09:50:50Z</time>
      </trkpt>
      <trkpt lat="46.4667" lon="5.70622">
        <ele>552.7</ele>
        <time>2020-10-20T09:50:54Z</time>
      </trkpt>
      <trkpt lat="46.46675" lon="5.70622">
        <ele>552.7</ele>
        <time>2020-10-20T09:50:58Z</time>
      </trkpt>
      <trkpt lat="46.4668" lon="5.70621">
        <ele>552.8</ele>
        <time>2020-10-20T09:51:02Z</time>
      </trkpt>
      <trkpt lat="46.46685" lon="5.70621">
        <ele>553</ele>
        <time>2020-10-20T09:51:06Z</time>
      </trkpt>
      <trkpt lat="46.4669" lon="5.70622">
        <ele>553.2</ele>
        <time>2020-10-20T09:51:12Z</time>
      </trkpt>
      <trkpt lat="46.46695" lon="5.70622">
        <ele>552.8</ele>
        <time>2020-10-20T09:51:20Z</time>
      </trkpt>
      <trkpt lat="46.467" lon="5.70621">
        <ele>551</ele>
        <time>2020-10-20T09:51:33Z</time>
      </trkpt>
      <trkpt lat="46.46705" lon="5.70622">
        <ele>550.1</ele>
        <time>2020-10-20T09:51:40Z</time>
      </trkpt>
      <trkpt lat="46.4671" lon="5.70623">
        <ele>549.7</ele>
        <time>2020-10-20T09:51:48Z</time>
      </trkpt>
      <trkpt lat="46.46715" lon="5.70622">
        <ele>549.7</ele>
        <time>2020-10-20T09:51:53Z</time>
      </trkpt>
      <trkpt lat="46.46719" lon="5.70621">
        <ele>549.8</ele>
        <time>2020-10-20T09:51:58Z</time>
      </trkpt>
      <trkpt lat="46.46724" lon="5.7062">
        <ele>549.6</ele>
        <time>2020-10-20T09:52:04Z</time>
      </trkpt>
      <trkpt lat="46.46729" lon="5.70621">
        <ele>549.4</ele>
        <time>2020-10-20T09:52:10Z</time>
      </trkpt>
      <trkpt lat="46.46733" lon="5.70618">
        <ele>549</ele>
        <time>2020-10-20T09:52:17Z</time>
      </trkpt>
      <trkpt lat="46.46738" lon="5.70619">
        <ele>548.7</ele>
        <time>2020-10-20T09:52:22Z</time>
      </trkpt>
      <trkpt lat="46.46743" lon="5.70618">
        <ele>548.2</ele>
        <time>2020-10-20T09:52:28Z</time>
      </trkpt>
      <trkpt lat="46.46748" lon="5.70615">
        <ele>547.7</ele>
        <time>2020-10-20T09:52:34Z</time>
      </trkpt>
      <trkpt lat="46.46753" lon="5.70613">
        <ele>547.4</ele>
        <time>2020-10-20T09:52:39Z</time>
      </trkpt>
      <trkpt lat="46.46757" lon="5.70613">
        <ele>547</ele>
        <time>2020-10-20T09:52:44Z</time>
      </trkpt>
      <trkpt lat="46.46763" lon="5.70613">
        <ele>546.5</ele>
        <time>2020-10-20T09:52:50Z</time>
      </trkpt>
      <trkpt lat="46.46767" lon="5.70614">
        <ele>546.2</ele>
        <time>2020-10-20T09:52:55Z</time>
      </trkpt>
      <trkpt lat="46.46773" lon="5.70612">
        <ele>545.9</ele>
        <time>2020-10-20T09:52:59Z</time>
      </trkpt>
      <trkpt lat="46.46778" lon="5.7061">
        <ele>545.6</ele>
        <time>2020-10-20T09:53:03Z</time>
      </trkpt>
      <trkpt lat="46.46782" lon="5.70609">
        <ele>545.3</ele>
        <time>2020-10-20T09:53:08Z</time>
      </trkpt>
      <trkpt lat="46.46787" lon="5.70607">
        <ele>544.9</ele>
        <time>2020-10-20T09:53:12Z</time>
      </trkpt>
      <trkpt lat="46.46792" lon="5.70605">
        <ele>544.7</ele>
        <time>2020-10-20T09:53:16Z</time>
      </trkpt>
      <trkpt lat="46.46796" lon="5.70603">
        <ele>544.4</ele>
        <time>2020-10-20T09:53:21Z</time>
      </trkpt>
      <trkpt lat="46.46801" lon="5.70602">
        <ele>544.3</ele>
        <time>2020-10-20T09:53:25Z</time>
      </trkpt>
      <trkpt lat="46.46806" lon="5.70601">
        <ele>544.1</ele>
        <time>2020-10-20T09:53:29Z</time>
      </trkpt>
      <trkpt lat="46.46811" lon="5.70601">
        <ele>543.2</ele>
        <time>2020-10-20T09:53:34Z</time>
      </trkpt>
      <trkpt lat="46.4682" lon="5.70599">
        <ele>542.6</ele>
        <time>2020-10-20T09:53:40Z</time>
      </trkpt>
      <trkpt lat="46.46824" lon="5.70596">
        <ele>542.8</ele>
        <time>2020-10-20T09:53:42Z</time>
      </trkpt>
      <trkpt lat="46.46828" lon="5.70592">
        <ele>543.1</ele>
        <time>2020-10-20T09:53:46Z</time>
      </trkpt>
      <trkpt lat="46.46831" lon="5.70587">
        <ele>544</ele>
        <time>2020-10-20T09:54:59Z</time>
      </trkpt>
      <trkpt lat="46.46836" lon="5.70585">
        <ele>543.3</ele>
        <time>2020-10-20T09:55:30Z</time>
      </trkpt>
      <trkpt lat="46.46841" lon="5.70583">
        <ele>542.6</ele>
        <time>2020-10-20T09:55:37Z</time>
      </trkpt>
      <trkpt lat="46.46845" lon="5.7058">
        <ele>541.8</ele>
        <time>2020-10-20T09:55:43Z</time>
      </trkpt>
      <trkpt lat="46.4685" lon="5.70577">
        <ele>540.7</ele>
        <time>2020-10-20T09:55:49Z</time>
      </trkpt>
      <trkpt lat="46.46855" lon="5.70574">
        <ele>540</ele>
        <time>2020-10-20T09:55:54Z</time>
      </trkpt>
      <trkpt lat="46.4686" lon="5.70571">
        <ele>539.5</ele>
        <time>2020-10-20T09:55:59Z</time>
      </trkpt>
      <trkpt lat="46.46864" lon="5.70566">
        <ele>538.9</ele>
        <time>2020-10-20T09:56:04Z</time>
      </trkpt>
      <trkpt lat="46.46868" lon="5.70562">
        <ele>537.9</ele>
        <time>2020-10-20T09:56:11Z</time>
      </trkpt>
      <trkpt lat="46.46873" lon="5.7056">
        <ele>536.7</ele>
        <time>2020-10-20T09:56:17Z</time>
      </trkpt>
      <trkpt lat="46.46878" lon="5.70557">
        <ele>535.5</ele>
        <time>2020-10-20T09:56:23Z</time>
      </trkpt>
      <trkpt lat="46.46883" lon="5.70557">
        <ele>534.5</ele>
        <time>2020-10-20T09:56:28Z</time>
      </trkpt>
      <trkpt lat="46.46888" lon="5.70558">
        <ele>533.4</ele>
        <time>2020-10-20T09:56:33Z</time>
      </trkpt>
      <trkpt lat="46.46893" lon="5.70559">
        <ele>532.3</ele>
        <time>2020-10-20T09:56:39Z</time>
      </trkpt>
      <trkpt lat="46.46899" lon="5.7056">
        <ele>531.4</ele>
        <time>2020-10-20T09:56:45Z</time>
      </trkpt>
      <trkpt lat="46.46903" lon="5.70559">
        <ele>531</ele>
        <time>2020-10-20T09:56:49Z</time>
      </trkpt>
      <trkpt lat="46.46908" lon="5.7056">
        <ele>530.6</ele>
        <time>2020-10-20T09:56:54Z</time>
      </trkpt>
      <trkpt lat="46.46913" lon="5.70561">
        <ele>530</ele>
        <time>2020-10-20T09:56:58Z</time>
      </trkpt>
      <trkpt lat="46.46918" lon="5.70564">
        <ele>529.3</ele>
        <time>2020-10-20T09:57:03Z</time>
      </trkpt>
      <trkpt lat="46.46923" lon="5.70565">
        <ele>529</ele>
        <time>2020-10-20T09:57:08Z</time>
      </trkpt>
      <trkpt lat="46.46928" lon="5.70564">
        <ele>528.7</ele>
        <time>2020-10-20T09:57:13Z</time>
      </trkpt>
      <trkpt lat="46.46932" lon="5.70561">
        <ele>528.1</ele>
        <time>2020-10-20T09:57:17Z</time>
      </trkpt>
      <trkpt lat="46.46937" lon="5.70559">
        <ele>527.4</ele>
        <time>2020-10-20T09:57:22Z</time>
      </trkpt>
      <trkpt lat="46.46941" lon="5.70555">
        <ele>526.7</ele>
        <time>2020-10-20T09:57:27Z</time>
      </trkpt>
      <trkpt lat="46.46947" lon="5.70553">
        <ele>526.3</ele>
        <time>2020-10-20T09:57:31Z</time>
      </trkpt>
      <trkpt lat="46.46952" lon="5.70552">
        <ele>525.8</ele>
        <time>2020-10-20T09:57:36Z</time>
      </trkpt>
      <trkpt lat="46.46956" lon="5.70554">
        <ele>525.3</ele>
        <time>2020-10-20T09:57:42Z</time>
      </trkpt>
      <trkpt lat="46.46961" lon="5.70555">
        <ele>524.5</ele>
        <time>2020-10-20T09:57:48Z</time>
      </trkpt>
      <trkpt lat="46.46966" lon="5.70553">
        <ele>523.8</ele>
        <time>2020-10-20T09:57:53Z</time>
      </trkpt>
      <trkpt lat="46.46971" lon="5.70552">
        <ele>523.2</ele>
        <time>2020-10-20T09:57:59Z</time>
      </trkpt>
      <trkpt lat="46.46976" lon="5.7055">
        <ele>522.7</ele>
        <time>2020-10-20T09:58:04Z</time>
      </trkpt>
      <trkpt lat="46.46982" lon="5.7055">
        <ele>522.5</ele>
        <time>2020-10-20T09:58:10Z</time>
      </trkpt>
      <trkpt lat="46.46987" lon="5.70549">
        <ele>522.5</ele>
        <time>2020-10-20T09:58:13Z</time>
      </trkpt>
      <trkpt lat="46.46992" lon="5.70548">
        <ele>522.8</ele>
        <time>2020-10-20T09:58:16Z</time>
      </trkpt>
      <trkpt lat="46.46996" lon="5.70546">
        <ele>523.1</ele>
        <time>2020-10-20T09:58:19Z</time>
      </trkpt>
      <trkpt lat="46.47002" lon="5.70544">
        <ele>524.2</ele>
        <time>2020-10-20T09:58:24Z</time>
      </trkpt>
      <trkpt lat="46.47007" lon="5.70542">
        <ele>525</ele>
        <time>2020-10-20T09:58:28Z</time>
      </trkpt>
      <trkpt lat="46.47012" lon="5.70541">
        <ele>525.7</ele>
        <time>2020-10-20T09:58:32Z</time>
      </trkpt>
      <trkpt lat="46.47017" lon="5.7054">
        <ele>526.7</ele>
        <time>2020-10-20T09:58:37Z</time>
      </trkpt>
      <trkpt lat="46.47022" lon="5.70538">
        <ele>527.3</ele>
        <time>2020-10-20T09:58:43Z</time>
      </trkpt>
      <trkpt lat="46.47026" lon="5.70536">
        <ele>527.1</ele>
        <time>2020-10-20T09:58:49Z</time>
      </trkpt>
      <trkpt lat="46.47031" lon="5.70536">
        <ele>526.8</ele>
        <time>2020-10-20T09:58:54Z</time>
      </trkpt>
      <trkpt lat="46.47036" lon="5.70535">
        <ele>526.3</ele>
        <time>2020-10-20T09:58:59Z</time>
      </trkpt>
      <trkpt lat="46.47041" lon="5.70532">
        <ele>526.1</ele>
        <time>2020-10-20T09:59:03Z</time>
      </trkpt>
      <trkpt lat="46.47045" lon="5.7053">
        <ele>525.7</ele>
        <time>2020-10-20T09:59:07Z</time>
      </trkpt>
      <trkpt lat="46.4705" lon="5.70529">
        <ele>525</ele>
        <time>2020-10-20T09:59:12Z</time>
      </trkpt>
      <trkpt lat="46.47055" lon="5.70527">
        <ele>524.2</ele>
        <time>2020-10-20T09:59:17Z</time>
      </trkpt>
      <trkpt lat="46.4706" lon="5.70526">
        <ele>523.4</ele>
        <time>2020-10-20T09:59:22Z</time>
      </trkpt>
      <trkpt lat="46.47065" lon="5.70525">
        <ele>522.9</ele>
        <time>2020-10-20T09:59:26Z</time>
      </trkpt>
      <trkpt lat="46.4707" lon="5.70523">
        <ele>522.1</ele>
        <time>2020-10-20T09:59:30Z</time>
      </trkpt>
      <trkpt lat="46.47074" lon="5.70521">
        <ele>521.5</ele>
        <time>2020-10-20T09:59:33Z</time>
      </trkpt>
      <trkpt lat="46.4708" lon="5.70519">
        <ele>520.5</ele>
        <time>2020-10-20T09:59:37Z</time>
      </trkpt>
      <trkpt lat="46.47085" lon="5.70518">
        <ele>519.8</ele>
        <time>2020-10-20T09:59:43Z</time>
      </trkpt>
      <trkpt lat="46.4709" lon="5.70518">
        <ele>519</ele>
        <time>2020-10-20T09:59:49Z</time>
      </trkpt>
      <trkpt lat="46.47094" lon="5.70519">
        <ele>518.5</ele>
        <time>2020-10-20T09:59:53Z</time>
      </trkpt>
      <trkpt lat="46.471" lon="5.70518">
        <ele>517.8</ele>
        <time>2020-10-20T09:59:58Z</time>
      </trkpt>
      <trkpt lat="46.47104" lon="5.70517">
        <ele>517.3</ele>
        <time>2020-10-20T10:00:02Z</time>
      </trkpt>
      <trkpt lat="46.47109" lon="5.70517">
        <ele>516.5</ele>
        <time>2020-10-20T10:00:07Z</time>
      </trkpt>
      <trkpt lat="46.47114" lon="5.70517">
        <ele>515.6</ele>
        <time>2020-10-20T10:00:12Z</time>
      </trkpt>
      <trkpt lat="46.47118" lon="5.70514">
        <ele>514.7</ele>
        <time>2020-10-20T10:00:17Z</time>
      </trkpt>
      <trkpt lat="46.47123" lon="5.70514">
        <ele>513.9</ele>
        <time>2020-10-20T10:00:21Z</time>
      </trkpt>
      <trkpt lat="46.47129" lon="5.70511">
        <ele>512.7</ele>
        <time>2020-10-20T10:00:27Z</time>
      </trkpt>
      <trkpt lat="46.47134" lon="5.70509">
        <ele>511.7</ele>
        <time>2020-10-20T10:00:32Z</time>
      </trkpt>
      <trkpt lat="46.47138" lon="5.70507">
        <ele>510.9</ele>
        <time>2020-10-20T10:00:37Z</time>
      </trkpt>
      <trkpt lat="46.47143" lon="5.70506">
        <ele>510</ele>
        <time>2020-10-20T10:00:42Z</time>
      </trkpt>
      <trkpt lat="46.47148" lon="5.70506">
        <ele>509</ele>
        <time>2020-10-20T10:00:47Z</time>
      </trkpt>
      <trkpt lat="46.47152" lon="5.70506">
        <ele>508.5</ele>
        <time>2020-10-20T10:00:51Z</time>
      </trkpt>
      <trkpt lat="46.47157" lon="5.70505">
        <ele>508.1</ele>
        <time>2020-10-20T10:00:55Z</time>
      </trkpt>
      <trkpt lat="46.47162" lon="5.70503">
        <ele>507.7</ele>
        <time>2020-10-20T10:00:59Z</time>
      </trkpt>
      <trkpt lat="46.47167" lon="5.70503">
        <ele>507.1</ele>
        <time>2020-10-20T10:01:04Z</time>
      </trkpt>
      <trkpt lat="46.47172" lon="5.70503">
        <ele>506.6</ele>
        <time>2020-10-20T10:01:08Z</time>
      </trkpt>
      <trkpt lat="46.47178" lon="5.70502">
        <ele>506</ele>
        <time>2020-10-20T10:01:12Z</time>
      </trkpt>
      <trkpt lat="46.47183" lon="5.705">
        <ele>505.4</ele>
        <time>2020-10-20T10:01:17Z</time>
      </trkpt>
      <trkpt lat="46.47189" lon="5.705">
        <ele>505.2</ele>
        <time>2020-10-20T10:01:21Z</time>
      </trkpt>
      <trkpt lat="46.47194" lon="5.70499">
        <ele>505.1</ele>
        <time>2020-10-20T10:01:24Z</time>
      </trkpt>
      <trkpt lat="46.47198" lon="5.70499">
        <ele>505.1</ele>
        <time>2020-10-20T10:01:27Z</time>
      </trkpt>
      <trkpt lat="46.47203" lon="5.70497">
        <ele>505</ele>
        <time>2020-10-20T10:01:31Z</time>
      </trkpt>
      <trkpt lat="46.47209" lon="5.70496">
        <ele>505.1</ele>
        <time>2020-10-20T10:01:35Z</time>
      </trkpt>
      <trkpt lat="46.47214" lon="5.70495">
        <ele>505</ele>
        <time>2020-10-20T10:01:40Z</time>
      </trkpt>
      <trkpt lat="46.47219" lon="5.70494">
        <ele>505</ele>
        <time>2020-10-20T10:01:44Z</time>
      </trkpt>
      <trkpt lat="46.47223" lon="5.70493">
        <ele>505.3</ele>
        <time>2020-10-20T10:01:47Z</time>
      </trkpt>
      <trkpt lat="46.47228" lon="5.70492">
        <ele>505.8</ele>
        <time>2020-10-20T10:01:50Z</time>
      </trkpt>
      <trkpt lat="46.47232" lon="5.7049">
        <ele>506.5</ele>
        <time>2020-10-20T10:01:53Z</time>
      </trkpt>
      <trkpt lat="46.47237" lon="5.70489">
        <ele>507.4</ele>
        <time>2020-10-20T10:01:57Z</time>
      </trkpt>
      <trkpt lat="46.47242" lon="5.70487">
        <ele>508.2</ele>
        <time>2020-10-20T10:02:02Z</time>
      </trkpt>
      <trkpt lat="46.47248" lon="5.70485">
        <ele>508.8</ele>
        <time>2020-10-20T10:02:07Z</time>
      </trkpt>
      <trkpt lat="46.47252" lon="5.70485">
        <ele>509.1</ele>
        <time>2020-10-20T10:02:12Z</time>
      </trkpt>
      <trkpt lat="46.47257" lon="5.70485">
        <ele>509.4</ele>
        <time>2020-10-20T10:02:17Z</time>
      </trkpt>
      <trkpt lat="46.47262" lon="5.70485">
        <ele>509.4</ele>
        <time>2020-10-20T10:02:22Z</time>
      </trkpt>
      <trkpt lat="46.47267" lon="5.70484">
        <ele>509.3</ele>
        <time>2020-10-20T10:02:28Z</time>
      </trkpt>
      <trkpt lat="46.47272" lon="5.70482">
        <ele>509.4</ele>
        <time>2020-10-20T10:02:34Z</time>
      </trkpt>
      <trkpt lat="46.47276" lon="5.7048">
        <ele>509.3</ele>
        <time>2020-10-20T10:02:39Z</time>
      </trkpt>
      <trkpt lat="46.47281" lon="5.70479">
        <ele>508.9</ele>
        <time>2020-10-20T10:02:47Z</time>
      </trkpt>
      <trkpt lat="46.47285" lon="5.70479">
        <ele>508.4</ele>
        <time>2020-10-20T10:02:52Z</time>
      </trkpt>
      <trkpt lat="46.47291" lon="5.70477">
        <ele>508</ele>
        <time>2020-10-20T10:02:57Z</time>
      </trkpt>
      <trkpt lat="46.47296" lon="5.70477">
        <ele>507.6</ele>
        <time>2020-10-20T10:03:02Z</time>
      </trkpt>
      <trkpt lat="46.47301" lon="5.70476">
        <ele>507.4</ele>
        <time>2020-10-20T10:03:06Z</time>
      </trkpt>
      <trkpt lat="46.47306" lon="5.70475">
        <ele>507.1</ele>
        <time>2020-10-20T10:03:11Z</time>
      </trkpt>
      <trkpt lat="46.47311" lon="5.70475">
        <ele>507</ele>
        <time>2020-10-20T10:03:16Z</time>
      </trkpt>
      <trkpt lat="46.47316" lon="5.70475">
        <ele>507.1</ele>
        <time>2020-10-20T10:03:21Z</time>
      </trkpt>
      <trkpt lat="46.47321" lon="5.70474">
        <ele>507.3</ele>
        <time>2020-10-20T10:03:26Z</time>
      </trkpt>
      <trkpt lat="46.47326" lon="5.70473">
        <ele>507.5</ele>
        <time>2020-10-20T10:03:30Z</time>
      </trkpt>
      <trkpt lat="46.47331" lon="5.70471">
        <ele>507.7</ele>
        <time>2020-10-20T10:03:35Z</time>
      </trkpt>
      <trkpt lat="46.47336" lon="5.70471">
        <ele>507.9</ele>
        <time>2020-10-20T10:03:39Z</time>
      </trkpt>
      <trkpt lat="46.47341" lon="5.7047">
        <ele>508.1</ele>
        <time>2020-10-20T10:03:42Z</time>
      </trkpt>
      <trkpt lat="46.47346" lon="5.70469">
        <ele>508.5</ele>
        <time>2020-10-20T10:03:46Z</time>
      </trkpt>
      <trkpt lat="46.47351" lon="5.70469">
        <ele>508.8</ele>
        <time>2020-10-20T10:03:51Z</time>
      </trkpt>
      <trkpt lat="46.47355" lon="5.70468">
        <ele>508.9</ele>
        <time>2020-10-20T10:03:55Z</time>
      </trkpt>
      <trkpt lat="46.4736" lon="5.70465">
        <ele>509.2</ele>
        <time>2020-10-20T10:03:59Z</time>
      </trkpt>
      <trkpt lat="46.47365" lon="5.70463">
        <ele>509.5</ele>
        <time>2020-10-20T10:04:04Z</time>
      </trkpt>
      <trkpt lat="46.4737" lon="5.70461">
        <ele>509.8</ele>
        <time>2020-10-20T10:04:08Z</time>
      </trkpt>
      <trkpt lat="46.47375" lon="5.7046">
        <ele>510.2</ele>
        <time>2020-10-20T10:04:12Z</time>
      </trkpt>
      <trkpt lat="46.4738" lon="5.70458">
        <ele>510.4</ele>
        <time>2020-10-20T10:04:17Z</time>
      </trkpt>
      <trkpt lat="46.47385" lon="5.70456">
        <ele>510.9</ele>
        <time>2020-10-20T10:04:23Z</time>
      </trkpt>
      <trkpt lat="46.4739" lon="5.70454">
        <ele>511.2</ele>
        <time>2020-10-20T10:04:28Z</time>
      </trkpt>
      <trkpt lat="46.47395" lon="5.70454">
        <ele>511.7</ele>
        <time>2020-10-20T10:04:33Z</time>
      </trkpt>
      <trkpt lat="46.47401" lon="5.70452">
        <ele>512.3</ele>
        <time>2020-10-20T10:04:37Z</time>
      </trkpt>
      <trkpt lat="46.47406" lon="5.70451">
        <ele>513.3</ele>
        <time>2020-10-20T10:04:41Z</time>
      </trkpt>
      <trkpt lat="46.4741" lon="5.70449">
        <ele>514.1</ele>
        <time>2020-10-20T10:04:46Z</time>
      </trkpt>
      <trkpt lat="46.47416" lon="5.70448">
        <ele>514.6</ele>
        <time>2020-10-20T10:04:51Z</time>
      </trkpt>
      <trkpt lat="46.47421" lon="5.70447">
        <ele>514.8</ele>
        <time>2020-10-20T10:04:56Z</time>
      </trkpt>
      <trkpt lat="46.47427" lon="5.70446">
        <ele>515.1</ele>
        <time>2020-10-20T10:05:01Z</time>
      </trkpt>
      <trkpt lat="46.47431" lon="5.70445">
        <ele>515.3</ele>
        <time>2020-10-20T10:05:06Z</time>
      </trkpt>
      <trkpt lat="46.47436" lon="5.70445">
        <ele>515.3</ele>
        <time>2020-10-20T10:05:11Z</time>
      </trkpt>
      <trkpt lat="46.47441" lon="5.70445">
        <ele>515.3</ele>
        <time>2020-10-20T10:05:16Z</time>
      </trkpt>
      <trkpt lat="46.47446" lon="5.70444">
        <ele>514.9</ele>
        <time>2020-10-20T10:05:21Z</time>
      </trkpt>
      <trkpt lat="46.4745" lon="5.70443">
        <ele>514.6</ele>
        <time>2020-10-20T10:05:26Z</time>
      </trkpt>
      <trkpt lat="46.47455" lon="5.70441">
        <ele>514.3</ele>
        <time>2020-10-20T10:05:30Z</time>
      </trkpt>
      <trkpt lat="46.4746" lon="5.7044">
        <ele>514</ele>
        <time>2020-10-20T10:05:34Z</time>
      </trkpt>
      <trkpt lat="46.47464" lon="5.7044">
        <ele>513.8</ele>
        <time>2020-10-20T10:05:38Z</time>
      </trkpt>
      <trkpt lat="46.47469" lon="5.70441">
        <ele>513.5</ele>
        <time>2020-10-20T10:05:44Z</time>
      </trkpt>
      <trkpt lat="46.47474" lon="5.7044">
        <ele>512.9</ele>
        <time>2020-10-20T10:05:50Z</time>
      </trkpt>
      <trkpt lat="46.4748" lon="5.7044">
        <ele>512.5</ele>
        <time>2020-10-20T10:05:55Z</time>
      </trkpt>
      <trkpt lat="46.47486" lon="5.70439">
        <ele>512.3</ele>
        <time>2020-10-20T10:05:59Z</time>
      </trkpt>
      <trkpt lat="46.47491" lon="5.70438">
        <ele>512.1</ele>
        <time>2020-10-20T10:06:03Z</time>
      </trkpt>
      <trkpt lat="46.47497" lon="5.70436">
        <ele>512.1</ele>
        <time>2020-10-20T10:06:08Z</time>
      </trkpt>
      <trkpt lat="46.47502" lon="5.70435">
        <ele>512.1</ele>
        <time>2020-10-20T10:06:12Z</time>
      </trkpt>
      <trkpt lat="46.47507" lon="5.70436">
        <ele>512</ele>
        <time>2020-10-20T10:06:16Z</time>
      </trkpt>
      <trkpt lat="46.47512" lon="5.70435">
        <ele>511.8</ele>
        <time>2020-10-20T10:06:21Z</time>
      </trkpt>
      <trkpt lat="46.47517" lon="5.70434">
        <ele>511.6</ele>
        <time>2020-10-20T10:06:25Z</time>
      </trkpt>
      <trkpt lat="46.47522" lon="5.70432">
        <ele>511.5</ele>
        <time>2020-10-20T10:06:30Z</time>
      </trkpt>
      <trkpt lat="46.47526" lon="5.70431">
        <ele>511.5</ele>
        <time>2020-10-20T10:06:34Z</time>
      </trkpt>
      <trkpt lat="46.47532" lon="5.70431">
        <ele>511.5</ele>
        <time>2020-10-20T10:06:39Z</time>
      </trkpt>
      <trkpt lat="46.47537" lon="5.70431">
        <ele>511.4</ele>
        <time>2020-10-20T10:06:44Z</time>
      </trkpt>
      <trkpt lat="46.47542" lon="5.70431">
        <ele>511.4</ele>
        <time>2020-10-20T10:06:48Z</time>
      </trkpt>
      <trkpt lat="46.47547" lon="5.70431">
        <ele>511.4</ele>
        <time>2020-10-20T10:06:53Z</time>
      </trkpt>
      <trkpt lat="46.47551" lon="5.70431">
        <ele>511.2</ele>
        <time>2020-10-20T10:06:58Z</time>
      </trkpt>
      <trkpt lat="46.47557" lon="5.70429">
        <ele>511.2</ele>
        <time>2020-10-20T10:07:03Z</time>
      </trkpt>
      <trkpt lat="46.47562" lon="5.70428">
        <ele>511.1</ele>
        <time>2020-10-20T10:07:07Z</time>
      </trkpt>
      <trkpt lat="46.47566" lon="5.70426">
        <ele>511.1</ele>
        <time>2020-10-20T10:07:11Z</time>
      </trkpt>
      <trkpt lat="46.47572" lon="5.70425">
        <ele>511.1</ele>
        <time>2020-10-20T10:07:15Z</time>
      </trkpt>
      <trkpt lat="46.47576" lon="5.70424">
        <ele>511.2</ele>
        <time>2020-10-20T10:07:18Z</time>
      </trkpt>
      <trkpt lat="46.47581" lon="5.70424">
        <ele>511.1</ele>
        <time>2020-10-20T10:07:22Z</time>
      </trkpt>
      <trkpt lat="46.47586" lon="5.70423">
        <ele>511.1</ele>
        <time>2020-10-20T10:07:27Z</time>
      </trkpt>
      <trkpt lat="46.47591" lon="5.70422">
        <ele>511.1</ele>
        <time>2020-10-20T10:07:32Z</time>
      </trkpt>
      <trkpt lat="46.47596" lon="5.70421">
        <ele>511.1</ele>
        <time>2020-10-20T10:07:39Z</time>
      </trkpt>
      <trkpt lat="46.47602" lon="5.70419">
        <ele>511</ele>
        <time>2020-10-20T10:07:44Z</time>
      </trkpt>
      <trkpt lat="46.47607" lon="5.70419">
        <ele>510.6</ele>
        <time>2020-10-20T10:07:49Z</time>
      </trkpt>
      <trkpt lat="46.47612" lon="5.7042">
        <ele>510.4</ele>
        <time>2020-10-20T10:07:54Z</time>
      </trkpt>
      <trkpt lat="46.47617" lon="5.7042">
        <ele>510.1</ele>
        <time>2020-10-20T10:07:58Z</time>
      </trkpt>
      <trkpt lat="46.47623" lon="5.70419">
        <ele>510</ele>
        <time>2020-10-20T10:08:02Z</time>
      </trkpt>
      <trkpt lat="46.47628" lon="5.70418">
        <ele>509.9</ele>
        <time>2020-10-20T10:08:06Z</time>
      </trkpt>
      <trkpt lat="46.47632" lon="5.70417">
        <ele>509.8</ele>
        <time>2020-10-20T10:08:11Z</time>
      </trkpt>
      <trkpt lat="46.47637" lon="5.70416">
        <ele>509.8</ele>
        <time>2020-10-20T10:08:18Z</time>
      </trkpt>
      <trkpt lat="46.47642" lon="5.70415">
        <ele>509.6</ele>
        <time>2020-10-20T10:08:26Z</time>
      </trkpt>
      <trkpt lat="46.47647" lon="5.70416">
        <ele>509.2</ele>
        <time>2020-10-20T10:08:33Z</time>
      </trkpt>
      <trkpt lat="46.47652" lon="5.70417">
        <ele>509</ele>
        <time>2020-10-20T10:08:38Z</time>
      </trkpt>
      <trkpt lat="46.47657" lon="5.70417">
        <ele>508.9</ele>
        <time>2020-10-20T10:08:43Z</time>
      </trkpt>
      <trkpt lat="46.47662" lon="5.70417">
        <ele>508.9</ele>
        <time>2020-10-20T10:08:48Z</time>
      </trkpt>
      <trkpt lat="46.47667" lon="5.70418">
        <ele>509.3</ele>
        <time>2020-10-20T10:08:54Z</time>
      </trkpt>
      <trkpt lat="46.47672" lon="5.70418">
        <ele>509.4</ele>
        <time>2020-10-20T10:09:00Z</time>
      </trkpt>
      <trkpt lat="46.47677" lon="5.70416">
        <ele>509.2</ele>
        <time>2020-10-20T10:09:06Z</time>
      </trkpt>
      <trkpt lat="46.47681" lon="5.70415">
        <ele>508.7</ele>
        <time>2020-10-20T10:09:11Z</time>
      </trkpt>
      <trkpt lat="46.47686" lon="5.70414">
        <ele>508</ele>
        <time>2020-10-20T10:09:15Z</time>
      </trkpt>
      <trkpt lat="46.47691" lon="5.70413">
        <ele>507.2</ele>
        <time>2020-10-20T10:09:20Z</time>
      </trkpt>
      <trkpt lat="46.47695" lon="5.70414">
        <ele>506.6</ele>
        <time>2020-10-20T10:09:26Z</time>
      </trkpt>
      <trkpt lat="46.47701" lon="5.70413">
        <ele>506.6</ele>
        <time>2020-10-20T10:09:31Z</time>
      </trkpt>
      <trkpt lat="46.47705" lon="5.70412">
        <ele>506.7</ele>
        <time>2020-10-20T10:09:36Z</time>
      </trkpt>
      <trkpt lat="46.4771" lon="5.70413">
        <ele>506.9</ele>
        <time>2020-10-20T10:09:43Z</time>
      </trkpt>
      <trkpt lat="46.47715" lon="5.70415">
        <ele>506.9</ele>
        <time>2020-10-20T10:09:49Z</time>
      </trkpt>
      <trkpt lat="46.4772" lon="5.70417">
        <ele>506.9</ele>
        <time>2020-10-20T10:09:55Z</time>
      </trkpt>
      <trkpt lat="46.47725" lon="5.70418">
        <ele>506</ele>
        <time>2020-10-20T10:10:06Z</time>
      </trkpt>
      <trkpt lat="46.4773" lon="5.70418">
        <ele>505.2</ele>
        <time>2020-10-20T10:10:13Z</time>
      </trkpt>
      <trkpt lat="46.47735" lon="5.70419">
        <ele>504.7</ele>
        <time>2020-10-20T10:10:18Z</time>
      </trkpt>
      <trkpt lat="46.47741" lon="5.70421">
        <ele>504.5</ele>
        <time>2020-10-20T10:10:22Z</time>
      </trkpt>
      <trkpt lat="46.47746" lon="5.70423">
        <ele>504.1</ele>
        <time>2020-10-20T10:10:27Z</time>
      </trkpt>
      <trkpt lat="46.47751" lon="5.70423">
        <ele>503.6</ele>
        <time>2020-10-20T10:10:32Z</time>
      </trkpt>
      <trkpt lat="46.47755" lon="5.70421">
        <ele>503.9</ele>
        <time>2020-10-20T10:10:39Z</time>
      </trkpt>
      <trkpt lat="46.47759" lon="5.70422">
        <ele>504.4</ele>
        <time>2020-10-20T10:10:47Z</time>
      </trkpt>
      <trkpt lat="46.47765" lon="5.70422">
        <ele>505</ele>
        <time>2020-10-20T10:10:53Z</time>
      </trkpt>
      <trkpt lat="46.4777" lon="5.70423">
        <ele>505.3</ele>
        <time>2020-10-20T10:10:59Z</time>
      </trkpt>
      <trkpt lat="46.47775" lon="5.70423">
        <ele>505.7</ele>
        <time>2020-10-20T10:11:07Z</time>
      </trkpt>
      <trkpt lat="46.47779" lon="5.70422">
        <ele>506</ele>
        <time>2020-10-20T10:11:14Z</time>
      </trkpt>
      <trkpt lat="46.47784" lon="5.70422">
        <ele>506.1</ele>
        <time>2020-10-20T10:11:20Z</time>
      </trkpt>
      <trkpt lat="46.47789" lon="5.70424">
        <ele>506</ele>
        <time>2020-10-20T10:11:27Z</time>
      </trkpt>
      <trkpt lat="46.47794" lon="5.70424">
        <ele>506</ele>
        <time>2020-10-20T10:11:32Z</time>
      </trkpt>
      <trkpt lat="46.47799" lon="5.70424">
        <ele>506.1</ele>
        <time>2020-10-20T10:11:37Z</time>
      </trkpt>
      <trkpt lat="46.47803" lon="5.70426">
        <ele>505.8</ele>
        <time>2020-10-20T10:11:46Z</time>
      </trkpt>
      <trkpt lat="46.47811" lon="5.70426">
        <ele>505.8</ele>
        <time>2020-10-20T10:12:03Z</time>
      </trkpt>
      <trkpt lat="46.47817" lon="5.70427">
        <ele>506</ele>
        <time>2020-10-20T10:12:06Z</time>
      </trkpt>
      <trkpt lat="46.47822" lon="5.70428">
        <ele>506.1</ele>
        <time>2020-10-20T10:12:09Z</time>
      </trkpt>
      <trkpt lat="46.47826" lon="5.70428">
        <ele>506.3</ele>
        <time>2020-10-20T10:12:12Z</time>
      </trkpt>
      <trkpt lat="46.47831" lon="5.70429">
        <ele>506.4</ele>
        <time>2020-10-20T10:12:16Z</time>
      </trkpt>
      <trkpt lat="46.47835" lon="5.70431">
        <ele>506.2</ele>
        <time>2020-10-20T10:12:21Z</time>
      </trkpt>
      <trkpt lat="46.4784" lon="5.70433">
        <ele>506.1</ele>
        <time>2020-10-20T10:12:25Z</time>
      </trkpt>
      <trkpt lat="46.47845" lon="5.70435">
        <ele>505.9</ele>
        <time>2020-10-20T10:12:30Z</time>
      </trkpt>
      <trkpt lat="46.4785" lon="5.70436">
        <ele>505.9</ele>
        <time>2020-10-20T10:12:34Z</time>
      </trkpt>
      <trkpt lat="46.47855" lon="5.70437">
        <ele>506</ele>
        <time>2020-10-20T10:12:38Z</time>
      </trkpt>
      <trkpt lat="46.4786" lon="5.70437">
        <ele>505.9</ele>
        <time>2020-10-20T10:12:43Z</time>
      </trkpt>
      <trkpt lat="46.47865" lon="5.70437">
        <ele>505.7</ele>
        <time>2020-10-20T10:12:48Z</time>
      </trkpt>
      <trkpt lat="46.4787" lon="5.70438">
        <ele>505.6</ele>
        <time>2020-10-20T10:12:52Z</time>
      </trkpt>
      <trkpt lat="46.47876" lon="5.70439">
        <ele>505.7</ele>
        <time>2020-10-20T10:12:55Z</time>
      </trkpt>
      <trkpt lat="46.4788" lon="5.7044">
        <ele>505.7</ele>
        <time>2020-10-20T10:12:58Z</time>
      </trkpt>
      <trkpt lat="46.47886" lon="5.7044">
        <ele>505.7</ele>
        <time>2020-10-20T10:13:02Z</time>
      </trkpt>
      <trkpt lat="46.47891" lon="5.7044">
        <ele>505.6</ele>
        <time>2020-10-20T10:13:06Z</time>
      </trkpt>
      <trkpt lat="46.47897" lon="5.70441">
        <ele>505.7</ele>
        <time>2020-10-20T10:13:10Z</time>
      </trkpt>
      <trkpt lat="46.47902" lon="5.70441">
        <ele>505.9</ele>
        <time>2020-10-20T10:13:13Z</time>
      </trkpt>
      <trkpt lat="46.47908" lon="5.70442">
        <ele>506.2</ele>
        <time>2020-10-20T10:13:16Z</time>
      </trkpt>
      <trkpt lat="46.47913" lon="5.70443">
        <ele>506.6</ele>
        <time>2020-10-20T10:13:19Z</time>
      </trkpt>
      <trkpt lat="46.47918" lon="5.70444">
        <ele>506.7</ele>
        <time>2020-10-20T10:13:23Z</time>
      </trkpt>
      <trkpt lat="46.47923" lon="5.70444">
        <ele>506.8</ele>
        <time>2020-10-20T10:13:27Z</time>
      </trkpt>
      <trkpt lat="46.47929" lon="5.70445">
        <ele>506.9</ele>
        <time>2020-10-20T10:13:31Z</time>
      </trkpt>
      <trkpt lat="46.47934" lon="5.70445">
        <ele>506.9</ele>
        <time>2020-10-20T10:13:35Z</time>
      </trkpt>
      <trkpt lat="46.47939" lon="5.70445">
        <ele>506.8</ele>
        <time>2020-10-20T10:13:40Z</time>
      </trkpt>
      <trkpt lat="46.47944" lon="5.70444">
        <ele>506.5</ele>
        <time>2020-10-20T10:13:45Z</time>
      </trkpt>
      <trkpt lat="46.47949" lon="5.70443">
        <ele>506.3</ele>
        <time>2020-10-20T10:13:48Z</time>
      </trkpt>
      <trkpt lat="46.47954" lon="5.70443">
        <ele>506</ele>
        <time>2020-10-20T10:13:52Z</time>
      </trkpt>
      <trkpt lat="46.47959" lon="5.70443">
        <ele>505.5</ele>
        <time>2020-10-20T10:13:57Z</time>
      </trkpt>
      <trkpt lat="46.47964" lon="5.70444">
        <ele>505.3</ele>
        <time>2020-10-20T10:14:01Z</time>
      </trkpt>
      <trkpt lat="46.4797" lon="5.70444">
        <ele>505.3</ele>
        <time>2020-10-20T10:14:05Z</time>
      </trkpt>
      <trkpt lat="46.47975" lon="5.70445">
        <ele>505.2</ele>
        <time>2020-10-20T10:14:09Z</time>
      </trkpt>
      <trkpt lat="46.47979" lon="5.70446">
        <ele>505</ele>
        <time>2020-10-20T10:14:14Z</time>
      </trkpt>
      <trkpt lat="46.47984" lon="5.70447">
        <ele>504.8</ele>
        <time>2020-10-20T10:14:18Z</time>
      </trkpt>
      <trkpt lat="46.47989" lon="5.70449">
        <ele>504.7</ele>
        <time>2020-10-20T10:14:22Z</time>
      </trkpt>
      <trkpt lat="46.47993" lon="5.70451">
        <ele>504.6</ele>
        <time>2020-10-20T10:14:26Z</time>
      </trkpt>
      <trkpt lat="46.47999" lon="5.70452">
        <ele>504.7</ele>
        <time>2020-10-20T10:14:30Z</time>
      </trkpt>
      <trkpt lat="46.48004" lon="5.70451">
        <ele>505</ele>
        <time>2020-10-20T10:14:33Z</time>
      </trkpt>
      <trkpt lat="46.48009" lon="5.7045">
        <ele>505.1</ele>
        <time>2020-10-20T10:14:37Z</time>
      </trkpt>
      <trkpt lat="46.48015" lon="5.7045">
        <ele>505.2</ele>
        <time>2020-10-20T10:14:42Z</time>
      </trkpt>
      <trkpt lat="46.48019" lon="5.70451">
        <ele>504.6</ele>
        <time>2020-10-20T10:14:48Z</time>
      </trkpt>
      <trkpt lat="46.48024" lon="5.70453">
        <ele>503.6</ele>
        <time>2020-10-20T10:14:53Z</time>
      </trkpt>
      <trkpt lat="46.48029" lon="5.70455">
        <ele>502.6</ele>
        <time>2020-10-20T10:14:58Z</time>
      </trkpt>
      <trkpt lat="46.48034" lon="5.70455">
        <ele>501.9</ele>
        <time>2020-10-20T10:15:02Z</time>
      </trkpt>
      <trkpt lat="46.48039" lon="5.70456">
        <ele>501.2</ele>
        <time>2020-10-20T10:15:06Z</time>
      </trkpt>
      <trkpt lat="46.48043" lon="5.70458">
        <ele>500.6</ele>
        <time>2020-10-20T10:15:10Z</time>
      </trkpt>
      <trkpt lat="46.48049" lon="5.70459">
        <ele>500.3</ele>
        <time>2020-10-20T10:15:13Z</time>
      </trkpt>
      <trkpt lat="46.48054" lon="5.70459">
        <ele>500</ele>
        <time>2020-10-20T10:15:17Z</time>
      </trkpt>
      <trkpt lat="46.4806" lon="5.70461">
        <ele>499.9</ele>
        <time>2020-10-20T10:15:22Z</time>
      </trkpt>
      <trkpt lat="46.48065" lon="5.70461">
        <ele>499.9</ele>
        <time>2020-10-20T10:15:27Z</time>
      </trkpt>
      <trkpt lat="46.48071" lon="5.70462">
        <ele>500.5</ele>
        <time>2020-10-20T10:15:31Z</time>
      </trkpt>
      <trkpt lat="46.48076" lon="5.70464">
        <ele>501.3</ele>
        <time>2020-10-20T10:15:36Z</time>
      </trkpt>
      <trkpt lat="46.48082" lon="5.70465">
        <ele>502.3</ele>
        <time>2020-10-20T10:15:40Z</time>
      </trkpt>
      <trkpt lat="46.48087" lon="5.70465">
        <ele>503.1</ele>
        <time>2020-10-20T10:15:43Z</time>
      </trkpt>
      <trkpt lat="46.48092" lon="5.70466">
        <ele>504.5</ele>
        <time>2020-10-20T10:15:48Z</time>
      </trkpt>
      <trkpt lat="46.48097" lon="5.70465">
        <ele>507.2</ele>
        <time>2020-10-20T10:15:54Z</time>
      </trkpt>
      <trkpt lat="46.48102" lon="5.70463">
        <ele>510.9</ele>
        <time>2020-10-20T10:16:05Z</time>
      </trkpt>
      <trkpt lat="46.48106" lon="5.70461">
        <ele>512.2</ele>
        <time>2020-10-20T10:16:09Z</time>
      </trkpt>
      <trkpt lat="46.48111" lon="5.70461">
        <ele>514.6</ele>
        <time>2020-10-20T10:16:15Z</time>
      </trkpt>
      <trkpt lat="46.48116" lon="5.70461">
        <ele>516.6</ele>
        <time>2020-10-20T10:16:20Z</time>
      </trkpt>
      <trkpt lat="46.48121" lon="5.70459">
        <ele>519.1</ele>
        <time>2020-10-20T10:16:27Z</time>
      </trkpt>
      <trkpt lat="46.48125" lon="5.70458">
        <ele>523.2</ele>
        <time>2020-10-20T10:16:50Z</time>
      </trkpt>
      <trkpt lat="46.4813" lon="5.7046">
        <ele>524.9</ele>
        <time>2020-10-20T10:16:54Z</time>
      </trkpt>
      <trkpt lat="46.48134" lon="5.70462">
        <ele>526.2</ele>
        <time>2020-10-20T10:16:58Z</time>
      </trkpt>
      <trkpt lat="46.48139" lon="5.70464">
        <ele>527.3</ele>
        <time>2020-10-20T10:17:02Z</time>
      </trkpt>
      <trkpt lat="46.48144" lon="5.70466">
        <ele>528.1</ele>
        <time>2020-10-20T10:17:07Z</time>
      </trkpt>
      <trkpt lat="46.48149" lon="5.70467">
        <ele>528.5</ele>
        <time>2020-10-20T10:17:12Z</time>
      </trkpt>
      <trkpt lat="46.48153" lon="5.70468">
        <ele>528.5</ele>
        <time>2020-10-20T10:17:17Z</time>
      </trkpt>
      <trkpt lat="46.48158" lon="5.70469">
        <ele>528.6</ele>
        <time>2020-10-20T10:17:21Z</time>
      </trkpt>
      <trkpt lat="46.48163" lon="5.70469">
        <ele>528.6</ele>
        <time>2020-10-20T10:17:25Z</time>
      </trkpt>
      <trkpt lat="46.48168" lon="5.7047">
        <ele>528.4</ele>
        <time>2020-10-20T10:17:29Z</time>
      </trkpt>
      <trkpt lat="46.48172" lon="5.70471">
        <ele>528.2</ele>
        <time>2020-10-20T10:17:33Z</time>
      </trkpt>
      <trkpt lat="46.48178" lon="5.70471">
        <ele>528.1</ele>
        <time>2020-10-20T10:17:38Z</time>
      </trkpt>
      <trkpt lat="46.48183" lon="5.7047">
        <ele>528.1</ele>
        <time>2020-10-20T10:17:44Z</time>
      </trkpt>
      <trkpt lat="46.48188" lon="5.70471">
        <ele>527.7</ele>
        <time>2020-10-20T10:17:50Z</time>
      </trkpt>
      <trkpt lat="46.48193" lon="5.70471">
        <ele>527.9</ele>
        <time>2020-10-20T10:17:58Z</time>
      </trkpt>
      <trkpt lat="46.48198" lon="5.70471">
        <ele>528.6</ele>
        <time>2020-10-20T10:18:04Z</time>
      </trkpt>
      <trkpt lat="46.48202" lon="5.70472">
        <ele>529.2</ele>
        <time>2020-10-20T10:18:08Z</time>
      </trkpt>
      <trkpt lat="46.48208" lon="5.70472">
        <ele>529.9</ele>
        <time>2020-10-20T10:18:12Z</time>
      </trkpt>
      <trkpt lat="46.48213" lon="5.70473">
        <ele>531.1</ele>
        <time>2020-10-20T10:18:18Z</time>
      </trkpt>
      <trkpt lat="46.48218" lon="5.70473">
        <ele>531.8</ele>
        <time>2020-10-20T10:18:24Z</time>
      </trkpt>
      <trkpt lat="46.48223" lon="5.70474">
        <ele>531.7</ele>
        <time>2020-10-20T10:18:30Z</time>
      </trkpt>
      <trkpt lat="46.48229" lon="5.70474">
        <ele>531.3</ele>
        <time>2020-10-20T10:18:36Z</time>
      </trkpt>
      <trkpt lat="46.48233" lon="5.70475">
        <ele>531</ele>
        <time>2020-10-20T10:18:41Z</time>
      </trkpt>
      <trkpt lat="46.48238" lon="5.70473">
        <ele>530.8</ele>
        <time>2020-10-20T10:18:46Z</time>
      </trkpt>
      <trkpt lat="46.48243" lon="5.70474">
        <ele>530.5</ele>
        <time>2020-10-20T10:18:50Z</time>
      </trkpt>
      <trkpt lat="46.48248" lon="5.70474">
        <ele>529.6</ele>
        <time>2020-10-20T10:18:56Z</time>
      </trkpt>
      <trkpt lat="46.48253" lon="5.70473">
        <ele>528.7</ele>
        <time>2020-10-20T10:19:02Z</time>
      </trkpt>
      <trkpt lat="46.48258" lon="5.70474">
        <ele>528.3</ele>
        <time>2020-10-20T10:19:07Z</time>
      </trkpt>
      <trkpt lat="46.48263" lon="5.70473">
        <ele>528</ele>
        <time>2020-10-20T10:19:11Z</time>
      </trkpt>
      <trkpt lat="46.48269" lon="5.70473">
        <ele>527.6</ele>
        <time>2020-10-20T10:19:16Z</time>
      </trkpt>
      <trkpt lat="46.48274" lon="5.70474">
        <ele>527.6</ele>
        <time>2020-10-20T10:19:20Z</time>
      </trkpt>
      <trkpt lat="46.48279" lon="5.70474">
        <ele>527.3</ele>
        <time>2020-10-20T10:19:25Z</time>
      </trkpt>
      <trkpt lat="46.48284" lon="5.70475">
        <ele>527.2</ele>
        <time>2020-10-20T10:19:31Z</time>
      </trkpt>
      <trkpt lat="46.48289" lon="5.70478">
        <ele>526.6</ele>
        <time>2020-10-20T10:19:37Z</time>
      </trkpt>
      <trkpt lat="46.48293" lon="5.70479">
        <ele>526</ele>
        <time>2020-10-20T10:19:41Z</time>
      </trkpt>
      <trkpt lat="46.48298" lon="5.70479">
        <ele>525.4</ele>
        <time>2020-10-20T10:19:45Z</time>
      </trkpt>
      <trkpt lat="46.48303" lon="5.7048">
        <ele>524.4</ele>
        <time>2020-10-20T10:19:50Z</time>
      </trkpt>
      <trkpt lat="46.48309" lon="5.70481">
        <ele>523.9</ele>
        <time>2020-10-20T10:19:54Z</time>
      </trkpt>
      <trkpt lat="46.48314" lon="5.70481">
        <ele>523.4</ele>
        <time>2020-10-20T10:19:59Z</time>
      </trkpt>
      <trkpt lat="46.48319" lon="5.70482">
        <ele>523.3</ele>
        <time>2020-10-20T10:20:03Z</time>
      </trkpt>
      <trkpt lat="46.48324" lon="5.70484">
        <ele>523.3</ele>
        <time>2020-10-20T10:20:06Z</time>
      </trkpt>
      <trkpt lat="46.48329" lon="5.70485">
        <ele>523.4</ele>
        <time>2020-10-20T10:20:10Z</time>
      </trkpt>
      <trkpt lat="46.48334" lon="5.70485">
        <ele>523.4</ele>
        <time>2020-10-20T10:20:14Z</time>
      </trkpt>
      <trkpt lat="46.48339" lon="5.70485">
        <ele>523.4</ele>
        <time>2020-10-20T10:20:18Z</time>
      </trkpt>
      <trkpt lat="46.48344" lon="5.70486">
        <ele>523.3</ele>
        <time>2020-10-20T10:20:22Z</time>
      </trkpt>
      <trkpt lat="46.48348" lon="5.70488">
        <ele>523.1</ele>
        <time>2020-10-20T10:20:26Z</time>
      </trkpt>
      <trkpt lat="46.48353" lon="5.70488">
        <ele>522.6</ele>
        <time>2020-10-20T10:20:32Z</time>
      </trkpt>
      <trkpt lat="46.48357" lon="5.70489">
        <ele>522.3</ele>
        <time>2020-10-20T10:20:37Z</time>
      </trkpt>
      <trkpt lat="46.48363" lon="5.7049">
        <ele>521.9</ele>
        <time>2020-10-20T10:20:43Z</time>
      </trkpt>
      <trkpt lat="46.48368" lon="5.70489">
        <ele>521.8</ele>
        <time>2020-10-20T10:20:48Z</time>
      </trkpt>
      <trkpt lat="46.48373" lon="5.7049">
        <ele>521.8</ele>
        <time>2020-10-20T10:20:54Z</time>
      </trkpt>
      <trkpt lat="46.48378" lon="5.70492">
        <ele>521.9</ele>
        <time>2020-10-20T10:20:59Z</time>
      </trkpt>
      <trkpt lat="46.48383" lon="5.70494">
        <ele>522.1</ele>
        <time>2020-10-20T10:21:03Z</time>
      </trkpt>
      <trkpt lat="46.48388" lon="5.70496">
        <ele>522.2</ele>
        <time>2020-10-20T10:21:08Z</time>
      </trkpt>
      <trkpt lat="46.48393" lon="5.70498">
        <ele>522.1</ele>
        <time>2020-10-20T10:21:12Z</time>
      </trkpt>
      <trkpt lat="46.48397" lon="5.70499">
        <ele>522.3</ele>
        <time>2020-10-20T10:21:17Z</time>
      </trkpt>
      <trkpt lat="46.48403" lon="5.705">
        <ele>522.6</ele>
        <time>2020-10-20T10:21:22Z</time>
      </trkpt>
      <trkpt lat="46.48407" lon="5.70499">
        <ele>522.9</ele>
        <time>2020-10-20T10:21:27Z</time>
      </trkpt>
      <trkpt lat="46.48413" lon="5.705">
        <ele>523.2</ele>
        <time>2020-10-20T10:21:34Z</time>
      </trkpt>
      <trkpt lat="46.48417" lon="5.70499">
        <ele>523.3</ele>
        <time>2020-10-20T10:21:39Z</time>
      </trkpt>
      <trkpt lat="46.48422" lon="5.705">
        <ele>523.4</ele>
        <time>2020-10-20T10:21:43Z</time>
      </trkpt>
      <trkpt lat="46.48427" lon="5.705">
        <ele>523.5</ele>
        <time>2020-10-20T10:21:47Z</time>
      </trkpt>
      <trkpt lat="46.48432" lon="5.705">
        <ele>523.3</ele>
        <time>2020-10-20T10:21:51Z</time>
      </trkpt>
      <trkpt lat="46.48437" lon="5.70501">
        <ele>522.9</ele>
        <time>2020-10-20T10:21:57Z</time>
      </trkpt>
      <trkpt lat="46.48441" lon="5.70501">
        <ele>522.5</ele>
        <time>2020-10-20T10:22:02Z</time>
      </trkpt>
      <trkpt lat="46.48446" lon="5.70501">
        <ele>522.8</ele>
        <time>2020-10-20T10:22:06Z</time>
      </trkpt>
      <trkpt lat="46.48451" lon="5.70502">
        <ele>523.1</ele>
        <time>2020-10-20T10:22:10Z</time>
      </trkpt>
      <trkpt lat="46.48456" lon="5.70502">
        <ele>523.2</ele>
        <time>2020-10-20T10:22:15Z</time>
      </trkpt>
      <trkpt lat="46.48461" lon="5.70503">
        <ele>522.9</ele>
        <time>2020-10-20T10:22:20Z</time>
      </trkpt>
      <trkpt lat="46.48466" lon="5.70504">
        <ele>522.2</ele>
        <time>2020-10-20T10:22:25Z</time>
      </trkpt>
      <trkpt lat="46.48472" lon="5.70506">
        <ele>521.7</ele>
        <time>2020-10-20T10:22:30Z</time>
      </trkpt>
      <trkpt lat="46.48476" lon="5.70507">
        <ele>521.2</ele>
        <time>2020-10-20T10:22:35Z</time>
      </trkpt>
      <trkpt lat="46.48481" lon="5.70508">
        <ele>520.9</ele>
        <time>2020-10-20T10:22:40Z</time>
      </trkpt>
      <trkpt lat="46.48486" lon="5.70509">
        <ele>521</ele>
        <time>2020-10-20T10:22:44Z</time>
      </trkpt>
      <trkpt lat="46.48491" lon="5.70509">
        <ele>521.1</ele>
        <time>2020-10-20T10:22:49Z</time>
      </trkpt>
      <trkpt lat="46.48496" lon="5.7051">
        <ele>521.3</ele>
        <time>2020-10-20T10:22:54Z</time>
      </trkpt>
      <trkpt lat="46.48502" lon="5.7051">
        <ele>521.5</ele>
        <time>2020-10-20T10:22:59Z</time>
      </trkpt>
      <trkpt lat="46.48507" lon="5.70512">
        <ele>521.8</ele>
        <time>2020-10-20T10:23:03Z</time>
      </trkpt>
      <trkpt lat="46.48512" lon="5.70513">
        <ele>522</ele>
        <time>2020-10-20T10:23:08Z</time>
      </trkpt>
      <trkpt lat="46.48516" lon="5.70514">
        <ele>522</ele>
        <time>2020-10-20T10:23:14Z</time>
      </trkpt>
      <trkpt lat="46.48522" lon="5.70513">
        <ele>522</ele>
        <time>2020-10-20T10:23:19Z</time>
      </trkpt>
      <trkpt lat="46.48527" lon="5.70513">
        <ele>522.1</ele>
        <time>2020-10-20T10:23:23Z</time>
      </trkpt>
      <trkpt lat="46.48532" lon="5.70514">
        <ele>522.3</ele>
        <time>2020-10-20T10:23:27Z</time>
      </trkpt>
      <trkpt lat="46.48537" lon="5.70515">
        <ele>522.4</ele>
        <time>2020-10-20T10:23:32Z</time>
      </trkpt>
      <trkpt lat="46.48542" lon="5.70515">
        <ele>522.7</ele>
        <time>2020-10-20T10:23:37Z</time>
      </trkpt>
      <trkpt lat="46.48547" lon="5.70514">
        <ele>523</ele>
        <time>2020-10-20T10:23:44Z</time>
      </trkpt>
      <trkpt lat="46.48552" lon="5.70512">
        <ele>529.2</ele>
        <time>2020-10-20T10:38:38Z</time>
      </trkpt>
      <trkpt lat="46.48556" lon="5.70516">
        <ele>533.6</ele>
        <time>2020-10-20T11:01:51Z</time>
      </trkpt>
      <trkpt lat="46.4856" lon="5.70518">
        <ele>533.5</ele>
        <time>2020-10-20T11:01:56Z</time>
      </trkpt>
      <trkpt lat="46.48565" lon="5.70518">
        <ele>533.4</ele>
        <time>2020-10-20T11:02:00Z</time>
      </trkpt>
      <trkpt lat="46.48569" lon="5.70519">
        <ele>533.2</ele>
        <time>2020-10-20T11:02:04Z</time>
      </trkpt>
      <trkpt lat="46.48574" lon="5.70517">
        <ele>533.2</ele>
        <time>2020-10-20T11:02:09Z</time>
      </trkpt>
      <trkpt lat="46.4858" lon="5.70516">
        <ele>533.1</ele>
        <time>2020-10-20T11:02:14Z</time>
      </trkpt>
      <trkpt lat="46.48585" lon="5.70513">
        <ele>533</ele>
        <time>2020-10-20T11:02:19Z</time>
      </trkpt>
      <trkpt lat="46.48589" lon="5.70509">
        <ele>533</ele>
        <time>2020-10-20T11:02:24Z</time>
      </trkpt>
      <trkpt lat="46.48594" lon="5.70506">
        <ele>532.8</ele>
        <time>2020-10-20T11:02:29Z</time>
      </trkpt>
      <trkpt lat="46.48597" lon="5.70502">
        <ele>532.4</ele>
        <time>2020-10-20T11:02:34Z</time>
      </trkpt>
      <trkpt lat="46.48602" lon="5.70499">
        <ele>532.3</ele>
        <time>2020-10-20T11:02:39Z</time>
      </trkpt>
      <trkpt lat="46.48606" lon="5.70496">
        <ele>532.3</ele>
        <time>2020-10-20T11:02:44Z</time>
      </trkpt>
      <trkpt lat="46.48611" lon="5.70492">
        <ele>531.7</ele>
        <time>2020-10-20T11:02:49Z</time>
      </trkpt>
      <trkpt lat="46.48615" lon="5.70488">
        <ele>531</ele>
        <time>2020-10-20T11:02:54Z</time>
      </trkpt>
      <trkpt lat="46.4862" lon="5.70484">
        <ele>530.1</ele>
        <time>2020-10-20T11:03:00Z</time>
      </trkpt>
      <trkpt lat="46.48624" lon="5.70479">
        <ele>529.6</ele>
        <time>2020-10-20T11:03:06Z</time>
      </trkpt>
      <trkpt lat="46.48627" lon="5.70474">
        <ele>529.3</ele>
        <time>2020-10-20T11:03:11Z</time>
      </trkpt>
      <trkpt lat="46.48631" lon="5.70469">
        <ele>529.1</ele>
        <time>2020-10-20T11:03:16Z</time>
      </trkpt>
      <trkpt lat="46.48636" lon="5.70465">
        <ele>528.8</ele>
        <time>2020-10-20T11:03:20Z</time>
      </trkpt>
      <trkpt lat="46.48639" lon="5.7046">
        <ele>528.3</ele>
        <time>2020-10-20T11:03:25Z</time>
      </trkpt>
      <trkpt lat="46.48642" lon="5.70456">
        <ele>527.8</ele>
        <time>2020-10-20T11:03:30Z</time>
      </trkpt>
      <trkpt lat="46.48646" lon="5.70451">
        <ele>528</ele>
        <time>2020-10-20T11:03:35Z</time>
      </trkpt>
      <trkpt lat="46.48651" lon="5.70449">
        <ele>528.8</ele>
        <time>2020-10-20T11:03:44Z</time>
      </trkpt>
      <trkpt lat="46.48655" lon="5.70446">
        <ele>530.5</ele>
        <time>2020-10-20T11:04:00Z</time>
      </trkpt>
      <trkpt lat="46.48659" lon="5.70443">
        <ele>530.7</ele>
        <time>2020-10-20T11:04:05Z</time>
      </trkpt>
      <trkpt lat="46.48664" lon="5.7044">
        <ele>531.1</ele>
        <time>2020-10-20T11:04:11Z</time>
      </trkpt>
      <trkpt lat="46.48668" lon="5.70437">
        <ele>531.8</ele>
        <time>2020-10-20T11:04:15Z</time>
      </trkpt>
      <trkpt lat="46.48673" lon="5.70436">
        <ele>532</ele>
        <time>2020-10-20T11:04:19Z</time>
      </trkpt>
      <trkpt lat="46.48678" lon="5.70435">
        <ele>531.4</ele>
        <time>2020-10-20T11:04:26Z</time>
      </trkpt>
      <trkpt lat="46.48682" lon="5.70431">
        <ele>531.4</ele>
        <time>2020-10-20T11:04:33Z</time>
      </trkpt>
      <trkpt lat="46.48686" lon="5.70428">
        <ele>531.5</ele>
        <time>2020-10-20T11:04:37Z</time>
      </trkpt>
      <trkpt lat="46.4869" lon="5.70425">
        <ele>531.4</ele>
        <time>2020-10-20T11:04:41Z</time>
      </trkpt>
      <trkpt lat="46.48695" lon="5.70422">
        <ele>531.5</ele>
        <time>2020-10-20T11:04:45Z</time>
      </trkpt>
      <trkpt lat="46.48698" lon="5.70418">
        <ele>531.8</ele>
        <time>2020-10-20T11:04:49Z</time>
      </trkpt>
      <trkpt lat="46.48702" lon="5.70415">
        <ele>532.7</ele>
        <time>2020-10-20T11:04:54Z</time>
      </trkpt>
      <trkpt lat="46.48707" lon="5.70412">
        <ele>534.6</ele>
        <time>2020-10-20T11:04:59Z</time>
      </trkpt>
      <trkpt lat="46.48712" lon="5.7041">
        <ele>536</ele>
        <time>2020-10-20T11:05:03Z</time>
      </trkpt>
      <trkpt lat="46.48716" lon="5.70407">
        <ele>537.1</ele>
        <time>2020-10-20T11:05:07Z</time>
      </trkpt>
      <trkpt lat="46.48721" lon="5.70404">
        <ele>538.5</ele>
        <time>2020-10-20T11:05:12Z</time>
      </trkpt>
      <trkpt lat="46.48726" lon="5.70401">
        <ele>539.7</ele>
        <time>2020-10-20T11:05:17Z</time>
      </trkpt>
      <trkpt lat="46.48731" lon="5.70399">
        <ele>540.6</ele>
        <time>2020-10-20T11:05:22Z</time>
      </trkpt>
      <trkpt lat="46.48735" lon="5.70396">
        <ele>540.9</ele>
        <time>2020-10-20T11:05:28Z</time>
      </trkpt>
      <trkpt lat="46.4874" lon="5.70392">
        <ele>540.7</ele>
        <time>2020-10-20T11:05:33Z</time>
      </trkpt>
      <trkpt lat="46.48744" lon="5.7039">
        <ele>540.7</ele>
        <time>2020-10-20T11:05:37Z</time>
      </trkpt>
      <trkpt lat="46.48748" lon="5.70386">
        <ele>540.6</ele>
        <time>2020-10-20T11:05:42Z</time>
      </trkpt>
      <trkpt lat="46.48753" lon="5.70383">
        <ele>540.1</ele>
        <time>2020-10-20T11:05:47Z</time>
      </trkpt>
      <trkpt lat="46.48757" lon="5.70379">
        <ele>539.8</ele>
        <time>2020-10-20T11:05:52Z</time>
      </trkpt>
      <trkpt lat="46.48762" lon="5.70375">
        <ele>539.5</ele>
        <time>2020-10-20T11:05:57Z</time>
      </trkpt>
      <trkpt lat="46.48767" lon="5.70373">
        <ele>538.9</ele>
        <time>2020-10-20T11:06:02Z</time>
      </trkpt>
      <trkpt lat="46.48772" lon="5.70369">
        <ele>538.7</ele>
        <time>2020-10-20T11:06:07Z</time>
      </trkpt>
      <trkpt lat="46.48776" lon="5.70365">
        <ele>539.2</ele>
        <time>2020-10-20T11:06:12Z</time>
      </trkpt>
      <trkpt lat="46.48781" lon="5.70362">
        <ele>540.1</ele>
        <time>2020-10-20T11:06:17Z</time>
      </trkpt>
      <trkpt lat="46.48785" lon="5.70359">
        <ele>541.2</ele>
        <time>2020-10-20T11:06:22Z</time>
      </trkpt>
      <trkpt lat="46.4879" lon="5.70355">
        <ele>542.1</ele>
        <time>2020-10-20T11:06:27Z</time>
      </trkpt>
      <trkpt lat="46.48794" lon="5.70352">
        <ele>542.8</ele>
        <time>2020-10-20T11:06:31Z</time>
      </trkpt>
      <trkpt lat="46.48799" lon="5.70349">
        <ele>543.5</ele>
        <time>2020-10-20T11:06:36Z</time>
      </trkpt>
      <trkpt lat="46.48804" lon="5.70346">
        <ele>543.6</ele>
        <time>2020-10-20T11:06:41Z</time>
      </trkpt>
      <trkpt lat="46.48808" lon="5.70343">
        <ele>543.2</ele>
        <time>2020-10-20T11:06:45Z</time>
      </trkpt>
      <trkpt lat="46.48812" lon="5.70339">
        <ele>542.4</ele>
        <time>2020-10-20T11:06:49Z</time>
      </trkpt>
      <trkpt lat="46.48817" lon="5.70335">
        <ele>541.3</ele>
        <time>2020-10-20T11:06:54Z</time>
      </trkpt>
      <trkpt lat="46.4882" lon="5.70331">
        <ele>540.5</ele>
        <time>2020-10-20T11:06:58Z</time>
      </trkpt>
      <trkpt lat="46.48825" lon="5.70327">
        <ele>539.7</ele>
        <time>2020-10-20T11:07:03Z</time>
      </trkpt>
      <trkpt lat="46.48829" lon="5.70323">
        <ele>539.3</ele>
        <time>2020-10-20T11:07:08Z</time>
      </trkpt>
      <trkpt lat="46.48834" lon="5.70319">
        <ele>539</ele>
        <time>2020-10-20T11:07:13Z</time>
      </trkpt>
      <trkpt lat="46.48839" lon="5.70314">
        <ele>539.1</ele>
        <time>2020-10-20T11:07:18Z</time>
      </trkpt>
      <trkpt lat="46.48842" lon="5.7031">
        <ele>539.3</ele>
        <time>2020-10-20T11:07:22Z</time>
      </trkpt>
      <trkpt lat="46.48846" lon="5.70307">
        <ele>539.7</ele>
        <time>2020-10-20T11:07:26Z</time>
      </trkpt>
      <trkpt lat="46.48851" lon="5.70303">
        <ele>540.1</ele>
        <time>2020-10-20T11:07:31Z</time>
      </trkpt>
      <trkpt lat="46.48855" lon="5.70299">
        <ele>540.5</ele>
        <time>2020-10-20T11:07:36Z</time>
      </trkpt>
      <trkpt lat="46.48859" lon="5.70295">
        <ele>540.8</ele>
        <time>2020-10-20T11:07:41Z</time>
      </trkpt>
      <trkpt lat="46.48864" lon="5.70291">
        <ele>541.1</ele>
        <time>2020-10-20T11:07:46Z</time>
      </trkpt>
      <trkpt lat="46.48869" lon="5.70288">
        <ele>541.8</ele>
        <time>2020-10-20T11:07:51Z</time>
      </trkpt>
      <trkpt lat="46.48873" lon="5.70285">
        <ele>542.5</ele>
        <time>2020-10-20T11:07:55Z</time>
      </trkpt>
      <trkpt lat="46.48878" lon="5.70281">
        <ele>542.9</ele>
        <time>2020-10-20T11:08:00Z</time>
      </trkpt>
      <trkpt lat="46.48882" lon="5.70278">
        <ele>543.5</ele>
        <time>2020-10-20T11:08:05Z</time>
      </trkpt>
      <trkpt lat="46.48886" lon="5.70273">
        <ele>544</ele>
        <time>2020-10-20T11:08:10Z</time>
      </trkpt>
      <trkpt lat="46.48891" lon="5.70269">
        <ele>544</ele>
        <time>2020-10-20T11:08:15Z</time>
      </trkpt>
      <trkpt lat="46.48895" lon="5.70266">
        <ele>543.5</ele>
        <time>2020-10-20T11:08:20Z</time>
      </trkpt>
      <trkpt lat="46.489" lon="5.70261">
        <ele>543.1</ele>
        <time>2020-10-20T11:08:25Z</time>
      </trkpt>
      <trkpt lat="46.48905" lon="5.70258">
        <ele>543</ele>
        <time>2020-10-20T11:08:30Z</time>
      </trkpt>
      <trkpt lat="46.48909" lon="5.70256">
        <ele>542.9</ele>
        <time>2020-10-20T11:08:34Z</time>
      </trkpt>
      <trkpt lat="46.48914" lon="5.70252">
        <ele>542.5</ele>
        <time>2020-10-20T11:08:39Z</time>
      </trkpt>
      <trkpt lat="46.48919" lon="5.70248">
        <ele>542</ele>
        <time>2020-10-20T11:08:44Z</time>
      </trkpt>
      <trkpt lat="46.48923" lon="5.70244">
        <ele>541.7</ele>
        <time>2020-10-20T11:08:49Z</time>
      </trkpt>
      <trkpt lat="46.48927" lon="5.7024">
        <ele>541.5</ele>
        <time>2020-10-20T11:08:54Z</time>
      </trkpt>
      <trkpt lat="46.48931" lon="5.70235">
        <ele>541.9</ele>
        <time>2020-10-20T11:09:01Z</time>
      </trkpt>
      <trkpt lat="46.48935" lon="5.70231">
        <ele>539.8</ele>
        <time>2020-10-20T11:09:57Z</time>
      </trkpt>
      <trkpt lat="46.4894" lon="5.7023">
        <ele>539.5</ele>
        <time>2020-10-20T11:10:01Z</time>
      </trkpt>
      <trkpt lat="46.48945" lon="5.70227">
        <ele>539.3</ele>
        <time>2020-10-20T11:10:06Z</time>
      </trkpt>
      <trkpt lat="46.48949" lon="5.70224">
        <ele>539.1</ele>
        <time>2020-10-20T11:10:11Z</time>
      </trkpt>
      <trkpt lat="46.48953" lon="5.7022">
        <ele>538.9</ele>
        <time>2020-10-20T11:10:15Z</time>
      </trkpt>
      <trkpt lat="46.48958" lon="5.70217">
        <ele>538.4</ele>
        <time>2020-10-20T11:10:20Z</time>
      </trkpt>
      <trkpt lat="46.48962" lon="5.70213">
        <ele>538.2</ele>
        <time>2020-10-20T11:10:25Z</time>
      </trkpt>
      <trkpt lat="46.48966" lon="5.7021">
        <ele>538</ele>
        <time>2020-10-20T11:10:31Z</time>
      </trkpt>
      <trkpt lat="46.48971" lon="5.70208">
        <ele>537.9</ele>
        <time>2020-10-20T11:10:36Z</time>
      </trkpt>
      <trkpt lat="46.48976" lon="5.70205">
        <ele>537.6</ele>
        <time>2020-10-20T11:10:41Z</time>
      </trkpt>
      <trkpt lat="46.4898" lon="5.70202">
        <ele>537.8</ele>
        <time>2020-10-20T11:10:46Z</time>
      </trkpt>
      <trkpt lat="46.48984" lon="5.70199">
        <ele>538.2</ele>
        <time>2020-10-20T11:10:51Z</time>
      </trkpt>
      <trkpt lat="46.48989" lon="5.70195">
        <ele>538.6</ele>
        <time>2020-10-20T11:10:56Z</time>
      </trkpt>
      <trkpt lat="46.48994" lon="5.70193">
        <ele>539.3</ele>
        <time>2020-10-20T11:11:01Z</time>
      </trkpt>
      <trkpt lat="46.48999" lon="5.70189">
        <ele>539.6</ele>
        <time>2020-10-20T11:11:05Z</time>
      </trkpt>
      <trkpt lat="46.49003" lon="5.70185">
        <ele>540</ele>
        <time>2020-10-20T11:11:10Z</time>
      </trkpt>
      <trkpt lat="46.49007" lon="5.70182">
        <ele>540.2</ele>
        <time>2020-10-20T11:11:15Z</time>
      </trkpt>
      <trkpt lat="46.49012" lon="5.70178">
        <ele>540.3</ele>
        <time>2020-10-20T11:11:20Z</time>
      </trkpt>
      <trkpt lat="46.49016" lon="5.70174">
        <ele>540.2</ele>
        <time>2020-10-20T11:11:24Z</time>
      </trkpt>
      <trkpt lat="46.4902" lon="5.70171">
        <ele>540.1</ele>
        <time>2020-10-20T11:11:28Z</time>
      </trkpt>
      <trkpt lat="46.49023" lon="5.70167">
        <ele>539.6</ele>
        <time>2020-10-20T11:11:32Z</time>
      </trkpt>
      <trkpt lat="46.49028" lon="5.70164">
        <ele>539</ele>
        <time>2020-10-20T11:11:37Z</time>
      </trkpt>
      <trkpt lat="46.49033" lon="5.7016">
        <ele>538.3</ele>
        <time>2020-10-20T11:11:42Z</time>
      </trkpt>
      <trkpt lat="46.49037" lon="5.70156">
        <ele>537.5</ele>
        <time>2020-10-20T11:11:47Z</time>
      </trkpt>
      <trkpt lat="46.49042" lon="5.70153">
        <ele>536.9</ele>
        <time>2020-10-20T11:11:52Z</time>
      </trkpt>
      <trkpt lat="46.49047" lon="5.7015">
        <ele>536.3</ele>
        <time>2020-10-20T11:11:57Z</time>
      </trkpt>
      <trkpt lat="46.49051" lon="5.70147">
        <ele>536</ele>
        <time>2020-10-20T11:12:01Z</time>
      </trkpt>
      <trkpt lat="46.49056" lon="5.70144">
        <ele>535.9</ele>
        <time>2020-10-20T11:12:06Z</time>
      </trkpt>
      <trkpt lat="46.4906" lon="5.70141">
        <ele>535.9</ele>
        <time>2020-10-20T11:12:10Z</time>
      </trkpt>
      <trkpt lat="46.49064" lon="5.70138">
        <ele>536</ele>
        <time>2020-10-20T11:12:14Z</time>
      </trkpt>
      <trkpt lat="46.49069" lon="5.70135">
        <ele>536.1</ele>
        <time>2020-10-20T11:12:19Z</time>
      </trkpt>
      <trkpt lat="46.49073" lon="5.70131">
        <ele>536.2</ele>
        <time>2020-10-20T11:12:24Z</time>
      </trkpt>
      <trkpt lat="46.49078" lon="5.70128">
        <ele>536.3</ele>
        <time>2020-10-20T11:12:29Z</time>
      </trkpt>
      <trkpt lat="46.49083" lon="5.70127">
        <ele>536.2</ele>
        <time>2020-10-20T11:12:35Z</time>
      </trkpt>
      <trkpt lat="46.49087" lon="5.70122">
        <ele>535.3</ele>
        <time>2020-10-20T11:12:40Z</time>
      </trkpt>
      <trkpt lat="46.49092" lon="5.70119">
        <ele>534.5</ele>
        <time>2020-10-20T11:12:45Z</time>
      </trkpt>
      <trkpt lat="46.49097" lon="5.70117">
        <ele>534.5</ele>
        <time>2020-10-20T11:12:50Z</time>
      </trkpt>
      <trkpt lat="46.49101" lon="5.70114">
        <ele>535</ele>
        <time>2020-10-20T11:12:54Z</time>
      </trkpt>
      <trkpt lat="46.49106" lon="5.70109">
        <ele>535.8</ele>
        <time>2020-10-20T11:12:58Z</time>
      </trkpt>
      <trkpt lat="46.4911" lon="5.70104">
        <ele>536.6</ele>
        <time>2020-10-20T11:13:02Z</time>
      </trkpt>
      <trkpt lat="46.49115" lon="5.70101">
        <ele>537.3</ele>
        <time>2020-10-20T11:13:06Z</time>
      </trkpt>
      <trkpt lat="46.49119" lon="5.70099">
        <ele>538</ele>
        <time>2020-10-20T11:13:10Z</time>
      </trkpt>
      <trkpt lat="46.49124" lon="5.70096">
        <ele>538.5</ele>
        <time>2020-10-20T11:13:14Z</time>
      </trkpt>
      <trkpt lat="46.49129" lon="5.70095">
        <ele>539.1</ele>
        <time>2020-10-20T11:13:19Z</time>
      </trkpt>
      <trkpt lat="46.49133" lon="5.70091">
        <ele>539.3</ele>
        <time>2020-10-20T11:13:24Z</time>
      </trkpt>
      <trkpt lat="46.49138" lon="5.70088">
        <ele>539.4</ele>
        <time>2020-10-20T11:13:29Z</time>
      </trkpt>
      <trkpt lat="46.49142" lon="5.70084">
        <ele>539.4</ele>
        <time>2020-10-20T11:13:33Z</time>
      </trkpt>
      <trkpt lat="46.49146" lon="5.7008">
        <ele>539.3</ele>
        <time>2020-10-20T11:13:37Z</time>
      </trkpt>
      <trkpt lat="46.49151" lon="5.70076">
        <ele>539.1</ele>
        <time>2020-10-20T11:13:42Z</time>
      </trkpt>
      <trkpt lat="46.49156" lon="5.70073">
        <ele>538.8</ele>
        <time>2020-10-20T11:13:47Z</time>
      </trkpt>
      <trkpt lat="46.49161" lon="5.70071">
        <ele>538.3</ele>
        <time>2020-10-20T11:13:52Z</time>
      </trkpt>
      <trkpt lat="46.49165" lon="5.70068">
        <ele>538</ele>
        <time>2020-10-20T11:13:57Z</time>
      </trkpt>
      <trkpt lat="46.4917" lon="5.70064">
        <ele>538.1</ele>
        <time>2020-10-20T11:14:02Z</time>
      </trkpt>
      <trkpt lat="46.49174" lon="5.70061">
        <ele>537.8</ele>
        <time>2020-10-20T11:14:07Z</time>
      </trkpt>
      <trkpt lat="46.49179" lon="5.70057">
        <ele>537.2</ele>
        <time>2020-10-20T11:14:12Z</time>
      </trkpt>
      <trkpt lat="46.49183" lon="5.70054">
        <ele>536.5</ele>
        <time>2020-10-20T11:14:16Z</time>
      </trkpt>
      <trkpt lat="46.49188" lon="5.70051">
        <ele>535.6</ele>
        <time>2020-10-20T11:14:20Z</time>
      </trkpt>
      <trkpt lat="46.49193" lon="5.70047">
        <ele>534.6</ele>
        <time>2020-10-20T11:14:25Z</time>
      </trkpt>
      <trkpt lat="46.49197" lon="5.70045">
        <ele>533.4</ele>
        <time>2020-10-20T11:14:32Z</time>
      </trkpt>
      <trkpt lat="46.49201" lon="5.70041">
        <ele>532.6</ele>
        <time>2020-10-20T11:14:48Z</time>
      </trkpt>
      <trkpt lat="46.49205" lon="5.70037">
        <ele>532.8</ele>
        <time>2020-10-20T11:14:53Z</time>
      </trkpt>
      <trkpt lat="46.49209" lon="5.70034">
        <ele>532.9</ele>
        <time>2020-10-20T11:14:58Z</time>
      </trkpt>
      <trkpt lat="46.49213" lon="5.70029">
        <ele>533</ele>
        <time>2020-10-20T11:15:03Z</time>
      </trkpt>
      <trkpt lat="46.49217" lon="5.70026">
        <ele>532.9</ele>
        <time>2020-10-20T11:15:07Z</time>
      </trkpt>
      <trkpt lat="46.49221" lon="5.70024">
        <ele>532.8</ele>
        <time>2020-10-20T11:15:11Z</time>
      </trkpt>
      <trkpt lat="46.49226" lon="5.7002">
        <ele>532.7</ele>
        <time>2020-10-20T11:15:16Z</time>
      </trkpt>
      <trkpt lat="46.4923" lon="5.70016">
        <ele>532.9</ele>
        <time>2020-10-20T11:15:21Z</time>
      </trkpt>
      <trkpt lat="46.49235" lon="5.70012">
        <ele>533.3</ele>
        <time>2020-10-20T11:15:26Z</time>
      </trkpt>
      <trkpt lat="46.49239" lon="5.70008">
        <ele>533.6</ele>
        <time>2020-10-20T11:15:31Z</time>
      </trkpt>
      <trkpt lat="46.49244" lon="5.70005">
        <ele>533.6</ele>
        <time>2020-10-20T11:15:35Z</time>
      </trkpt>
      <trkpt lat="46.49248" lon="5.70002">
        <ele>533.4</ele>
        <time>2020-10-20T11:15:39Z</time>
      </trkpt>
      <trkpt lat="46.49252" lon="5.69999">
        <ele>533</ele>
        <time>2020-10-20T11:15:43Z</time>
      </trkpt>
      <trkpt lat="46.49257" lon="5.69995">
        <ele>532.6</ele>
        <time>2020-10-20T11:15:47Z</time>
      </trkpt>
      <trkpt lat="46.49261" lon="5.69992">
        <ele>532.4</ele>
        <time>2020-10-20T11:15:51Z</time>
      </trkpt>
      <trkpt lat="46.49265" lon="5.69988">
        <ele>532.3</ele>
        <time>2020-10-20T11:15:55Z</time>
      </trkpt>
      <trkpt lat="46.49269" lon="5.69985">
        <ele>532.2</ele>
        <time>2020-10-20T11:15:59Z</time>
      </trkpt>
      <trkpt lat="46.49273" lon="5.6998">
        <ele>532.1</ele>
        <time>2020-10-20T11:16:04Z</time>
      </trkpt>
      <trkpt lat="46.49277" lon="5.69976">
        <ele>532.2</ele>
        <time>2020-10-20T11:16:10Z</time>
      </trkpt>
      <trkpt lat="46.49282" lon="5.69973">
        <ele>532.4</ele>
        <time>2020-10-20T11:16:14Z</time>
      </trkpt>
      <trkpt lat="46.49286" lon="5.69971">
        <ele>532.7</ele>
        <time>2020-10-20T11:16:18Z</time>
      </trkpt>
      <trkpt lat="46.4929" lon="5.69968">
        <ele>532.9</ele>
        <time>2020-10-20T11:16:22Z</time>
      </trkpt>
      <trkpt lat="46.49294" lon="5.69964">
        <ele>533.2</ele>
        <time>2020-10-20T11:16:26Z</time>
      </trkpt>
      <trkpt lat="46.49299" lon="5.69961">
        <ele>533.5</ele>
        <time>2020-10-20T11:16:30Z</time>
      </trkpt>
      <trkpt lat="46.49303" lon="5.69958">
        <ele>533.9</ele>
        <time>2020-10-20T11:16:35Z</time>
      </trkpt>
      <trkpt lat="46.49307" lon="5.69953">
        <ele>534.3</ele>
        <time>2020-10-20T11:16:40Z</time>
      </trkpt>
      <trkpt lat="46.49312" lon="5.69949">
        <ele>534.6</ele>
        <time>2020-10-20T11:16:45Z</time>
      </trkpt>
      <trkpt lat="46.49316" lon="5.69945">
        <ele>534.6</ele>
        <time>2020-10-20T11:16:49Z</time>
      </trkpt>
      <trkpt lat="46.49321" lon="5.69941">
        <ele>534.5</ele>
        <time>2020-10-20T11:16:54Z</time>
      </trkpt>
      <trkpt lat="46.49326" lon="5.69938">
        <ele>534.4</ele>
        <time>2020-10-20T11:16:59Z</time>
      </trkpt>
      <trkpt lat="46.4933" lon="5.69935">
        <ele>534.3</ele>
        <time>2020-10-20T11:17:04Z</time>
      </trkpt>
      <trkpt lat="46.49334" lon="5.6993">
        <ele>534.1</ele>
        <time>2020-10-20T11:17:09Z</time>
      </trkpt>
      <trkpt lat="46.49339" lon="5.69926">
        <ele>534</ele>
        <time>2020-10-20T11:17:14Z</time>
      </trkpt>
      <trkpt lat="46.49344" lon="5.69923">
        <ele>533.9</ele>
        <time>2020-10-20T11:17:19Z</time>
      </trkpt>
      <trkpt lat="46.49349" lon="5.69919">
        <ele>533.8</ele>
        <time>2020-10-20T11:17:24Z</time>
      </trkpt>
      <trkpt lat="46.49353" lon="5.69916">
        <ele>533.7</ele>
        <time>2020-10-20T11:17:28Z</time>
      </trkpt>
      <trkpt lat="46.49357" lon="5.69913">
        <ele>534.2</ele>
        <time>2020-10-20T11:17:33Z</time>
      </trkpt>
      <trkpt lat="46.49362" lon="5.6991">
        <ele>535</ele>
        <time>2020-10-20T11:17:38Z</time>
      </trkpt>
      <trkpt lat="46.49366" lon="5.69905">
        <ele>535.5</ele>
        <time>2020-10-20T11:17:43Z</time>
      </trkpt>
      <trkpt lat="46.49369" lon="5.69902">
        <ele>535.5</ele>
        <time>2020-10-20T11:17:47Z</time>
      </trkpt>
      <trkpt lat="46.49373" lon="5.69898">
        <ele>535.2</ele>
        <time>2020-10-20T11:17:51Z</time>
      </trkpt>
      <trkpt lat="46.49377" lon="5.69894">
        <ele>535</ele>
        <time>2020-10-20T11:17:55Z</time>
      </trkpt>
      <trkpt lat="46.49381" lon="5.6989">
        <ele>534.9</ele>
        <time>2020-10-20T11:18:00Z</time>
      </trkpt>
      <trkpt lat="46.49386" lon="5.69887">
        <ele>534.5</ele>
        <time>2020-10-20T11:18:05Z</time>
      </trkpt>
      <trkpt lat="46.4939" lon="5.69883">
        <ele>534</ele>
        <time>2020-10-20T11:18:10Z</time>
      </trkpt>
      <trkpt lat="46.49394" lon="5.69879">
        <ele>533.6</ele>
        <time>2020-10-20T11:18:14Z</time>
      </trkpt>
      <trkpt lat="46.49398" lon="5.69876">
        <ele>533.1</ele>
        <time>2020-10-20T11:18:18Z</time>
      </trkpt>
      <trkpt lat="46.49402" lon="5.69873">
        <ele>532.4</ele>
        <time>2020-10-20T11:18:22Z</time>
      </trkpt>
      <trkpt lat="46.49407" lon="5.6987">
        <ele>531.5</ele>
        <time>2020-10-20T11:18:26Z</time>
      </trkpt>
      <trkpt lat="46.49411" lon="5.69867">
        <ele>530.9</ele>
        <time>2020-10-20T11:18:30Z</time>
      </trkpt>
      <trkpt lat="46.49416" lon="5.69864">
        <ele>530.5</ele>
        <time>2020-10-20T11:18:35Z</time>
      </trkpt>
      <trkpt lat="46.49421" lon="5.6986">
        <ele>530.2</ele>
        <time>2020-10-20T11:18:40Z</time>
      </trkpt>
      <trkpt lat="46.49426" lon="5.69857">
        <ele>530</ele>
        <time>2020-10-20T11:18:45Z</time>
      </trkpt>
      <trkpt lat="46.4943" lon="5.69854">
        <ele>529.7</ele>
        <time>2020-10-20T11:18:50Z</time>
      </trkpt>
      <trkpt lat="46.49435" lon="5.6985">
        <ele>529.3</ele>
        <time>2020-10-20T11:18:55Z</time>
      </trkpt>
      <trkpt lat="46.4944" lon="5.69847">
        <ele>529</ele>
        <time>2020-10-20T11:19:00Z</time>
      </trkpt>
      <trkpt lat="46.49445" lon="5.69844">
        <ele>528.5</ele>
        <time>2020-10-20T11:19:05Z</time>
      </trkpt>
      <trkpt lat="46.49449" lon="5.6984">
        <ele>528.1</ele>
        <time>2020-10-20T11:19:09Z</time>
      </trkpt>
      <trkpt lat="46.49454" lon="5.69836">
        <ele>527.5</ele>
        <time>2020-10-20T11:19:14Z</time>
      </trkpt>
      <trkpt lat="46.49457" lon="5.69832">
        <ele>526.9</ele>
        <time>2020-10-20T11:19:18Z</time>
      </trkpt>
      <trkpt lat="46.49461" lon="5.69828">
        <ele>526.5</ele>
        <time>2020-10-20T11:19:23Z</time>
      </trkpt>
      <trkpt lat="46.49465" lon="5.69825">
        <ele>525.4</ele>
        <time>2020-10-20T11:19:28Z</time>
      </trkpt>
      <trkpt lat="46.4947" lon="5.69822">
        <ele>524.5</ele>
        <time>2020-10-20T11:19:32Z</time>
      </trkpt>
      <trkpt lat="46.49475" lon="5.69819">
        <ele>524</ele>
        <time>2020-10-20T11:19:37Z</time>
      </trkpt>
      <trkpt lat="46.49479" lon="5.69815">
        <ele>523.6</ele>
        <time>2020-10-20T11:19:41Z</time>
      </trkpt>
      <trkpt lat="46.49483" lon="5.69812">
        <ele>523.2</ele>
        <time>2020-10-20T11:19:45Z</time>
      </trkpt>
      <trkpt lat="46.49487" lon="5.69809">
        <ele>523.3</ele>
        <time>2020-10-20T11:19:50Z</time>
      </trkpt>
      <trkpt lat="46.49493" lon="5.69806">
        <ele>523.5</ele>
        <time>2020-10-20T11:19:55Z</time>
      </trkpt>
      <trkpt lat="46.49497" lon="5.69803">
        <ele>523.4</ele>
        <time>2020-10-20T11:19:59Z</time>
      </trkpt>
      <trkpt lat="46.49502" lon="5.698">
        <ele>523.6</ele>
        <time>2020-10-20T11:20:04Z</time>
      </trkpt>
      <trkpt lat="46.49506" lon="5.69795">
        <ele>524.1</ele>
        <time>2020-10-20T11:20:09Z</time>
      </trkpt>
      <trkpt lat="46.4951" lon="5.69791">
        <ele>524.8</ele>
        <time>2020-10-20T11:20:14Z</time>
      </trkpt>
      <trkpt lat="46.49515" lon="5.69788">
        <ele>525.7</ele>
        <time>2020-10-20T11:20:19Z</time>
      </trkpt>
      <trkpt lat="46.49519" lon="5.69785">
        <ele>526.3</ele>
        <time>2020-10-20T11:20:23Z</time>
      </trkpt>
      <trkpt lat="46.49524" lon="5.69782">
        <ele>526.7</ele>
        <time>2020-10-20T11:20:27Z</time>
      </trkpt>
      <trkpt lat="46.49528" lon="5.69778">
        <ele>526.7</ele>
        <time>2020-10-20T11:20:31Z</time>
      </trkpt>
      <trkpt lat="46.49532" lon="5.69774">
        <ele>526.3</ele>
        <time>2020-10-20T11:20:36Z</time>
      </trkpt>
      <trkpt lat="46.49537" lon="5.69771">
        <ele>525.6</ele>
        <time>2020-10-20T11:20:41Z</time>
      </trkpt>
      <trkpt lat="46.49541" lon="5.69767">
        <ele>524.8</ele>
        <time>2020-10-20T11:20:46Z</time>
      </trkpt>
      <trkpt lat="46.49546" lon="5.69763">
        <ele>524.3</ele>
        <time>2020-10-20T11:20:51Z</time>
      </trkpt>
      <trkpt lat="46.4955" lon="5.6976">
        <ele>524.5</ele>
        <time>2020-10-20T11:20:55Z</time>
      </trkpt>
      <trkpt lat="46.49555" lon="5.69757">
        <ele>524.7</ele>
        <time>2020-10-20T11:21:00Z</time>
      </trkpt>
      <trkpt lat="46.49559" lon="5.69755">
        <ele>524.8</ele>
        <time>2020-10-20T11:21:05Z</time>
      </trkpt>
      <trkpt lat="46.49564" lon="5.69752">
        <ele>524.8</ele>
        <time>2020-10-20T11:21:10Z</time>
      </trkpt>
      <trkpt lat="46.49568" lon="5.69749">
        <ele>524.6</ele>
        <time>2020-10-20T11:21:15Z</time>
      </trkpt>
      <trkpt lat="46.49573" lon="5.69746">
        <ele>524.1</ele>
        <time>2020-10-20T11:21:20Z</time>
      </trkpt>
      <trkpt lat="46.49577" lon="5.69742">
        <ele>523.7</ele>
        <time>2020-10-20T11:21:25Z</time>
      </trkpt>
      <trkpt lat="46.49582" lon="5.69737">
        <ele>523.4</ele>
        <time>2020-10-20T11:21:30Z</time>
      </trkpt>
      <trkpt lat="46.49586" lon="5.69734">
        <ele>523.1</ele>
        <time>2020-10-20T11:21:35Z</time>
      </trkpt>
      <trkpt lat="46.4959" lon="5.69732">
        <ele>522.9</ele>
        <time>2020-10-20T11:21:39Z</time>
      </trkpt>
      <trkpt lat="46.49595" lon="5.69729">
        <ele>522.6</ele>
        <time>2020-10-20T11:21:43Z</time>
      </trkpt>
      <trkpt lat="46.49599" lon="5.69725">
        <ele>522.2</ele>
        <time>2020-10-20T11:21:48Z</time>
      </trkpt>
      <trkpt lat="46.49604" lon="5.69721">
        <ele>522.2</ele>
        <time>2020-10-20T11:21:54Z</time>
      </trkpt>
      <trkpt lat="46.49609" lon="5.69718">
        <ele>522.5</ele>
        <time>2020-10-20T11:22:00Z</time>
      </trkpt>
      <trkpt lat="46.49614" lon="5.69714">
        <ele>522.6</ele>
        <time>2020-10-20T11:22:05Z</time>
      </trkpt>
      <trkpt lat="46.49618" lon="5.69712">
        <ele>522.6</ele>
        <time>2020-10-20T11:22:09Z</time>
      </trkpt>
      <trkpt lat="46.49623" lon="5.6971">
        <ele>522.6</ele>
        <time>2020-10-20T11:22:16Z</time>
      </trkpt>
      <trkpt lat="46.49627" lon="5.69709">
        <ele>522.5</ele>
        <time>2020-10-20T11:22:23Z</time>
      </trkpt>
      <trkpt lat="46.4963" lon="5.69704">
        <ele>521.9</ele>
        <time>2020-10-20T11:22:59Z</time>
      </trkpt>
      <trkpt lat="46.49635" lon="5.69701">
        <ele>521.8</ele>
        <time>2020-10-20T11:23:04Z</time>
      </trkpt>
      <trkpt lat="46.4964" lon="5.69698">
        <ele>521.9</ele>
        <time>2020-10-20T11:23:10Z</time>
      </trkpt>
      <trkpt lat="46.49644" lon="5.69696">
        <ele>521.6</ele>
        <time>2020-10-20T11:23:16Z</time>
      </trkpt>
      <trkpt lat="46.49649" lon="5.69694">
        <ele>521</ele>
        <time>2020-10-20T11:23:23Z</time>
      </trkpt>
      <trkpt lat="46.49654" lon="5.69692">
        <ele>520.4</ele>
        <time>2020-10-20T11:23:31Z</time>
      </trkpt>
      <trkpt lat="46.49658" lon="5.69689">
        <ele>520.1</ele>
        <time>2020-10-20T11:23:36Z</time>
      </trkpt>
      <trkpt lat="46.49663" lon="5.69686">
        <ele>520</ele>
        <time>2020-10-20T11:23:41Z</time>
      </trkpt>
      <trkpt lat="46.49667" lon="5.69683">
        <ele>519.9</ele>
        <time>2020-10-20T11:23:46Z</time>
      </trkpt>
      <trkpt lat="46.49671" lon="5.6968">
        <ele>519.6</ele>
        <time>2020-10-20T11:23:51Z</time>
      </trkpt>
      <trkpt lat="46.49676" lon="5.69677">
        <ele>519.3</ele>
        <time>2020-10-20T11:23:56Z</time>
      </trkpt>
      <trkpt lat="46.4968" lon="5.69674">
        <ele>518.9</ele>
        <time>2020-10-20T11:24:02Z</time>
      </trkpt>
      <trkpt lat="46.49685" lon="5.69671">
        <ele>518.6</ele>
        <time>2020-10-20T11:24:07Z</time>
      </trkpt>
      <trkpt lat="46.49689" lon="5.69668">
        <ele>518.3</ele>
        <time>2020-10-20T11:24:12Z</time>
      </trkpt>
      <trkpt lat="46.49694" lon="5.69665">
        <ele>517.6</ele>
        <time>2020-10-20T11:24:17Z</time>
      </trkpt>
      <trkpt lat="46.49698" lon="5.69662">
        <ele>516.8</ele>
        <time>2020-10-20T11:24:21Z</time>
      </trkpt>
      <trkpt lat="46.49702" lon="5.69659">
        <ele>516.5</ele>
        <time>2020-10-20T11:24:24Z</time>
      </trkpt>
      <trkpt lat="46.49707" lon="5.69657">
        <ele>516.5</ele>
        <time>2020-10-20T11:24:28Z</time>
      </trkpt>
      <trkpt lat="46.49712" lon="5.69654">
        <ele>516.7</ele>
        <time>2020-10-20T11:24:33Z</time>
      </trkpt>
      <trkpt lat="46.49716" lon="5.6965">
        <ele>516.6</ele>
        <time>2020-10-20T11:24:38Z</time>
      </trkpt>
      <trkpt lat="46.4972" lon="5.69646">
        <ele>516.4</ele>
        <time>2020-10-20T11:24:43Z</time>
      </trkpt>
      <trkpt lat="46.49725" lon="5.69642">
        <ele>516.4</ele>
        <time>2020-10-20T11:24:48Z</time>
      </trkpt>
      <trkpt lat="46.49729" lon="5.69639">
        <ele>516.6</ele>
        <time>2020-10-20T11:24:51Z</time>
      </trkpt>
      <trkpt lat="46.49734" lon="5.69636">
        <ele>516.9</ele>
        <time>2020-10-20T11:24:55Z</time>
      </trkpt>
      <trkpt lat="46.49738" lon="5.69634">
        <ele>517.2</ele>
        <time>2020-10-20T11:25:00Z</time>
      </trkpt>
      <trkpt lat="46.49743" lon="5.69632">
        <ele>517.2</ele>
        <time>2020-10-20T11:25:05Z</time>
      </trkpt>
      <trkpt lat="46.49747" lon="5.69628">
        <ele>517.4</ele>
        <time>2020-10-20T11:25:10Z</time>
      </trkpt>
      <trkpt lat="46.49751" lon="5.69625">
        <ele>517.5</ele>
        <time>2020-10-20T11:25:16Z</time>
      </trkpt>
      <trkpt lat="46.49756" lon="5.69622">
        <ele>517.8</ele>
        <time>2020-10-20T11:25:22Z</time>
      </trkpt>
      <trkpt lat="46.4976" lon="5.69621">
        <ele>518</ele>
        <time>2020-10-20T11:25:26Z</time>
      </trkpt>
      <trkpt lat="46.49765" lon="5.69617">
        <ele>518</ele>
        <time>2020-10-20T11:25:30Z</time>
      </trkpt>
      <trkpt lat="46.4977" lon="5.69615">
        <ele>518.1</ele>
        <time>2020-10-20T11:25:34Z</time>
      </trkpt>
      <trkpt lat="46.49776" lon="5.69613">
        <ele>518.1</ele>
        <time>2020-10-20T11:25:38Z</time>
      </trkpt>
      <trkpt lat="46.4978" lon="5.6961">
        <ele>518</ele>
        <time>2020-10-20T11:25:42Z</time>
      </trkpt>
      <trkpt lat="46.49785" lon="5.69609">
        <ele>517.8</ele>
        <time>2020-10-20T11:25:46Z</time>
      </trkpt>
      <trkpt lat="46.4979" lon="5.69606">
        <ele>517.7</ele>
        <time>2020-10-20T11:25:50Z</time>
      </trkpt>
      <trkpt lat="46.49795" lon="5.69606">
        <ele>517.9</ele>
        <time>2020-10-20T11:25:54Z</time>
      </trkpt>
      <trkpt lat="46.498" lon="5.69605">
        <ele>518.2</ele>
        <time>2020-10-20T11:25:58Z</time>
      </trkpt>
      <trkpt lat="46.49805" lon="5.69603">
        <ele>518.5</ele>
        <time>2020-10-20T11:26:02Z</time>
      </trkpt>
      <trkpt lat="46.49809" lon="5.69601">
        <ele>518.8</ele>
        <time>2020-10-20T11:26:06Z</time>
      </trkpt>
      <trkpt lat="46.49814" lon="5.696">
        <ele>519.2</ele>
        <time>2020-10-20T11:26:10Z</time>
      </trkpt>
      <trkpt lat="46.49819" lon="5.69598">
        <ele>519.5</ele>
        <time>2020-10-20T11:26:14Z</time>
      </trkpt>
      <trkpt lat="46.49824" lon="5.69597">
        <ele>519.8</ele>
        <time>2020-10-20T11:26:18Z</time>
      </trkpt>
      <trkpt lat="46.49829" lon="5.69597">
        <ele>519.9</ele>
        <time>2020-10-20T11:26:23Z</time>
      </trkpt>
      <trkpt lat="46.49834" lon="5.69596">
        <ele>520</ele>
        <time>2020-10-20T11:26:28Z</time>
      </trkpt>
      <trkpt lat="46.49839" lon="5.69594">
        <ele>520</ele>
        <time>2020-10-20T11:26:32Z</time>
      </trkpt>
      <trkpt lat="46.49844" lon="5.69592">
        <ele>519.7</ele>
        <time>2020-10-20T11:26:36Z</time>
      </trkpt>
      <trkpt lat="46.49849" lon="5.69589">
        <ele>519.5</ele>
        <time>2020-10-20T11:26:41Z</time>
      </trkpt>
      <trkpt lat="46.49854" lon="5.69587">
        <ele>519.1</ele>
        <time>2020-10-20T11:26:46Z</time>
      </trkpt>
      <trkpt lat="46.49859" lon="5.69586">
        <ele>518.6</ele>
        <time>2020-10-20T11:26:51Z</time>
      </trkpt>
      <trkpt lat="46.49864" lon="5.69585">
        <ele>518.2</ele>
        <time>2020-10-20T11:26:56Z</time>
      </trkpt>
      <trkpt lat="46.49869" lon="5.69584">
        <ele>517.8</ele>
        <time>2020-10-20T11:27:00Z</time>
      </trkpt>
      <trkpt lat="46.49874" lon="5.69583">
        <ele>517.8</ele>
        <time>2020-10-20T11:27:04Z</time>
      </trkpt>
      <trkpt lat="46.49879" lon="5.69582">
        <ele>517.8</ele>
        <time>2020-10-20T11:27:09Z</time>
      </trkpt>
      <trkpt lat="46.49883" lon="5.6958">
        <ele>517.6</ele>
        <time>2020-10-20T11:27:13Z</time>
      </trkpt>
      <trkpt lat="46.49888" lon="5.69578">
        <ele>517.4</ele>
        <time>2020-10-20T11:27:18Z</time>
      </trkpt>
      <trkpt lat="46.49894" lon="5.69577">
        <ele>517.2</ele>
        <time>2020-10-20T11:27:23Z</time>
      </trkpt>
      <trkpt lat="46.49898" lon="5.69575">
        <ele>517.1</ele>
        <time>2020-10-20T11:27:27Z</time>
      </trkpt>
      <trkpt lat="46.49903" lon="5.69573">
        <ele>517.1</ele>
        <time>2020-10-20T11:27:31Z</time>
      </trkpt>
      <trkpt lat="46.49908" lon="5.69572">
        <ele>517</ele>
        <time>2020-10-20T11:27:36Z</time>
      </trkpt>
      <trkpt lat="46.49912" lon="5.6957">
        <ele>516.7</ele>
        <time>2020-10-20T11:27:41Z</time>
      </trkpt>
      <trkpt lat="46.49917" lon="5.69566">
        <ele>516.6</ele>
        <time>2020-10-20T11:27:46Z</time>
      </trkpt>
      <trkpt lat="46.49922" lon="5.69568">
        <ele>519.7</ele>
        <time>2020-10-20T11:33:16Z</time>
      </trkpt>
      <trkpt lat="46.49925" lon="5.69572">
        <ele>523.2</ele>
        <time>2020-10-20T11:33:55Z</time>
      </trkpt>
      <trkpt lat="46.49931" lon="5.69571">
        <ele>523.3</ele>
        <time>2020-10-20T11:34:00Z</time>
      </trkpt>
      <trkpt lat="46.49935" lon="5.69569">
        <ele>523.6</ele>
        <time>2020-10-20T11:34:05Z</time>
      </trkpt>
      <trkpt lat="46.4994" lon="5.69567">
        <ele>524.1</ele>
        <time>2020-10-20T11:34:09Z</time>
      </trkpt>
      <trkpt lat="46.49945" lon="5.69566">
        <ele>524.4</ele>
        <time>2020-10-20T11:34:14Z</time>
      </trkpt>
      <trkpt lat="46.4995" lon="5.69566">
        <ele>524.3</ele>
        <time>2020-10-20T11:34:19Z</time>
      </trkpt>
      <trkpt lat="46.49955" lon="5.69565">
        <ele>523.9</ele>
        <time>2020-10-20T11:34:23Z</time>
      </trkpt>
      <trkpt lat="46.4996" lon="5.69564">
        <ele>523.3</ele>
        <time>2020-10-20T11:34:27Z</time>
      </trkpt>
      <trkpt lat="46.49965" lon="5.69564">
        <ele>522.6</ele>
        <time>2020-10-20T11:34:32Z</time>
      </trkpt>
      <trkpt lat="46.4997" lon="5.69563">
        <ele>521.8</ele>
        <time>2020-10-20T11:34:37Z</time>
      </trkpt>
      <trkpt lat="46.49975" lon="5.69561">
        <ele>521.1</ele>
        <time>2020-10-20T11:34:41Z</time>
      </trkpt>
      <trkpt lat="46.4998" lon="5.6956">
        <ele>520.6</ele>
        <time>2020-10-20T11:34:46Z</time>
      </trkpt>
      <trkpt lat="46.49985" lon="5.69559">
        <ele>519.8</ele>
        <time>2020-10-20T11:34:51Z</time>
      </trkpt>
      <trkpt lat="46.49991" lon="5.69558">
        <ele>518.6</ele>
        <time>2020-10-20T11:34:56Z</time>
      </trkpt>
      <trkpt lat="46.49996" lon="5.69558">
        <ele>517.6</ele>
        <time>2020-10-20T11:35:00Z</time>
      </trkpt>
      <trkpt lat="46.50001" lon="5.69557">
        <ele>516.7</ele>
        <time>2020-10-20T11:35:04Z</time>
      </trkpt>
      <trkpt lat="46.50005" lon="5.69555">
        <ele>515.8</ele>
        <time>2020-10-20T11:35:08Z</time>
      </trkpt>
      <trkpt lat="46.5001" lon="5.69555">
        <ele>515</ele>
        <time>2020-10-20T11:35:12Z</time>
      </trkpt>
      <trkpt lat="46.50015" lon="5.69555">
        <ele>514.5</ele>
        <time>2020-10-20T11:35:17Z</time>
      </trkpt>
      <trkpt lat="46.5002" lon="5.69555">
        <ele>514.3</ele>
        <time>2020-10-20T11:35:22Z</time>
      </trkpt>
      <trkpt lat="46.50026" lon="5.69554">
        <ele>514.5</ele>
        <time>2020-10-20T11:35:28Z</time>
      </trkpt>
      <trkpt lat="46.5003" lon="5.69553">
        <ele>514.3</ele>
        <time>2020-10-20T11:35:32Z</time>
      </trkpt>
      <trkpt lat="46.50036" lon="5.69551">
        <ele>514.1</ele>
        <time>2020-10-20T11:35:37Z</time>
      </trkpt>
      <trkpt lat="46.50041" lon="5.69551">
        <ele>514</ele>
        <time>2020-10-20T11:35:42Z</time>
      </trkpt>
      <trkpt lat="46.50046" lon="5.69551">
        <ele>514.1</ele>
        <time>2020-10-20T11:35:46Z</time>
      </trkpt>
      <trkpt lat="46.50051" lon="5.69551">
        <ele>514.4</ele>
        <time>2020-10-20T11:35:51Z</time>
      </trkpt>
      <trkpt lat="46.50056" lon="5.69552">
        <ele>515.1</ele>
        <time>2020-10-20T11:35:57Z</time>
      </trkpt>
      <trkpt lat="46.50061" lon="5.69552">
        <ele>515.7</ele>
        <time>2020-10-20T11:36:02Z</time>
      </trkpt>
      <trkpt lat="46.50066" lon="5.69551">
        <ele>516.3</ele>
        <time>2020-10-20T11:36:08Z</time>
      </trkpt>
      <trkpt lat="46.50071" lon="5.69549">
        <ele>516.6</ele>
        <time>2020-10-20T11:36:13Z</time>
      </trkpt>
      <trkpt lat="46.50077" lon="5.69548">
        <ele>516.9</ele>
        <time>2020-10-20T11:36:18Z</time>
      </trkpt>
      <trkpt lat="46.50081" lon="5.69546">
        <ele>517</ele>
        <time>2020-10-20T11:36:23Z</time>
      </trkpt>
      <trkpt lat="46.50086" lon="5.69543">
        <ele>517</ele>
        <time>2020-10-20T11:36:27Z</time>
      </trkpt>
      <trkpt lat="46.5009" lon="5.69539">
        <ele>516.9</ele>
        <time>2020-10-20T11:36:31Z</time>
      </trkpt>
      <trkpt lat="46.50094" lon="5.69536">
        <ele>516.9</ele>
        <time>2020-10-20T11:36:35Z</time>
      </trkpt>
      <trkpt lat="46.50099" lon="5.69534">
        <ele>516.8</ele>
        <time>2020-10-20T11:36:40Z</time>
      </trkpt>
      <trkpt lat="46.50104" lon="5.69531">
        <ele>516.9</ele>
        <time>2020-10-20T11:36:45Z</time>
      </trkpt>
      <trkpt lat="46.50109" lon="5.69528">
        <ele>516.9</ele>
        <time>2020-10-20T11:36:50Z</time>
      </trkpt>
      <trkpt lat="46.50113" lon="5.69525">
        <ele>517</ele>
        <time>2020-10-20T11:36:54Z</time>
      </trkpt>
      <trkpt lat="46.50119" lon="5.69523">
        <ele>517</ele>
        <time>2020-10-20T11:36:59Z</time>
      </trkpt>
      <trkpt lat="46.50124" lon="5.69521">
        <ele>516.7</ele>
        <time>2020-10-20T11:37:04Z</time>
      </trkpt>
      <trkpt lat="46.50129" lon="5.69518">
        <ele>516.3</ele>
        <time>2020-10-20T11:37:09Z</time>
      </trkpt>
      <trkpt lat="46.50134" lon="5.69515">
        <ele>515.9</ele>
        <time>2020-10-20T11:37:14Z</time>
      </trkpt>
      <trkpt lat="46.50139" lon="5.69514">
        <ele>515.8</ele>
        <time>2020-10-20T11:37:19Z</time>
      </trkpt>
      <trkpt lat="46.50145" lon="5.69515">
        <ele>516</ele>
        <time>2020-10-20T11:37:24Z</time>
      </trkpt>
      <trkpt lat="46.50151" lon="5.6952">
        <ele>515.8</ele>
        <time>2020-10-20T11:37:45Z</time>
      </trkpt>
      <trkpt lat="46.50154" lon="5.69514">
        <ele>522.8</ele>
        <time>2020-10-20T11:39:09Z</time>
      </trkpt>
      <trkpt lat="46.50158" lon="5.69509">
        <ele>523.5</ele>
        <time>2020-10-20T11:39:16Z</time>
      </trkpt>
      <trkpt lat="46.50161" lon="5.69504">
        <ele>523.7</ele>
        <time>2020-10-20T11:39:20Z</time>
      </trkpt>
      <trkpt lat="46.50164" lon="5.69498">
        <ele>523.5</ele>
        <time>2020-10-20T11:39:25Z</time>
      </trkpt>
      <trkpt lat="46.50167" lon="5.69493">
        <ele>523.2</ele>
        <time>2020-10-20T11:39:30Z</time>
      </trkpt>
      <trkpt lat="46.50171" lon="5.69488">
        <ele>522.7</ele>
        <time>2020-10-20T11:39:36Z</time>
      </trkpt>
      <trkpt lat="46.50174" lon="5.69483">
        <ele>522.3</ele>
        <time>2020-10-20T11:39:41Z</time>
      </trkpt>
      <trkpt lat="46.50177" lon="5.69478">
        <ele>521.6</ele>
        <time>2020-10-20T11:39:46Z</time>
      </trkpt>
      <trkpt lat="46.50181" lon="5.69472">
        <ele>520.5</ele>
        <time>2020-10-20T11:39:52Z</time>
      </trkpt>
      <trkpt lat="46.50184" lon="5.69467">
        <ele>518.9</ele>
        <time>2020-10-20T11:39:57Z</time>
      </trkpt>
      <trkpt lat="46.50186" lon="5.6946">
        <ele>518.1</ele>
        <time>2020-10-20T11:40:01Z</time>
      </trkpt>
      <trkpt lat="46.50188" lon="5.69453">
        <ele>517.6</ele>
        <time>2020-10-20T11:40:06Z</time>
      </trkpt>
      <trkpt lat="46.50188" lon="5.69447">
        <ele>517.6</ele>
        <time>2020-10-20T11:40:10Z</time>
      </trkpt>
      <trkpt lat="46.50186" lon="5.6944">
        <ele>518.3</ele>
        <time>2020-10-20T11:40:15Z</time>
      </trkpt>
      <trkpt lat="46.50183" lon="5.69434">
        <ele>519.6</ele>
        <time>2020-10-20T11:40:23Z</time>
      </trkpt>
      <trkpt lat="46.5018" lon="5.69429">
        <ele>520</ele>
        <time>2020-10-20T11:40:29Z</time>
      </trkpt>
      <trkpt lat="46.50178" lon="5.69422">
        <ele>519.9</ele>
        <time>2020-10-20T11:40:35Z</time>
      </trkpt>
      <trkpt lat="46.50175" lon="5.69416">
        <ele>519.6</ele>
        <time>2020-10-20T11:40:41Z</time>
      </trkpt>
      <trkpt lat="46.50173" lon="5.6941">
        <ele>519.3</ele>
        <time>2020-10-20T11:40:47Z</time>
      </trkpt>
      <trkpt lat="46.5017" lon="5.69404">
        <ele>518.3</ele>
        <time>2020-10-20T11:40:53Z</time>
      </trkpt>
      <trkpt lat="46.50168" lon="5.69396">
        <ele>517.8</ele>
        <time>2020-10-20T11:40:59Z</time>
      </trkpt>
      <trkpt lat="46.50167" lon="5.6939">
        <ele>517.8</ele>
        <time>2020-10-20T11:41:04Z</time>
      </trkpt>
      <trkpt lat="46.50167" lon="5.69382">
        <ele>517.7</ele>
        <time>2020-10-20T11:41:09Z</time>
      </trkpt>
      <trkpt lat="46.50169" lon="5.69375">
        <ele>517.9</ele>
        <time>2020-10-20T11:41:14Z</time>
      </trkpt>
      <trkpt lat="46.50172" lon="5.69369">
        <ele>518.6</ele>
        <time>2020-10-20T11:41:20Z</time>
      </trkpt>
      <trkpt lat="46.50173" lon="5.69363">
        <ele>519</ele>
        <time>2020-10-20T11:41:27Z</time>
      </trkpt>
      <trkpt lat="46.50177" lon="5.69358">
        <ele>519.3</ele>
        <time>2020-10-20T11:41:34Z</time>
      </trkpt>
      <trkpt lat="46.50181" lon="5.69355">
        <ele>519.3</ele>
        <time>2020-10-20T11:41:40Z</time>
      </trkpt>
      <trkpt lat="46.50185" lon="5.69352">
        <ele>519</ele>
        <time>2020-10-20T11:41:51Z</time>
      </trkpt>
      <trkpt lat="46.5019" lon="5.69352">
        <ele>518.4</ele>
        <time>2020-10-20T11:41:59Z</time>
      </trkpt>
      <trkpt lat="46.50196" lon="5.69351">
        <ele>518.4</ele>
        <time>2020-10-20T11:42:04Z</time>
      </trkpt>
      <trkpt lat="46.50201" lon="5.69348">
        <ele>518.7</ele>
        <time>2020-10-20T11:42:08Z</time>
      </trkpt>
      <trkpt lat="46.50206" lon="5.69345">
        <ele>519.2</ele>
        <time>2020-10-20T11:42:12Z</time>
      </trkpt>
      <trkpt lat="46.5021" lon="5.6934">
        <ele>519.9</ele>
        <time>2020-10-20T11:42:17Z</time>
      </trkpt>
      <trkpt lat="46.50213" lon="5.69335">
        <ele>520.5</ele>
        <time>2020-10-20T11:42:22Z</time>
      </trkpt>
      <trkpt lat="46.50217" lon="5.6933">
        <ele>520.9</ele>
        <time>2020-10-20T11:42:27Z</time>
      </trkpt>
      <trkpt lat="46.5022" lon="5.69324">
        <ele>520.7</ele>
        <time>2020-10-20T11:42:32Z</time>
      </trkpt>
      <trkpt lat="46.50224" lon="5.69319">
        <ele>520.3</ele>
        <time>2020-10-20T11:42:37Z</time>
      </trkpt>
      <trkpt lat="46.50228" lon="5.69314">
        <ele>519.8</ele>
        <time>2020-10-20T11:42:42Z</time>
      </trkpt>
      <trkpt lat="46.5023" lon="5.69308">
        <ele>519.4</ele>
        <time>2020-10-20T11:42:47Z</time>
      </trkpt>
      <trkpt lat="46.50233" lon="5.69303">
        <ele>518.5</ele>
        <time>2020-10-20T11:42:54Z</time>
      </trkpt>
      <trkpt lat="46.50235" lon="5.69297">
        <ele>517.6</ele>
        <time>2020-10-20T11:42:59Z</time>
      </trkpt>
      <trkpt lat="46.50234" lon="5.6929">
        <ele>516.9</ele>
        <time>2020-10-20T11:43:05Z</time>
      </trkpt>
      <trkpt lat="46.50234" lon="5.69283">
        <ele>516.4</ele>
        <time>2020-10-20T11:43:13Z</time>
      </trkpt>
      <trkpt lat="46.50237" lon="5.69279">
        <ele>517.2</ele>
        <time>2020-10-20T11:43:29Z</time>
      </trkpt>
      <trkpt lat="46.50233" lon="5.69282">
        <ele>519</ele>
        <time>2020-10-20T11:44:22Z</time>
      </trkpt>
      <trkpt lat="46.50233" lon="5.6929">
        <ele>519.4</ele>
        <time>2020-10-20T11:44:30Z</time>
      </trkpt>
      <trkpt lat="46.50236" lon="5.69282">
        <ele>519.8</ele>
        <time>2020-10-20T11:45:00Z</time>
      </trkpt>
      <trkpt lat="46.50232" lon="5.6928">
        <ele>521.1</ele>
        <time>2020-10-20T11:46:51Z</time>
      </trkpt>
      <trkpt lat="46.50227" lon="5.69279">
        <ele>522.4</ele>
        <time>2020-10-20T11:46:57Z</time>
      </trkpt>
      <trkpt lat="46.50223" lon="5.69275">
        <ele>522.8</ele>
        <time>2020-10-20T11:47:02Z</time>
      </trkpt>
      <trkpt lat="46.50218" lon="5.69274">
        <ele>522.9</ele>
        <time>2020-10-20T11:47:07Z</time>
      </trkpt>
      <trkpt lat="46.50213" lon="5.69273">
        <ele>522.8</ele>
        <time>2020-10-20T11:47:12Z</time>
      </trkpt>
      <trkpt lat="46.50208" lon="5.69271">
        <ele>522.5</ele>
        <time>2020-10-20T11:47:17Z</time>
      </trkpt>
      <trkpt lat="46.50204" lon="5.69267">
        <ele>522.2</ele>
        <time>2020-10-20T11:47:22Z</time>
      </trkpt>
      <trkpt lat="46.502" lon="5.69263">
        <ele>522.1</ele>
        <time>2020-10-20T11:47:26Z</time>
      </trkpt>
      <trkpt lat="46.50197" lon="5.69257">
        <ele>521.9</ele>
        <time>2020-10-20T11:47:31Z</time>
      </trkpt>
      <trkpt lat="46.50193" lon="5.69252">
        <ele>521.4</ele>
        <time>2020-10-20T11:47:36Z</time>
      </trkpt>
      <trkpt lat="46.5019" lon="5.69246">
        <ele>520.6</ele>
        <time>2020-10-20T11:47:43Z</time>
      </trkpt>
      <trkpt lat="46.50187" lon="5.69241">
        <ele>519.8</ele>
        <time>2020-10-20T11:47:49Z</time>
      </trkpt>
      <trkpt lat="46.50183" lon="5.69236">
        <ele>519.1</ele>
        <time>2020-10-20T11:47:55Z</time>
      </trkpt>
      <trkpt lat="46.50178" lon="5.69234">
        <ele>518.4</ele>
        <time>2020-10-20T11:48:03Z</time>
      </trkpt>
      <trkpt lat="46.50174" lon="5.6923">
        <ele>518.1</ele>
        <time>2020-10-20T11:48:08Z</time>
      </trkpt>
      <trkpt lat="46.50172" lon="5.69224">
        <ele>517.7</ele>
        <time>2020-10-20T11:48:12Z</time>
      </trkpt>
      <trkpt lat="46.50169" lon="5.69219">
        <ele>517.1</ele>
        <time>2020-10-20T11:48:16Z</time>
      </trkpt>
      <trkpt lat="46.50165" lon="5.69212">
        <ele>516.6</ele>
        <time>2020-10-20T11:48:20Z</time>
      </trkpt>
      <trkpt lat="46.50163" lon="5.69206">
        <ele>516.1</ele>
        <time>2020-10-20T11:48:24Z</time>
      </trkpt>
      <trkpt lat="46.5016" lon="5.69201">
        <ele>515.7</ele>
        <time>2020-10-20T11:48:29Z</time>
      </trkpt>
      <trkpt lat="46.50156" lon="5.69196">
        <ele>515.6</ele>
        <time>2020-10-20T11:48:34Z</time>
      </trkpt>
      <trkpt lat="46.50152" lon="5.69193">
        <ele>515.6</ele>
        <time>2020-10-20T11:48:39Z</time>
      </trkpt>
      <trkpt lat="46.50147" lon="5.6919">
        <ele>515.7</ele>
        <time>2020-10-20T11:48:44Z</time>
      </trkpt>
      <trkpt lat="46.50142" lon="5.69189">
        <ele>515.8</ele>
        <time>2020-10-20T11:48:50Z</time>
      </trkpt>
      <trkpt lat="46.50138" lon="5.69187">
        <ele>515.3</ele>
        <time>2020-10-20T11:48:54Z</time>
      </trkpt>
      <trkpt lat="46.50134" lon="5.69182">
        <ele>514.4</ele>
        <time>2020-10-20T11:49:00Z</time>
      </trkpt>
      <trkpt lat="46.50131" lon="5.69177">
        <ele>514</ele>
        <time>2020-10-20T11:49:05Z</time>
      </trkpt>
      <trkpt lat="46.50128" lon="5.69172">
        <ele>513.3</ele>
        <time>2020-10-20T11:49:10Z</time>
      </trkpt>
      <trkpt lat="46.50125" lon="5.69167">
        <ele>512.9</ele>
        <time>2020-10-20T11:49:14Z</time>
      </trkpt>
      <trkpt lat="46.50122" lon="5.69162">
        <ele>512.8</ele>
        <time>2020-10-20T11:49:18Z</time>
      </trkpt>
      <trkpt lat="46.50119" lon="5.69156">
        <ele>512.8</ele>
        <time>2020-10-20T11:49:24Z</time>
      </trkpt>
      <trkpt lat="46.50115" lon="5.69153">
        <ele>513</ele>
        <time>2020-10-20T11:49:30Z</time>
      </trkpt>
      <trkpt lat="46.50111" lon="5.69148">
        <ele>513.7</ele>
        <time>2020-10-20T11:49:36Z</time>
      </trkpt>
      <trkpt lat="46.50107" lon="5.69143">
        <ele>514.7</ele>
        <time>2020-10-20T11:49:41Z</time>
      </trkpt>
      <trkpt lat="46.50104" lon="5.69137">
        <ele>515.4</ele>
        <time>2020-10-20T11:49:46Z</time>
      </trkpt>
      <trkpt lat="46.50101" lon="5.69131">
        <ele>516</ele>
        <time>2020-10-20T11:49:51Z</time>
      </trkpt>
      <trkpt lat="46.50098" lon="5.69125">
        <ele>516.6</ele>
        <time>2020-10-20T11:49:56Z</time>
      </trkpt>
      <trkpt lat="46.50095" lon="5.69119">
        <ele>516.9</ele>
        <time>2020-10-20T11:50:03Z</time>
      </trkpt>
      <trkpt lat="46.5009" lon="5.69114">
        <ele>517</ele>
        <time>2020-10-20T11:50:07Z</time>
      </trkpt>
      <trkpt lat="46.50088" lon="5.69108">
        <ele>517</ele>
        <time>2020-10-20T11:50:11Z</time>
      </trkpt>
      <trkpt lat="46.50085" lon="5.69103">
        <ele>517.1</ele>
        <time>2020-10-20T11:50:15Z</time>
      </trkpt>
      <trkpt lat="46.50082" lon="5.69097">
        <ele>517.1</ele>
        <time>2020-10-20T11:50:20Z</time>
      </trkpt>
      <trkpt lat="46.50079" lon="5.69092">
        <ele>517.1</ele>
        <time>2020-10-20T11:50:25Z</time>
      </trkpt>
      <trkpt lat="46.50079" lon="5.69085">
        <ele>517.1</ele>
        <time>2020-10-20T11:50:38Z</time>
      </trkpt>
      <trkpt lat="46.50077" lon="5.69079">
        <ele>516.7</ele>
        <time>2020-10-20T11:50:43Z</time>
      </trkpt>
      <trkpt lat="46.50075" lon="5.69074">
        <ele>516</ele>
        <time>2020-10-20T11:50:48Z</time>
      </trkpt>
      <trkpt lat="46.50072" lon="5.69068">
        <ele>515.8</ele>
        <time>2020-10-20T11:50:52Z</time>
      </trkpt>
      <trkpt lat="46.50069" lon="5.69063">
        <ele>515.8</ele>
        <time>2020-10-20T11:50:57Z</time>
      </trkpt>
      <trkpt lat="46.50065" lon="5.69059">
        <ele>515.2</ele>
        <time>2020-10-20T11:51:03Z</time>
      </trkpt>
      <trkpt lat="46.50063" lon="5.69053">
        <ele>514.5</ele>
        <time>2020-10-20T11:51:08Z</time>
      </trkpt>
      <trkpt lat="46.50058" lon="5.69049">
        <ele>513.3</ele>
        <time>2020-10-20T11:51:14Z</time>
      </trkpt>
      <trkpt lat="46.50055" lon="5.69045">
        <ele>512.6</ele>
        <time>2020-10-20T11:51:19Z</time>
      </trkpt>
      <trkpt lat="46.50054" lon="5.69037">
        <ele>512</ele>
        <time>2020-10-20T11:51:26Z</time>
      </trkpt>
      <trkpt lat="46.50051" lon="5.69031">
        <ele>511.7</ele>
        <time>2020-10-20T11:51:33Z</time>
      </trkpt>
      <trkpt lat="46.50048" lon="5.69026">
        <ele>511.4</ele>
        <time>2020-10-20T11:51:39Z</time>
      </trkpt>
      <trkpt lat="46.50047" lon="5.69019">
        <ele>511.1</ele>
        <time>2020-10-20T11:51:45Z</time>
      </trkpt>
      <trkpt lat="46.50045" lon="5.69012">
        <ele>510.7</ele>
        <time>2020-10-20T11:51:50Z</time>
      </trkpt>
      <trkpt lat="46.50042" lon="5.69007">
        <ele>509.9</ele>
        <time>2020-10-20T11:51:55Z</time>
      </trkpt>
      <trkpt lat="46.50039" lon="5.69001">
        <ele>509.1</ele>
        <time>2020-10-20T11:52:00Z</time>
      </trkpt>
      <trkpt lat="46.50037" lon="5.68994">
        <ele>508.1</ele>
        <time>2020-10-20T11:52:06Z</time>
      </trkpt>
      <trkpt lat="46.50034" lon="5.68988">
        <ele>507.1</ele>
        <time>2020-10-20T11:52:12Z</time>
      </trkpt>
      <trkpt lat="46.50031" lon="5.68983">
        <ele>506.8</ele>
        <time>2020-10-20T11:52:16Z</time>
      </trkpt>
      <trkpt lat="46.50027" lon="5.68977">
        <ele>506.8</ele>
        <time>2020-10-20T11:52:20Z</time>
      </trkpt>
      <trkpt lat="46.50024" lon="5.68971">
        <ele>506.9</ele>
        <time>2020-10-20T11:52:25Z</time>
      </trkpt>
      <trkpt lat="46.50021" lon="5.68966">
        <ele>507.4</ele>
        <time>2020-10-20T11:52:30Z</time>
      </trkpt>
      <trkpt lat="46.50017" lon="5.68962">
        <ele>508.1</ele>
        <time>2020-10-20T11:52:36Z</time>
      </trkpt>
      <trkpt lat="46.50012" lon="5.68958">
        <ele>508.7</ele>
        <time>2020-10-20T11:52:42Z</time>
      </trkpt>
      <trkpt lat="46.50008" lon="5.68958">
        <ele>509</ele>
        <time>2020-10-20T11:52:49Z</time>
      </trkpt>
      <trkpt lat="46.50003" lon="5.68955">
        <ele>508.7</ele>
        <time>2020-10-20T11:52:55Z</time>
      </trkpt>
      <trkpt lat="46.49999" lon="5.68951">
        <ele>508.1</ele>
        <time>2020-10-20T11:53:03Z</time>
      </trkpt>
      <trkpt lat="46.49995" lon="5.68947">
        <ele>507.5</ele>
        <time>2020-10-20T11:53:09Z</time>
      </trkpt>
      <trkpt lat="46.49992" lon="5.68942">
        <ele>507.4</ele>
        <time>2020-10-20T11:53:13Z</time>
      </trkpt>
      <trkpt lat="46.49983" lon="5.68938">
        <ele>509.6</ele>
        <time>2020-10-20T11:53:15Z</time>
      </trkpt>
      <trkpt lat="46.49977" lon="5.68937">
        <ele>510.9</ele>
        <time>2020-10-20T11:53:18Z</time>
      </trkpt>
      <trkpt lat="46.49971" lon="5.68935">
        <ele>512</ele>
        <time>2020-10-20T11:53:23Z</time>
      </trkpt>
      <trkpt lat="46.49969" lon="5.6893">
        <ele>512.8</ele>
        <time>2020-10-20T11:53:31Z</time>
      </trkpt>
      <trkpt lat="46.49968" lon="5.68923">
        <ele>512.9</ele>
        <time>2020-10-20T11:53:35Z</time>
      </trkpt>
      <trkpt lat="46.49967" lon="5.68917">
        <ele>512.5</ele>
        <time>2020-10-20T11:53:40Z</time>
      </trkpt>
      <trkpt lat="46.49967" lon="5.68908">
        <ele>512</ele>
        <time>2020-10-20T11:53:48Z</time>
      </trkpt>
      <trkpt lat="46.49965" lon="5.68901">
        <ele>512</ele>
        <time>2020-10-20T11:53:53Z</time>
      </trkpt>
      <trkpt lat="46.49963" lon="5.68894">
        <ele>512</ele>
        <time>2020-10-20T11:53:57Z</time>
      </trkpt>
      <trkpt lat="46.4996" lon="5.68888">
        <ele>512.1</ele>
        <time>2020-10-20T11:54:01Z</time>
      </trkpt>
      <trkpt lat="46.49957" lon="5.68883">
        <ele>512.2</ele>
        <time>2020-10-20T11:54:06Z</time>
      </trkpt>
      <trkpt lat="46.49954" lon="5.68877">
        <ele>512.5</ele>
        <time>2020-10-20T11:54:11Z</time>
      </trkpt>
      <trkpt lat="46.4995" lon="5.68873">
        <ele>513</ele>
        <time>2020-10-20T11:54:17Z</time>
      </trkpt>
      <trkpt lat="46.49946" lon="5.68867">
        <ele>513.3</ele>
        <time>2020-10-20T11:54:23Z</time>
      </trkpt>
      <trkpt lat="46.49945" lon="5.68861">
        <ele>513.3</ele>
        <time>2020-10-20T11:54:28Z</time>
      </trkpt>
      <trkpt lat="46.49943" lon="5.68854">
        <ele>513.3</ele>
        <time>2020-10-20T11:54:35Z</time>
      </trkpt>
      <trkpt lat="46.4994" lon="5.68849">
        <ele>513.2</ele>
        <time>2020-10-20T11:54:42Z</time>
      </trkpt>
      <trkpt lat="46.49938" lon="5.68843">
        <ele>512.9</ele>
        <time>2020-10-20T11:54:47Z</time>
      </trkpt>
      <trkpt lat="46.49936" lon="5.68837">
        <ele>512.7</ele>
        <time>2020-10-20T11:54:52Z</time>
      </trkpt>
      <trkpt lat="46.49935" lon="5.6883">
        <ele>512.8</ele>
        <time>2020-10-20T11:54:57Z</time>
      </trkpt>
      <trkpt lat="46.49931" lon="5.68824">
        <ele>512.2</ele>
        <time>2020-10-20T11:55:04Z</time>
      </trkpt>
      <trkpt lat="46.49929" lon="5.68818">
        <ele>512</ele>
        <time>2020-10-20T11:55:08Z</time>
      </trkpt>
      <trkpt lat="46.49926" lon="5.68812">
        <ele>511.6</ele>
        <time>2020-10-20T11:55:12Z</time>
      </trkpt>
      <trkpt lat="46.49924" lon="5.68805">
        <ele>511.2</ele>
        <time>2020-10-20T11:55:17Z</time>
      </trkpt>
      <trkpt lat="46.49923" lon="5.68798">
        <ele>510.4</ele>
        <time>2020-10-20T11:55:22Z</time>
      </trkpt>
      <trkpt lat="46.49921" lon="5.68791">
        <ele>509.6</ele>
        <time>2020-10-20T11:55:27Z</time>
      </trkpt>
      <trkpt lat="46.49919" lon="5.68784">
        <ele>508.8</ele>
        <time>2020-10-20T11:55:31Z</time>
      </trkpt>
      <trkpt lat="46.49917" lon="5.68778">
        <ele>507.8</ele>
        <time>2020-10-20T11:55:36Z</time>
      </trkpt>
      <trkpt lat="46.49914" lon="5.68772">
        <ele>506.8</ele>
        <time>2020-10-20T11:55:41Z</time>
      </trkpt>
      <trkpt lat="46.49911" lon="5.68766">
        <ele>506</ele>
        <time>2020-10-20T11:55:46Z</time>
      </trkpt>
      <trkpt lat="46.49909" lon="5.6876">
        <ele>505.1</ele>
        <time>2020-10-20T11:55:52Z</time>
      </trkpt>
      <trkpt lat="46.49907" lon="5.68753">
        <ele>504</ele>
        <time>2020-10-20T11:55:59Z</time>
      </trkpt>
      <trkpt lat="46.49905" lon="5.68747">
        <ele>503</ele>
        <time>2020-10-20T11:56:05Z</time>
      </trkpt>
      <trkpt lat="46.49902" lon="5.6874">
        <ele>502.3</ele>
        <time>2020-10-20T11:56:10Z</time>
      </trkpt>
      <trkpt lat="46.499" lon="5.68734">
        <ele>501.9</ele>
        <time>2020-10-20T11:56:14Z</time>
      </trkpt>
      <trkpt lat="46.49899" lon="5.68727">
        <ele>501.5</ele>
        <time>2020-10-20T11:56:18Z</time>
      </trkpt>
      <trkpt lat="46.49897" lon="5.6872">
        <ele>501</ele>
        <time>2020-10-20T11:56:23Z</time>
      </trkpt>
      <trkpt lat="46.49894" lon="5.68714">
        <ele>500.7</ele>
        <time>2020-10-20T11:56:27Z</time>
      </trkpt>
      <trkpt lat="46.4989" lon="5.68709">
        <ele>499.9</ele>
        <time>2020-10-20T11:56:32Z</time>
      </trkpt>
      <trkpt lat="46.49889" lon="5.68701">
        <ele>499.2</ele>
        <time>2020-10-20T11:56:37Z</time>
      </trkpt>
      <trkpt lat="46.49888" lon="5.68693">
        <ele>498.5</ele>
        <time>2020-10-20T11:56:42Z</time>
      </trkpt>
      <trkpt lat="46.49885" lon="5.68687">
        <ele>498</ele>
        <time>2020-10-20T11:56:46Z</time>
      </trkpt>
      <trkpt lat="46.49882" lon="5.68681">
        <ele>497.8</ele>
        <time>2020-10-20T11:56:50Z</time>
      </trkpt>
      <trkpt lat="46.49879" lon="5.68677">
        <ele>498.4</ele>
        <time>2020-10-20T11:56:57Z</time>
      </trkpt>
      <trkpt lat="46.49883" lon="5.68672">
        <ele>499.2</ele>
        <time>2020-10-20T11:57:08Z</time>
      </trkpt>
      <trkpt lat="46.49887" lon="5.68668">
        <ele>499.7</ele>
        <time>2020-10-20T11:57:14Z</time>
      </trkpt>
      <trkpt lat="46.49891" lon="5.68664">
        <ele>500</ele>
        <time>2020-10-20T11:57:18Z</time>
      </trkpt>
      <trkpt lat="46.49894" lon="5.68658">
        <ele>500.6</ele>
        <time>2020-10-20T11:57:24Z</time>
      </trkpt>
      <trkpt lat="46.49897" lon="5.68653">
        <ele>501</ele>
        <time>2020-10-20T11:57:32Z</time>
      </trkpt>
      <trkpt lat="46.49897" lon="5.68645">
        <ele>500.1</ele>
        <time>2020-10-20T11:57:41Z</time>
      </trkpt>
      <trkpt lat="46.49901" lon="5.68641">
        <ele>499.7</ele>
        <time>2020-10-20T11:57:45Z</time>
      </trkpt>
      <trkpt lat="46.49905" lon="5.68636">
        <ele>499.4</ele>
        <time>2020-10-20T11:57:50Z</time>
      </trkpt>
      <trkpt lat="46.49905" lon="5.68629">
        <ele>498.7</ele>
        <time>2020-10-20T11:58:02Z</time>
      </trkpt>
      <trkpt lat="46.49907" lon="5.68623">
        <ele>498.9</ele>
        <time>2020-10-20T11:58:05Z</time>
      </trkpt>
      <trkpt lat="46.49908" lon="5.68616">
        <ele>499.5</ele>
        <time>2020-10-20T11:58:07Z</time>
      </trkpt>
      <trkpt lat="46.49908" lon="5.68609">
        <ele>500.6</ele>
        <time>2020-10-20T11:58:10Z</time>
      </trkpt>
      <trkpt lat="46.4991" lon="5.68602">
        <ele>503.7</ele>
        <time>2020-10-20T11:58:28Z</time>
      </trkpt>
      <trkpt lat="46.49908" lon="5.68608">
        <ele>505.9</ele>
        <time>2020-10-20T11:58:39Z</time>
      </trkpt>
      <trkpt lat="46.49905" lon="5.68615">
        <ele>506.6</ele>
        <time>2020-10-20T11:58:45Z</time>
      </trkpt>
      <trkpt lat="46.49902" lon="5.68621">
        <ele>506.7</ele>
        <time>2020-10-20T11:58:50Z</time>
      </trkpt>
      <trkpt lat="46.499" lon="5.68628">
        <ele>506.4</ele>
        <time>2020-10-20T11:58:55Z</time>
      </trkpt>
      <trkpt lat="46.49897" lon="5.68634">
        <ele>506.3</ele>
        <time>2020-10-20T11:59:01Z</time>
      </trkpt>
      <trkpt lat="46.49894" lon="5.68639">
        <ele>506.2</ele>
        <time>2020-10-20T11:59:06Z</time>
      </trkpt>
      <trkpt lat="46.49891" lon="5.68644">
        <ele>505.6</ele>
        <time>2020-10-20T11:59:11Z</time>
      </trkpt>
      <trkpt lat="46.49888" lon="5.6865">
        <ele>504.9</ele>
        <time>2020-10-20T11:59:16Z</time>
      </trkpt>
      <trkpt lat="46.49886" lon="5.68656">
        <ele>504.1</ele>
        <time>2020-10-20T11:59:21Z</time>
      </trkpt>
      <trkpt lat="46.49882" lon="5.6866">
        <ele>503.3</ele>
        <time>2020-10-20T11:59:27Z</time>
      </trkpt>
      <trkpt lat="46.49878" lon="5.68664">
        <ele>502.5</ele>
        <time>2020-10-20T11:59:32Z</time>
      </trkpt>
      <trkpt lat="46.49874" lon="5.68669">
        <ele>501.8</ele>
        <time>2020-10-20T11:59:37Z</time>
      </trkpt>
      <trkpt lat="46.49871" lon="5.68675">
        <ele>501.2</ele>
        <time>2020-10-20T11:59:42Z</time>
      </trkpt>
      <trkpt lat="46.49868" lon="5.68679">
        <ele>500.5</ele>
        <time>2020-10-20T11:59:47Z</time>
      </trkpt>
      <trkpt lat="46.49864" lon="5.68684">
        <ele>499.8</ele>
        <time>2020-10-20T11:59:52Z</time>
      </trkpt>
      <trkpt lat="46.49861" lon="5.68689">
        <ele>499.4</ele>
        <time>2020-10-20T11:59:57Z</time>
      </trkpt>
      <trkpt lat="46.49857" lon="5.68694">
        <ele>498.7</ele>
        <time>2020-10-20T12:00:02Z</time>
      </trkpt>
      <trkpt lat="46.49854" lon="5.68699">
        <ele>497.8</ele>
        <time>2020-10-20T12:00:08Z</time>
      </trkpt>
      <trkpt lat="46.49846" lon="5.68709">
        <ele>502.2</ele>
        <time>2020-10-20T12:00:12Z</time>
      </trkpt>
      <trkpt lat="46.49839" lon="5.68717">
        <ele>506.4</ele>
        <time>2020-10-20T12:00:14Z</time>
      </trkpt>
      <trkpt lat="46.49836" lon="5.68722">
        <ele>510.1</ele>
        <time>2020-10-20T12:00:16Z</time>
      </trkpt>
      <trkpt lat="46.49831" lon="5.68725">
        <ele>515.7</ele>
        <time>2020-10-20T12:00:21Z</time>
      </trkpt>
      <trkpt lat="46.49827" lon="5.68729">
        <ele>518.5</ele>
        <time>2020-10-20T12:00:24Z</time>
      </trkpt>
      <trkpt lat="46.49824" lon="5.68734">
        <ele>522.7</ele>
        <time>2020-10-20T12:00:32Z</time>
      </trkpt>
      <trkpt lat="46.4982" lon="5.68739">
        <ele>525.1</ele>
        <time>2020-10-20T12:00:39Z</time>
      </trkpt>
      <trkpt lat="46.49816" lon="5.68742">
        <ele>526.9</ele>
        <time>2020-10-20T12:00:46Z</time>
      </trkpt>
      <trkpt lat="46.49812" lon="5.68746">
        <ele>527.8</ele>
        <time>2020-10-20T12:00:51Z</time>
      </trkpt>
      <trkpt lat="46.49808" lon="5.68749">
        <ele>528.3</ele>
        <time>2020-10-20T12:00:56Z</time>
      </trkpt>
      <trkpt lat="46.49799" lon="5.68754">
        <ele>527.9</ele>
        <time>2020-10-20T12:01:01Z</time>
      </trkpt>
      <trkpt lat="46.49794" lon="5.68759">
        <ele>527.7</ele>
        <time>2020-10-20T12:01:03Z</time>
      </trkpt>
      <trkpt lat="46.49789" lon="5.68762">
        <ele>527.7</ele>
        <time>2020-10-20T12:01:06Z</time>
      </trkpt>
      <trkpt lat="46.49784" lon="5.68766">
        <ele>528.6</ele>
        <time>2020-10-20T12:01:11Z</time>
      </trkpt>
      <trkpt lat="46.49783" lon="5.68773">
        <ele>529.1</ele>
        <time>2020-10-20T12:01:26Z</time>
      </trkpt>
      <trkpt lat="46.49781" lon="5.68779">
        <ele>528.3</ele>
        <time>2020-10-20T12:01:31Z</time>
      </trkpt>
      <trkpt lat="46.49779" lon="5.68787">
        <ele>527.4</ele>
        <time>2020-10-20T12:01:36Z</time>
      </trkpt>
      <trkpt lat="46.49776" lon="5.68793">
        <ele>526.7</ele>
        <time>2020-10-20T12:01:40Z</time>
      </trkpt>
      <trkpt lat="46.49773" lon="5.68797">
        <ele>525.7</ele>
        <time>2020-10-20T12:01:46Z</time>
      </trkpt>
      <trkpt lat="46.49769" lon="5.68803">
        <ele>524.6</ele>
        <time>2020-10-20T12:01:52Z</time>
      </trkpt>
      <trkpt lat="46.49765" lon="5.68809">
        <ele>524.1</ele>
        <time>2020-10-20T12:01:56Z</time>
      </trkpt>
      <trkpt lat="46.49762" lon="5.68814">
        <ele>523.6</ele>
        <time>2020-10-20T12:02:00Z</time>
      </trkpt>
      <trkpt lat="46.49757" lon="5.68819">
        <ele>523.1</ele>
        <time>2020-10-20T12:02:04Z</time>
      </trkpt>
      <trkpt lat="46.49754" lon="5.68824">
        <ele>522.5</ele>
        <time>2020-10-20T12:02:08Z</time>
      </trkpt>
      <trkpt lat="46.49751" lon="5.6883">
        <ele>521.7</ele>
        <time>2020-10-20T12:02:14Z</time>
      </trkpt>
      <trkpt lat="46.49748" lon="5.68836">
        <ele>521</ele>
        <time>2020-10-20T12:02:20Z</time>
      </trkpt>
      <trkpt lat="46.49744" lon="5.68841">
        <ele>519.7</ele>
        <time>2020-10-20T12:02:25Z</time>
      </trkpt>
      <trkpt lat="46.49741" lon="5.68847">
        <ele>518.2</ele>
        <time>2020-10-20T12:02:34Z</time>
      </trkpt>
      <trkpt lat="46.49738" lon="5.68852">
        <ele>517.9</ele>
        <time>2020-10-20T12:02:38Z</time>
      </trkpt>
      <trkpt lat="46.49734" lon="5.68857">
        <ele>517.7</ele>
        <time>2020-10-20T12:02:43Z</time>
      </trkpt>
      <trkpt lat="46.49731" lon="5.68863">
        <ele>517.6</ele>
        <time>2020-10-20T12:02:49Z</time>
      </trkpt>
      <trkpt lat="46.49728" lon="5.68868">
        <ele>517.5</ele>
        <time>2020-10-20T12:02:54Z</time>
      </trkpt>
      <trkpt lat="46.49725" lon="5.68875">
        <ele>517</ele>
        <time>2020-10-20T12:02:59Z</time>
      </trkpt>
      <trkpt lat="46.49721" lon="5.68879">
        <ele>516.4</ele>
        <time>2020-10-20T12:03:03Z</time>
      </trkpt>
      <trkpt lat="46.49717" lon="5.68882">
        <ele>515.7</ele>
        <time>2020-10-20T12:03:07Z</time>
      </trkpt>
      <trkpt lat="46.49713" lon="5.68885">
        <ele>515.4</ele>
        <time>2020-10-20T12:03:11Z</time>
      </trkpt>
      <trkpt lat="46.49708" lon="5.68889">
        <ele>514.6</ele>
        <time>2020-10-20T12:03:17Z</time>
      </trkpt>
      <trkpt lat="46.49704" lon="5.68893">
        <ele>514.3</ele>
        <time>2020-10-20T12:03:21Z</time>
      </trkpt>
      <trkpt lat="46.497" lon="5.68898">
        <ele>513.1</ele>
        <time>2020-10-20T12:03:27Z</time>
      </trkpt>
      <trkpt lat="46.49696" lon="5.68901">
        <ele>511.8</ele>
        <time>2020-10-20T12:03:33Z</time>
      </trkpt>
      <trkpt lat="46.49691" lon="5.68905">
        <ele>510.5</ele>
        <time>2020-10-20T12:03:38Z</time>
      </trkpt>
      <trkpt lat="46.49687" lon="5.68909">
        <ele>509.4</ele>
        <time>2020-10-20T12:03:42Z</time>
      </trkpt>
      <trkpt lat="46.49683" lon="5.68914">
        <ele>508.5</ele>
        <time>2020-10-20T12:03:46Z</time>
      </trkpt>
      <trkpt lat="46.4968" lon="5.68919">
        <ele>508</ele>
        <time>2020-10-20T12:03:50Z</time>
      </trkpt>
      <trkpt lat="46.49677" lon="5.68924">
        <ele>508.1</ele>
        <time>2020-10-20T12:03:54Z</time>
      </trkpt>
      <trkpt lat="46.49673" lon="5.68928">
        <ele>508.3</ele>
        <time>2020-10-20T12:03:58Z</time>
      </trkpt>
      <trkpt lat="46.49669" lon="5.68931">
        <ele>508.6</ele>
        <time>2020-10-20T12:04:05Z</time>
      </trkpt>
      <trkpt lat="46.49664" lon="5.68932">
        <ele>508.9</ele>
        <time>2020-10-20T12:04:27Z</time>
      </trkpt>
      <trkpt lat="46.49659" lon="5.68932">
        <ele>509.1</ele>
        <time>2020-10-20T12:04:30Z</time>
      </trkpt>
      <trkpt lat="46.49654" lon="5.68931">
        <ele>509.4</ele>
        <time>2020-10-20T12:04:35Z</time>
      </trkpt>
      <trkpt lat="46.49649" lon="5.68929">
        <ele>510.1</ele>
        <time>2020-10-20T12:04:41Z</time>
      </trkpt>
      <trkpt lat="46.49645" lon="5.68926">
        <ele>510.7</ele>
        <time>2020-10-20T12:04:47Z</time>
      </trkpt>
      <trkpt lat="46.49641" lon="5.68921">
        <ele>511.1</ele>
        <time>2020-10-20T12:04:52Z</time>
      </trkpt>
      <trkpt lat="46.49636" lon="5.68917">
        <ele>511.5</ele>
        <time>2020-10-20T12:04:57Z</time>
      </trkpt>
      <trkpt lat="46.49631" lon="5.68915">
        <ele>511.8</ele>
        <time>2020-10-20T12:05:03Z</time>
      </trkpt>
      <trkpt lat="46.49627" lon="5.68911">
        <ele>512</ele>
        <time>2020-10-20T12:05:07Z</time>
      </trkpt>
      <trkpt lat="46.49623" lon="5.68908">
        <ele>512</ele>
        <time>2020-10-20T12:05:12Z</time>
      </trkpt>
      <trkpt lat="46.49619" lon="5.68903">
        <ele>512</ele>
        <time>2020-10-20T12:05:17Z</time>
      </trkpt>
      <trkpt lat="46.49614" lon="5.68899">
        <ele>511.8</ele>
        <time>2020-10-20T12:05:22Z</time>
      </trkpt>
      <trkpt lat="46.4961" lon="5.68898">
        <ele>511.5</ele>
        <time>2020-10-20T12:05:28Z</time>
      </trkpt>
      <trkpt lat="46.49604" lon="5.68898">
        <ele>511.1</ele>
        <time>2020-10-20T12:05:34Z</time>
      </trkpt>
      <trkpt lat="46.49599" lon="5.68898">
        <ele>511.2</ele>
        <time>2020-10-20T12:05:39Z</time>
      </trkpt>
      <trkpt lat="46.49595" lon="5.68894">
        <ele>511.2</ele>
        <time>2020-10-20T12:05:44Z</time>
      </trkpt>
      <trkpt lat="46.49591" lon="5.6889">
        <ele>511</ele>
        <time>2020-10-20T12:05:48Z</time>
      </trkpt>
      <trkpt lat="46.49586" lon="5.68888">
        <ele>510.9</ele>
        <time>2020-10-20T12:05:53Z</time>
      </trkpt>
      <trkpt lat="46.49581" lon="5.68887">
        <ele>510.7</ele>
        <time>2020-10-20T12:05:58Z</time>
      </trkpt>
      <trkpt lat="46.49576" lon="5.68888">
        <ele>510.4</ele>
        <time>2020-10-20T12:06:03Z</time>
      </trkpt>
      <trkpt lat="46.49572" lon="5.68887">
        <ele>509.9</ele>
        <time>2020-10-20T12:06:09Z</time>
      </trkpt>
      <trkpt lat="46.49567" lon="5.68888">
        <ele>509.2</ele>
        <time>2020-10-20T12:06:15Z</time>
      </trkpt>
      <trkpt lat="46.49562" lon="5.68889">
        <ele>508.5</ele>
        <time>2020-10-20T12:06:20Z</time>
      </trkpt>
      <trkpt lat="46.49557" lon="5.68889">
        <ele>507.9</ele>
        <time>2020-10-20T12:06:25Z</time>
      </trkpt>
      <trkpt lat="46.49552" lon="5.68891">
        <ele>507</ele>
        <time>2020-10-20T12:06:31Z</time>
      </trkpt>
      <trkpt lat="46.49548" lon="5.68893">
        <ele>506.2</ele>
        <time>2020-10-20T12:06:36Z</time>
      </trkpt>
      <trkpt lat="46.49543" lon="5.68897">
        <ele>505.6</ele>
        <time>2020-10-20T12:06:41Z</time>
      </trkpt>
      <trkpt lat="46.49539" lon="5.68901">
        <ele>505.1</ele>
        <time>2020-10-20T12:06:46Z</time>
      </trkpt>
      <trkpt lat="46.49535" lon="5.68906">
        <ele>504.7</ele>
        <time>2020-10-20T12:06:51Z</time>
      </trkpt>
      <trkpt lat="46.49532" lon="5.68913">
        <ele>504.4</ele>
        <time>2020-10-20T12:06:56Z</time>
      </trkpt>
      <trkpt lat="46.49529" lon="5.68919">
        <ele>504.1</ele>
        <time>2020-10-20T12:07:01Z</time>
      </trkpt>
      <trkpt lat="46.49526" lon="5.68923">
        <ele>503.7</ele>
        <time>2020-10-20T12:07:06Z</time>
      </trkpt>
      <trkpt lat="46.49523" lon="5.68928">
        <ele>503.2</ele>
        <time>2020-10-20T12:07:12Z</time>
      </trkpt>
      <trkpt lat="46.49519" lon="5.68934">
        <ele>503.1</ele>
        <time>2020-10-20T12:07:17Z</time>
      </trkpt>
      <trkpt lat="46.49516" lon="5.68939">
        <ele>502.5</ele>
        <time>2020-10-20T12:07:22Z</time>
      </trkpt>
      <trkpt lat="46.49512" lon="5.68943">
        <ele>501.7</ele>
        <time>2020-10-20T12:07:27Z</time>
      </trkpt>
      <trkpt lat="46.49505" lon="5.68952">
        <ele>503.8</ele>
        <time>2020-10-20T12:07:32Z</time>
      </trkpt>
      <trkpt lat="46.49501" lon="5.68958">
        <ele>505.6</ele>
        <time>2020-10-20T12:07:35Z</time>
      </trkpt>
      <trkpt lat="46.49497" lon="5.6896">
        <ele>507.7</ele>
        <time>2020-10-20T12:07:40Z</time>
      </trkpt>
      <trkpt lat="46.49492" lon="5.68961">
        <ele>508.6</ele>
        <time>2020-10-20T12:07:45Z</time>
      </trkpt>
      <trkpt lat="46.49488" lon="5.68962">
        <ele>508.8</ele>
        <time>2020-10-20T12:07:50Z</time>
      </trkpt>
      <trkpt lat="46.49483" lon="5.68963">
        <ele>508.8</ele>
        <time>2020-10-20T12:07:55Z</time>
      </trkpt>
      <trkpt lat="46.49478" lon="5.68964">
        <ele>508.7</ele>
        <time>2020-10-20T12:08:00Z</time>
      </trkpt>
      <trkpt lat="46.49474" lon="5.68966">
        <ele>508.5</ele>
        <time>2020-10-20T12:08:07Z</time>
      </trkpt>
      <trkpt lat="46.49469" lon="5.68967">
        <ele>508.4</ele>
        <time>2020-10-20T12:08:13Z</time>
      </trkpt>
      <trkpt lat="46.49464" lon="5.68969">
        <ele>508.2</ele>
        <time>2020-10-20T12:08:18Z</time>
      </trkpt>
      <trkpt lat="46.49459" lon="5.68971">
        <ele>507.8</ele>
        <time>2020-10-20T12:08:23Z</time>
      </trkpt>
      <trkpt lat="46.49455" lon="5.68973">
        <ele>507.5</ele>
        <time>2020-10-20T12:08:28Z</time>
      </trkpt>
      <trkpt lat="46.4945" lon="5.68975">
        <ele>507.2</ele>
        <time>2020-10-20T12:08:34Z</time>
      </trkpt>
      <trkpt lat="46.49446" lon="5.68979">
        <ele>506.7</ele>
        <time>2020-10-20T12:08:39Z</time>
      </trkpt>
      <trkpt lat="46.49443" lon="5.68984">
        <ele>506.1</ele>
        <time>2020-10-20T12:08:43Z</time>
      </trkpt>
      <trkpt lat="46.4944" lon="5.68989">
        <ele>505.7</ele>
        <time>2020-10-20T12:08:47Z</time>
      </trkpt>
      <trkpt lat="46.49436" lon="5.68994">
        <ele>505.4</ele>
        <time>2020-10-20T12:08:52Z</time>
      </trkpt>
      <trkpt lat="46.49432" lon="5.68997">
        <ele>505.2</ele>
        <time>2020-10-20T12:08:56Z</time>
      </trkpt>
      <trkpt lat="46.49428" lon="5.69">
        <ele>505</ele>
        <time>2020-10-20T12:08:59Z</time>
      </trkpt>
      <trkpt lat="46.49423" lon="5.69005">
        <ele>504.6</ele>
        <time>2020-10-20T12:09:03Z</time>
      </trkpt>
      <trkpt lat="46.4942" lon="5.69009">
        <ele>504.3</ele>
        <time>2020-10-20T12:09:07Z</time>
      </trkpt>
      <trkpt lat="46.49415" lon="5.69013">
        <ele>504.4</ele>
        <time>2020-10-20T12:09:11Z</time>
      </trkpt>
      <trkpt lat="46.49411" lon="5.69018">
        <ele>504.7</ele>
        <time>2020-10-20T12:09:15Z</time>
      </trkpt>
      <trkpt lat="46.49407" lon="5.69021">
        <ele>504.6</ele>
        <time>2020-10-20T12:09:21Z</time>
      </trkpt>
      <trkpt lat="46.49403" lon="5.69025">
        <ele>504.5</ele>
        <time>2020-10-20T12:09:27Z</time>
      </trkpt>
      <trkpt lat="46.49398" lon="5.69029">
        <ele>504.2</ele>
        <time>2020-10-20T12:09:34Z</time>
      </trkpt>
      <trkpt lat="46.49394" lon="5.69032">
        <ele>503.8</ele>
        <time>2020-10-20T12:09:39Z</time>
      </trkpt>
      <trkpt lat="46.4939" lon="5.69037">
        <ele>503.5</ele>
        <time>2020-10-20T12:09:46Z</time>
      </trkpt>
      <trkpt lat="46.49385" lon="5.6904">
        <ele>503</ele>
        <time>2020-10-20T12:09:52Z</time>
      </trkpt>
      <trkpt lat="46.4938" lon="5.69043">
        <ele>502.6</ele>
        <time>2020-10-20T12:09:57Z</time>
      </trkpt>
      <trkpt lat="46.49376" lon="5.69047">
        <ele>502.4</ele>
        <time>2020-10-20T12:10:02Z</time>
      </trkpt>
      <trkpt lat="46.49371" lon="5.69051">
        <ele>502.1</ele>
        <time>2020-10-20T12:10:07Z</time>
      </trkpt>
      <trkpt lat="46.49367" lon="5.69054">
        <ele>501.9</ele>
        <time>2020-10-20T12:10:11Z</time>
      </trkpt>
      <trkpt lat="46.49363" lon="5.69057">
        <ele>501.7</ele>
        <time>2020-10-20T12:10:15Z</time>
      </trkpt>
      <trkpt lat="46.49359" lon="5.69061">
        <ele>501.3</ele>
        <time>2020-10-20T12:10:22Z</time>
      </trkpt>
      <trkpt lat="46.49355" lon="5.69065">
        <ele>501.3</ele>
        <time>2020-10-20T12:10:26Z</time>
      </trkpt>
      <trkpt lat="46.4935" lon="5.69069">
        <ele>501.4</ele>
        <time>2020-10-20T12:10:31Z</time>
      </trkpt>
      <trkpt lat="46.49345" lon="5.6907">
        <ele>501.1</ele>
        <time>2020-10-20T12:10:35Z</time>
      </trkpt>
      <trkpt lat="46.4934" lon="5.6907">
        <ele>500.7</ele>
        <time>2020-10-20T12:10:40Z</time>
      </trkpt>
      <trkpt lat="46.49335" lon="5.6907">
        <ele>500.7</ele>
        <time>2020-10-20T12:10:45Z</time>
      </trkpt>
      <trkpt lat="46.49331" lon="5.69071">
        <ele>500.9</ele>
        <time>2020-10-20T12:10:50Z</time>
      </trkpt>
      <trkpt lat="46.49326" lon="5.69072">
        <ele>501.2</ele>
        <time>2020-10-20T12:10:55Z</time>
      </trkpt>
      <trkpt lat="46.49321" lon="5.69072">
        <ele>501.3</ele>
        <time>2020-10-20T12:11:00Z</time>
      </trkpt>
      <trkpt lat="46.49316" lon="5.69074">
        <ele>501.5</ele>
        <time>2020-10-20T12:11:06Z</time>
      </trkpt>
      <trkpt lat="46.49311" lon="5.69076">
        <ele>501.5</ele>
        <time>2020-10-20T12:11:11Z</time>
      </trkpt>
      <trkpt lat="46.49306" lon="5.69076">
        <ele>501.5</ele>
        <time>2020-10-20T12:11:15Z</time>
      </trkpt>
      <trkpt lat="46.49301" lon="5.69078">
        <ele>501.3</ele>
        <time>2020-10-20T12:11:20Z</time>
      </trkpt>
      <trkpt lat="46.49296" lon="5.69079">
        <ele>501</ele>
        <time>2020-10-20T12:11:24Z</time>
      </trkpt>
      <trkpt lat="46.49287" lon="5.69084">
        <ele>503.9</ele>
        <time>2020-10-20T12:11:28Z</time>
      </trkpt>
      <trkpt lat="46.49283" lon="5.69087">
        <ele>505.2</ele>
        <time>2020-10-20T12:11:30Z</time>
      </trkpt>
      <trkpt lat="46.49278" lon="5.6909">
        <ele>507.7</ele>
        <time>2020-10-20T12:11:34Z</time>
      </trkpt>
      <trkpt lat="46.49274" lon="5.69092">
        <ele>509.4</ele>
        <time>2020-10-20T12:11:40Z</time>
      </trkpt>
      <trkpt lat="46.49269" lon="5.69095">
        <ele>510.1</ele>
        <time>2020-10-20T12:11:45Z</time>
      </trkpt>
      <trkpt lat="46.49265" lon="5.69099">
        <ele>510.1</ele>
        <time>2020-10-20T12:11:51Z</time>
      </trkpt>
      <trkpt lat="46.49261" lon="5.69104">
        <ele>509.6</ele>
        <time>2020-10-20T12:11:56Z</time>
      </trkpt>
      <trkpt lat="46.49256" lon="5.69107">
        <ele>509</ele>
        <time>2020-10-20T12:12:01Z</time>
      </trkpt>
      <trkpt lat="46.49252" lon="5.69111">
        <ele>508.9</ele>
        <time>2020-10-20T12:12:05Z</time>
      </trkpt>
      <trkpt lat="46.49248" lon="5.69115">
        <ele>508.9</ele>
        <time>2020-10-20T12:12:10Z</time>
      </trkpt>
      <trkpt lat="46.49244" lon="5.69119">
        <ele>509.3</ele>
        <time>2020-10-20T12:12:15Z</time>
      </trkpt>
      <trkpt lat="46.49239" lon="5.69122">
        <ele>509.8</ele>
        <time>2020-10-20T12:12:22Z</time>
      </trkpt>
      <trkpt lat="46.49235" lon="5.69124">
        <ele>510.3</ele>
        <time>2020-10-20T12:12:27Z</time>
      </trkpt>
      <trkpt lat="46.49229" lon="5.69127">
        <ele>510.8</ele>
        <time>2020-10-20T12:12:32Z</time>
      </trkpt>
      <trkpt lat="46.49224" lon="5.69129">
        <ele>511.7</ele>
        <time>2020-10-20T12:12:36Z</time>
      </trkpt>
      <trkpt lat="46.49219" lon="5.69129">
        <ele>516.1</ele>
        <time>2020-10-20T12:12:56Z</time>
      </trkpt>
      <trkpt lat="46.49214" lon="5.69131">
        <ele>516.6</ele>
        <time>2020-10-20T12:13:03Z</time>
      </trkpt>
      <trkpt lat="46.4921" lon="5.69134">
        <ele>517</ele>
        <time>2020-10-20T12:13:09Z</time>
      </trkpt>
      <trkpt lat="46.49205" lon="5.69137">
        <ele>517.4</ele>
        <time>2020-10-20T12:13:14Z</time>
      </trkpt>
      <trkpt lat="46.49202" lon="5.69142">
        <ele>517.7</ele>
        <time>2020-10-20T12:13:19Z</time>
      </trkpt>
      <trkpt lat="46.49198" lon="5.69148">
        <ele>518.1</ele>
        <time>2020-10-20T12:13:24Z</time>
      </trkpt>
      <trkpt lat="46.49194" lon="5.69152">
        <ele>518.6</ele>
        <time>2020-10-20T12:13:29Z</time>
      </trkpt>
      <trkpt lat="46.4919" lon="5.69155">
        <ele>518.7</ele>
        <time>2020-10-20T12:13:34Z</time>
      </trkpt>
      <trkpt lat="46.49186" lon="5.6916">
        <ele>518.5</ele>
        <time>2020-10-20T12:13:40Z</time>
      </trkpt>
      <trkpt lat="46.49183" lon="5.69166">
        <ele>518.5</ele>
        <time>2020-10-20T12:13:46Z</time>
      </trkpt>
      <trkpt lat="46.49181" lon="5.69172">
        <ele>518.2</ele>
        <time>2020-10-20T12:13:51Z</time>
      </trkpt>
      <trkpt lat="46.49179" lon="5.69178">
        <ele>518</ele>
        <time>2020-10-20T12:13:56Z</time>
      </trkpt>
      <trkpt lat="46.49175" lon="5.69182">
        <ele>517.8</ele>
        <time>2020-10-20T12:14:01Z</time>
      </trkpt>
      <trkpt lat="46.49171" lon="5.69186">
        <ele>517.9</ele>
        <time>2020-10-20T12:14:06Z</time>
      </trkpt>
      <trkpt lat="46.49165" lon="5.69189">
        <ele>517.8</ele>
        <time>2020-10-20T12:14:11Z</time>
      </trkpt>
      <trkpt lat="46.49161" lon="5.69191">
        <ele>517.6</ele>
        <time>2020-10-20T12:14:15Z</time>
      </trkpt>
      <trkpt lat="46.49156" lon="5.69194">
        <ele>517.5</ele>
        <time>2020-10-20T12:14:19Z</time>
      </trkpt>
      <trkpt lat="46.49151" lon="5.69197">
        <ele>517.4</ele>
        <time>2020-10-20T12:14:24Z</time>
      </trkpt>
      <trkpt lat="46.49146" lon="5.69198">
        <ele>517.5</ele>
        <time>2020-10-20T12:14:29Z</time>
      </trkpt>
      <trkpt lat="46.49141" lon="5.69202">
        <ele>517.5</ele>
        <time>2020-10-20T12:14:35Z</time>
      </trkpt>
      <trkpt lat="46.49137" lon="5.69205">
        <ele>517.3</ele>
        <time>2020-10-20T12:14:41Z</time>
      </trkpt>
      <trkpt lat="46.49133" lon="5.69207">
        <ele>516.9</ele>
        <time>2020-10-20T12:14:46Z</time>
      </trkpt>
      <trkpt lat="46.49128" lon="5.69209">
        <ele>516.4</ele>
        <time>2020-10-20T12:14:50Z</time>
      </trkpt>
      <trkpt lat="46.49123" lon="5.6921">
        <ele>516</ele>
        <time>2020-10-20T12:14:54Z</time>
      </trkpt>
      <trkpt lat="46.49118" lon="5.69213">
        <ele>515.7</ele>
        <time>2020-10-20T12:14:59Z</time>
      </trkpt>
      <trkpt lat="46.49114" lon="5.69216">
        <ele>515.4</ele>
        <time>2020-10-20T12:15:04Z</time>
      </trkpt>
      <trkpt lat="46.4911" lon="5.6922">
        <ele>515.4</ele>
        <time>2020-10-20T12:15:09Z</time>
      </trkpt>
      <trkpt lat="46.49106" lon="5.69223">
        <ele>515.3</ele>
        <time>2020-10-20T12:15:13Z</time>
      </trkpt>
      <trkpt lat="46.49102" lon="5.69225">
        <ele>515.5</ele>
        <time>2020-10-20T12:15:18Z</time>
      </trkpt>
      <trkpt lat="46.49097" lon="5.69228">
        <ele>515.4</ele>
        <time>2020-10-20T12:15:23Z</time>
      </trkpt>
      <trkpt lat="46.49092" lon="5.69229">
        <ele>515.4</ele>
        <time>2020-10-20T12:15:28Z</time>
      </trkpt>
      <trkpt lat="46.49087" lon="5.69228">
        <ele>515.4</ele>
        <time>2020-10-20T12:15:34Z</time>
      </trkpt>
      <trkpt lat="46.49082" lon="5.69226">
        <ele>515</ele>
        <time>2020-10-20T12:15:38Z</time>
      </trkpt>
      <trkpt lat="46.49076" lon="5.69225">
        <ele>517.7</ele>
        <time>2020-10-20T12:15:40Z</time>
      </trkpt>
      <trkpt lat="46.49069" lon="5.69223">
        <ele>520</ele>
        <time>2020-10-20T12:15:43Z</time>
      </trkpt>
      <trkpt lat="46.49065" lon="5.69219">
        <ele>522.3</ele>
        <time>2020-10-20T12:15:49Z</time>
      </trkpt>
      <trkpt lat="46.4906" lon="5.69218">
        <ele>522.9</ele>
        <time>2020-10-20T12:15:54Z</time>
      </trkpt>
      <trkpt lat="46.49055" lon="5.69215">
        <ele>522.6</ele>
        <time>2020-10-20T12:15:59Z</time>
      </trkpt>
      <trkpt lat="46.4905" lon="5.69213">
        <ele>522</ele>
        <time>2020-10-20T12:16:04Z</time>
      </trkpt>
      <trkpt lat="46.49046" lon="5.6921">
        <ele>522</ele>
        <time>2020-10-20T12:16:08Z</time>
      </trkpt>
      <trkpt lat="46.49041" lon="5.69207">
        <ele>521.9</ele>
        <time>2020-10-20T12:16:13Z</time>
      </trkpt>
      <trkpt lat="46.49036" lon="5.69205">
        <ele>521.7</ele>
        <time>2020-10-20T12:16:18Z</time>
      </trkpt>
      <trkpt lat="46.49031" lon="5.69204">
        <ele>521.7</ele>
        <time>2020-10-20T12:16:22Z</time>
      </trkpt>
      <trkpt lat="46.49026" lon="5.69202">
        <ele>521.6</ele>
        <time>2020-10-20T12:16:26Z</time>
      </trkpt>
      <trkpt lat="46.49021" lon="5.69199">
        <ele>521.9</ele>
        <time>2020-10-20T12:16:30Z</time>
      </trkpt>
      <trkpt lat="46.49016" lon="5.69198">
        <ele>522.2</ele>
        <time>2020-10-20T12:16:34Z</time>
      </trkpt>
      <trkpt lat="46.49011" lon="5.69196">
        <ele>522.5</ele>
        <time>2020-10-20T12:16:39Z</time>
      </trkpt>
      <trkpt lat="46.49006" lon="5.69194">
        <ele>522.6</ele>
        <time>2020-10-20T12:16:44Z</time>
      </trkpt>
      <trkpt lat="46.49001" lon="5.69193">
        <ele>522.6</ele>
        <time>2020-10-20T12:16:49Z</time>
      </trkpt>
      <trkpt lat="46.48996" lon="5.69193">
        <ele>522.5</ele>
        <time>2020-10-20T12:16:55Z</time>
      </trkpt>
      <trkpt lat="46.48991" lon="5.69195">
        <ele>522.7</ele>
        <time>2020-10-20T12:17:00Z</time>
      </trkpt>
      <trkpt lat="46.48987" lon="5.69196">
        <ele>522.8</ele>
        <time>2020-10-20T12:17:05Z</time>
      </trkpt>
      <trkpt lat="46.48982" lon="5.69197">
        <ele>522.6</ele>
        <time>2020-10-20T12:17:10Z</time>
      </trkpt>
      <trkpt lat="46.48977" lon="5.692">
        <ele>522.1</ele>
        <time>2020-10-20T12:17:16Z</time>
      </trkpt>
      <trkpt lat="46.48972" lon="5.69202">
        <ele>521.4</ele>
        <time>2020-10-20T12:17:22Z</time>
      </trkpt>
      <trkpt lat="46.48968" lon="5.69203">
        <ele>521.2</ele>
        <time>2020-10-20T12:17:27Z</time>
      </trkpt>
      <trkpt lat="46.48963" lon="5.69204">
        <ele>520.9</ele>
        <time>2020-10-20T12:17:32Z</time>
      </trkpt>
      <trkpt lat="46.48959" lon="5.69205">
        <ele>520</ele>
        <time>2020-10-20T12:17:37Z</time>
      </trkpt>
      <trkpt lat="46.48954" lon="5.69206">
        <ele>519.2</ele>
        <time>2020-10-20T12:17:42Z</time>
      </trkpt>
      <trkpt lat="46.48949" lon="5.69207">
        <ele>518.3</ele>
        <time>2020-10-20T12:17:47Z</time>
      </trkpt>
      <trkpt lat="46.48944" lon="5.69208">
        <ele>517.7</ele>
        <time>2020-10-20T12:17:51Z</time>
      </trkpt>
      <trkpt lat="46.48939" lon="5.6921">
        <ele>517.4</ele>
        <time>2020-10-20T12:17:55Z</time>
      </trkpt>
      <trkpt lat="46.48935" lon="5.6921">
        <ele>517.5</ele>
        <time>2020-10-20T12:18:00Z</time>
      </trkpt>
      <trkpt lat="46.4893" lon="5.69212">
        <ele>517.8</ele>
        <time>2020-10-20T12:18:05Z</time>
      </trkpt>
      <trkpt lat="46.48925" lon="5.69215">
        <ele>518.4</ele>
        <time>2020-10-20T12:18:10Z</time>
      </trkpt>
      <trkpt lat="46.48921" lon="5.69219">
        <ele>518.8</ele>
        <time>2020-10-20T12:18:15Z</time>
      </trkpt>
      <trkpt lat="46.48917" lon="5.69224">
        <ele>518.9</ele>
        <time>2020-10-20T12:18:20Z</time>
      </trkpt>
      <trkpt lat="46.48912" lon="5.69228">
        <ele>519.3</ele>
        <time>2020-10-20T12:18:25Z</time>
      </trkpt>
      <trkpt lat="46.48907" lon="5.69231">
        <ele>519.7</ele>
        <time>2020-10-20T12:18:31Z</time>
      </trkpt>
      <trkpt lat="46.48903" lon="5.69234">
        <ele>519.7</ele>
        <time>2020-10-20T12:18:36Z</time>
      </trkpt>
      <trkpt lat="46.48899" lon="5.69236">
        <ele>520</ele>
        <time>2020-10-20T12:18:41Z</time>
      </trkpt>
      <trkpt lat="46.48894" lon="5.69238">
        <ele>520.2</ele>
        <time>2020-10-20T12:18:45Z</time>
      </trkpt>
      <trkpt lat="46.48889" lon="5.6924">
        <ele>520.6</ele>
        <time>2020-10-20T12:18:49Z</time>
      </trkpt>
      <trkpt lat="46.48885" lon="5.69241">
        <ele>520.9</ele>
        <time>2020-10-20T12:18:53Z</time>
      </trkpt>
      <trkpt lat="46.4888" lon="5.69242">
        <ele>521.1</ele>
        <time>2020-10-20T12:18:58Z</time>
      </trkpt>
      <trkpt lat="46.48875" lon="5.69243">
        <ele>521</ele>
        <time>2020-10-20T12:19:03Z</time>
      </trkpt>
      <trkpt lat="46.4887" lon="5.69245">
        <ele>520.7</ele>
        <time>2020-10-20T12:19:08Z</time>
      </trkpt>
      <trkpt lat="46.48865" lon="5.69246">
        <ele>520.4</ele>
        <time>2020-10-20T12:19:13Z</time>
      </trkpt>
      <trkpt lat="46.4886" lon="5.69247">
        <ele>520.2</ele>
        <time>2020-10-20T12:19:18Z</time>
      </trkpt>
      <trkpt lat="46.48855" lon="5.69247">
        <ele>520.4</ele>
        <time>2020-10-20T12:19:23Z</time>
      </trkpt>
      <trkpt lat="46.48851" lon="5.69246">
        <ele>521</ele>
        <time>2020-10-20T12:19:28Z</time>
      </trkpt>
      <trkpt lat="46.48846" lon="5.69247">
        <ele>521.2</ele>
        <time>2020-10-20T12:19:33Z</time>
      </trkpt>
      <trkpt lat="46.48842" lon="5.69247">
        <ele>521.4</ele>
        <time>2020-10-20T12:19:38Z</time>
      </trkpt>
      <trkpt lat="46.48836" lon="5.69247">
        <ele>522.2</ele>
        <time>2020-10-20T12:19:45Z</time>
      </trkpt>
      <trkpt lat="46.48832" lon="5.69248">
        <ele>522.8</ele>
        <time>2020-10-20T12:19:50Z</time>
      </trkpt>
      <trkpt lat="46.48827" lon="5.69248">
        <ele>523.3</ele>
        <time>2020-10-20T12:19:55Z</time>
      </trkpt>
      <trkpt lat="46.48822" lon="5.69247">
        <ele>523.5</ele>
        <time>2020-10-20T12:20:00Z</time>
      </trkpt>
      <trkpt lat="46.48816" lon="5.69246">
        <ele>523.5</ele>
        <time>2020-10-20T12:20:05Z</time>
      </trkpt>
      <trkpt lat="46.48811" lon="5.69247">
        <ele>524</ele>
        <time>2020-10-20T12:20:10Z</time>
      </trkpt>
      <trkpt lat="46.48806" lon="5.69247">
        <ele>524.4</ele>
        <time>2020-10-20T12:20:15Z</time>
      </trkpt>
      <trkpt lat="46.48802" lon="5.69247">
        <ele>524</ele>
        <time>2020-10-20T12:20:20Z</time>
      </trkpt>
      <trkpt lat="46.48797" lon="5.69248">
        <ele>523.9</ele>
        <time>2020-10-20T12:20:24Z</time>
      </trkpt>
      <trkpt lat="46.48792" lon="5.69248">
        <ele>523.3</ele>
        <time>2020-10-20T12:20:30Z</time>
      </trkpt>
      <trkpt lat="46.48787" lon="5.69248">
        <ele>521.9</ele>
        <time>2020-10-20T12:20:37Z</time>
      </trkpt>
      <trkpt lat="46.48782" lon="5.69249">
        <ele>521</ele>
        <time>2020-10-20T12:20:42Z</time>
      </trkpt>
      <trkpt lat="46.48778" lon="5.69249">
        <ele>520.1</ele>
        <time>2020-10-20T12:20:47Z</time>
      </trkpt>
      <trkpt lat="46.48772" lon="5.69248">
        <ele>519.3</ele>
        <time>2020-10-20T12:20:53Z</time>
      </trkpt>
      <trkpt lat="46.48768" lon="5.69248">
        <ele>519.1</ele>
        <time>2020-10-20T12:21:19Z</time>
      </trkpt>
      <trkpt lat="46.48764" lon="5.69244">
        <ele>520.3</ele>
        <time>2020-10-20T12:21:32Z</time>
      </trkpt>
      <trkpt lat="46.48759" lon="5.69244">
        <ele>520.9</ele>
        <time>2020-10-20T12:21:43Z</time>
      </trkpt>
      <trkpt lat="46.48754" lon="5.69245">
        <ele>521.4</ele>
        <time>2020-10-20T12:21:49Z</time>
      </trkpt>
      <trkpt lat="46.48748" lon="5.69248">
        <ele>521.1</ele>
        <time>2020-10-20T12:21:54Z</time>
      </trkpt>
      <trkpt lat="46.48744" lon="5.6925">
        <ele>520.9</ele>
        <time>2020-10-20T12:21:57Z</time>
      </trkpt>
      <trkpt lat="46.48739" lon="5.69251">
        <ele>520.9</ele>
        <time>2020-10-20T12:22:00Z</time>
      </trkpt>
      <trkpt lat="46.48735" lon="5.69254">
        <ele>520.8</ele>
        <time>2020-10-20T12:22:05Z</time>
      </trkpt>
      <trkpt lat="46.4873" lon="5.69257">
        <ele>518.8</ele>
        <time>2020-10-20T12:22:16Z</time>
      </trkpt>
      <trkpt lat="46.48725" lon="5.69256">
        <ele>518.1</ele>
        <time>2020-10-20T12:22:22Z</time>
      </trkpt>
      <trkpt lat="46.4872" lon="5.69256">
        <ele>517.9</ele>
        <time>2020-10-20T12:22:27Z</time>
      </trkpt>
      <trkpt lat="46.48716" lon="5.69257">
        <ele>517.8</ele>
        <time>2020-10-20T12:22:34Z</time>
      </trkpt>
      <trkpt lat="46.48711" lon="5.69258">
        <ele>517.7</ele>
        <time>2020-10-20T12:22:40Z</time>
      </trkpt>
      <trkpt lat="46.48705" lon="5.69258">
        <ele>518</ele>
        <time>2020-10-20T12:22:46Z</time>
      </trkpt>
      <trkpt lat="46.487" lon="5.69255">
        <ele>518.4</ele>
        <time>2020-10-20T12:22:51Z</time>
      </trkpt>
      <trkpt lat="46.48696" lon="5.69253">
        <ele>518.8</ele>
        <time>2020-10-20T12:22:55Z</time>
      </trkpt>
      <trkpt lat="46.48691" lon="5.69252">
        <ele>518.9</ele>
        <time>2020-10-20T12:23:00Z</time>
      </trkpt>
      <trkpt lat="46.48686" lon="5.6925">
        <ele>518.6</ele>
        <time>2020-10-20T12:23:05Z</time>
      </trkpt>
      <trkpt lat="46.48682" lon="5.69251">
        <ele>518.3</ele>
        <time>2020-10-20T12:23:09Z</time>
      </trkpt>
      <trkpt lat="46.48676" lon="5.69252">
        <ele>518.3</ele>
        <time>2020-10-20T12:23:15Z</time>
      </trkpt>
      <trkpt lat="46.48672" lon="5.69251">
        <ele>518.7</ele>
        <time>2020-10-20T12:23:20Z</time>
      </trkpt>
      <trkpt lat="46.48667" lon="5.69251">
        <ele>519</ele>
        <time>2020-10-20T12:23:25Z</time>
      </trkpt>
      <trkpt lat="46.48662" lon="5.69249">
        <ele>519.3</ele>
        <time>2020-10-20T12:23:31Z</time>
      </trkpt>
      <trkpt lat="46.48657" lon="5.69249">
        <ele>519.4</ele>
        <time>2020-10-20T12:23:36Z</time>
      </trkpt>
      <trkpt lat="46.48652" lon="5.69249">
        <ele>519.3</ele>
        <time>2020-10-20T12:23:41Z</time>
      </trkpt>
      <trkpt lat="46.48647" lon="5.6925">
        <ele>519.1</ele>
        <time>2020-10-20T12:23:46Z</time>
      </trkpt>
      <trkpt lat="46.48642" lon="5.6925">
        <ele>518.9</ele>
        <time>2020-10-20T12:23:52Z</time>
      </trkpt>
      <trkpt lat="46.48638" lon="5.69248">
        <ele>518.4</ele>
        <time>2020-10-20T12:23:58Z</time>
      </trkpt>
      <trkpt lat="46.48633" lon="5.69248">
        <ele>517.7</ele>
        <time>2020-10-20T12:24:03Z</time>
      </trkpt>
      <trkpt lat="46.48627" lon="5.69246">
        <ele>517.3</ele>
        <time>2020-10-20T12:24:08Z</time>
      </trkpt>
      <trkpt lat="46.48623" lon="5.69243">
        <ele>515.9</ele>
        <time>2020-10-20T12:24:17Z</time>
      </trkpt>
      <trkpt lat="46.48618" lon="5.69242">
        <ele>514.9</ele>
        <time>2020-10-20T12:24:25Z</time>
      </trkpt>
      <trkpt lat="46.48614" lon="5.69239">
        <ele>514.4</ele>
        <time>2020-10-20T12:24:29Z</time>
      </trkpt>
      <trkpt lat="46.48606" lon="5.69239">
        <ele>514.6</ele>
        <time>2020-10-20T12:24:31Z</time>
      </trkpt>
      <trkpt lat="46.486" lon="5.69239">
        <ele>514.8</ele>
        <time>2020-10-20T12:24:34Z</time>
      </trkpt>
      <trkpt lat="46.48596" lon="5.69235">
        <ele>514.7</ele>
        <time>2020-10-20T12:24:44Z</time>
      </trkpt>
      <trkpt lat="46.48591" lon="5.69237">
        <ele>513.9</ele>
        <time>2020-10-20T12:24:52Z</time>
      </trkpt>
      <trkpt lat="46.48587" lon="5.69239">
        <ele>513.1</ele>
        <time>2020-10-20T12:24:57Z</time>
      </trkpt>
      <trkpt lat="46.48582" lon="5.69239">
        <ele>512.2</ele>
        <time>2020-10-20T12:25:03Z</time>
      </trkpt>
      <trkpt lat="46.48577" lon="5.69238">
        <ele>511.2</ele>
        <time>2020-10-20T12:25:08Z</time>
      </trkpt>
      <trkpt lat="46.48572" lon="5.69238">
        <ele>510.3</ele>
        <time>2020-10-20T12:25:12Z</time>
      </trkpt>
      <trkpt lat="46.48567" lon="5.69237">
        <ele>509.7</ele>
        <time>2020-10-20T12:25:15Z</time>
      </trkpt>
      <trkpt lat="46.48562" lon="5.69236">
        <ele>509.2</ele>
        <time>2020-10-20T12:25:18Z</time>
      </trkpt>
      <trkpt lat="46.48557" lon="5.69236">
        <ele>508.7</ele>
        <time>2020-10-20T12:25:21Z</time>
      </trkpt>
      <trkpt lat="46.48552" lon="5.69237">
        <ele>508.1</ele>
        <time>2020-10-20T12:25:26Z</time>
      </trkpt>
      <trkpt lat="46.48548" lon="5.6924">
        <ele>507.4</ele>
        <time>2020-10-20T12:25:31Z</time>
      </trkpt>
      <trkpt lat="46.48543" lon="5.69243">
        <ele>507.1</ele>
        <time>2020-10-20T12:25:35Z</time>
      </trkpt>
      <trkpt lat="46.48539" lon="5.69245">
        <ele>506.9</ele>
        <time>2020-10-20T12:25:39Z</time>
      </trkpt>
      <trkpt lat="46.48534" lon="5.69246">
        <ele>506.6</ele>
        <time>2020-10-20T12:25:44Z</time>
      </trkpt>
      <trkpt lat="46.48529" lon="5.6925">
        <ele>505.5</ele>
        <time>2020-10-20T12:25:50Z</time>
      </trkpt>
      <trkpt lat="46.48526" lon="5.69254">
        <ele>504.1</ele>
        <time>2020-10-20T12:25:57Z</time>
      </trkpt>
      <trkpt lat="46.48521" lon="5.69252">
        <ele>502.6</ele>
        <time>2020-10-20T12:26:05Z</time>
      </trkpt>
      <trkpt lat="46.48516" lon="5.69251">
        <ele>502</ele>
        <time>2020-10-20T12:26:10Z</time>
      </trkpt>
      <trkpt lat="46.48511" lon="5.69249">
        <ele>501.8</ele>
        <time>2020-10-20T12:26:18Z</time>
      </trkpt>
      <trkpt lat="46.48506" lon="5.69248">
        <ele>502.2</ele>
        <time>2020-10-20T12:26:26Z</time>
      </trkpt>
      <trkpt lat="46.48502" lon="5.69248">
        <ele>499.8</ele>
        <time>2020-10-20T12:26:45Z</time>
      </trkpt>
      <trkpt lat="46.48497" lon="5.69251">
        <ele>499.7</ele>
        <time>2020-10-20T12:26:51Z</time>
      </trkpt>
      <trkpt lat="46.48493" lon="5.69252">
        <ele>499.6</ele>
        <time>2020-10-20T12:26:59Z</time>
      </trkpt>
      <trkpt lat="46.48488" lon="5.69257">
        <ele>499.5</ele>
        <time>2020-10-20T12:27:06Z</time>
      </trkpt>
      <trkpt lat="46.48484" lon="5.69259">
        <ele>499</ele>
        <time>2020-10-20T12:27:11Z</time>
      </trkpt>
      <trkpt lat="46.4848" lon="5.69264">
        <ele>498.7</ele>
        <time>2020-10-20T12:27:16Z</time>
      </trkpt>
      <trkpt lat="46.48476" lon="5.69269">
        <ele>498.9</ele>
        <time>2020-10-20T12:27:22Z</time>
      </trkpt>
      <trkpt lat="46.48473" lon="5.69275">
        <ele>499.2</ele>
        <time>2020-10-20T12:27:28Z</time>
      </trkpt>
      <trkpt lat="46.4847" lon="5.69281">
        <ele>499.5</ele>
        <time>2020-10-20T12:27:32Z</time>
      </trkpt>
      <trkpt lat="46.48465" lon="5.69284">
        <ele>499.5</ele>
        <time>2020-10-20T12:27:35Z</time>
      </trkpt>
      <trkpt lat="46.4846" lon="5.69287">
        <ele>499.4</ele>
        <time>2020-10-20T12:27:39Z</time>
      </trkpt>
      <trkpt lat="46.48455" lon="5.6929">
        <ele>499.8</ele>
        <time>2020-10-20T12:27:43Z</time>
      </trkpt>
      <trkpt lat="46.48452" lon="5.69294">
        <ele>500.2</ele>
        <time>2020-10-20T12:27:46Z</time>
      </trkpt>
      <trkpt lat="46.48447" lon="5.69298">
        <ele>499.9</ele>
        <time>2020-10-20T12:27:51Z</time>
      </trkpt>
      <trkpt lat="46.48443" lon="5.69302">
        <ele>498.9</ele>
        <time>2020-10-20T12:27:57Z</time>
      </trkpt>
      <trkpt lat="46.48439" lon="5.69306">
        <ele>498</ele>
        <time>2020-10-20T12:28:02Z</time>
      </trkpt>
      <trkpt lat="46.48433" lon="5.69309">
        <ele>497.4</ele>
        <time>2020-10-20T12:28:07Z</time>
      </trkpt>
      <trkpt lat="46.48429" lon="5.69309">
        <ele>497.1</ele>
        <time>2020-10-20T12:28:11Z</time>
      </trkpt>
      <trkpt lat="46.48424" lon="5.69308">
        <ele>497</ele>
        <time>2020-10-20T12:28:15Z</time>
      </trkpt>
      <trkpt lat="46.4842" lon="5.69305">
        <ele>497</ele>
        <time>2020-10-20T12:28:20Z</time>
      </trkpt>
      <trkpt lat="46.48415" lon="5.69305">
        <ele>497</ele>
        <time>2020-10-20T12:28:25Z</time>
      </trkpt>
      <trkpt lat="46.4841" lon="5.69306">
        <ele>496.8</ele>
        <time>2020-10-20T12:28:31Z</time>
      </trkpt>
      <trkpt lat="46.48406" lon="5.69307">
        <ele>496.9</ele>
        <time>2020-10-20T12:28:36Z</time>
      </trkpt>
      <trkpt lat="46.48401" lon="5.69309">
        <ele>495.8</ele>
        <time>2020-10-20T12:28:42Z</time>
      </trkpt>
      <trkpt lat="46.48396" lon="5.69312">
        <ele>493.2</ele>
        <time>2020-10-20T12:28:47Z</time>
      </trkpt>
      <trkpt lat="46.48392" lon="5.69316">
        <ele>490.1</ele>
        <time>2020-10-20T12:28:52Z</time>
      </trkpt>
      <trkpt lat="46.48387" lon="5.6932">
        <ele>487.1</ele>
        <time>2020-10-20T12:28:57Z</time>
      </trkpt>
      <trkpt lat="46.48382" lon="5.69321">
        <ele>483.4</ele>
        <time>2020-10-20T12:29:04Z</time>
      </trkpt>
      <trkpt lat="46.48377" lon="5.69323">
        <ele>481.8</ele>
        <time>2020-10-20T12:29:09Z</time>
      </trkpt>
      <trkpt lat="46.48372" lon="5.69326">
        <ele>481.4</ele>
        <time>2020-10-20T12:29:13Z</time>
      </trkpt>
      <trkpt lat="46.48367" lon="5.6933">
        <ele>481.4</ele>
        <time>2020-10-20T12:29:17Z</time>
      </trkpt>
      <trkpt lat="46.48363" lon="5.69331">
        <ele>481.8</ele>
        <time>2020-10-20T12:29:21Z</time>
      </trkpt>
      <trkpt lat="46.48358" lon="5.6933">
        <ele>483.3</ele>
        <time>2020-10-20T12:29:25Z</time>
      </trkpt>
      <trkpt lat="46.48353" lon="5.69327">
        <ele>486.1</ele>
        <time>2020-10-20T12:29:30Z</time>
      </trkpt>
      <trkpt lat="46.48349" lon="5.69323">
        <ele>488.8</ele>
        <time>2020-10-20T12:29:34Z</time>
      </trkpt>
      <trkpt lat="46.48345" lon="5.69318">
        <ele>491.4</ele>
        <time>2020-10-20T12:29:38Z</time>
      </trkpt>
      <trkpt lat="46.48341" lon="5.69311">
        <ele>493.8</ele>
        <time>2020-10-20T12:29:42Z</time>
      </trkpt>
      <trkpt lat="46.4834" lon="5.69305">
        <ele>495.8</ele>
        <time>2020-10-20T12:29:46Z</time>
      </trkpt>
      <trkpt lat="46.48338" lon="5.69299">
        <ele>497.6</ele>
        <time>2020-10-20T12:29:50Z</time>
      </trkpt>
      <trkpt lat="46.48336" lon="5.69292">
        <ele>499.3</ele>
        <time>2020-10-20T12:29:54Z</time>
      </trkpt>
      <trkpt lat="46.48332" lon="5.69287">
        <ele>500.8</ele>
        <time>2020-10-20T12:29:58Z</time>
      </trkpt>
      <trkpt lat="46.48329" lon="5.69282">
        <ele>502.3</ele>
        <time>2020-10-20T12:30:03Z</time>
      </trkpt>
      <trkpt lat="46.48327" lon="5.69276">
        <ele>503.8</ele>
        <time>2020-10-20T12:30:09Z</time>
      </trkpt>
      <trkpt lat="46.48325" lon="5.6927">
        <ele>504.9</ele>
        <time>2020-10-20T12:30:14Z</time>
      </trkpt>
      <trkpt lat="46.48324" lon="5.69263">
        <ele>505.8</ele>
        <time>2020-10-20T12:30:19Z</time>
      </trkpt>
      <trkpt lat="46.48321" lon="5.69256">
        <ele>506.4</ele>
        <time>2020-10-20T12:30:24Z</time>
      </trkpt>
      <trkpt lat="46.48318" lon="5.69251">
        <ele>506.4</ele>
        <time>2020-10-20T12:30:29Z</time>
      </trkpt>
      <trkpt lat="46.48317" lon="5.69244">
        <ele>506.3</ele>
        <time>2020-10-20T12:30:34Z</time>
      </trkpt>
      <trkpt lat="46.4832" lon="5.6924">
        <ele>505.8</ele>
        <time>2020-10-20T12:30:41Z</time>
      </trkpt>
      <trkpt lat="46.48317" lon="5.69234">
        <ele>502.6</ele>
        <time>2020-10-20T12:31:17Z</time>
      </trkpt>
      <trkpt lat="46.48315" lon="5.69228">
        <ele>499.6</ele>
        <time>2020-10-20T12:31:24Z</time>
      </trkpt>
      <trkpt lat="46.48313" lon="5.69222">
        <ele>497.8</ele>
        <time>2020-10-20T12:31:30Z</time>
      </trkpt>
      <trkpt lat="46.48311" lon="5.69215">
        <ele>496.9</ele>
        <time>2020-10-20T12:31:35Z</time>
      </trkpt>
      <trkpt lat="46.48309" lon="5.69209">
        <ele>495.9</ele>
        <time>2020-10-20T12:31:41Z</time>
      </trkpt>
      <trkpt lat="46.48307" lon="5.69203">
        <ele>494.2</ele>
        <time>2020-10-20T12:31:46Z</time>
      </trkpt>
      <trkpt lat="46.48304" lon="5.69197">
        <ele>493.6</ele>
        <time>2020-10-20T12:31:50Z</time>
      </trkpt>
      <trkpt lat="46.48303" lon="5.6919">
        <ele>493.6</ele>
        <time>2020-10-20T12:31:54Z</time>
      </trkpt>
      <trkpt lat="46.48301" lon="5.69183">
        <ele>494.3</ele>
        <time>2020-10-20T12:31:58Z</time>
      </trkpt>
      <trkpt lat="46.48299" lon="5.69175">
        <ele>496</ele>
        <time>2020-10-20T12:32:02Z</time>
      </trkpt>
      <trkpt lat="46.48299" lon="5.69169">
        <ele>497.2</ele>
        <time>2020-10-20T12:32:05Z</time>
      </trkpt>
      <trkpt lat="46.48299" lon="5.69162">
        <ele>498.3</ele>
        <time>2020-10-20T12:32:08Z</time>
      </trkpt>
      <trkpt lat="46.48299" lon="5.69154">
        <ele>499.4</ele>
        <time>2020-10-20T12:32:12Z</time>
      </trkpt>
      <trkpt lat="46.48299" lon="5.69147">
        <ele>499.5</ele>
        <time>2020-10-20T12:32:16Z</time>
      </trkpt>
      <trkpt lat="46.48299" lon="5.69139">
        <ele>499.5</ele>
        <time>2020-10-20T12:32:21Z</time>
      </trkpt>
      <trkpt lat="46.48298" lon="5.69132">
        <ele>499.1</ele>
        <time>2020-10-20T12:32:26Z</time>
      </trkpt>
      <trkpt lat="46.48296" lon="5.69125">
        <ele>498.2</ele>
        <time>2020-10-20T12:32:31Z</time>
      </trkpt>
      <trkpt lat="46.48294" lon="5.69118">
        <ele>497.3</ele>
        <time>2020-10-20T12:32:36Z</time>
      </trkpt>
      <trkpt lat="46.48291" lon="5.69111">
        <ele>496.6</ele>
        <time>2020-10-20T12:32:41Z</time>
      </trkpt>
      <trkpt lat="46.48289" lon="5.69104">
        <ele>495.8</ele>
        <time>2020-10-20T12:32:46Z</time>
      </trkpt>
      <trkpt lat="46.48286" lon="5.69098">
        <ele>495.1</ele>
        <time>2020-10-20T12:32:51Z</time>
      </trkpt>
      <trkpt lat="46.48283" lon="5.69094">
        <ele>494.5</ele>
        <time>2020-10-20T12:32:55Z</time>
      </trkpt>
      <trkpt lat="46.48278" lon="5.69092">
        <ele>493.9</ele>
        <time>2020-10-20T12:33:00Z</time>
      </trkpt>
      <trkpt lat="46.48273" lon="5.6909">
        <ele>493</ele>
        <time>2020-10-20T12:33:05Z</time>
      </trkpt>
      <trkpt lat="46.48268" lon="5.69088">
        <ele>492.2</ele>
        <time>2020-10-20T12:33:10Z</time>
      </trkpt>
      <trkpt lat="46.48263" lon="5.69087">
        <ele>491.8</ele>
        <time>2020-10-20T12:33:17Z</time>
      </trkpt>
      <trkpt lat="46.48258" lon="5.69087">
        <ele>491.6</ele>
        <time>2020-10-20T12:33:22Z</time>
      </trkpt>
      <trkpt lat="46.48253" lon="5.69087">
        <ele>491.5</ele>
        <time>2020-10-20T12:33:26Z</time>
      </trkpt>
      <trkpt lat="46.48249" lon="5.69089">
        <ele>491.3</ele>
        <time>2020-10-20T12:33:30Z</time>
      </trkpt>
      <trkpt lat="46.48243" lon="5.6909">
        <ele>491.2</ele>
        <time>2020-10-20T12:33:35Z</time>
      </trkpt>
      <trkpt lat="46.48239" lon="5.6909">
        <ele>491.1</ele>
        <time>2020-10-20T12:33:39Z</time>
      </trkpt>
      <trkpt lat="46.48233" lon="5.69089">
        <ele>490.7</ele>
        <time>2020-10-20T12:33:44Z</time>
      </trkpt>
      <trkpt lat="46.48229" lon="5.69085">
        <ele>489.6</ele>
        <time>2020-10-20T12:33:51Z</time>
      </trkpt>
      <trkpt lat="46.48225" lon="5.69082">
        <ele>488.8</ele>
        <time>2020-10-20T12:33:58Z</time>
      </trkpt>
      <trkpt lat="46.4822" lon="5.69078">
        <ele>488.1</ele>
        <time>2020-10-20T12:34:03Z</time>
      </trkpt>
      <trkpt lat="46.48216" lon="5.69074">
        <ele>487.1</ele>
        <time>2020-10-20T12:34:08Z</time>
      </trkpt>
      <trkpt lat="46.48211" lon="5.69069">
        <ele>486.4</ele>
        <time>2020-10-20T12:34:13Z</time>
      </trkpt>
      <trkpt lat="46.48207" lon="5.69066">
        <ele>485.9</ele>
        <time>2020-10-20T12:34:18Z</time>
      </trkpt>
      <trkpt lat="46.48204" lon="5.69062">
        <ele>485.4</ele>
        <time>2020-10-20T12:34:23Z</time>
      </trkpt>
      <trkpt lat="46.48199" lon="5.69058">
        <ele>485.2</ele>
        <time>2020-10-20T12:34:27Z</time>
      </trkpt>
      <trkpt lat="46.48194" lon="5.69055">
        <ele>485.2</ele>
        <time>2020-10-20T12:34:31Z</time>
      </trkpt>
      <trkpt lat="46.4819" lon="5.69051">
        <ele>485.2</ele>
        <time>2020-10-20T12:34:35Z</time>
      </trkpt>
      <trkpt lat="46.48185" lon="5.69048">
        <ele>485.1</ele>
        <time>2020-10-20T12:34:40Z</time>
      </trkpt>
      <trkpt lat="46.4818" lon="5.69045">
        <ele>484.8</ele>
        <time>2020-10-20T12:34:45Z</time>
      </trkpt>
      <trkpt lat="46.48176" lon="5.69043">
        <ele>484.6</ele>
        <time>2020-10-20T12:34:49Z</time>
      </trkpt>
      <trkpt lat="46.48171" lon="5.6904">
        <ele>484.6</ele>
        <time>2020-10-20T12:34:53Z</time>
      </trkpt>
      <trkpt lat="46.48166" lon="5.69037">
        <ele>484.9</ele>
        <time>2020-10-20T12:34:57Z</time>
      </trkpt>
      <trkpt lat="46.48163" lon="5.69033">
        <ele>485.5</ele>
        <time>2020-10-20T12:35:03Z</time>
      </trkpt>
      <trkpt lat="46.48159" lon="5.69029">
        <ele>486</ele>
        <time>2020-10-20T12:35:12Z</time>
      </trkpt>
      <trkpt lat="46.48155" lon="5.69025">
        <ele>485.6</ele>
        <time>2020-10-20T12:35:21Z</time>
      </trkpt>
      <trkpt lat="46.4815" lon="5.69022">
        <ele>485.6</ele>
        <time>2020-10-20T12:35:29Z</time>
      </trkpt>
      <trkpt lat="46.48145" lon="5.69019">
        <ele>487.5</ele>
        <time>2020-10-20T12:35:57Z</time>
      </trkpt>
      <trkpt lat="46.4814" lon="5.69017">
        <ele>488.4</ele>
        <time>2020-10-20T12:36:00Z</time>
      </trkpt>
      <trkpt lat="46.48136" lon="5.6902">
        <ele>489</ele>
        <time>2020-10-20T12:36:04Z</time>
      </trkpt>
      <trkpt lat="46.48132" lon="5.69023">
        <ele>487.7</ele>
        <time>2020-10-20T12:36:11Z</time>
      </trkpt>
      <trkpt lat="46.48127" lon="5.69025">
        <ele>484.9</ele>
        <time>2020-10-20T12:36:22Z</time>
      </trkpt>
      <trkpt lat="46.48122" lon="5.69028">
        <ele>484.3</ele>
        <time>2020-10-20T12:36:28Z</time>
      </trkpt>
      <trkpt lat="46.48119" lon="5.69032">
        <ele>485.6</ele>
        <time>2020-10-20T12:36:41Z</time>
      </trkpt>
      <trkpt lat="46.48114" lon="5.69034">
        <ele>487.4</ele>
        <time>2020-10-20T12:36:47Z</time>
      </trkpt>
      <trkpt lat="46.48109" lon="5.69036">
        <ele>488.9</ele>
        <time>2020-10-20T12:36:52Z</time>
      </trkpt>
      <trkpt lat="46.48105" lon="5.6904">
        <ele>490.7</ele>
        <time>2020-10-20T12:36:58Z</time>
      </trkpt>
      <trkpt lat="46.481" lon="5.69044">
        <ele>492.5</ele>
        <time>2020-10-20T12:37:04Z</time>
      </trkpt>
      <trkpt lat="46.48092" lon="5.69048">
        <ele>494</ele>
        <time>2020-10-20T12:37:19Z</time>
      </trkpt>
      <trkpt lat="46.48086" lon="5.6905">
        <ele>494.1</ele>
        <time>2020-10-20T12:37:22Z</time>
      </trkpt>
      <trkpt lat="46.48081" lon="5.69051">
        <ele>494.4</ele>
        <time>2020-10-20T12:37:28Z</time>
      </trkpt>
      <trkpt lat="46.48076" lon="5.69053">
        <ele>494.7</ele>
        <time>2020-10-20T12:37:34Z</time>
      </trkpt>
      <trkpt lat="46.48072" lon="5.69056">
        <ele>494.6</ele>
        <time>2020-10-20T12:37:41Z</time>
      </trkpt>
      <trkpt lat="46.48067" lon="5.69057">
        <ele>494.7</ele>
        <time>2020-10-20T12:37:47Z</time>
      </trkpt>
      <trkpt lat="46.48063" lon="5.69059">
        <ele>495.1</ele>
        <time>2020-10-20T12:37:53Z</time>
      </trkpt>
      <trkpt lat="46.48058" lon="5.69062">
        <ele>495.5</ele>
        <time>2020-10-20T12:37:58Z</time>
      </trkpt>
      <trkpt lat="46.48053" lon="5.69065">
        <ele>495.8</ele>
        <time>2020-10-20T12:38:02Z</time>
      </trkpt>
      <trkpt lat="46.48049" lon="5.69067">
        <ele>496.3</ele>
        <time>2020-10-20T12:38:06Z</time>
      </trkpt>
      <trkpt lat="46.48043" lon="5.69068">
        <ele>497.3</ele>
        <time>2020-10-20T12:38:11Z</time>
      </trkpt>
      <trkpt lat="46.48039" lon="5.6907">
        <ele>498.9</ele>
        <time>2020-10-20T12:38:18Z</time>
      </trkpt>
      <trkpt lat="46.48034" lon="5.69072">
        <ele>500</ele>
        <time>2020-10-20T12:38:24Z</time>
      </trkpt>
      <trkpt lat="46.4803" lon="5.69072">
        <ele>500.6</ele>
        <time>2020-10-20T12:38:36Z</time>
      </trkpt>
      <trkpt lat="46.48024" lon="5.69074">
        <ele>500.9</ele>
        <time>2020-10-20T12:38:45Z</time>
      </trkpt>
      <trkpt lat="46.48019" lon="5.69076">
        <ele>501.3</ele>
        <time>2020-10-20T12:38:50Z</time>
      </trkpt>
      <trkpt lat="46.48014" lon="5.69077">
        <ele>501.6</ele>
        <time>2020-10-20T12:38:54Z</time>
      </trkpt>
      <trkpt lat="46.4801" lon="5.69076">
        <ele>501.5</ele>
        <time>2020-10-20T12:38:58Z</time>
      </trkpt>
      <trkpt lat="46.48005" lon="5.69075">
        <ele>501.7</ele>
        <time>2020-10-20T12:39:03Z</time>
      </trkpt>
      <trkpt lat="46.48" lon="5.69072">
        <ele>501.8</ele>
        <time>2020-10-20T12:39:09Z</time>
      </trkpt>
      <trkpt lat="46.47996" lon="5.69068">
        <ele>502.5</ele>
        <time>2020-10-20T12:39:16Z</time>
      </trkpt>
      <trkpt lat="46.47991" lon="5.69066">
        <ele>503.4</ele>
        <time>2020-10-20T12:39:21Z</time>
      </trkpt>
      <trkpt lat="46.47986" lon="5.69065">
        <ele>504.4</ele>
        <time>2020-10-20T12:39:25Z</time>
      </trkpt>
      <trkpt lat="46.47981" lon="5.69065">
        <ele>505.8</ele>
        <time>2020-10-20T12:39:30Z</time>
      </trkpt>
      <trkpt lat="46.47976" lon="5.69063">
        <ele>508</ele>
        <time>2020-10-20T12:39:39Z</time>
      </trkpt>
      <trkpt lat="46.47972" lon="5.69059">
        <ele>510</ele>
        <time>2020-10-20T12:39:47Z</time>
      </trkpt>
      <trkpt lat="46.4797" lon="5.69053">
        <ele>511.2</ele>
        <time>2020-10-20T12:39:55Z</time>
      </trkpt>
      <trkpt lat="46.47968" lon="5.69047">
        <ele>511.8</ele>
        <time>2020-10-20T12:40:01Z</time>
      </trkpt>
      <trkpt lat="46.47968" lon="5.6904">
        <ele>511.7</ele>
        <time>2020-10-20T12:40:07Z</time>
      </trkpt>
      <trkpt lat="46.47968" lon="5.69032">
        <ele>511.3</ele>
        <time>2020-10-20T12:40:13Z</time>
      </trkpt>
      <trkpt lat="46.47969" lon="5.69025">
        <ele>510.4</ele>
        <time>2020-10-20T12:40:22Z</time>
      </trkpt>
      <trkpt lat="46.4797" lon="5.69018">
        <ele>509.4</ele>
        <time>2020-10-20T12:40:28Z</time>
      </trkpt>
      <trkpt lat="46.47969" lon="5.69012">
        <ele>508.4</ele>
        <time>2020-10-20T12:40:33Z</time>
      </trkpt>
      <trkpt lat="46.47971" lon="5.69005">
        <ele>507</ele>
        <time>2020-10-20T12:40:39Z</time>
      </trkpt>
      <trkpt lat="46.47972" lon="5.68998">
        <ele>506.1</ele>
        <time>2020-10-20T12:40:46Z</time>
      </trkpt>
      <trkpt lat="46.47972" lon="5.68991">
        <ele>506.1</ele>
        <time>2020-10-20T12:40:53Z</time>
      </trkpt>
      <trkpt lat="46.47973" lon="5.68985">
        <ele>506.3</ele>
        <time>2020-10-20T12:40:58Z</time>
      </trkpt>
      <trkpt lat="46.47976" lon="5.6898">
        <ele>506.2</ele>
        <time>2020-10-20T12:41:03Z</time>
      </trkpt>
      <trkpt lat="46.47978" lon="5.68973">
        <ele>506.5</ele>
        <time>2020-10-20T12:41:08Z</time>
      </trkpt>
      <trkpt lat="46.47978" lon="5.68966">
        <ele>507.2</ele>
        <time>2020-10-20T12:41:12Z</time>
      </trkpt>
      <trkpt lat="46.47978" lon="5.68958">
        <ele>507.7</ele>
        <time>2020-10-20T12:41:17Z</time>
      </trkpt>
      <trkpt lat="46.47978" lon="5.68951">
        <ele>508</ele>
        <time>2020-10-20T12:41:21Z</time>
      </trkpt>
      <trkpt lat="46.47976" lon="5.68944">
        <ele>508.5</ele>
        <time>2020-10-20T12:41:24Z</time>
      </trkpt>
      <trkpt lat="46.47975" lon="5.68937">
        <ele>509.2</ele>
        <time>2020-10-20T12:41:28Z</time>
      </trkpt>
      <trkpt lat="46.47974" lon="5.68931">
        <ele>510.2</ele>
        <time>2020-10-20T12:41:32Z</time>
      </trkpt>
      <trkpt lat="46.47972" lon="5.68923">
        <ele>511.4</ele>
        <time>2020-10-20T12:41:37Z</time>
      </trkpt>
      <trkpt lat="46.4797" lon="5.68916">
        <ele>512.6</ele>
        <time>2020-10-20T12:41:41Z</time>
      </trkpt>
      <trkpt lat="46.47969" lon="5.6891">
        <ele>513.7</ele>
        <time>2020-10-20T12:41:45Z</time>
      </trkpt>
      <trkpt lat="46.47967" lon="5.68903">
        <ele>515.1</ele>
        <time>2020-10-20T12:41:50Z</time>
      </trkpt>
      <trkpt lat="46.47965" lon="5.68895">
        <ele>516.6</ele>
        <time>2020-10-20T12:41:55Z</time>
      </trkpt>
      <trkpt lat="46.47962" lon="5.68889">
        <ele>517.4</ele>
        <time>2020-10-20T12:42:00Z</time>
      </trkpt>
      <trkpt lat="46.47958" lon="5.68884">
        <ele>517.9</ele>
        <time>2020-10-20T12:42:05Z</time>
      </trkpt>
      <trkpt lat="46.47953" lon="5.68881">
        <ele>518.3</ele>
        <time>2020-10-20T12:42:10Z</time>
      </trkpt>
      <trkpt lat="46.47948" lon="5.68879">
        <ele>518.9</ele>
        <time>2020-10-20T12:42:14Z</time>
      </trkpt>
      <trkpt lat="46.47943" lon="5.68877">
        <ele>519.7</ele>
        <time>2020-10-20T12:42:19Z</time>
      </trkpt>
      <trkpt lat="46.47938" lon="5.68874">
        <ele>520.3</ele>
        <time>2020-10-20T12:42:23Z</time>
      </trkpt>
      <trkpt lat="46.47934" lon="5.68872">
        <ele>520.8</ele>
        <time>2020-10-20T12:42:27Z</time>
      </trkpt>
      <trkpt lat="46.4793" lon="5.68869">
        <ele>521.1</ele>
        <time>2020-10-20T12:42:31Z</time>
      </trkpt>
      <trkpt lat="46.47925" lon="5.68866">
        <ele>521.2</ele>
        <time>2020-10-20T12:42:36Z</time>
      </trkpt>
      <trkpt lat="46.4792" lon="5.68864">
        <ele>521.5</ele>
        <time>2020-10-20T12:42:45Z</time>
      </trkpt>
      <trkpt lat="46.47919" lon="5.68857">
        <ele>523.7</ele>
        <time>2020-10-20T12:43:09Z</time>
      </trkpt>
      <trkpt lat="46.47917" lon="5.6885">
        <ele>522.5</ele>
        <time>2020-10-20T12:43:13Z</time>
      </trkpt>
      <trkpt lat="46.47916" lon="5.68844">
        <ele>521.8</ele>
        <time>2020-10-20T12:43:18Z</time>
      </trkpt>
      <trkpt lat="46.47914" lon="5.68836">
        <ele>521.9</ele>
        <time>2020-10-20T12:43:22Z</time>
      </trkpt>
      <trkpt lat="46.47912" lon="5.68829">
        <ele>522.3</ele>
        <time>2020-10-20T12:43:26Z</time>
      </trkpt>
      <trkpt lat="46.47911" lon="5.68822">
        <ele>523</ele>
        <time>2020-10-20T12:43:30Z</time>
      </trkpt>
      <trkpt lat="46.4791" lon="5.68815">
        <ele>524.1</ele>
        <time>2020-10-20T12:43:34Z</time>
      </trkpt>
      <trkpt lat="46.47912" lon="5.68808">
        <ele>525.2</ele>
        <time>2020-10-20T12:43:39Z</time>
      </trkpt>
      <trkpt lat="46.47916" lon="5.68807">
        <ele>525.7</ele>
        <time>2020-10-20T12:43:45Z</time>
      </trkpt>
      <trkpt lat="46.4792" lon="5.68802">
        <ele>524.5</ele>
        <time>2020-10-20T12:43:54Z</time>
      </trkpt>
      <trkpt lat="46.47918" lon="5.68795">
        <ele>523.3</ele>
        <time>2020-10-20T12:44:01Z</time>
      </trkpt>
      <trkpt lat="46.47919" lon="5.68788">
        <ele>522.9</ele>
        <time>2020-10-20T12:44:09Z</time>
      </trkpt>
      <trkpt lat="46.47915" lon="5.68783">
        <ele>522.5</ele>
        <time>2020-10-20T12:44:16Z</time>
      </trkpt>
      <trkpt lat="46.47911" lon="5.68781">
        <ele>522.1</ele>
        <time>2020-10-20T12:44:23Z</time>
      </trkpt>
      <trkpt lat="46.4791" lon="5.68774">
        <ele>521.5</ele>
        <time>2020-10-20T12:44:35Z</time>
      </trkpt>
      <trkpt lat="46.47905" lon="5.68776">
        <ele>521.2</ele>
        <time>2020-10-20T12:44:45Z</time>
      </trkpt>
      <trkpt lat="46.47901" lon="5.68779">
        <ele>521.4</ele>
        <time>2020-10-20T12:44:51Z</time>
      </trkpt>
      <trkpt lat="46.47897" lon="5.68783">
        <ele>521.3</ele>
        <time>2020-10-20T12:45:01Z</time>
      </trkpt>
      <trkpt lat="46.47892" lon="5.68782">
        <ele>520.5</ele>
        <time>2020-10-20T12:45:08Z</time>
      </trkpt>
      <trkpt lat="46.47887" lon="5.68782">
        <ele>520</ele>
        <time>2020-10-20T12:45:13Z</time>
      </trkpt>
      <trkpt lat="46.47883" lon="5.68778">
        <ele>518.7</ele>
        <time>2020-10-20T12:45:21Z</time>
      </trkpt>
      <trkpt lat="46.47878" lon="5.68781">
        <ele>517.2</ele>
        <time>2020-10-20T12:45:34Z</time>
      </trkpt>
      <trkpt lat="46.47874" lon="5.68777">
        <ele>516.7</ele>
        <time>2020-10-20T12:45:39Z</time>
      </trkpt>
      <trkpt lat="46.47872" lon="5.6877">
        <ele>516.4</ele>
        <time>2020-10-20T12:45:45Z</time>
      </trkpt>
      <trkpt lat="46.47871" lon="5.68764">
        <ele>516.5</ele>
        <time>2020-10-20T12:45:49Z</time>
      </trkpt>
      <trkpt lat="46.47868" lon="5.68758">
        <ele>516.8</ele>
        <time>2020-10-20T12:45:55Z</time>
      </trkpt>
      <trkpt lat="46.47864" lon="5.68755">
        <ele>516.8</ele>
        <time>2020-10-20T12:46:00Z</time>
      </trkpt>
      <trkpt lat="46.47859" lon="5.68753">
        <ele>516.8</ele>
        <time>2020-10-20T12:46:05Z</time>
      </trkpt>
      <trkpt lat="46.47855" lon="5.68751">
        <ele>517</ele>
        <time>2020-10-20T12:46:11Z</time>
      </trkpt>
      <trkpt lat="46.47851" lon="5.68747">
        <ele>517.4</ele>
        <time>2020-10-20T12:46:16Z</time>
      </trkpt>
      <trkpt lat="46.47846" lon="5.68744">
        <ele>517.9</ele>
        <time>2020-10-20T12:46:21Z</time>
      </trkpt>
      <trkpt lat="46.47843" lon="5.68738">
        <ele>518.9</ele>
        <time>2020-10-20T12:46:27Z</time>
      </trkpt>
      <trkpt lat="46.47842" lon="5.68731">
        <ele>520.2</ele>
        <time>2020-10-20T12:46:33Z</time>
      </trkpt>
      <trkpt lat="46.47839" lon="5.68725">
        <ele>521.1</ele>
        <time>2020-10-20T12:46:38Z</time>
      </trkpt>
      <trkpt lat="46.47836" lon="5.68719">
        <ele>521.7</ele>
        <time>2020-10-20T12:46:42Z</time>
      </trkpt>
      <trkpt lat="46.47835" lon="5.68713">
        <ele>522.2</ele>
        <time>2020-10-20T12:46:46Z</time>
      </trkpt>
      <trkpt lat="46.47833" lon="5.68706">
        <ele>522.6</ele>
        <time>2020-10-20T12:46:51Z</time>
      </trkpt>
      <trkpt lat="46.47831" lon="5.68699">
        <ele>522.7</ele>
        <time>2020-10-20T12:46:56Z</time>
      </trkpt>
      <trkpt lat="46.4783" lon="5.68692">
        <ele>522.4</ele>
        <time>2020-10-20T12:47:01Z</time>
      </trkpt>
      <trkpt lat="46.47833" lon="5.68685">
        <ele>521.6</ele>
        <time>2020-10-20T12:47:08Z</time>
      </trkpt>
      <trkpt lat="46.47837" lon="5.6868">
        <ele>521.1</ele>
        <time>2020-10-20T12:47:13Z</time>
      </trkpt>
      <trkpt lat="46.47841" lon="5.68676">
        <ele>520.6</ele>
        <time>2020-10-20T12:47:18Z</time>
      </trkpt>
      <trkpt lat="46.47845" lon="5.68672">
        <ele>520.3</ele>
        <time>2020-10-20T12:47:24Z</time>
      </trkpt>
      <trkpt lat="46.47844" lon="5.68665">
        <ele>519.9</ele>
        <time>2020-10-20T12:47:32Z</time>
      </trkpt>
      <trkpt lat="46.47837" lon="5.68658">
        <ele>522</ele>
        <time>2020-10-20T12:47:37Z</time>
      </trkpt>
      <trkpt lat="46.47833" lon="5.68654">
        <ele>523.5</ele>
        <time>2020-10-20T12:47:40Z</time>
      </trkpt>
      <trkpt lat="46.47829" lon="5.68649">
        <ele>525.3</ele>
        <time>2020-10-20T12:47:45Z</time>
      </trkpt>
      <trkpt lat="46.47826" lon="5.68644">
        <ele>526.2</ele>
        <time>2020-10-20T12:47:51Z</time>
      </trkpt>
      <trkpt lat="46.47823" lon="5.68638">
        <ele>526.3</ele>
        <time>2020-10-20T12:47:56Z</time>
      </trkpt>
      <trkpt lat="46.47821" lon="5.68631">
        <ele>526.1</ele>
        <time>2020-10-20T12:48:01Z</time>
      </trkpt>
      <trkpt lat="46.47817" lon="5.68626">
        <ele>525.6</ele>
        <time>2020-10-20T12:48:06Z</time>
      </trkpt>
      <trkpt lat="46.47814" lon="5.68619">
        <ele>525.2</ele>
        <time>2020-10-20T12:48:11Z</time>
      </trkpt>
      <trkpt lat="46.4781" lon="5.68613">
        <ele>524.7</ele>
        <time>2020-10-20T12:48:16Z</time>
      </trkpt>
      <trkpt lat="46.47807" lon="5.68609">
        <ele>524.7</ele>
        <time>2020-10-20T12:48:23Z</time>
      </trkpt>
      <trkpt lat="46.47804" lon="5.68603">
        <ele>524.9</ele>
        <time>2020-10-20T12:48:28Z</time>
      </trkpt>
      <trkpt lat="46.47803" lon="5.68596">
        <ele>525.2</ele>
        <time>2020-10-20T12:48:33Z</time>
      </trkpt>
      <trkpt lat="46.47801" lon="5.6859">
        <ele>525.7</ele>
        <time>2020-10-20T12:48:38Z</time>
      </trkpt>
      <trkpt lat="46.478" lon="5.68583">
        <ele>526.3</ele>
        <time>2020-10-20T12:48:43Z</time>
      </trkpt>
      <trkpt lat="46.47801" lon="5.68575">
        <ele>526.7</ele>
        <time>2020-10-20T12:48:48Z</time>
      </trkpt>
      <trkpt lat="46.47801" lon="5.68569">
        <ele>526.9</ele>
        <time>2020-10-20T12:48:52Z</time>
      </trkpt>
      <trkpt lat="46.47802" lon="5.68561">
        <ele>527</ele>
        <time>2020-10-20T12:48:57Z</time>
      </trkpt>
      <trkpt lat="46.47803" lon="5.68555">
        <ele>527.1</ele>
        <time>2020-10-20T12:49:13Z</time>
      </trkpt>
      <trkpt lat="46.47804" lon="5.68548">
        <ele>527.1</ele>
        <time>2020-10-20T12:49:27Z</time>
      </trkpt>
      <trkpt lat="46.47805" lon="5.68541">
        <ele>527.5</ele>
        <time>2020-10-20T12:50:25Z</time>
      </trkpt>
    </trkseg>
  </trk>
</gpx>